<?xml version='1.0' encoding='UTF-8'?><gpx version="1.1" creator="JPX - https://github.com/jenetics/jpx" xmlns="http://www.topografix.com/GPX/1/1"><trk><trkseg><trkpt lat="43.3759083" lon="11.7879983"><ele>271.99999999999994</ele><time>2026-04-07T14:48:59.844Z</time></trkpt><trkpt lat="43.3759678" lon="11.78797"><ele>272.0</ele><time>2026-04-07T14:49:07.076Z</time></trkpt><trkpt lat="43.3759851" lon="11.7878811"><ele>272.0</ele><time>2026-04-07T14:50:54.033Z</time></trkpt><trkpt lat="43.3759431" lon="11.7878088"><ele>272.0</ele><time>2026-04-07T14:50:58.941Z</time></trkpt><trkpt lat="43.3758801" lon="11.7877688"><ele>272.0</ele><time>2026-04-07T14:51:06.091Z</time></trkpt><trkpt lat="43.3758082" lon="11.7877433"><ele>271.99999999999994</ele><time>2026-04-07T14:51:13.003Z</time></trkpt><trkpt lat="43.375746" lon="11.7877265"><ele>272.0</ele><time>2026-04-07T14:51:19.034Z</time></trkpt><trkpt lat="43.3756782" lon="11.7876965"><ele>272.1428571428571</ele><time>2026-04-07T14:51:25.086Z</time></trkpt><trkpt lat="43.375612" lon="11.7876617"><ele>272.2857142857143</ele><time>2026-04-07T14:51:31.066Z</time></trkpt><trkpt lat="43.3755599" lon="11.7875961"><ele>272.42857142857144</ele><time>2026-04-07T14:51:38.033Z</time></trkpt><trkpt lat="43.3754967" lon="11.7876183"><ele>272.57142857142856</ele><time>2026-04-07T14:52:28.966Z</time></trkpt><trkpt lat="43.375435" lon="11.78755"><ele>272.7142857142857</ele><time>2026-04-07T14:52:58.965Z</time></trkpt><trkpt lat="43.3754433" lon="11.78746"><ele>272.85714285714283</ele><time>2026-04-07T14:53:01.968Z</time></trkpt><trkpt lat="43.375445" lon="11.787355"><ele>273.0</ele><time>2026-04-07T14:53:04.963Z</time></trkpt><trkpt lat="43.3754433" lon="11.787255"><ele>273.2857142857143</ele><time>2026-04-07T14:53:07.966Z</time></trkpt><trkpt lat="43.3754433" lon="11.7871467"><ele>273.57142857142856</ele><time>2026-04-07T14:53:10.963Z</time></trkpt><trkpt lat="43.3754367" lon="11.7870383"><ele>273.8571428571429</ele><time>2026-04-07T14:53:13.963Z</time></trkpt><trkpt lat="43.3754283" lon="11.7869317"><ele>274.1428571428571</ele><time>2026-04-07T14:53:16.966Z</time></trkpt><trkpt lat="43.3754233" lon="11.7868333"><ele>274.42857142857144</ele><time>2026-04-07T14:53:19.964Z</time></trkpt><trkpt lat="43.3754283" lon="11.7867433"><ele>274.7142857142857</ele><time>2026-04-07T14:53:22.967Z</time></trkpt><trkpt lat="43.37544" lon="11.7866467"><ele>275.0</ele><time>2026-04-07T14:53:26.968Z</time></trkpt><trkpt lat="43.3754817" lon="11.7865783"><ele>274.6666666666667</ele><time>2026-04-07T14:53:29.967Z</time></trkpt><trkpt lat="43.37554" lon="11.7865167"><ele>274.33333333333337</ele><time>2026-04-07T14:53:32.964Z</time></trkpt><trkpt lat="43.37561" lon="11.7864367"><ele>274.0</ele><time>2026-04-07T14:53:35.967Z</time></trkpt><trkpt lat="43.375675" lon="11.7863617"><ele>273.6666666666667</ele><time>2026-04-07T14:53:38.965Z</time></trkpt><trkpt lat="43.3757417" lon="11.78629"><ele>273.3333333333333</ele><time>2026-04-07T14:53:41.965Z</time></trkpt><trkpt lat="43.3758033" lon="11.7862133"><ele>273.0</ele><time>2026-04-07T14:53:44.965Z</time></trkpt><trkpt lat="43.3758783" lon="11.78613"><ele>273.0</ele><time>2026-04-07T14:53:47.968Z</time></trkpt><trkpt lat="43.3759467" lon="11.7860433"><ele>273.0</ele><time>2026-04-07T14:53:50.968Z</time></trkpt><trkpt lat="43.3760217" lon="11.78597"><ele>273.0</ele><time>2026-04-07T14:53:53.966Z</time></trkpt><trkpt lat="43.3760883" lon="11.785895"><ele>273.0</ele><time>2026-04-07T14:53:56.963Z</time></trkpt><trkpt lat="43.3761567" lon="11.7858183"><ele>273.0</ele><time>2026-04-07T14:53:59.966Z</time></trkpt><trkpt lat="43.3762183" lon="11.7857583"><ele>273.0</ele><time>2026-04-07T14:54:02.967Z</time></trkpt><trkpt lat="43.3762867" lon="11.7856883"><ele>273.8333333333333</ele><time>2026-04-07T14:54:05.968Z</time></trkpt><trkpt lat="43.3763583" lon="11.785615"><ele>274.6666666666667</ele><time>2026-04-07T14:54:08.965Z</time></trkpt><trkpt lat="43.376425" lon="11.7855283"><ele>275.5</ele><time>2026-04-07T14:54:11.971Z</time></trkpt><trkpt lat="43.376465" lon="11.78546"><ele>276.33333333333337</ele><time>2026-04-07T14:54:13.965Z</time></trkpt><trkpt lat="43.37652" lon="11.785365"><ele>277.1666666666667</ele><time>2026-04-07T14:54:16.965Z</time></trkpt><trkpt lat="43.37658" lon="11.7852867"><ele>278.0</ele><time>2026-04-07T14:54:19.966Z</time></trkpt><trkpt lat="43.37664" lon="11.78521"><ele>277.83333333333337</ele><time>2026-04-07T14:54:22.963Z</time></trkpt><trkpt lat="43.3766883" lon="11.785135"><ele>277.6666666666667</ele><time>2026-04-07T14:54:25.965Z</time></trkpt><trkpt lat="43.3767383" lon="11.7850483"><ele>277.5</ele><time>2026-04-07T14:54:28.962Z</time></trkpt><trkpt lat="43.3767833" lon="11.7849683"><ele>277.3333333333333</ele><time>2026-04-07T14:54:30.969Z</time></trkpt><trkpt lat="43.37682" lon="11.7848833"><ele>277.16666666666663</ele><time>2026-04-07T14:54:32.968Z</time></trkpt><trkpt lat="43.3768617" lon="11.7847867"><ele>277.0</ele><time>2026-04-07T14:54:34.962Z</time></trkpt><trkpt lat="43.37689" lon="11.7846767"><ele>277.0</ele><time>2026-04-07T14:54:36.967Z</time></trkpt><trkpt lat="43.3769117" lon="11.7845833"><ele>277.0</ele><time>2026-04-07T14:54:38.967Z</time></trkpt><trkpt lat="43.37695" lon="11.78446"><ele>277.0</ele><time>2026-04-07T14:54:41.968Z</time></trkpt><trkpt lat="43.3769867" lon="11.7843733"><ele>277.0</ele><time>2026-04-07T14:54:43.967Z</time></trkpt><trkpt lat="43.37703" lon="11.7842733"><ele>277.0</ele><time>2026-04-07T14:54:45.964Z</time></trkpt><trkpt lat="43.377075" lon="11.7841733"><ele>277.0</ele><time>2026-04-07T14:54:47.965Z</time></trkpt><trkpt lat="43.3771267" lon="11.7840583"><ele>276.8</ele><time>2026-04-07T14:54:49.967Z</time></trkpt><trkpt lat="43.3771783" lon="11.7839183"><ele>276.6</ele><time>2026-04-07T14:54:51.965Z</time></trkpt><trkpt lat="43.3772333" lon="11.78376"><ele>276.40000000000003</ele><time>2026-04-07T14:54:53.967Z</time></trkpt><trkpt lat="43.3772617" lon="11.7836683"><ele>276.2</ele><time>2026-04-07T14:54:54.967Z</time></trkpt><trkpt lat="43.37729" lon="11.7835867"><ele>276.0</ele><time>2026-04-07T14:54:55.969Z</time></trkpt><trkpt lat="43.3773183" lon="11.7834983"><ele>275.1666666666667</ele><time>2026-04-07T14:54:56.965Z</time></trkpt><trkpt lat="43.3773517" lon="11.7834083"><ele>274.3333333333333</ele><time>2026-04-07T14:54:57.965Z</time></trkpt><trkpt lat="43.377385" lon="11.78331"><ele>273.5</ele><time>2026-04-07T14:54:58.967Z</time></trkpt><trkpt lat="43.3774217" lon="11.7832083"><ele>272.66666666666663</ele><time>2026-04-07T14:54:59.965Z</time></trkpt><trkpt lat="43.377455" lon="11.7831033"><ele>271.8333333333333</ele><time>2026-04-07T14:55:00.965Z</time></trkpt><trkpt lat="43.3774883" lon="11.7829967"><ele>271.0</ele><time>2026-04-07T14:55:01.965Z</time></trkpt><trkpt lat="43.3775233" lon="11.7828933"><ele>271.0</ele><time>2026-04-07T14:55:02.97Z</time></trkpt><trkpt lat="43.3775583" lon="11.7827883"><ele>271.0</ele><time>2026-04-07T14:55:03.967Z</time></trkpt><trkpt lat="43.377595" lon="11.7826883"><ele>271.0</ele><time>2026-04-07T14:55:04.964Z</time></trkpt><trkpt lat="43.3776283" lon="11.7825883"><ele>271.0</ele><time>2026-04-07T14:55:05.967Z</time></trkpt><trkpt lat="43.3776567" lon="11.78249"><ele>271.0</ele><time>2026-04-07T14:55:06.968Z</time></trkpt><trkpt lat="43.3776883" lon="11.7824"><ele>271.0</ele><time>2026-04-07T14:55:07.965Z</time></trkpt><trkpt lat="43.3777167" lon="11.7823133"><ele>270.6</ele><time>2026-04-07T14:55:08.965Z</time></trkpt><trkpt lat="43.3777433" lon="11.7822283"><ele>270.20000000000005</ele><time>2026-04-07T14:55:09.964Z</time></trkpt><trkpt lat="43.3777933" lon="11.782085"><ele>269.79999999999995</ele><time>2026-04-07T14:55:11.963Z</time></trkpt><trkpt lat="43.37784" lon="11.7819583"><ele>269.4</ele><time>2026-04-07T14:55:13.963Z</time></trkpt><trkpt lat="43.377885" lon="11.781825"><ele>269.0</ele><time>2026-04-07T14:55:15.965Z</time></trkpt><trkpt lat="43.3779267" lon="11.78169"><ele>268.8</ele><time>2026-04-07T14:55:17.965Z</time></trkpt><trkpt lat="43.3779733" lon="11.7815633"><ele>268.59999999999997</ele><time>2026-04-07T14:55:19.967Z</time></trkpt><trkpt lat="43.378015" lon="11.7814317"><ele>268.4</ele><time>2026-04-07T14:55:21.966Z</time></trkpt><trkpt lat="43.37805" lon="11.7813117"><ele>268.2</ele><time>2026-04-07T14:55:23.968Z</time></trkpt><trkpt lat="43.3780883" lon="11.7811967"><ele>268.0</ele><time>2026-04-07T14:55:25.967Z</time></trkpt><trkpt lat="43.3781267" lon="11.7811"><ele>267.7142857142857</ele><time>2026-04-07T14:55:27.964Z</time></trkpt><trkpt lat="43.3781583" lon="11.7810117"><ele>267.42857142857144</ele><time>2026-04-07T14:55:29.968Z</time></trkpt><trkpt lat="43.3781933" lon="11.7809283"><ele>267.1428571428571</ele><time>2026-04-07T14:55:31.966Z</time></trkpt><trkpt lat="43.3782217" lon="11.7808417"><ele>266.8571428571429</ele><time>2026-04-07T14:55:33.965Z</time></trkpt><trkpt lat="43.37825" lon="11.78076"><ele>266.57142857142856</ele><time>2026-04-07T14:55:35.964Z</time></trkpt><trkpt lat="43.3782917" lon="11.7806433"><ele>266.2857142857143</ele><time>2026-04-07T14:55:38.964Z</time></trkpt><trkpt lat="43.3783183" lon="11.7805633"><ele>266.0</ele><time>2026-04-07T14:55:40.964Z</time></trkpt><trkpt lat="43.37835" lon="11.7804567"><ele>266.0</ele><time>2026-04-07T14:55:43.965Z</time></trkpt><trkpt lat="43.37839" lon="11.7803517"><ele>266.0</ele><time>2026-04-07T14:55:46.966Z</time></trkpt><trkpt lat="43.37842" lon="11.780275"><ele>266.0</ele><time>2026-04-07T14:55:48.965Z</time></trkpt><trkpt lat="43.3784583" lon="11.7801583"><ele>266.0</ele><time>2026-04-07T14:55:51.966Z</time></trkpt><trkpt lat="43.3784967" lon="11.780035"><ele>266.0</ele><time>2026-04-07T14:55:54.967Z</time></trkpt><trkpt lat="43.3785267" lon="11.7799533"><ele>266.0</ele><time>2026-04-07T14:55:56.966Z</time></trkpt><trkpt lat="43.3785533" lon="11.7798667"><ele>266.33333333333337</ele><time>2026-04-07T14:55:58.963Z</time></trkpt><trkpt lat="43.3785833" lon="11.7797767"><ele>266.6666666666667</ele><time>2026-04-07T14:56:00.969Z</time></trkpt><trkpt lat="43.3786133" lon="11.7796817"><ele>267.0</ele><time>2026-04-07T14:56:02.967Z</time></trkpt><trkpt lat="43.3786467" lon="11.7795833"><ele>267.3333333333333</ele><time>2026-04-07T14:56:04.964Z</time></trkpt><trkpt lat="43.37868" lon="11.7794817"><ele>267.66666666666663</ele><time>2026-04-07T14:56:06.964Z</time></trkpt><trkpt lat="43.3787133" lon="11.7793767"><ele>268.0</ele><time>2026-04-07T14:56:08.965Z</time></trkpt><trkpt lat="43.3787483" lon="11.7792683"><ele>268.3333333333333</ele><time>2026-04-07T14:56:10.963Z</time></trkpt><trkpt lat="43.3787867" lon="11.7791567"><ele>268.66666666666663</ele><time>2026-04-07T14:56:12.964Z</time></trkpt><trkpt lat="43.378825" lon="11.7790433"><ele>269.0</ele><time>2026-04-07T14:56:14.967Z</time></trkpt><trkpt lat="43.3788633" lon="11.778935"><ele>269.3333333333333</ele><time>2026-04-07T14:56:16.966Z</time></trkpt><trkpt lat="43.3789033" lon="11.77883"><ele>269.6666666666667</ele><time>2026-04-07T14:56:18.963Z</time></trkpt><trkpt lat="43.3789383" lon="11.7787283"><ele>270.0</ele><time>2026-04-07T14:56:20.966Z</time></trkpt><trkpt lat="43.3789717" lon="11.77862"><ele>270.6666666666667</ele><time>2026-04-07T14:56:22.964Z</time></trkpt><trkpt lat="43.3790067" lon="11.7785133"><ele>271.3333333333333</ele><time>2026-04-07T14:56:24.968Z</time></trkpt><trkpt lat="43.379045" lon="11.7784017"><ele>272.0</ele><time>2026-04-07T14:56:26.968Z</time></trkpt><trkpt lat="43.3790833" lon="11.7782933"><ele>272.66666666666663</ele><time>2026-04-07T14:56:28.963Z</time></trkpt><trkpt lat="43.3791217" lon="11.7781917"><ele>273.3333333333333</ele><time>2026-04-07T14:56:31.059Z</time></trkpt><trkpt lat="43.379155" lon="11.7780867"><ele>274.0</ele><time>2026-04-07T14:56:32.969Z</time></trkpt><trkpt lat="43.3791867" lon="11.7779817"><ele>274.0</ele><time>2026-04-07T14:56:34.965Z</time></trkpt><trkpt lat="43.3792183" lon="11.7778833"><ele>274.0</ele><time>2026-04-07T14:56:36.966Z</time></trkpt><trkpt lat="43.3792517" lon="11.7777867"><ele>274.0</ele><time>2026-04-07T14:56:38.964Z</time></trkpt><trkpt lat="43.3792883" lon="11.777685"><ele>274.0</ele><time>2026-04-07T14:56:40.965Z</time></trkpt><trkpt lat="43.3793217" lon="11.777585"><ele>274.0</ele><time>2026-04-07T14:56:42.964Z</time></trkpt><trkpt lat="43.3793567" lon="11.7774817"><ele>274.0</ele><time>2026-04-07T14:56:44.969Z</time></trkpt><trkpt lat="43.379385" lon="11.777375"><ele>274.3333333333333</ele><time>2026-04-07T14:56:46.963Z</time></trkpt><trkpt lat="43.3794217" lon="11.77727"><ele>274.66666666666663</ele><time>2026-04-07T14:56:48.968Z</time></trkpt><trkpt lat="43.379455" lon="11.7771667"><ele>275.0</ele><time>2026-04-07T14:56:50.966Z</time></trkpt><trkpt lat="43.3794833" lon="11.7770617"><ele>275.3333333333333</ele><time>2026-04-07T14:56:52.963Z</time></trkpt><trkpt lat="43.3795117" lon="11.77696"><ele>275.6666666666667</ele><time>2026-04-07T14:56:54.969Z</time></trkpt><trkpt lat="43.3795417" lon="11.7768617"><ele>276.0</ele><time>2026-04-07T14:56:56.969Z</time></trkpt><trkpt lat="43.37957" lon="11.7767667"><ele>276.1666666666667</ele><time>2026-04-07T14:56:58.968Z</time></trkpt><trkpt lat="43.3796183" lon="11.7766283"><ele>276.3333333333333</ele><time>2026-04-07T14:57:01.967Z</time></trkpt><trkpt lat="43.37965" lon="11.7765383"><ele>276.5</ele><time>2026-04-07T14:57:03.965Z</time></trkpt><trkpt lat="43.3796833" lon="11.776455"><ele>276.66666666666663</ele><time>2026-04-07T14:57:05.971Z</time></trkpt><trkpt lat="43.379715" lon="11.7763633"><ele>276.8333333333333</ele><time>2026-04-07T14:57:07.969Z</time></trkpt><trkpt lat="43.37975" lon="11.77627"><ele>277.0</ele><time>2026-04-07T14:57:09.965Z</time></trkpt><trkpt lat="43.3797817" lon="11.776175"><ele>277.0</ele><time>2026-04-07T14:57:11.97Z</time></trkpt><trkpt lat="43.3798117" lon="11.7760817"><ele>277.0</ele><time>2026-04-07T14:57:13.968Z</time></trkpt><trkpt lat="43.3798433" lon="11.775985"><ele>277.0</ele><time>2026-04-07T14:57:15.963Z</time></trkpt><trkpt lat="43.3798783" lon="11.7758883"><ele>277.0</ele><time>2026-04-07T14:57:17.966Z</time></trkpt><trkpt lat="43.3799117" lon="11.7757933"><ele>277.0</ele><time>2026-04-07T14:57:19.968Z</time></trkpt><trkpt lat="43.3799433" lon="11.7757033"><ele>277.0</ele><time>2026-04-07T14:57:21.965Z</time></trkpt><trkpt lat="43.37997" lon="11.7756117"><ele>277.0</ele><time>2026-04-07T14:57:23.966Z</time></trkpt><trkpt lat="43.38" lon="11.7755183"><ele>277.0</ele><time>2026-04-07T14:57:25.965Z</time></trkpt><trkpt lat="43.3800283" lon="11.7754317"><ele>277.0</ele><time>2026-04-07T14:57:27.969Z</time></trkpt><trkpt lat="43.3800567" lon="11.7753383"><ele>277.0</ele><time>2026-04-07T14:57:29.963Z</time></trkpt><trkpt lat="43.3800883" lon="11.77525"><ele>277.0</ele><time>2026-04-07T14:57:31.967Z</time></trkpt><trkpt lat="43.3801117" lon="11.7751633"><ele>277.0</ele><time>2026-04-07T14:57:33.968Z</time></trkpt><trkpt lat="43.3801383" lon="11.7750767"><ele>277.0</ele><time>2026-04-07T14:57:35.966Z</time></trkpt><trkpt lat="43.3801667" lon="11.7749917"><ele>277.1428571428571</ele><time>2026-04-07T14:57:37.967Z</time></trkpt><trkpt lat="43.380195" lon="11.7749033"><ele>277.2857142857143</ele><time>2026-04-07T14:57:39.964Z</time></trkpt><trkpt lat="43.3802233" lon="11.7748117"><ele>277.42857142857144</ele><time>2026-04-07T14:57:41.967Z</time></trkpt><trkpt lat="43.38025" lon="11.7747233"><ele>277.57142857142856</ele><time>2026-04-07T14:57:43.967Z</time></trkpt><trkpt lat="43.3802767" lon="11.774635"><ele>277.7142857142857</ele><time>2026-04-07T14:57:45.964Z</time></trkpt><trkpt lat="43.380305" lon="11.7745417"><ele>277.85714285714283</ele><time>2026-04-07T14:57:47.968Z</time></trkpt><trkpt lat="43.380335" lon="11.77445"><ele>278.0</ele><time>2026-04-07T14:57:49.966Z</time></trkpt><trkpt lat="43.3803617" lon="11.7743583"><ele>278.1428571428571</ele><time>2026-04-07T14:57:51.967Z</time></trkpt><trkpt lat="43.38039" lon="11.7742717"><ele>278.2857142857143</ele><time>2026-04-07T14:57:53.967Z</time></trkpt><trkpt lat="43.38042" lon="11.7741867"><ele>278.42857142857144</ele><time>2026-04-07T14:57:55.964Z</time></trkpt><trkpt lat="43.3804483" lon="11.7741033"><ele>278.57142857142856</ele><time>2026-04-07T14:57:57.965Z</time></trkpt><trkpt lat="43.38048" lon="11.7740167"><ele>278.7142857142857</ele><time>2026-04-07T14:57:59.965Z</time></trkpt><trkpt lat="43.3805117" lon="11.77392"><ele>278.85714285714283</ele><time>2026-04-07T14:58:01.964Z</time></trkpt><trkpt lat="43.38054" lon="11.773835"><ele>279.0</ele><time>2026-04-07T14:58:03.967Z</time></trkpt><trkpt lat="43.3805683" lon="11.7737483"><ele>278.99999999999994</ele><time>2026-04-07T14:58:05.966Z</time></trkpt><trkpt lat="43.3805967" lon="11.7736533"><ele>279.0</ele><time>2026-04-07T14:58:07.965Z</time></trkpt><trkpt lat="43.380625" lon="11.773565"><ele>279.0</ele><time>2026-04-07T14:58:09.966Z</time></trkpt><trkpt lat="43.3806517" lon="11.7734817"><ele>279.0</ele><time>2026-04-07T14:58:11.965Z</time></trkpt><trkpt lat="43.380685" lon="11.7734067"><ele>279.0</ele><time>2026-04-07T14:58:13.969Z</time></trkpt><trkpt lat="43.3807367" lon="11.7733183"><ele>278.99999999999994</ele><time>2026-04-07T14:58:16.966Z</time></trkpt><trkpt lat="43.3807767" lon="11.77323"><ele>279.0</ele><time>2026-04-07T14:58:19.967Z</time></trkpt><trkpt lat="43.3807533" lon="11.7731317"><ele>279.0</ele><time>2026-04-07T14:58:22.966Z</time></trkpt><trkpt lat="43.3806983" lon="11.7730767"><ele>279.0</ele><time>2026-04-07T14:58:24.967Z</time></trkpt><trkpt lat="43.380635" lon="11.7730067"><ele>279.0</ele><time>2026-04-07T14:58:26.966Z</time></trkpt><trkpt lat="43.38057" lon="11.7729317"><ele>279.0</ele><time>2026-04-07T14:58:28.965Z</time></trkpt><trkpt lat="43.3805" lon="11.77285"><ele>279.0</ele><time>2026-04-07T14:58:30.965Z</time></trkpt><trkpt lat="43.380425" lon="11.7727633"><ele>279.0</ele><time>2026-04-07T14:58:32.964Z</time></trkpt><trkpt lat="43.3803483" lon="11.7726767"><ele>279.0</ele><time>2026-04-07T14:58:34.964Z</time></trkpt><trkpt lat="43.3802733" lon="11.7725883"><ele>279.0</ele><time>2026-04-07T14:58:36.967Z</time></trkpt><trkpt lat="43.3801917" lon="11.7724967"><ele>279.0</ele><time>2026-04-07T14:58:38.966Z</time></trkpt><trkpt lat="43.3801067" lon="11.7724067"><ele>279.0</ele><time>2026-04-07T14:58:40.965Z</time></trkpt><trkpt lat="43.3800183" lon="11.77232"><ele>279.0</ele><time>2026-04-07T14:58:42.965Z</time></trkpt><trkpt lat="43.3799333" lon="11.772235"><ele>279.0</ele><time>2026-04-07T14:58:44.965Z</time></trkpt><trkpt lat="43.3798483" lon="11.7721517"><ele>279.0</ele><time>2026-04-07T14:58:46.965Z</time></trkpt><trkpt lat="43.3797533" lon="11.77208"><ele>279.0</ele><time>2026-04-07T14:58:48.965Z</time></trkpt><trkpt lat="43.3796517" lon="11.77202"><ele>279.0</ele><time>2026-04-07T14:58:50.97Z</time></trkpt><trkpt lat="43.379545" lon="11.7719583"><ele>279.0</ele><time>2026-04-07T14:58:52.965Z</time></trkpt><trkpt lat="43.3794317" lon="11.771905"><ele>278.71428571428567</ele><time>2026-04-07T14:58:54.966Z</time></trkpt><trkpt lat="43.3793683" lon="11.77188"><ele>278.42857142857144</ele><time>2026-04-07T14:58:55.965Z</time></trkpt><trkpt lat="43.379305" lon="11.7718583"><ele>278.1428571428571</ele><time>2026-04-07T14:58:56.967Z</time></trkpt><trkpt lat="43.3792367" lon="11.7718367"><ele>277.85714285714283</ele><time>2026-04-07T14:58:57.968Z</time></trkpt><trkpt lat="43.3791633" lon="11.7718133"><ele>277.57142857142856</ele><time>2026-04-07T14:58:58.966Z</time></trkpt><trkpt lat="43.3790867" lon="11.77179"><ele>277.2857142857143</ele><time>2026-04-07T14:58:59.965Z</time></trkpt><trkpt lat="43.3790117" lon="11.771765"><ele>277.0</ele><time>2026-04-07T14:59:00.964Z</time></trkpt><trkpt lat="43.3788583" lon="11.7717167"><ele>276.16666666666663</ele><time>2026-04-07T14:59:02.965Z</time></trkpt><trkpt lat="43.378775" lon="11.7716933"><ele>275.3333333333333</ele><time>2026-04-07T14:59:03.965Z</time></trkpt><trkpt lat="43.378695" lon="11.7716683"><ele>274.5</ele><time>2026-04-07T14:59:04.965Z</time></trkpt><trkpt lat="43.3786183" lon="11.7716417"><ele>273.6666666666667</ele><time>2026-04-07T14:59:05.965Z</time></trkpt><trkpt lat="43.3785383" lon="11.7716167"><ele>272.83333333333337</ele><time>2026-04-07T14:59:06.971Z</time></trkpt><trkpt lat="43.3784617" lon="11.77159"><ele>272.0</ele><time>2026-04-07T14:59:07.965Z</time></trkpt><trkpt lat="43.3783867" lon="11.771565"><ele>272.0</ele><time>2026-04-07T14:59:08.969Z</time></trkpt><trkpt lat="43.3783167" lon="11.7715417"><ele>272.0</ele><time>2026-04-07T14:59:09.964Z</time></trkpt><trkpt lat="43.378245" lon="11.7715167"><ele>272.0</ele><time>2026-04-07T14:59:10.967Z</time></trkpt><trkpt lat="43.37818" lon="11.7714917"><ele>272.0</ele><time>2026-04-07T14:59:11.97Z</time></trkpt><trkpt lat="43.378115" lon="11.7714683"><ele>272.0</ele><time>2026-04-07T14:59:12.967Z</time></trkpt><trkpt lat="43.3779917" lon="11.7714217"><ele>272.0</ele><time>2026-04-07T14:59:14.964Z</time></trkpt><trkpt lat="43.3778767" lon="11.771375"><ele>272.0</ele><time>2026-04-07T14:59:16.964Z</time></trkpt><trkpt lat="43.3777717" lon="11.7713367"><ele>272.0</ele><time>2026-04-07T14:59:18.963Z</time></trkpt><trkpt lat="43.37768" lon="11.7712917"><ele>272.0</ele><time>2026-04-07T14:59:20.968Z</time></trkpt><trkpt lat="43.3775867" lon="11.7712517"><ele>272.0</ele><time>2026-04-07T14:59:22.964Z</time></trkpt><trkpt lat="43.377515" lon="11.7712117"><ele>272.0</ele><time>2026-04-07T14:59:24.965Z</time></trkpt><trkpt lat="43.3774533" lon="11.77117"><ele>272.0</ele><time>2026-04-07T14:59:26.965Z</time></trkpt><trkpt lat="43.3773583" lon="11.771105"><ele>272.0</ele><time>2026-04-07T14:59:29.967Z</time></trkpt><trkpt lat="43.3773" lon="11.7710617"><ele>272.0</ele><time>2026-04-07T14:59:31.967Z</time></trkpt><trkpt lat="43.3772433" lon="11.7710183"><ele>272.0</ele><time>2026-04-07T14:59:33.965Z</time></trkpt><trkpt lat="43.3771867" lon="11.770975"><ele>272.0</ele><time>2026-04-07T14:59:35.965Z</time></trkpt><trkpt lat="43.37712" lon="11.7709183"><ele>272.0</ele><time>2026-04-07T14:59:37.967Z</time></trkpt><trkpt lat="43.377035" lon="11.77083"><ele>272.4</ele><time>2026-04-07T14:59:39.965Z</time></trkpt><trkpt lat="43.3769633" lon="11.770745"><ele>272.79999999999995</ele><time>2026-04-07T14:59:41.966Z</time></trkpt><trkpt lat="43.3768933" lon="11.7706617"><ele>273.2</ele><time>2026-04-07T14:59:43.966Z</time></trkpt><trkpt lat="43.376825" lon="11.7705817"><ele>273.59999999999997</ele><time>2026-04-07T14:59:45.967Z</time></trkpt><trkpt lat="43.37675" lon="11.7705"><ele>274.0</ele><time>2026-04-07T14:59:47.965Z</time></trkpt><trkpt lat="43.3766817" lon="11.77042"><ele>274.0</ele><time>2026-04-07T14:59:49.965Z</time></trkpt><trkpt lat="43.3766033" lon="11.7703317"><ele>274.0</ele><time>2026-04-07T14:59:51.967Z</time></trkpt><trkpt lat="43.376535" lon="11.7702433"><ele>274.0</ele><time>2026-04-07T14:59:53.964Z</time></trkpt><trkpt lat="43.37647" lon="11.770155"><ele>274.0</ele><time>2026-04-07T14:59:55.969Z</time></trkpt><trkpt lat="43.3764" lon="11.7700583"><ele>274.0</ele><time>2026-04-07T14:59:57.964Z</time></trkpt><trkpt lat="43.3763283" lon="11.7699733"><ele>274.0</ele><time>2026-04-07T14:59:59.964Z</time></trkpt><trkpt lat="43.37626" lon="11.769885"><ele>274.0</ele><time>2026-04-07T15:00:01.964Z</time></trkpt><trkpt lat="43.3761967" lon="11.7698"><ele>274.0</ele><time>2026-04-07T15:00:03.967Z</time></trkpt><trkpt lat="43.3761283" lon="11.769725"><ele>274.0</ele><time>2026-04-07T15:00:05.964Z</time></trkpt><trkpt lat="43.3760533" lon="11.7696583"><ele>274.0</ele><time>2026-04-07T15:00:07.968Z</time></trkpt><trkpt lat="43.3759717" lon="11.7696017"><ele>274.0</ele><time>2026-04-07T15:00:09.964Z</time></trkpt><trkpt lat="43.3758833" lon="11.7695583"><ele>274.0</ele><time>2026-04-07T15:00:11.968Z</time></trkpt><trkpt lat="43.375795" lon="11.7695467"><ele>274.0</ele><time>2026-04-07T15:00:13.966Z</time></trkpt><trkpt lat="43.3757183" lon="11.769555"><ele>274.0</ele><time>2026-04-07T15:00:15.968Z</time></trkpt><trkpt lat="43.37564" lon="11.7695833"><ele>274.0</ele><time>2026-04-07T15:00:17.965Z</time></trkpt><trkpt lat="43.3755667" lon="11.7696167"><ele>274.0</ele><time>2026-04-07T15:00:19.964Z</time></trkpt><trkpt lat="43.3755" lon="11.769655"><ele>274.66666666666663</ele><time>2026-04-07T15:00:21.967Z</time></trkpt><trkpt lat="43.3754333" lon="11.7696983"><ele>275.3333333333333</ele><time>2026-04-07T15:00:23.963Z</time></trkpt><trkpt lat="43.375365" lon="11.7697633"><ele>276.0</ele><time>2026-04-07T15:00:25.965Z</time></trkpt><trkpt lat="43.375305" lon="11.7697983"><ele>276.6666666666667</ele><time>2026-04-07T15:00:27.965Z</time></trkpt><trkpt lat="43.37522" lon="11.7698533"><ele>277.33333333333337</ele><time>2026-04-07T15:00:30.964Z</time></trkpt><trkpt lat="43.3751533" lon="11.7698867"><ele>278.0</ele><time>2026-04-07T15:00:32.966Z</time></trkpt><trkpt lat="43.3750883" lon="11.7699133"><ele>278.0</ele><time>2026-04-07T15:00:34.965Z</time></trkpt><trkpt lat="43.3750283" lon="11.7699467"><ele>278.0</ele><time>2026-04-07T15:00:36.966Z</time></trkpt><trkpt lat="43.374965" lon="11.7699733"><ele>278.0</ele><time>2026-04-07T15:00:38.966Z</time></trkpt><trkpt lat="43.374905" lon="11.7700017"><ele>278.0</ele><time>2026-04-07T15:00:40.965Z</time></trkpt><trkpt lat="43.3748367" lon="11.77002"><ele>278.0</ele><time>2026-04-07T15:00:42.967Z</time></trkpt><trkpt lat="43.3747733" lon="11.770035"><ele>278.0</ele><time>2026-04-07T15:00:44.966Z</time></trkpt><trkpt lat="43.37471" lon="11.7700467"><ele>278.0</ele><time>2026-04-07T15:00:46.966Z</time></trkpt><trkpt lat="43.3746167" lon="11.7700617"><ele>278.7142857142857</ele><time>2026-04-07T15:00:49.964Z</time></trkpt><trkpt lat="43.3745517" lon="11.77006"><ele>279.42857142857144</ele><time>2026-04-07T15:00:51.965Z</time></trkpt><trkpt lat="43.3744667" lon="11.77003"><ele>280.14285714285717</ele><time>2026-04-07T15:00:54.966Z</time></trkpt><trkpt lat="43.374385" lon="11.76997"><ele>280.8571428571429</ele><time>2026-04-07T15:00:57.968Z</time></trkpt><trkpt lat="43.3743333" lon="11.7699167"><ele>281.5714285714286</ele><time>2026-04-07T15:00:59.966Z</time></trkpt><trkpt lat="43.3742833" lon="11.769855"><ele>282.2857142857143</ele><time>2026-04-07T15:01:01.965Z</time></trkpt><trkpt lat="43.374245" lon="11.769785"><ele>283.0</ele><time>2026-04-07T15:01:03.966Z</time></trkpt><trkpt lat="43.3741883" lon="11.769685"><ele>283.0</ele><time>2026-04-07T15:01:06.97Z</time></trkpt><trkpt lat="43.3741167" lon="11.7696"><ele>283.0</ele><time>2026-04-07T15:01:09.967Z</time></trkpt><trkpt lat="43.3740667" lon="11.769535"><ele>283.0</ele><time>2026-04-07T15:01:11.967Z</time></trkpt><trkpt lat="43.3740183" lon="11.769475"><ele>283.0</ele><time>2026-04-07T15:01:13.966Z</time></trkpt><trkpt lat="43.3739667" lon="11.7694183"><ele>283.0</ele><time>2026-04-07T15:01:15.966Z</time></trkpt><trkpt lat="43.3739167" lon="11.7693533"><ele>283.0</ele><time>2026-04-07T15:01:17.964Z</time></trkpt><trkpt lat="43.373865" lon="11.7692817"><ele>283.0</ele><time>2026-04-07T15:01:19.964Z</time></trkpt><trkpt lat="43.37381" lon="11.7692167"><ele>282.8333333333333</ele><time>2026-04-07T15:01:21.969Z</time></trkpt><trkpt lat="43.3737567" lon="11.7691517"><ele>282.66666666666663</ele><time>2026-04-07T15:01:23.963Z</time></trkpt><trkpt lat="43.373705" lon="11.7690817"><ele>282.5</ele><time>2026-04-07T15:01:25.964Z</time></trkpt><trkpt lat="43.3736483" lon="11.769015"><ele>282.3333333333333</ele><time>2026-04-07T15:01:27.969Z</time></trkpt><trkpt lat="43.3735883" lon="11.768945"><ele>282.1666666666667</ele><time>2026-04-07T15:01:29.968Z</time></trkpt><trkpt lat="43.3735167" lon="11.7688733"><ele>282.0</ele><time>2026-04-07T15:01:31.968Z</time></trkpt><trkpt lat="43.3734483" lon="11.7687983"><ele>282.0</ele><time>2026-04-07T15:01:33.967Z</time></trkpt><trkpt lat="43.3733733" lon="11.768715"><ele>282.0</ele><time>2026-04-07T15:01:35.965Z</time></trkpt><trkpt lat="43.3733" lon="11.76863"><ele>282.0</ele><time>2026-04-07T15:01:37.966Z</time></trkpt><trkpt lat="43.3732333" lon="11.76854"><ele>282.0</ele><time>2026-04-07T15:01:39.968Z</time></trkpt><trkpt lat="43.37315" lon="11.7684517"><ele>282.0</ele><time>2026-04-07T15:01:41.966Z</time></trkpt><trkpt lat="43.373055" lon="11.7683583"><ele>281.42857142857144</ele><time>2026-04-07T15:01:43.968Z</time></trkpt><trkpt lat="43.3730017" lon="11.7683117"><ele>280.85714285714283</ele><time>2026-04-07T15:01:44.967Z</time></trkpt><trkpt lat="43.372945" lon="11.7682683"><ele>280.2857142857143</ele><time>2026-04-07T15:01:45.967Z</time></trkpt><trkpt lat="43.3728767" lon="11.7682283"><ele>279.7142857142857</ele><time>2026-04-07T15:01:46.966Z</time></trkpt><trkpt lat="43.3728183" lon="11.76818"><ele>279.14285714285717</ele><time>2026-04-07T15:01:47.969Z</time></trkpt><trkpt lat="43.37276" lon="11.7681317"><ele>278.57142857142856</ele><time>2026-04-07T15:01:48.966Z</time></trkpt><trkpt lat="43.3726983" lon="11.7680883"><ele>278.0</ele><time>2026-04-07T15:01:49.965Z</time></trkpt><trkpt lat="43.3726283" lon="11.768045"><ele>278.0</ele><time>2026-04-07T15:01:50.968Z</time></trkpt><trkpt lat="43.372555" lon="11.7680033"><ele>278.0</ele><time>2026-04-07T15:01:51.965Z</time></trkpt><trkpt lat="43.3724833" lon="11.7679583"><ele>278.0</ele><time>2026-04-07T15:01:52.967Z</time></trkpt><trkpt lat="43.37241" lon="11.7679133"><ele>278.0</ele><time>2026-04-07T15:01:53.965Z</time></trkpt><trkpt lat="43.3723333" lon="11.7678683"><ele>278.0</ele><time>2026-04-07T15:01:54.967Z</time></trkpt><trkpt lat="43.372255" lon="11.7678233"><ele>278.0</ele><time>2026-04-07T15:01:55.966Z</time></trkpt><trkpt lat="43.372175" lon="11.767775"><ele>277.83333333333337</ele><time>2026-04-07T15:01:56.966Z</time></trkpt><trkpt lat="43.3720967" lon="11.7677283"><ele>277.6666666666667</ele><time>2026-04-07T15:01:57.967Z</time></trkpt><trkpt lat="43.3720167" lon="11.7676817"><ele>277.5</ele><time>2026-04-07T15:01:58.966Z</time></trkpt><trkpt lat="43.3719367" lon="11.7676333"><ele>277.3333333333333</ele><time>2026-04-07T15:01:59.965Z</time></trkpt><trkpt lat="43.3718583" lon="11.7675833"><ele>277.16666666666663</ele><time>2026-04-07T15:02:00.965Z</time></trkpt><trkpt lat="43.371785" lon="11.7675317"><ele>277.0</ele><time>2026-04-07T15:02:01.968Z</time></trkpt><trkpt lat="43.37171" lon="11.7674767"><ele>276.66666666666663</ele><time>2026-04-07T15:02:02.966Z</time></trkpt><trkpt lat="43.3716433" lon="11.7674133"><ele>276.3333333333333</ele><time>2026-04-07T15:02:03.967Z</time></trkpt><trkpt lat="43.3715817" lon="11.7673383"><ele>276.0</ele><time>2026-04-07T15:02:04.965Z</time></trkpt><trkpt lat="43.37153" lon="11.7672583"><ele>275.6666666666667</ele><time>2026-04-07T15:02:05.965Z</time></trkpt><trkpt lat="43.3714833" lon="11.7671733"><ele>275.33333333333337</ele><time>2026-04-07T15:02:06.967Z</time></trkpt><trkpt lat="43.3714367" lon="11.767085"><ele>275.0</ele><time>2026-04-07T15:02:07.966Z</time></trkpt><trkpt lat="43.3713967" lon="11.766995"><ele>275.1666666666667</ele><time>2026-04-07T15:02:08.964Z</time></trkpt><trkpt lat="43.3713567" lon="11.7669033"><ele>275.33333333333337</ele><time>2026-04-07T15:02:09.964Z</time></trkpt><trkpt lat="43.3713167" lon="11.7668117"><ele>275.5</ele><time>2026-04-07T15:02:10.97Z</time></trkpt><trkpt lat="43.371275" lon="11.7667217"><ele>275.6666666666667</ele><time>2026-04-07T15:02:11.964Z</time></trkpt><trkpt lat="43.37123" lon="11.7666317"><ele>275.8333333333333</ele><time>2026-04-07T15:02:12.967Z</time></trkpt><trkpt lat="43.3711883" lon="11.7665433"><ele>276.0</ele><time>2026-04-07T15:02:13.965Z</time></trkpt><trkpt lat="43.3711467" lon="11.7664517"><ele>275.0</ele><time>2026-04-07T15:02:14.969Z</time></trkpt><trkpt lat="43.371105" lon="11.76636"><ele>274.0</ele><time>2026-04-07T15:02:15.969Z</time></trkpt><trkpt lat="43.371065" lon="11.76627"><ele>273.0</ele><time>2026-04-07T15:02:16.966Z</time></trkpt><trkpt lat="43.3710233" lon="11.7661833"><ele>272.0</ele><time>2026-04-07T15:02:17.968Z</time></trkpt><trkpt lat="43.3709817" lon="11.7660967"><ele>271.0</ele><time>2026-04-07T15:02:18.962Z</time></trkpt><trkpt lat="43.3709433" lon="11.7660117"><ele>270.0</ele><time>2026-04-07T15:02:19.969Z</time></trkpt><trkpt lat="43.3708933" lon="11.7659283"><ele>270.0</ele><time>2026-04-07T15:02:20.967Z</time></trkpt><trkpt lat="43.3708467" lon="11.765845"><ele>270.0</ele><time>2026-04-07T15:02:21.966Z</time></trkpt><trkpt lat="43.370805" lon="11.76576"><ele>270.0</ele><time>2026-04-07T15:02:22.965Z</time></trkpt><trkpt lat="43.3707683" lon="11.765675"><ele>270.0</ele><time>2026-04-07T15:02:23.963Z</time></trkpt><trkpt lat="43.3707267" lon="11.76559"><ele>270.0</ele><time>2026-04-07T15:02:24.966Z</time></trkpt><trkpt lat="43.370685" lon="11.7655067"><ele>270.0</ele><time>2026-04-07T15:02:25.967Z</time></trkpt><trkpt lat="43.3706467" lon="11.7654233"><ele>270.0</ele><time>2026-04-07T15:02:26.968Z</time></trkpt><trkpt lat="43.3706083" lon="11.7653383"><ele>270.0</ele><time>2026-04-07T15:02:27.969Z</time></trkpt><trkpt lat="43.37057" lon="11.7652567"><ele>270.0</ele><time>2026-04-07T15:02:28.966Z</time></trkpt><trkpt lat="43.3705317" lon="11.765175"><ele>270.0</ele><time>2026-04-07T15:02:29.964Z</time></trkpt><trkpt lat="43.370495" lon="11.7650933"><ele>270.0</ele><time>2026-04-07T15:02:30.965Z</time></trkpt><trkpt lat="43.3704583" lon="11.765015"><ele>270.0</ele><time>2026-04-07T15:02:31.966Z</time></trkpt><trkpt lat="43.37042" lon="11.7649383"><ele>270.0</ele><time>2026-04-07T15:02:32.969Z</time></trkpt><trkpt lat="43.3703833" lon="11.7648583"><ele>270.0</ele><time>2026-04-07T15:02:33.968Z</time></trkpt><trkpt lat="43.3703467" lon="11.76478"><ele>269.6</ele><time>2026-04-07T15:02:34.964Z</time></trkpt><trkpt lat="43.3703067" lon="11.7647"><ele>269.2</ele><time>2026-04-07T15:02:35.966Z</time></trkpt><trkpt lat="43.3702733" lon="11.7646167"><ele>268.8</ele><time>2026-04-07T15:02:36.965Z</time></trkpt><trkpt lat="43.3702417" lon="11.7645317"><ele>268.4</ele><time>2026-04-07T15:02:37.966Z</time></trkpt><trkpt lat="43.3701733" lon="11.764385"><ele>268.0</ele><time>2026-04-07T15:02:39.965Z</time></trkpt><trkpt lat="43.37011" lon="11.7642367"><ele>267.0</ele><time>2026-04-07T15:02:41.965Z</time></trkpt><trkpt lat="43.3700417" lon="11.7640967"><ele>266.0</ele><time>2026-04-07T15:02:43.964Z</time></trkpt><trkpt lat="43.369975" lon="11.7639567"><ele>265.0</ele><time>2026-04-07T15:02:45.967Z</time></trkpt><trkpt lat="43.3699067" lon="11.7638183"><ele>264.0</ele><time>2026-04-07T15:02:47.965Z</time></trkpt><trkpt lat="43.3698417" lon="11.7636817"><ele>264.0</ele><time>2026-04-07T15:02:49.966Z</time></trkpt><trkpt lat="43.36978" lon="11.7635483"><ele>264.0</ele><time>2026-04-07T15:02:51.966Z</time></trkpt><trkpt lat="43.3697233" lon="11.763415"><ele>264.0</ele><time>2026-04-07T15:02:53.966Z</time></trkpt><trkpt lat="43.369665" lon="11.76328"><ele>264.0</ele><time>2026-04-07T15:02:55.966Z</time></trkpt><trkpt lat="43.3696017" lon="11.7631517"><ele>264.25</ele><time>2026-04-07T15:02:57.964Z</time></trkpt><trkpt lat="43.3695367" lon="11.7630217"><ele>264.5</ele><time>2026-04-07T15:02:59.963Z</time></trkpt><trkpt lat="43.3694783" lon="11.7628883"><ele>264.75</ele><time>2026-04-07T15:03:01.964Z</time></trkpt><trkpt lat="43.3694183" lon="11.76276"><ele>265.0</ele><time>2026-04-07T15:03:03.966Z</time></trkpt><trkpt lat="43.36936" lon="11.76263"><ele>265.0</ele><time>2026-04-07T15:03:05.964Z</time></trkpt><trkpt lat="43.369305" lon="11.7625"><ele>265.0</ele><time>2026-04-07T15:03:07.966Z</time></trkpt><trkpt lat="43.3692467" lon="11.762375"><ele>265.0</ele><time>2026-04-07T15:03:09.968Z</time></trkpt><trkpt lat="43.3691883" lon="11.762255"><ele>265.0</ele><time>2026-04-07T15:03:11.971Z</time></trkpt><trkpt lat="43.3691283" lon="11.7621383"><ele>265.0</ele><time>2026-04-07T15:03:13.967Z</time></trkpt><trkpt lat="43.369065" lon="11.762025"><ele>265.0</ele><time>2026-04-07T15:03:15.969Z</time></trkpt><trkpt lat="43.3690117" lon="11.76191"><ele>265.0</ele><time>2026-04-07T15:03:17.967Z</time></trkpt><trkpt lat="43.3689567" lon="11.7617983"><ele>265.0</ele><time>2026-04-07T15:03:19.963Z</time></trkpt><trkpt lat="43.3689033" lon="11.7616917"><ele>265.0</ele><time>2026-04-07T15:03:21.969Z</time></trkpt><trkpt lat="43.368855" lon="11.7615817"><ele>265.0</ele><time>2026-04-07T15:03:23.969Z</time></trkpt><trkpt lat="43.3687983" lon="11.761475"><ele>265.16666666666663</ele><time>2026-04-07T15:03:25.97Z</time></trkpt><trkpt lat="43.36875" lon="11.7613733"><ele>265.3333333333333</ele><time>2026-04-07T15:03:27.967Z</time></trkpt><trkpt lat="43.3687033" lon="11.7612683"><ele>265.5</ele><time>2026-04-07T15:03:29.969Z</time></trkpt><trkpt lat="43.36866" lon="11.7611633"><ele>265.6666666666667</ele><time>2026-04-07T15:03:31.968Z</time></trkpt><trkpt lat="43.36862" lon="11.7610567"><ele>265.83333333333337</ele><time>2026-04-07T15:03:33.967Z</time></trkpt><trkpt lat="43.3685767" lon="11.76096"><ele>266.0</ele><time>2026-04-07T15:03:35.965Z</time></trkpt><trkpt lat="43.3685333" lon="11.7608683"><ele>266.0</ele><time>2026-04-07T15:03:37.966Z</time></trkpt><trkpt lat="43.3684867" lon="11.76078"><ele>266.0</ele><time>2026-04-07T15:03:39.965Z</time></trkpt><trkpt lat="43.3684433" lon="11.7606883"><ele>266.0</ele><time>2026-04-07T15:03:41.968Z</time></trkpt><trkpt lat="43.3684033" lon="11.7605967"><ele>266.0</ele><time>2026-04-07T15:03:43.965Z</time></trkpt><trkpt lat="43.36836" lon="11.76051"><ele>266.0</ele><time>2026-04-07T15:03:45.964Z</time></trkpt><trkpt lat="43.368315" lon="11.7604317"><ele>266.0</ele><time>2026-04-07T15:03:47.966Z</time></trkpt><trkpt lat="43.3682733" lon="11.7603517"><ele>266.0</ele><time>2026-04-07T15:03:50.061Z</time></trkpt><trkpt lat="43.3682317" lon="11.7602633"><ele>266.0</ele><time>2026-04-07T15:03:51.967Z</time></trkpt><trkpt lat="43.36819" lon="11.7601767"><ele>266.0</ele><time>2026-04-07T15:03:53.966Z</time></trkpt><trkpt lat="43.3681567" lon="11.7600883"><ele>266.0</ele><time>2026-04-07T15:03:55.969Z</time></trkpt><trkpt lat="43.3681417" lon="11.759995"><ele>266.0</ele><time>2026-04-07T15:03:57.969Z</time></trkpt><trkpt lat="43.3681267" lon="11.7598983"><ele>266.0</ele><time>2026-04-07T15:03:59.968Z</time></trkpt><trkpt lat="43.3680983" lon="11.7598117"><ele>266.0</ele><time>2026-04-07T15:04:01.968Z</time></trkpt><trkpt lat="43.3680633" lon="11.75973"><ele>266.42857142857144</ele><time>2026-04-07T15:04:03.967Z</time></trkpt><trkpt lat="43.3680217" lon="11.759655"><ele>266.8571428571429</ele><time>2026-04-07T15:04:05.967Z</time></trkpt><trkpt lat="43.3679833" lon="11.7595783"><ele>267.2857142857143</ele><time>2026-04-07T15:04:07.967Z</time></trkpt><trkpt lat="43.3679483" lon="11.7595"><ele>267.7142857142857</ele><time>2026-04-07T15:04:09.968Z</time></trkpt><trkpt lat="43.3679133" lon="11.7594267"><ele>268.14285714285717</ele><time>2026-04-07T15:04:11.967Z</time></trkpt><trkpt lat="43.36787" lon="11.7593533"><ele>268.57142857142856</ele><time>2026-04-07T15:04:13.969Z</time></trkpt><trkpt lat="43.367825" lon="11.7592717"><ele>269.0</ele><time>2026-04-07T15:04:15.967Z</time></trkpt><trkpt lat="43.3677883" lon="11.7591933"><ele>269.33333333333337</ele><time>2026-04-07T15:04:17.969Z</time></trkpt><trkpt lat="43.367745" lon="11.7590867"><ele>269.6666666666667</ele><time>2026-04-07T15:04:20.969Z</time></trkpt><trkpt lat="43.3676817" lon="11.7590067"><ele>270.0</ele><time>2026-04-07T15:04:23.97Z</time></trkpt><trkpt lat="43.3676433" lon="11.7589133"><ele>270.3333333333333</ele><time>2026-04-07T15:04:25.966Z</time></trkpt><trkpt lat="43.3676517" lon="11.7588183"><ele>270.66666666666663</ele><time>2026-04-07T15:04:27.966Z</time></trkpt><trkpt lat="43.36765" lon="11.758715"><ele>271.0</ele><time>2026-04-07T15:04:29.967Z</time></trkpt><trkpt lat="43.3676667" lon="11.7586117"><ele>271.0</ele><time>2026-04-07T15:04:31.967Z</time></trkpt><trkpt lat="43.3676933" lon="11.7585283"><ele>271.0</ele><time>2026-04-07T15:04:33.965Z</time></trkpt><trkpt lat="43.367745" lon="11.7584433"><ele>271.0</ele><time>2026-04-07T15:04:36.969Z</time></trkpt><trkpt lat="43.3678117" lon="11.758365"><ele>271.0</ele><time>2026-04-07T15:04:39.972Z</time></trkpt><trkpt lat="43.3678733" lon="11.7583217"><ele>271.0</ele><time>2026-04-07T15:04:42.963Z</time></trkpt><trkpt lat="43.3679383" lon="11.75829"><ele>271.0</ele><time>2026-04-07T15:04:45.966Z</time></trkpt><trkpt lat="43.3680017" lon="11.7582783"><ele>271.0</ele><time>2026-04-07T15:04:48.966Z</time></trkpt><trkpt lat="43.3680817" lon="11.7582617"><ele>271.7142857142857</ele><time>2026-04-07T15:04:52.968Z</time></trkpt><trkpt lat="43.3681483" lon="11.7582433"><ele>272.42857142857144</ele><time>2026-04-07T15:04:55.964Z</time></trkpt><trkpt lat="43.368215" lon="11.758225"><ele>273.14285714285717</ele><time>2026-04-07T15:04:58.965Z</time></trkpt><trkpt lat="43.3682817" lon="11.7581967"><ele>273.8571428571429</ele><time>2026-04-07T15:05:01.965Z</time></trkpt><trkpt lat="43.36835" lon="11.758175"><ele>274.5714285714286</ele><time>2026-04-07T15:05:04.965Z</time></trkpt><trkpt lat="43.368415" lon="11.7581683"><ele>275.2857142857143</ele><time>2026-04-07T15:05:07.966Z</time></trkpt><trkpt lat="43.3684817" lon="11.7581533"><ele>276.0</ele><time>2026-04-07T15:05:10.964Z</time></trkpt><trkpt lat="43.3685483" lon="11.7581417"><ele>276.0</ele><time>2026-04-07T15:05:13.965Z</time></trkpt><trkpt lat="43.368615" lon="11.758125"><ele>276.0</ele><time>2026-04-07T15:05:16.965Z</time></trkpt><trkpt lat="43.36868" lon="11.7581"><ele>276.0</ele><time>2026-04-07T15:05:19.968Z</time></trkpt><trkpt lat="43.3687467" lon="11.7580733"><ele>276.0</ele><time>2026-04-07T15:05:22.972Z</time></trkpt><trkpt lat="43.3688117" lon="11.7580333"><ele>276.0</ele><time>2026-04-07T15:05:25.964Z</time></trkpt><trkpt lat="43.368875" lon="11.7579883"><ele>276.0</ele><time>2026-04-07T15:05:28.965Z</time></trkpt><trkpt lat="43.368935" lon="11.7579333"><ele>276.0</ele><time>2026-04-07T15:05:31.965Z</time></trkpt><trkpt lat="43.36899" lon="11.7578817"><ele>276.42857142857144</ele><time>2026-04-07T15:05:34.969Z</time></trkpt><trkpt lat="43.369045" lon="11.75783"><ele>276.8571428571429</ele><time>2026-04-07T15:05:37.969Z</time></trkpt><trkpt lat="43.3690967" lon="11.7577783"><ele>277.2857142857143</ele><time>2026-04-07T15:05:40.965Z</time></trkpt><trkpt lat="43.3691483" lon="11.7577183"><ele>277.7142857142857</ele><time>2026-04-07T15:05:43.965Z</time></trkpt><trkpt lat="43.369195" lon="11.7576533"><ele>278.1428571428571</ele><time>2026-04-07T15:05:46.965Z</time></trkpt><trkpt lat="43.3692467" lon="11.7575967"><ele>278.57142857142856</ele><time>2026-04-07T15:05:49.966Z</time></trkpt><trkpt lat="43.3693083" lon="11.7575283"><ele>279.0</ele><time>2026-04-07T15:05:53.966Z</time></trkpt><trkpt lat="43.3693617" lon="11.75748"><ele>279.71428571428567</ele><time>2026-04-07T15:05:56.969Z</time></trkpt><trkpt lat="43.3694217" lon="11.757405"><ele>280.42857142857144</ele><time>2026-04-07T15:06:00.965Z</time></trkpt><trkpt lat="43.3694933" lon="11.7573383"><ele>281.1428571428571</ele><time>2026-04-07T15:06:04.967Z</time></trkpt><trkpt lat="43.3695517" lon="11.757275"><ele>281.85714285714283</ele><time>2026-04-07T15:06:07.964Z</time></trkpt><trkpt lat="43.3696" lon="11.757215"><ele>282.57142857142856</ele><time>2026-04-07T15:06:10.965Z</time></trkpt><trkpt lat="43.369655" lon="11.7571533"><ele>283.2857142857143</ele><time>2026-04-07T15:06:13.968Z</time></trkpt><trkpt lat="43.3697133" lon="11.7570967"><ele>284.0</ele><time>2026-04-07T15:06:16.964Z</time></trkpt><trkpt lat="43.369765" lon="11.75703"><ele>284.1666666666667</ele><time>2026-04-07T15:06:19.965Z</time></trkpt><trkpt lat="43.36982" lon="11.7569533"><ele>284.33333333333337</ele><time>2026-04-07T15:06:22.964Z</time></trkpt><trkpt lat="43.3698883" lon="11.756895"><ele>284.5</ele><time>2026-04-07T15:06:25.967Z</time></trkpt><trkpt lat="43.3699533" lon="11.7568333"><ele>284.6666666666667</ele><time>2026-04-07T15:06:28.966Z</time></trkpt><trkpt lat="43.370015" lon="11.75677"><ele>284.8333333333333</ele><time>2026-04-07T15:06:31.966Z</time></trkpt><trkpt lat="43.370075" lon="11.7566967"><ele>285.0</ele><time>2026-04-07T15:06:34.967Z</time></trkpt><trkpt lat="43.370135" lon="11.7566233"><ele>285.3333333333333</ele><time>2026-04-07T15:06:37.965Z</time></trkpt><trkpt lat="43.3701983" lon="11.7565517"><ele>285.6666666666667</ele><time>2026-04-07T15:06:40.966Z</time></trkpt><trkpt lat="43.370265" lon="11.7564817"><ele>286.0</ele><time>2026-04-07T15:06:43.965Z</time></trkpt><trkpt lat="43.3703317" lon="11.7564133"><ele>286.33333333333337</ele><time>2026-04-07T15:06:46.968Z</time></trkpt><trkpt lat="43.3704" lon="11.756335"><ele>286.6666666666667</ele><time>2026-04-07T15:06:49.966Z</time></trkpt><trkpt lat="43.3704717" lon="11.75627"><ele>287.0</ele><time>2026-04-07T15:06:52.968Z</time></trkpt><trkpt lat="43.3705383" lon="11.7561883"><ele>287.0</ele><time>2026-04-07T15:06:55.965Z</time></trkpt><trkpt lat="43.3706017" lon="11.75611"><ele>287.0</ele><time>2026-04-07T15:06:58.964Z</time></trkpt><trkpt lat="43.3706733" lon="11.7560333"><ele>287.0</ele><time>2026-04-07T15:07:01.969Z</time></trkpt><trkpt lat="43.370735" lon="11.7559517"><ele>287.0</ele><time>2026-04-07T15:07:04.964Z</time></trkpt><trkpt lat="43.3707883" lon="11.7558883"><ele>287.0</ele><time>2026-04-07T15:07:07.967Z</time></trkpt><trkpt lat="43.3708383" lon="11.7557917"><ele>287.0</ele><time>2026-04-07T15:07:10.967Z</time></trkpt><trkpt lat="43.37088" lon="11.7556883"><ele>286.83333333333337</ele><time>2026-04-07T15:07:13.967Z</time></trkpt><trkpt lat="43.3709333" lon="11.7555933"><ele>286.6666666666667</ele><time>2026-04-07T15:07:16.966Z</time></trkpt><trkpt lat="43.370975" lon="11.7555217"><ele>286.5</ele><time>2026-04-07T15:07:18.965Z</time></trkpt><trkpt lat="43.3710117" lon="11.75545"><ele>286.3333333333333</ele><time>2026-04-07T15:07:20.969Z</time></trkpt><trkpt lat="43.3710683" lon="11.755355"><ele>286.16666666666663</ele><time>2026-04-07T15:07:23.965Z</time></trkpt><trkpt lat="43.37112" lon="11.7552583"><ele>286.0</ele><time>2026-04-07T15:07:26.968Z</time></trkpt><trkpt lat="43.3711717" lon="11.7551817"><ele>285.99999999999994</ele><time>2026-04-07T15:07:29.963Z</time></trkpt><trkpt lat="43.3712283" lon="11.7551083"><ele>286.0</ele><time>2026-04-07T15:07:32.968Z</time></trkpt><trkpt lat="43.371285" lon="11.7550067"><ele>286.0</ele><time>2026-04-07T15:07:35.969Z</time></trkpt><trkpt lat="43.3713233" lon="11.754935"><ele>286.0</ele><time>2026-04-07T15:07:37.966Z</time></trkpt><trkpt lat="43.37136" lon="11.7548617"><ele>286.0</ele><time>2026-04-07T15:07:39.97Z</time></trkpt><trkpt lat="43.3714117" lon="11.75478"><ele>285.99999999999994</ele><time>2026-04-07T15:07:41.967Z</time></trkpt><trkpt lat="43.371455" lon="11.7547083"><ele>286.0</ele><time>2026-04-07T15:07:43.965Z</time></trkpt><trkpt lat="43.371495" lon="11.7546283"><ele>285.99999999999994</ele><time>2026-04-07T15:07:45.967Z</time></trkpt><trkpt lat="43.371535" lon="11.7545567"><ele>286.0</ele><time>2026-04-07T15:07:47.965Z</time></trkpt><trkpt lat="43.3715767" lon="11.7544817"><ele>286.0</ele><time>2026-04-07T15:07:49.967Z</time></trkpt><trkpt lat="43.3716183" lon="11.7544133"><ele>286.0</ele><time>2026-04-07T15:07:51.964Z</time></trkpt><trkpt lat="43.37167" lon="11.7543"><ele>286.0</ele><time>2026-04-07T15:07:54.967Z</time></trkpt><trkpt lat="43.3717017" lon="11.7542167"><ele>285.99999999999994</ele><time>2026-04-07T15:07:56.967Z</time></trkpt><trkpt lat="43.3717267" lon="11.75413"><ele>286.0</ele><time>2026-04-07T15:07:58.966Z</time></trkpt><trkpt lat="43.37176" lon="11.75404"><ele>285.99999999999994</ele><time>2026-04-07T15:08:00.969Z</time></trkpt><trkpt lat="43.3717983" lon="11.75395"><ele>286.0</ele><time>2026-04-07T15:08:02.967Z</time></trkpt><trkpt lat="43.3718317" lon="11.75386"><ele>286.0</ele><time>2026-04-07T15:08:04.966Z</time></trkpt><trkpt lat="43.37187" lon="11.7537583"><ele>286.0</ele><time>2026-04-07T15:08:06.965Z</time></trkpt><trkpt lat="43.3719067" lon="11.7536717"><ele>286.0</ele><time>2026-04-07T15:08:08.964Z</time></trkpt><trkpt lat="43.37194" lon="11.753585"><ele>285.99999999999994</ele><time>2026-04-07T15:08:10.966Z</time></trkpt><trkpt lat="43.3719717" lon="11.7535"><ele>286.0</ele><time>2026-04-07T15:08:12.97Z</time></trkpt><trkpt lat="43.372005" lon="11.753415"><ele>285.99999999999994</ele><time>2026-04-07T15:08:14.967Z</time></trkpt><trkpt lat="43.37203" lon="11.7533283"><ele>286.0</ele><time>2026-04-07T15:08:16.969Z</time></trkpt><trkpt lat="43.372065" lon="11.7532517"><ele>286.0</ele><time>2026-04-07T15:08:18.968Z</time></trkpt><trkpt lat="43.3720967" lon="11.7531683"><ele>286.0</ele><time>2026-04-07T15:08:20.969Z</time></trkpt><trkpt lat="43.3721283" lon="11.7530867"><ele>286.0</ele><time>2026-04-07T15:08:22.964Z</time></trkpt><trkpt lat="43.3721567" lon="11.7530017"><ele>285.99999999999994</ele><time>2026-04-07T15:08:24.964Z</time></trkpt><trkpt lat="43.3722" lon="11.7528883"><ele>286.0</ele><time>2026-04-07T15:08:27.968Z</time></trkpt><trkpt lat="43.3722333" lon="11.7528117"><ele>285.99999999999994</ele><time>2026-04-07T15:08:29.966Z</time></trkpt><trkpt lat="43.3722683" lon="11.7527333"><ele>286.0</ele><time>2026-04-07T15:08:31.966Z</time></trkpt><trkpt lat="43.3723083" lon="11.7526517"><ele>286.0</ele><time>2026-04-07T15:08:33.966Z</time></trkpt><trkpt lat="43.37235" lon="11.7525783"><ele>286.0</ele><time>2026-04-07T15:08:35.966Z</time></trkpt><trkpt lat="43.3724067" lon="11.7524767"><ele>286.0</ele><time>2026-04-07T15:08:38.968Z</time></trkpt><trkpt lat="43.37245" lon="11.7524017"><ele>285.99999999999994</ele><time>2026-04-07T15:08:40.965Z</time></trkpt><trkpt lat="43.3724983" lon="11.7523367"><ele>286.0</ele><time>2026-04-07T15:08:42.967Z</time></trkpt><trkpt lat="43.3725433" lon="11.7522733"><ele>286.1428571428571</ele><time>2026-04-07T15:08:44.966Z</time></trkpt><trkpt lat="43.3725883" lon="11.75221"><ele>286.2857142857143</ele><time>2026-04-07T15:08:46.964Z</time></trkpt><trkpt lat="43.372655" lon="11.752115"><ele>286.42857142857144</ele><time>2026-04-07T15:08:49.968Z</time></trkpt><trkpt lat="43.3726983" lon="11.752045"><ele>286.57142857142856</ele><time>2026-04-07T15:08:51.967Z</time></trkpt><trkpt lat="43.37274" lon="11.75198"><ele>286.7142857142857</ele><time>2026-04-07T15:08:53.966Z</time></trkpt><trkpt lat="43.3727817" lon="11.75191"><ele>286.85714285714283</ele><time>2026-04-07T15:08:55.967Z</time></trkpt><trkpt lat="43.3728267" lon="11.7518433"><ele>287.0</ele><time>2026-04-07T15:08:57.964Z</time></trkpt><trkpt lat="43.3728717" lon="11.751775"><ele>287.2857142857143</ele><time>2026-04-07T15:08:59.963Z</time></trkpt><trkpt lat="43.3729233" lon="11.7517017"><ele>287.57142857142856</ele><time>2026-04-07T15:09:01.967Z</time></trkpt><trkpt lat="43.3729733" lon="11.7516317"><ele>287.8571428571429</ele><time>2026-04-07T15:09:03.967Z</time></trkpt><trkpt lat="43.3730233" lon="11.7515583"><ele>288.1428571428571</ele><time>2026-04-07T15:09:05.968Z</time></trkpt><trkpt lat="43.3730717" lon="11.75149"><ele>288.42857142857144</ele><time>2026-04-07T15:09:07.966Z</time></trkpt><trkpt lat="43.3731217" lon="11.7514233"><ele>288.7142857142857</ele><time>2026-04-07T15:09:09.967Z</time></trkpt><trkpt lat="43.373185" lon="11.7513333"><ele>289.0</ele><time>2026-04-07T15:09:12.968Z</time></trkpt><trkpt lat="43.3732083" lon="11.7512283"><ele>289.0</ele><time>2026-04-07T15:09:15.967Z</time></trkpt><trkpt lat="43.37318" lon="11.7510967"><ele>289.0</ele><time>2026-04-07T15:09:18.966Z</time></trkpt><trkpt lat="43.3731233" lon="11.751005"><ele>289.0</ele><time>2026-04-07T15:09:21.966Z</time></trkpt><trkpt lat="43.3730667" lon="11.75091"><ele>289.0</ele><time>2026-04-07T15:09:24.97Z</time></trkpt><trkpt lat="43.3730067" lon="11.7508183"><ele>289.0</ele><time>2026-04-07T15:09:27.967Z</time></trkpt><trkpt lat="43.3729733" lon="11.75074"><ele>289.0</ele><time>2026-04-07T15:09:29.964Z</time></trkpt><trkpt lat="43.37293" lon="11.750675"><ele>289.14285714285717</ele><time>2026-04-07T15:09:31.968Z</time></trkpt><trkpt lat="43.37289" lon="11.750605"><ele>289.2857142857143</ele><time>2026-04-07T15:09:33.969Z</time></trkpt><trkpt lat="43.3728533" lon="11.7505333"><ele>289.42857142857144</ele><time>2026-04-07T15:09:35.964Z</time></trkpt><trkpt lat="43.3728133" lon="11.7504617"><ele>289.57142857142856</ele><time>2026-04-07T15:09:37.967Z</time></trkpt><trkpt lat="43.3727667" lon="11.75039"><ele>289.7142857142857</ele><time>2026-04-07T15:09:39.968Z</time></trkpt><trkpt lat="43.3727117" lon="11.75029"><ele>289.8571428571429</ele><time>2026-04-07T15:09:42.967Z</time></trkpt><trkpt lat="43.3726533" lon="11.75019"><ele>290.0</ele><time>2026-04-07T15:09:45.965Z</time></trkpt><trkpt lat="43.37261" lon="11.75012"><ele>290.5</ele><time>2026-04-07T15:09:47.964Z</time></trkpt><trkpt lat="43.37256" lon="11.750045"><ele>291.0</ele><time>2026-04-07T15:09:49.965Z</time></trkpt><trkpt lat="43.372505" lon="11.74998"><ele>291.5</ele><time>2026-04-07T15:09:51.965Z</time></trkpt><trkpt lat="43.3724617" lon="11.7499117"><ele>292.0</ele><time>2026-04-07T15:09:53.97Z</time></trkpt><trkpt lat="43.3724033" lon="11.7498167"><ele>292.5</ele><time>2026-04-07T15:09:56.967Z</time></trkpt><trkpt lat="43.3723433" lon="11.7497283"><ele>293.0</ele><time>2026-04-07T15:09:59.975Z</time></trkpt><trkpt lat="43.3722983" lon="11.74966"><ele>292.99999999999994</ele><time>2026-04-07T15:10:01.969Z</time></trkpt><trkpt lat="43.3722533" lon="11.749595"><ele>293.0</ele><time>2026-04-07T15:10:03.967Z</time></trkpt><trkpt lat="43.3722033" lon="11.7495233"><ele>293.0</ele><time>2026-04-07T15:10:05.971Z</time></trkpt><trkpt lat="43.3721633" lon="11.74945"><ele>293.0</ele><time>2026-04-07T15:10:07.97Z</time></trkpt><trkpt lat="43.37211" lon="11.7493433"><ele>293.0</ele><time>2026-04-07T15:10:10.964Z</time></trkpt><trkpt lat="43.372075" lon="11.7492633"><ele>292.99999999999994</ele><time>2026-04-07T15:10:12.965Z</time></trkpt><trkpt lat="43.3720433" lon="11.7491783"><ele>293.0</ele><time>2026-04-07T15:10:14.967Z</time></trkpt><trkpt lat="43.372015" lon="11.7490967"><ele>293.1428571428571</ele><time>2026-04-07T15:10:16.963Z</time></trkpt><trkpt lat="43.371985" lon="11.7490117"><ele>293.2857142857143</ele><time>2026-04-07T15:10:18.965Z</time></trkpt><trkpt lat="43.371965" lon="11.7489267"><ele>293.42857142857144</ele><time>2026-04-07T15:10:20.966Z</time></trkpt><trkpt lat="43.3719333" lon="11.7488383"><ele>293.57142857142856</ele><time>2026-04-07T15:10:22.965Z</time></trkpt><trkpt lat="43.3719067" lon="11.74875"><ele>293.7142857142857</ele><time>2026-04-07T15:10:24.964Z</time></trkpt><trkpt lat="43.37188" lon="11.7486617"><ele>293.85714285714283</ele><time>2026-04-07T15:10:26.963Z</time></trkpt><trkpt lat="43.371855" lon="11.7485783"><ele>294.0</ele><time>2026-04-07T15:10:28.966Z</time></trkpt><trkpt lat="43.3718333" lon="11.7484917"><ele>294.14285714285717</ele><time>2026-04-07T15:10:30.965Z</time></trkpt><trkpt lat="43.37181" lon="11.748405"><ele>294.2857142857143</ele><time>2026-04-07T15:10:32.964Z</time></trkpt><trkpt lat="43.3717817" lon="11.7483183"><ele>294.42857142857144</ele><time>2026-04-07T15:10:34.967Z</time></trkpt><trkpt lat="43.371755" lon="11.74822"><ele>294.57142857142856</ele><time>2026-04-07T15:10:36.967Z</time></trkpt><trkpt lat="43.3717183" lon="11.7481433"><ele>294.7142857142857</ele><time>2026-04-07T15:10:38.966Z</time></trkpt><trkpt lat="43.3716683" lon="11.7480783"><ele>294.8571428571429</ele><time>2026-04-07T15:10:40.966Z</time></trkpt><trkpt lat="43.3716467" lon="11.7479583"><ele>295.0</ele><time>2026-04-07T15:10:43.966Z</time></trkpt><trkpt lat="43.3716283" lon="11.7478683"><ele>295.0</ele><time>2026-04-07T15:10:45.966Z</time></trkpt><trkpt lat="43.37161" lon="11.7477817"><ele>295.0</ele><time>2026-04-07T15:10:47.965Z</time></trkpt><trkpt lat="43.3715767" lon="11.7476117"><ele>295.0</ele><time>2026-04-07T15:10:51.965Z</time></trkpt><trkpt lat="43.3715433" lon="11.7475267"><ele>295.0</ele><time>2026-04-07T15:10:53.968Z</time></trkpt><trkpt lat="43.37152" lon="11.7474433"><ele>295.0</ele><time>2026-04-07T15:10:55.964Z</time></trkpt><trkpt lat="43.3714983" lon="11.7473517"><ele>295.0</ele><time>2026-04-07T15:10:57.963Z</time></trkpt><trkpt lat="43.3714883" lon="11.7472483"><ele>294.5</ele><time>2026-04-07T15:10:59.966Z</time></trkpt><trkpt lat="43.3714683" lon="11.74715"><ele>294.0</ele><time>2026-04-07T15:11:01.964Z</time></trkpt><trkpt lat="43.3714433" lon="11.7470517"><ele>293.5</ele><time>2026-04-07T15:11:03.962Z</time></trkpt><trkpt lat="43.3714217" lon="11.74694"><ele>293.0</ele><time>2026-04-07T15:11:05.966Z</time></trkpt><trkpt lat="43.371405" lon="11.7468317"><ele>292.5</ele><time>2026-04-07T15:11:07.963Z</time></trkpt><trkpt lat="43.3714033" lon="11.74673"><ele>292.0</ele><time>2026-04-07T15:11:09.963Z</time></trkpt><trkpt lat="43.3714067" lon="11.746635"><ele>291.85714285714283</ele><time>2026-04-07T15:11:11.964Z</time></trkpt><trkpt lat="43.3714117" lon="11.7465433"><ele>291.7142857142857</ele><time>2026-04-07T15:11:13.966Z</time></trkpt><trkpt lat="43.3714267" lon="11.74645"><ele>291.57142857142856</ele><time>2026-04-07T15:11:15.966Z</time></trkpt><trkpt lat="43.3714333" lon="11.7463567"><ele>291.42857142857144</ele><time>2026-04-07T15:11:17.965Z</time></trkpt><trkpt lat="43.3714417" lon="11.74627"><ele>291.2857142857143</ele><time>2026-04-07T15:11:19.968Z</time></trkpt><trkpt lat="43.371455" lon="11.7461767"><ele>291.1428571428571</ele><time>2026-04-07T15:11:21.965Z</time></trkpt><trkpt lat="43.3714683" lon="11.74608"><ele>291.0</ele><time>2026-04-07T15:11:23.969Z</time></trkpt><trkpt lat="43.371485" lon="11.7459883"><ele>291.2857142857143</ele><time>2026-04-07T15:11:25.966Z</time></trkpt><trkpt lat="43.3714983" lon="11.7459"><ele>291.57142857142856</ele><time>2026-04-07T15:11:27.966Z</time></trkpt><trkpt lat="43.3715083" lon="11.7458033"><ele>291.85714285714283</ele><time>2026-04-07T15:11:29.965Z</time></trkpt><trkpt lat="43.3715267" lon="11.7457167"><ele>292.1428571428571</ele><time>2026-04-07T15:11:31.964Z</time></trkpt><trkpt lat="43.3715383" lon="11.7456117"><ele>292.42857142857144</ele><time>2026-04-07T15:11:33.967Z</time></trkpt><trkpt lat="43.371545" lon="11.7455167"><ele>292.71428571428567</ele><time>2026-04-07T15:11:35.965Z</time></trkpt><trkpt lat="43.3715533" lon="11.7454067"><ele>293.0</ele><time>2026-04-07T15:11:38.967Z</time></trkpt><trkpt lat="43.3715733" lon="11.7453167"><ele>292.33333333333337</ele><time>2026-04-07T15:11:42.965Z</time></trkpt><trkpt lat="43.3715767" lon="11.7452033"><ele>291.6666666666667</ele><time>2026-04-07T15:11:46.967Z</time></trkpt><trkpt lat="43.3715917" lon="11.7450883"><ele>291.0</ele><time>2026-04-07T15:11:49.964Z</time></trkpt><trkpt lat="43.37159" lon="11.7449767"><ele>290.3333333333333</ele><time>2026-04-07T15:11:52.963Z</time></trkpt><trkpt lat="43.3715717" lon="11.7448533"><ele>289.66666666666663</ele><time>2026-04-07T15:11:55.964Z</time></trkpt><trkpt lat="43.3715383" lon="11.74473"><ele>289.0</ele><time>2026-04-07T15:11:58.964Z</time></trkpt><trkpt lat="43.3715033" lon="11.74465"><ele>289.0</ele><time>2026-04-07T15:12:00.965Z</time></trkpt><trkpt lat="43.371465" lon="11.744565"><ele>289.0</ele><time>2026-04-07T15:12:02.966Z</time></trkpt><trkpt lat="43.371425" lon="11.74448"><ele>289.0</ele><time>2026-04-07T15:12:04.965Z</time></trkpt><trkpt lat="43.37138" lon="11.7443967"><ele>289.0</ele><time>2026-04-07T15:12:06.965Z</time></trkpt><trkpt lat="43.3713333" lon="11.744315"><ele>289.0</ele><time>2026-04-07T15:12:08.965Z</time></trkpt><trkpt lat="43.37129" lon="11.7442483"><ele>289.0</ele><time>2026-04-07T15:12:10.965Z</time></trkpt><trkpt lat="43.3712383" lon="11.7441583"><ele>289.0</ele><time>2026-04-07T15:12:13.966Z</time></trkpt><trkpt lat="43.3712467" lon="11.7440417"><ele>289.0</ele><time>2026-04-07T15:13:32.966Z</time></trkpt><trkpt lat="43.3713267" lon="11.7439933"><ele>289.0</ele><time>2026-04-07T15:13:36.965Z</time></trkpt><trkpt lat="43.371395" lon="11.7439533"><ele>289.0</ele><time>2026-04-07T15:13:39.967Z</time></trkpt><trkpt lat="43.3714683" lon="11.7438933"><ele>289.0</ele><time>2026-04-07T15:13:42.966Z</time></trkpt><trkpt lat="43.3715267" lon="11.7438517"><ele>289.0</ele><time>2026-04-07T15:13:44.967Z</time></trkpt><trkpt lat="43.37159" lon="11.743815"><ele>289.0</ele><time>2026-04-07T15:13:46.964Z</time></trkpt><trkpt lat="43.3716517" lon="11.743775"><ele>289.0</ele><time>2026-04-07T15:13:48.967Z</time></trkpt><trkpt lat="43.371715" lon="11.743735"><ele>289.0</ele><time>2026-04-07T15:13:50.966Z</time></trkpt><trkpt lat="43.371775" lon="11.743675"><ele>289.0</ele><time>2026-04-07T15:13:52.965Z</time></trkpt><trkpt lat="43.3718217" lon="11.7435617"><ele>289.0</ele><time>2026-04-07T15:13:55.967Z</time></trkpt><trkpt lat="43.3718367" lon="11.74346"><ele>289.0</ele><time>2026-04-07T15:13:57.967Z</time></trkpt><trkpt lat="43.3718483" lon="11.7433617"><ele>289.0</ele><time>2026-04-07T15:13:59.964Z</time></trkpt><trkpt lat="43.37186" lon="11.7432367"><ele>289.5</ele><time>2026-04-07T15:14:01.969Z</time></trkpt><trkpt lat="43.3718617" lon="11.7431217"><ele>290.0</ele><time>2026-04-07T15:14:03.965Z</time></trkpt><trkpt lat="43.3718567" lon="11.7430067"><ele>290.5</ele><time>2026-04-07T15:14:05.965Z</time></trkpt><trkpt lat="43.371835" lon="11.7429"><ele>291.0</ele><time>2026-04-07T15:14:07.967Z</time></trkpt><trkpt lat="43.3718117" lon="11.7427917"><ele>291.5</ele><time>2026-04-07T15:14:09.968Z</time></trkpt><trkpt lat="43.371785" lon="11.74268"><ele>292.0</ele><time>2026-04-07T15:14:11.965Z</time></trkpt><trkpt lat="43.3717633" lon="11.742575"><ele>292.1428571428571</ele><time>2026-04-07T15:14:13.965Z</time></trkpt><trkpt lat="43.37174" lon="11.742475"><ele>292.2857142857143</ele><time>2026-04-07T15:14:15.968Z</time></trkpt><trkpt lat="43.3717167" lon="11.7423733"><ele>292.42857142857144</ele><time>2026-04-07T15:14:17.965Z</time></trkpt><trkpt lat="43.3716933" lon="11.742275"><ele>292.57142857142856</ele><time>2026-04-07T15:14:19.964Z</time></trkpt><trkpt lat="43.3716717" lon="11.7421883"><ele>292.7142857142857</ele><time>2026-04-07T15:14:21.963Z</time></trkpt><trkpt lat="43.3716517" lon="11.74209"><ele>292.85714285714283</ele><time>2026-04-07T15:14:23.966Z</time></trkpt><trkpt lat="43.3716317" lon="11.7419867"><ele>293.0</ele><time>2026-04-07T15:14:25.967Z</time></trkpt><trkpt lat="43.3716133" lon="11.741885"><ele>293.1666666666667</ele><time>2026-04-07T15:14:27.963Z</time></trkpt><trkpt lat="43.3715983" lon="11.7417817"><ele>293.33333333333337</ele><time>2026-04-07T15:14:29.967Z</time></trkpt><trkpt lat="43.3715817" lon="11.74167"><ele>293.5</ele><time>2026-04-07T15:14:31.974Z</time></trkpt><trkpt lat="43.371565" lon="11.7415667"><ele>293.6666666666667</ele><time>2026-04-07T15:14:33.964Z</time></trkpt><trkpt lat="43.37154" lon="11.74143"><ele>293.8333333333333</ele><time>2026-04-07T15:14:36.965Z</time></trkpt><trkpt lat="43.3715183" lon="11.7413317"><ele>294.0</ele><time>2026-04-07T15:14:38.968Z</time></trkpt><trkpt lat="43.37148" lon="11.7412167"><ele>294.0</ele><time>2026-04-07T15:14:40.964Z</time></trkpt><trkpt lat="43.37146" lon="11.7411167"><ele>294.0</ele><time>2026-04-07T15:14:42.967Z</time></trkpt><trkpt lat="43.371435" lon="11.7410233"><ele>294.0</ele><time>2026-04-07T15:14:44.967Z</time></trkpt><trkpt lat="43.3714133" lon="11.74094"><ele>294.0</ele><time>2026-04-07T15:14:46.968Z</time></trkpt><trkpt lat="43.3713967" lon="11.740845"><ele>294.0</ele><time>2026-04-07T15:14:48.968Z</time></trkpt><trkpt lat="43.3713783" lon="11.7407617"><ele>294.0</ele><time>2026-04-07T15:14:50.966Z</time></trkpt><trkpt lat="43.3713517" lon="11.7406783"><ele>294.0</ele><time>2026-04-07T15:14:52.965Z</time></trkpt><trkpt lat="43.3713267" lon="11.7405883"><ele>293.8333333333333</ele><time>2026-04-07T15:14:54.964Z</time></trkpt><trkpt lat="43.3713033" lon="11.7404833"><ele>293.6666666666667</ele><time>2026-04-07T15:14:56.97Z</time></trkpt><trkpt lat="43.37128" lon="11.74037"><ele>293.5</ele><time>2026-04-07T15:14:58.966Z</time></trkpt><trkpt lat="43.3712617" lon="11.7402483"><ele>293.33333333333337</ele><time>2026-04-07T15:15:00.965Z</time></trkpt><trkpt lat="43.3712417" lon="11.740135"><ele>293.1666666666667</ele><time>2026-04-07T15:15:02.968Z</time></trkpt><trkpt lat="43.3712267" lon="11.7400383"><ele>293.0</ele><time>2026-04-07T15:15:04.971Z</time></trkpt><trkpt lat="43.3711917" lon="11.739935"><ele>293.0</ele><time>2026-04-07T15:15:07.964Z</time></trkpt><trkpt lat="43.371125" lon="11.739865"><ele>293.0</ele><time>2026-04-07T15:15:10.967Z</time></trkpt><trkpt lat="43.3710417" lon="11.7398"><ele>293.0</ele><time>2026-04-07T15:15:13.964Z</time></trkpt><trkpt lat="43.3709733" lon="11.7397483"><ele>293.0</ele><time>2026-04-07T15:15:15.968Z</time></trkpt><trkpt lat="43.3709" lon="11.7396933"><ele>293.0</ele><time>2026-04-07T15:15:17.966Z</time></trkpt><trkpt lat="43.3708167" lon="11.7396333"><ele>293.0</ele><time>2026-04-07T15:15:19.966Z</time></trkpt><trkpt lat="43.3707233" lon="11.73957"><ele>293.0</ele><time>2026-04-07T15:15:21.971Z</time></trkpt><trkpt lat="43.3706433" lon="11.7395183"><ele>293.0</ele><time>2026-04-07T15:15:23.967Z</time></trkpt><trkpt lat="43.370565" lon="11.7394717"><ele>293.0</ele><time>2026-04-07T15:15:25.966Z</time></trkpt><trkpt lat="43.3704833" lon="11.7394183"><ele>293.0</ele><time>2026-04-07T15:15:27.964Z</time></trkpt><trkpt lat="43.370405" lon="11.7393733"><ele>293.0</ele><time>2026-04-07T15:15:29.969Z</time></trkpt><trkpt lat="43.3702983" lon="11.7392967"><ele>293.0</ele><time>2026-04-07T15:15:32.966Z</time></trkpt><trkpt lat="43.3702217" lon="11.739245"><ele>293.0</ele><time>2026-04-07T15:15:34.965Z</time></trkpt><trkpt lat="43.3701383" lon="11.7391867"><ele>293.0</ele><time>2026-04-07T15:15:36.965Z</time></trkpt><trkpt lat="43.37006" lon="11.7391317"><ele>293.0</ele><time>2026-04-07T15:15:38.968Z</time></trkpt><trkpt lat="43.3699867" lon="11.739085"><ele>293.0</ele><time>2026-04-07T15:15:40.964Z</time></trkpt><trkpt lat="43.3699117" lon="11.73903"><ele>293.0</ele><time>2026-04-07T15:15:42.964Z</time></trkpt><trkpt lat="43.369845" lon="11.73898"><ele>293.0</ele><time>2026-04-07T15:15:44.966Z</time></trkpt><trkpt lat="43.3697667" lon="11.73893"><ele>293.0</ele><time>2026-04-07T15:15:46.964Z</time></trkpt><trkpt lat="43.3696833" lon="11.7388817"><ele>293.0</ele><time>2026-04-07T15:15:48.966Z</time></trkpt><trkpt lat="43.3696" lon="11.73883"><ele>293.0</ele><time>2026-04-07T15:15:50.966Z</time></trkpt><trkpt lat="43.3695133" lon="11.7387733"><ele>293.0</ele><time>2026-04-07T15:15:52.964Z</time></trkpt><trkpt lat="43.3694333" lon="11.7387117"><ele>293.0</ele><time>2026-04-07T15:15:54.967Z</time></trkpt><trkpt lat="43.36935" lon="11.738655"><ele>293.0</ele><time>2026-04-07T15:15:56.963Z</time></trkpt><trkpt lat="43.3692767" lon="11.7385917"><ele>293.0</ele><time>2026-04-07T15:15:58.966Z</time></trkpt><trkpt lat="43.3692117" lon="11.7385333"><ele>293.0</ele><time>2026-04-07T15:16:00.965Z</time></trkpt><trkpt lat="43.3691467" lon="11.73848"><ele>293.0</ele><time>2026-04-07T15:16:02.968Z</time></trkpt><trkpt lat="43.3690867" lon="11.7384233"><ele>293.0</ele><time>2026-04-07T15:16:04.964Z</time></trkpt><trkpt lat="43.36903" lon="11.7383683"><ele>292.83333333333337</ele><time>2026-04-07T15:16:06.97Z</time></trkpt><trkpt lat="43.36897" lon="11.7383183"><ele>292.6666666666667</ele><time>2026-04-07T15:16:08.966Z</time></trkpt><trkpt lat="43.3689183" lon="11.7382583"><ele>292.5</ele><time>2026-04-07T15:16:10.967Z</time></trkpt><trkpt lat="43.368845" lon="11.738175"><ele>292.3333333333333</ele><time>2026-04-07T15:16:13.964Z</time></trkpt><trkpt lat="43.3687783" lon="11.7381217"><ele>292.16666666666663</ele><time>2026-04-07T15:16:15.966Z</time></trkpt><trkpt lat="43.3687083" lon="11.7380783"><ele>292.0</ele><time>2026-04-07T15:16:17.965Z</time></trkpt><trkpt lat="43.3686217" lon="11.7380267"><ele>292.0</ele><time>2026-04-07T15:16:19.965Z</time></trkpt><trkpt lat="43.368555" lon="11.7379517"><ele>292.0</ele><time>2026-04-07T15:16:21.966Z</time></trkpt><trkpt lat="43.3684733" lon="11.7378617"><ele>292.0</ele><time>2026-04-07T15:16:23.966Z</time></trkpt><trkpt lat="43.3683817" lon="11.737755"><ele>292.0</ele><time>2026-04-07T15:16:25.965Z</time></trkpt><trkpt lat="43.368275" lon="11.7376367"><ele>292.0</ele><time>2026-04-07T15:16:27.967Z</time></trkpt><trkpt lat="43.3682067" lon="11.7375817"><ele>291.5</ele><time>2026-04-07T15:16:28.967Z</time></trkpt><trkpt lat="43.3681383" lon="11.73752"><ele>291.0</ele><time>2026-04-07T15:16:29.965Z</time></trkpt><trkpt lat="43.3680733" lon="11.737455"><ele>290.5</ele><time>2026-04-07T15:16:30.964Z</time></trkpt><trkpt lat="43.3680083" lon="11.7373817"><ele>290.0</ele><time>2026-04-07T15:16:31.964Z</time></trkpt><trkpt lat="43.367955" lon="11.73729"><ele>289.5</ele><time>2026-04-07T15:16:32.967Z</time></trkpt><trkpt lat="43.3679067" lon="11.737185"><ele>289.0</ele><time>2026-04-07T15:16:33.965Z</time></trkpt><trkpt lat="43.36787" lon="11.7370667"><ele>288.0</ele><time>2026-04-07T15:16:34.964Z</time></trkpt><trkpt lat="43.367835" lon="11.7369383"><ele>287.0</ele><time>2026-04-07T15:16:35.967Z</time></trkpt><trkpt lat="43.3677983" lon="11.736805"><ele>286.0</ele><time>2026-04-07T15:16:36.964Z</time></trkpt><trkpt lat="43.3677617" lon="11.736665"><ele>285.0</ele><time>2026-04-07T15:16:37.964Z</time></trkpt><trkpt lat="43.3677217" lon="11.7365217"><ele>284.0</ele><time>2026-04-07T15:16:38.963Z</time></trkpt><trkpt lat="43.367685" lon="11.736375"><ele>282.8</ele><time>2026-04-07T15:16:39.963Z</time></trkpt><trkpt lat="43.3676483" lon="11.73623"><ele>281.59999999999997</ele><time>2026-04-07T15:16:40.96Z</time></trkpt><trkpt lat="43.3676117" lon="11.7360883"><ele>280.4</ele><time>2026-04-07T15:16:41.965Z</time></trkpt><trkpt lat="43.3675733" lon="11.7359483"><ele>279.2</ele><time>2026-04-07T15:16:42.966Z</time></trkpt><trkpt lat="43.3675333" lon="11.73581"><ele>278.0</ele><time>2026-04-07T15:16:43.965Z</time></trkpt><trkpt lat="43.3674983" lon="11.735675"><ele>277.2</ele><time>2026-04-07T15:16:44.965Z</time></trkpt><trkpt lat="43.3674683" lon="11.735545"><ele>276.4</ele><time>2026-04-07T15:16:45.963Z</time></trkpt><trkpt lat="43.3674367" lon="11.73542"><ele>275.59999999999997</ele><time>2026-04-07T15:16:46.972Z</time></trkpt><trkpt lat="43.3674033" lon="11.735295"><ele>274.8</ele><time>2026-04-07T15:16:47.962Z</time></trkpt><trkpt lat="43.3673733" lon="11.7351733"><ele>274.0</ele><time>2026-04-07T15:16:48.965Z</time></trkpt><trkpt lat="43.3673433" lon="11.7350517"><ele>273.66666666666663</ele><time>2026-04-07T15:16:49.966Z</time></trkpt><trkpt lat="43.3673117" lon="11.73494"><ele>273.3333333333333</ele><time>2026-04-07T15:16:50.966Z</time></trkpt><trkpt lat="43.3672833" lon="11.7348283"><ele>273.0</ele><time>2026-04-07T15:16:51.966Z</time></trkpt><trkpt lat="43.367255" lon="11.73472"><ele>272.6666666666667</ele><time>2026-04-07T15:16:52.964Z</time></trkpt><trkpt lat="43.36723" lon="11.73462"><ele>272.33333333333337</ele><time>2026-04-07T15:16:53.967Z</time></trkpt><trkpt lat="43.3672083" lon="11.734525"><ele>272.0</ele><time>2026-04-07T15:16:54.964Z</time></trkpt><trkpt lat="43.3672017" lon="11.73443"><ele>272.0</ele><time>2026-04-07T15:16:55.966Z</time></trkpt><trkpt lat="43.36721" lon="11.7343367"><ele>272.0</ele><time>2026-04-07T15:16:56.967Z</time></trkpt><trkpt lat="43.3672283" lon="11.7342533"><ele>272.0</ele><time>2026-04-07T15:16:57.967Z</time></trkpt><trkpt lat="43.3672883" lon="11.7341133"><ele>272.0</ele><time>2026-04-07T15:16:59.965Z</time></trkpt><trkpt lat="43.36734" lon="11.733975"><ele>272.0</ele><time>2026-04-07T15:17:01.968Z</time></trkpt><trkpt lat="43.367345" lon="11.7338317"><ele>272.0</ele><time>2026-04-07T15:17:03.962Z</time></trkpt><trkpt lat="43.367285" lon="11.7337183"><ele>272.0</ele><time>2026-04-07T15:17:05.967Z</time></trkpt><trkpt lat="43.3672033" lon="11.733635"><ele>272.0</ele><time>2026-04-07T15:17:07.967Z</time></trkpt><trkpt lat="43.3671183" lon="11.733565"><ele>272.0</ele><time>2026-04-07T15:17:09.966Z</time></trkpt><trkpt lat="43.3670333" lon="11.7335033"><ele>272.0</ele><time>2026-04-07T15:17:11.965Z</time></trkpt><trkpt lat="43.3669583" lon="11.7334467"><ele>272.1666666666667</ele><time>2026-04-07T15:17:13.968Z</time></trkpt><trkpt lat="43.3668817" lon="11.7334083"><ele>272.33333333333337</ele><time>2026-04-07T15:17:15.966Z</time></trkpt><trkpt lat="43.3668" lon="11.7333733"><ele>272.5</ele><time>2026-04-07T15:17:17.968Z</time></trkpt><trkpt lat="43.3667033" lon="11.73333"><ele>272.6666666666667</ele><time>2026-04-07T15:17:19.966Z</time></trkpt><trkpt lat="43.36662" lon="11.73329"><ele>272.8333333333333</ele><time>2026-04-07T15:17:21.966Z</time></trkpt><trkpt lat="43.3665333" lon="11.73325"><ele>273.0</ele><time>2026-04-07T15:17:23.968Z</time></trkpt><trkpt lat="43.366445" lon="11.7332033"><ele>272.8</ele><time>2026-04-07T15:17:25.968Z</time></trkpt><trkpt lat="43.3663583" lon="11.7331467"><ele>272.6</ele><time>2026-04-07T15:17:27.97Z</time></trkpt><trkpt lat="43.3662767" lon="11.7330783"><ele>272.4</ele><time>2026-04-07T15:17:29.968Z</time></trkpt><trkpt lat="43.3661983" lon="11.733"><ele>272.2</ele><time>2026-04-07T15:17:31.964Z</time></trkpt><trkpt lat="43.36612" lon="11.7329233"><ele>272.0</ele><time>2026-04-07T15:17:33.966Z</time></trkpt><trkpt lat="43.36604" lon="11.7328517"><ele>272.0</ele><time>2026-04-07T15:17:35.962Z</time></trkpt><trkpt lat="43.365965" lon="11.73278"><ele>272.0</ele><time>2026-04-07T15:17:37.963Z</time></trkpt><trkpt lat="43.3658867" lon="11.7327067"><ele>272.0</ele><time>2026-04-07T15:17:39.968Z</time></trkpt><trkpt lat="43.3657967" lon="11.7326267"><ele>272.0</ele><time>2026-04-07T15:17:41.964Z</time></trkpt><trkpt lat="43.36572" lon="11.732545"><ele>272.0</ele><time>2026-04-07T15:17:43.963Z</time></trkpt><trkpt lat="43.3656283" lon="11.732465"><ele>272.2</ele><time>2026-04-07T15:17:45.965Z</time></trkpt><trkpt lat="43.3655517" lon="11.7323867"><ele>272.4</ele><time>2026-04-07T15:17:47.966Z</time></trkpt><trkpt lat="43.3654783" lon="11.7323083"><ele>272.6</ele><time>2026-04-07T15:17:49.969Z</time></trkpt><trkpt lat="43.365405" lon="11.7322283"><ele>272.8</ele><time>2026-04-07T15:17:51.966Z</time></trkpt><trkpt lat="43.365325" lon="11.7321517"><ele>273.0</ele><time>2026-04-07T15:17:53.966Z</time></trkpt><trkpt lat="43.3652517" lon="11.732065"><ele>273.0</ele><time>2026-04-07T15:17:55.966Z</time></trkpt><trkpt lat="43.36518" lon="11.7319783"><ele>273.0</ele><time>2026-04-07T15:17:57.966Z</time></trkpt><trkpt lat="43.3651083" lon="11.731885"><ele>273.0</ele><time>2026-04-07T15:17:59.964Z</time></trkpt><trkpt lat="43.36504" lon="11.7317817"><ele>273.0</ele><time>2026-04-07T15:18:01.965Z</time></trkpt><trkpt lat="43.364975" lon="11.7316733"><ele>273.0</ele><time>2026-04-07T15:18:03.968Z</time></trkpt><trkpt lat="43.3649083" lon="11.73155"><ele>273.0</ele><time>2026-04-07T15:18:05.967Z</time></trkpt><trkpt lat="43.3648433" lon="11.7314517"><ele>273.0</ele><time>2026-04-07T15:18:07.965Z</time></trkpt><trkpt lat="43.3647867" lon="11.731345"><ele>273.0</ele><time>2026-04-07T15:18:09.971Z</time></trkpt><trkpt lat="43.364725" lon="11.7312467"><ele>273.0</ele><time>2026-04-07T15:18:11.967Z</time></trkpt><trkpt lat="43.3646783" lon="11.7311283"><ele>273.0</ele><time>2026-04-07T15:18:13.968Z</time></trkpt><trkpt lat="43.3646467" lon="11.7309983"><ele>273.2</ele><time>2026-04-07T15:18:15.97Z</time></trkpt><trkpt lat="43.364625" lon="11.7308717"><ele>273.4</ele><time>2026-04-07T15:18:17.967Z</time></trkpt><trkpt lat="43.36462" lon="11.7307317"><ele>273.59999999999997</ele><time>2026-04-07T15:18:19.966Z</time></trkpt><trkpt lat="43.3646083" lon="11.730585"><ele>273.8</ele><time>2026-04-07T15:18:21.963Z</time></trkpt><trkpt lat="43.3646083" lon="11.7304517"><ele>274.0</ele><time>2026-04-07T15:18:23.965Z</time></trkpt><trkpt lat="43.3646167" lon="11.7303267"><ele>273.8333333333333</ele><time>2026-04-07T15:18:25.969Z</time></trkpt><trkpt lat="43.36463" lon="11.73021"><ele>273.66666666666663</ele><time>2026-04-07T15:18:27.969Z</time></trkpt><trkpt lat="43.3646517" lon="11.73009"><ele>273.5</ele><time>2026-04-07T15:18:29.967Z</time></trkpt><trkpt lat="43.3646733" lon="11.7299783"><ele>273.3333333333333</ele><time>2026-04-07T15:18:31.966Z</time></trkpt><trkpt lat="43.3646983" lon="11.7298717"><ele>273.1666666666667</ele><time>2026-04-07T15:18:33.965Z</time></trkpt><trkpt lat="43.36472" lon="11.7297617"><ele>273.0</ele><time>2026-04-07T15:18:35.967Z</time></trkpt><trkpt lat="43.36475" lon="11.729645"><ele>273.5</ele><time>2026-04-07T15:18:37.966Z</time></trkpt><trkpt lat="43.3647717" lon="11.7295383"><ele>274.0</ele><time>2026-04-07T15:18:39.965Z</time></trkpt><trkpt lat="43.36479" lon="11.7294317"><ele>274.5</ele><time>2026-04-07T15:18:41.965Z</time></trkpt><trkpt lat="43.364815" lon="11.7293233"><ele>275.0</ele><time>2026-04-07T15:18:43.964Z</time></trkpt><trkpt lat="43.3648367" lon="11.7292233"><ele>275.5</ele><time>2026-04-07T15:18:45.968Z</time></trkpt><trkpt lat="43.3648567" lon="11.729125"><ele>276.0</ele><time>2026-04-07T15:18:47.967Z</time></trkpt><trkpt lat="43.3648783" lon="11.7290317"><ele>276.2857142857143</ele><time>2026-04-07T15:18:49.965Z</time></trkpt><trkpt lat="43.3649033" lon="11.72893"><ele>276.5714285714286</ele><time>2026-04-07T15:18:51.966Z</time></trkpt><trkpt lat="43.364925" lon="11.7288333"><ele>276.8571428571429</ele><time>2026-04-07T15:18:53.966Z</time></trkpt><trkpt lat="43.3649433" lon="11.728745"><ele>277.14285714285717</ele><time>2026-04-07T15:18:55.967Z</time></trkpt><trkpt lat="43.364965" lon="11.72866"><ele>277.42857142857144</ele><time>2026-04-07T15:18:57.969Z</time></trkpt><trkpt lat="43.3649783" lon="11.7285633"><ele>277.7142857142857</ele><time>2026-04-07T15:18:59.965Z</time></trkpt><trkpt lat="43.36501" lon="11.7284417"><ele>278.0</ele><time>2026-04-07T15:19:02.969Z</time></trkpt><trkpt lat="43.365045" lon="11.728325"><ele>278.1666666666667</ele><time>2026-04-07T15:19:05.968Z</time></trkpt><trkpt lat="43.3650683" lon="11.7282083"><ele>278.33333333333337</ele><time>2026-04-07T15:19:08.965Z</time></trkpt><trkpt lat="43.3650933" lon="11.72811"><ele>278.5</ele><time>2026-04-07T15:19:11.969Z</time></trkpt><trkpt lat="43.3651217" lon="11.7280017"><ele>278.6666666666667</ele><time>2026-04-07T15:19:14.969Z</time></trkpt><trkpt lat="43.36515" lon="11.7278933"><ele>278.8333333333333</ele><time>2026-04-07T15:19:17.967Z</time></trkpt><trkpt lat="43.3651717" lon="11.72779"><ele>279.0</ele><time>2026-04-07T15:19:20.966Z</time></trkpt><trkpt lat="43.3651967" lon="11.7276633"><ele>279.1666666666667</ele><time>2026-04-07T15:19:23.965Z</time></trkpt><trkpt lat="43.3652283" lon="11.7275533"><ele>279.3333333333333</ele><time>2026-04-07T15:19:26.966Z</time></trkpt><trkpt lat="43.3652617" lon="11.7274433"><ele>279.5</ele><time>2026-04-07T15:19:29.965Z</time></trkpt><trkpt lat="43.3652733" lon="11.7273283"><ele>279.66666666666663</ele><time>2026-04-07T15:19:31.965Z</time></trkpt><trkpt lat="43.365295" lon="11.727245"><ele>279.8333333333333</ele><time>2026-04-07T15:19:33.963Z</time></trkpt><trkpt lat="43.36531" lon="11.72715"><ele>280.0</ele><time>2026-04-07T15:19:35.965Z</time></trkpt><trkpt lat="43.3653367" lon="11.7270283"><ele>280.0</ele><time>2026-04-07T15:19:38.967Z</time></trkpt><trkpt lat="43.36535" lon="11.7269383"><ele>280.0</ele><time>2026-04-07T15:19:40.966Z</time></trkpt><trkpt lat="43.36535" lon="11.7268383"><ele>280.0</ele><time>2026-04-07T15:19:42.968Z</time></trkpt><trkpt lat="43.3653533" lon="11.726735"><ele>280.0</ele><time>2026-04-07T15:19:44.97Z</time></trkpt><trkpt lat="43.365365" lon="11.726645"><ele>280.0</ele><time>2026-04-07T15:19:46.966Z</time></trkpt><trkpt lat="43.365365" lon="11.72655"><ele>280.0</ele><time>2026-04-07T15:19:48.965Z</time></trkpt><trkpt lat="43.36537" lon="11.7264583"><ele>280.0</ele><time>2026-04-07T15:19:50.963Z</time></trkpt><trkpt lat="43.3653817" lon="11.7263333"><ele>280.14285714285717</ele><time>2026-04-07T15:19:53.967Z</time></trkpt><trkpt lat="43.3653867" lon="11.7262467"><ele>280.2857142857143</ele><time>2026-04-07T15:19:55.966Z</time></trkpt><trkpt lat="43.3653967" lon="11.7261483"><ele>280.42857142857144</ele><time>2026-04-07T15:19:57.966Z</time></trkpt><trkpt lat="43.3654083" lon="11.726055"><ele>280.57142857142856</ele><time>2026-04-07T15:19:59.965Z</time></trkpt><trkpt lat="43.3654217" lon="11.7259667"><ele>280.7142857142857</ele><time>2026-04-07T15:20:01.963Z</time></trkpt><trkpt lat="43.365445" lon="11.7258417"><ele>280.8571428571429</ele><time>2026-04-07T15:20:04.964Z</time></trkpt><trkpt lat="43.3654583" lon="11.7257467"><ele>281.0</ele><time>2026-04-07T15:20:06.968Z</time></trkpt><trkpt lat="43.3654767" lon="11.725655"><ele>281.5</ele><time>2026-04-07T15:20:08.965Z</time></trkpt><trkpt lat="43.3654967" lon="11.7255633"><ele>282.0</ele><time>2026-04-07T15:20:10.968Z</time></trkpt><trkpt lat="43.3655233" lon="11.72547"><ele>282.5</ele><time>2026-04-07T15:20:12.963Z</time></trkpt><trkpt lat="43.3655417" lon="11.725335"><ele>283.0</ele><time>2026-04-07T15:20:15.965Z</time></trkpt><trkpt lat="43.365535" lon="11.725245"><ele>283.5</ele><time>2026-04-07T15:20:17.968Z</time></trkpt><trkpt lat="43.3655317" lon="11.72512"><ele>284.0</ele><time>2026-04-07T15:20:20.966Z</time></trkpt><trkpt lat="43.3654983" lon="11.725005"><ele>285.1428571428571</ele><time>2026-04-07T15:20:23.964Z</time></trkpt><trkpt lat="43.3654633" lon="11.7248717"><ele>286.2857142857143</ele><time>2026-04-07T15:20:27.965Z</time></trkpt><trkpt lat="43.3654383" lon="11.724785"><ele>287.42857142857144</ele><time>2026-04-07T15:20:30.968Z</time></trkpt><trkpt lat="43.36542" lon="11.7246933"><ele>288.57142857142856</ele><time>2026-04-07T15:20:33.966Z</time></trkpt><trkpt lat="43.3654067" lon="11.7246033"><ele>289.7142857142857</ele><time>2026-04-07T15:20:36.969Z</time></trkpt><trkpt lat="43.3653767" lon="11.724525"><ele>290.85714285714283</ele><time>2026-04-07T15:20:39.965Z</time></trkpt><trkpt lat="43.3653517" lon="11.7244317"><ele>292.0</ele><time>2026-04-07T15:20:42.966Z</time></trkpt><trkpt lat="43.3653283" lon="11.7243467"><ele>292.57142857142856</ele><time>2026-04-07T15:20:45.967Z</time></trkpt><trkpt lat="43.3653083" lon="11.724245"><ele>293.14285714285717</ele><time>2026-04-07T15:20:49.966Z</time></trkpt><trkpt lat="43.3652983" lon="11.7241383"><ele>293.7142857142857</ele><time>2026-04-07T15:20:53.966Z</time></trkpt><trkpt lat="43.3653033" lon="11.7240517"><ele>294.2857142857143</ele><time>2026-04-07T15:20:56.965Z</time></trkpt><trkpt lat="43.3653" lon="11.723955"><ele>294.85714285714283</ele><time>2026-04-07T15:20:59.968Z</time></trkpt><trkpt lat="43.3652883" lon="11.72384"><ele>295.42857142857144</ele><time>2026-04-07T15:21:02.969Z</time></trkpt><trkpt lat="43.365285" lon="11.723745"><ele>296.0</ele><time>2026-04-07T15:21:04.964Z</time></trkpt><trkpt lat="43.3652983" lon="11.7236317"><ele>295.7142857142857</ele><time>2026-04-07T15:21:06.966Z</time></trkpt><trkpt lat="43.36533" lon="11.72354"><ele>295.42857142857144</ele><time>2026-04-07T15:21:08.965Z</time></trkpt><trkpt lat="43.36535" lon="11.7234283"><ele>295.1428571428571</ele><time>2026-04-07T15:21:11.966Z</time></trkpt><trkpt lat="43.3653783" lon="11.7233383"><ele>294.8571428571429</ele><time>2026-04-07T15:23:38.967Z</time></trkpt><trkpt lat="43.365415" lon="11.7232517"><ele>294.57142857142856</ele><time>2026-04-07T15:23:41.965Z</time></trkpt><trkpt lat="43.3654583" lon="11.72316"><ele>294.2857142857143</ele><time>2026-04-07T15:23:44.966Z</time></trkpt><trkpt lat="43.3654917" lon="11.723085"><ele>294.0</ele><time>2026-04-07T15:23:46.965Z</time></trkpt><trkpt lat="43.365545" lon="11.7229833"><ele>294.0</ele><time>2026-04-07T15:23:49.968Z</time></trkpt><trkpt lat="43.3655833" lon="11.7229117"><ele>294.0</ele><time>2026-04-07T15:23:51.965Z</time></trkpt><trkpt lat="43.36562" lon="11.7228333"><ele>294.0</ele><time>2026-04-07T15:23:53.968Z</time></trkpt><trkpt lat="43.365655" lon="11.72276"><ele>294.0</ele><time>2026-04-07T15:23:55.968Z</time></trkpt><trkpt lat="43.3656967" lon="11.722655"><ele>294.0</ele><time>2026-04-07T15:23:58.965Z</time></trkpt><trkpt lat="43.365735" lon="11.72256"><ele>294.0</ele><time>2026-04-07T15:24:01.969Z</time></trkpt><trkpt lat="43.3657833" lon="11.7224833"><ele>294.0</ele><time>2026-04-07T15:24:04.965Z</time></trkpt><trkpt lat="43.365835" lon="11.7223933"><ele>294.57142857142856</ele><time>2026-04-07T15:24:07.964Z</time></trkpt><trkpt lat="43.3658767" lon="11.722315"><ele>295.1428571428571</ele><time>2026-04-07T15:24:10.965Z</time></trkpt><trkpt lat="43.365915" lon="11.72224"><ele>295.7142857142857</ele><time>2026-04-07T15:24:13.965Z</time></trkpt><trkpt lat="43.3659583" lon="11.7221367"><ele>296.2857142857143</ele><time>2026-04-07T15:24:17.969Z</time></trkpt><trkpt lat="43.365995" lon="11.7220517"><ele>296.85714285714283</ele><time>2026-04-07T15:24:20.965Z</time></trkpt><trkpt lat="43.366035" lon="11.7219717"><ele>297.42857142857144</ele><time>2026-04-07T15:24:23.965Z</time></trkpt><trkpt lat="43.3660817" lon="11.7219"><ele>298.0</ele><time>2026-04-07T15:24:26.967Z</time></trkpt><trkpt lat="43.36613" lon="11.7218383"><ele>298.42857142857144</ele><time>2026-04-07T15:24:29.965Z</time></trkpt><trkpt lat="43.36617" lon="11.7217567"><ele>298.85714285714283</ele><time>2026-04-07T15:24:32.965Z</time></trkpt><trkpt lat="43.366205" lon="11.721665"><ele>299.2857142857143</ele><time>2026-04-07T15:24:35.966Z</time></trkpt><trkpt lat="43.3662483" lon="11.7215833"><ele>299.7142857142857</ele><time>2026-04-07T15:24:38.966Z</time></trkpt><trkpt lat="43.3662967" lon="11.72151"><ele>300.1428571428571</ele><time>2026-04-07T15:24:41.968Z</time></trkpt><trkpt lat="43.36634" lon="11.72143"><ele>300.57142857142856</ele><time>2026-04-07T15:24:44.966Z</time></trkpt><trkpt lat="43.3663733" lon="11.7213467"><ele>301.0</ele><time>2026-04-07T15:24:47.966Z</time></trkpt><trkpt lat="43.3664183" lon="11.721265"><ele>301.42857142857144</ele><time>2026-04-07T15:24:50.968Z</time></trkpt><trkpt lat="43.3664633" lon="11.7212033"><ele>301.8571428571429</ele><time>2026-04-07T15:24:53.968Z</time></trkpt><trkpt lat="43.3665017" lon="11.721125"><ele>302.2857142857143</ele><time>2026-04-07T15:24:56.969Z</time></trkpt><trkpt lat="43.3665483" lon="11.721035"><ele>302.7142857142857</ele><time>2026-04-07T15:25:00.967Z</time></trkpt><trkpt lat="43.366595" lon="11.7209717"><ele>303.14285714285717</ele><time>2026-04-07T15:25:03.969Z</time></trkpt><trkpt lat="43.3666483" lon="11.720895"><ele>303.57142857142856</ele><time>2026-04-07T15:25:07.965Z</time></trkpt><trkpt lat="43.3666933" lon="11.720825"><ele>304.0</ele><time>2026-04-07T15:25:10.963Z</time></trkpt><trkpt lat="43.3667383" lon="11.7207467"><ele>304.57142857142856</ele><time>2026-04-07T15:25:13.967Z</time></trkpt><trkpt lat="43.3667817" lon="11.720665"><ele>305.14285714285717</ele><time>2026-04-07T15:25:16.965Z</time></trkpt><trkpt lat="43.3668183" lon="11.720585"><ele>305.7142857142857</ele><time>2026-04-07T15:25:19.971Z</time></trkpt><trkpt lat="43.3668433" lon="11.7204983"><ele>306.2857142857143</ele><time>2026-04-07T15:25:22.965Z</time></trkpt><trkpt lat="43.366875" lon="11.7204233"><ele>306.8571428571429</ele><time>2026-04-07T15:25:25.965Z</time></trkpt><trkpt lat="43.36691" lon="11.7203183"><ele>307.42857142857144</ele><time>2026-04-07T15:25:29.968Z</time></trkpt><trkpt lat="43.366945" lon="11.7202417"><ele>308.0</ele><time>2026-04-07T15:25:32.966Z</time></trkpt><trkpt lat="43.3669667" lon="11.7201583"><ele>308.5</ele><time>2026-04-07T15:25:35.968Z</time></trkpt><trkpt lat="43.3669883" lon="11.7200733"><ele>309.0</ele><time>2026-04-07T15:25:38.965Z</time></trkpt><trkpt lat="43.367015" lon="11.7199783"><ele>309.5</ele><time>2026-04-07T15:25:42.967Z</time></trkpt><trkpt lat="43.3670433" lon="11.7198817"><ele>310.0</ele><time>2026-04-07T15:25:46.967Z</time></trkpt><trkpt lat="43.36707" lon="11.7197867"><ele>310.5</ele><time>2026-04-07T15:25:50.966Z</time></trkpt><trkpt lat="43.367105" lon="11.7196933"><ele>311.0</ele><time>2026-04-07T15:25:55.965Z</time></trkpt><trkpt lat="43.367145" lon="11.7195883"><ele>311.0</ele><time>2026-04-07T15:25:59.966Z</time></trkpt><trkpt lat="43.3671917" lon="11.7194967"><ele>311.0</ele><time>2026-04-07T15:26:03.968Z</time></trkpt><trkpt lat="43.367215" lon="11.7194067"><ele>311.0</ele><time>2026-04-07T15:26:06.971Z</time></trkpt><trkpt lat="43.3672483" lon="11.7193183"><ele>311.0</ele><time>2026-04-07T15:26:10.965Z</time></trkpt><trkpt lat="43.3672883" lon="11.71924"><ele>311.0</ele><time>2026-04-07T15:26:14.966Z</time></trkpt><trkpt lat="43.36733" lon="11.7191667"><ele>311.0</ele><time>2026-04-07T15:26:18.965Z</time></trkpt><trkpt lat="43.3673667" lon="11.71908"><ele>311.0</ele><time>2026-04-07T15:26:22.965Z</time></trkpt><trkpt lat="43.3674133" lon="11.7189983"><ele>312.7142857142857</ele><time>2026-04-07T15:26:26.967Z</time></trkpt><trkpt lat="43.3674383" lon="11.7189133"><ele>314.42857142857144</ele><time>2026-04-07T15:26:29.966Z</time></trkpt><trkpt lat="43.3674633" lon="11.718815"><ele>316.14285714285717</ele><time>2026-04-07T15:26:33.965Z</time></trkpt><trkpt lat="43.3674783" lon="11.7187267"><ele>317.8571428571429</ele><time>2026-04-07T15:26:36.965Z</time></trkpt><trkpt lat="43.3674917" lon="11.7186133"><ele>319.57142857142856</ele><time>2026-04-07T15:26:40.966Z</time></trkpt><trkpt lat="43.3674933" lon="11.7185017"><ele>321.28571428571433</ele><time>2026-04-07T15:26:44.965Z</time></trkpt><trkpt lat="43.3674967" lon="11.7184117"><ele>323.0</ele><time>2026-04-07T15:26:47.966Z</time></trkpt><trkpt lat="43.3675017" lon="11.7183233"><ele>323.42857142857144</ele><time>2026-04-07T15:26:50.969Z</time></trkpt><trkpt lat="43.3675117" lon="11.71821"><ele>323.8571428571429</ele><time>2026-04-07T15:26:54.97Z</time></trkpt><trkpt lat="43.367525" lon="11.7181233"><ele>324.28571428571433</ele><time>2026-04-07T15:26:57.966Z</time></trkpt><trkpt lat="43.3675417" lon="11.7180167"><ele>324.7142857142857</ele><time>2026-04-07T15:27:01.966Z</time></trkpt><trkpt lat="43.3675533" lon="11.717925"><ele>325.1428571428571</ele><time>2026-04-07T15:27:05.965Z</time></trkpt><trkpt lat="43.3675667" lon="11.7178367"><ele>325.5714285714286</ele><time>2026-04-07T15:27:08.964Z</time></trkpt><trkpt lat="43.3675833" lon="11.71774"><ele>326.0</ele><time>2026-04-07T15:27:12.966Z</time></trkpt><trkpt lat="43.3675867" lon="11.717635"><ele>326.6666666666667</ele><time>2026-04-07T15:27:16.963Z</time></trkpt><trkpt lat="43.367595" lon="11.71753"><ele>327.33333333333337</ele><time>2026-04-07T15:27:20.964Z</time></trkpt><trkpt lat="43.3676117" lon="11.71743"><ele>328.0</ele><time>2026-04-07T15:27:24.964Z</time></trkpt><trkpt lat="43.3676317" lon="11.7173283"><ele>328.6666666666667</ele><time>2026-04-07T15:27:28.965Z</time></trkpt><trkpt lat="43.36765" lon="11.7172267"><ele>329.3333333333333</ele><time>2026-04-07T15:27:32.966Z</time></trkpt><trkpt lat="43.367665" lon="11.7171233"><ele>330.0</ele><time>2026-04-07T15:27:36.966Z</time></trkpt><trkpt lat="43.3676767" lon="11.71702"><ele>330.00000000000006</ele><time>2026-04-07T15:27:41.965Z</time></trkpt><trkpt lat="43.3676867" lon="11.7169333"><ele>330.0</ele><time>2026-04-07T15:27:45.964Z</time></trkpt><trkpt lat="43.3677117" lon="11.7168517"><ele>330.0</ele><time>2026-04-07T15:27:48.966Z</time></trkpt><trkpt lat="43.3677417" lon="11.7167717"><ele>330.0</ele><time>2026-04-07T15:27:51.965Z</time></trkpt><trkpt lat="43.3677867" lon="11.7167083"><ele>330.0</ele><time>2026-04-07T15:27:54.964Z</time></trkpt><trkpt lat="43.3678483" lon="11.716645"><ele>330.00000000000006</ele><time>2026-04-07T15:27:58.965Z</time></trkpt><trkpt lat="43.3679133" lon="11.7165917"><ele>330.0</ele><time>2026-04-07T15:28:02.964Z</time></trkpt><trkpt lat="43.3679783" lon="11.716535"><ele>330.7142857142857</ele><time>2026-04-07T15:28:05.964Z</time></trkpt><trkpt lat="43.3680333" lon="11.7164917"><ele>331.42857142857144</ele><time>2026-04-07T15:28:07.966Z</time></trkpt><trkpt lat="43.3680883" lon="11.7164467"><ele>332.1428571428571</ele><time>2026-04-07T15:28:09.969Z</time></trkpt><trkpt lat="43.36815" lon="11.716405"><ele>332.8571428571429</ele><time>2026-04-07T15:28:11.966Z</time></trkpt><trkpt lat="43.3682183" lon="11.7163583"><ele>333.57142857142856</ele><time>2026-04-07T15:28:13.968Z</time></trkpt><trkpt lat="43.3682833" lon="11.7163183"><ele>334.2857142857143</ele><time>2026-04-07T15:28:15.967Z</time></trkpt><trkpt lat="43.368345" lon="11.71628"><ele>335.0</ele><time>2026-04-07T15:28:17.965Z</time></trkpt><trkpt lat="43.36841" lon="11.7162083"><ele>335.0</ele><time>2026-04-07T15:28:20.965Z</time></trkpt><trkpt lat="43.36843" lon="11.7161067"><ele>335.0</ele><time>2026-04-07T15:28:25.965Z</time></trkpt><trkpt lat="43.3684133" lon="11.7160067"><ele>335.0</ele><time>2026-04-07T15:28:29.969Z</time></trkpt><trkpt lat="43.3683733" lon="11.71593"><ele>335.0</ele><time>2026-04-07T15:28:33.97Z</time></trkpt><trkpt lat="43.368335" lon="11.7158333"><ele>335.0</ele><time>2026-04-07T15:28:37.964Z</time></trkpt><trkpt lat="43.3683033" lon="11.7157367"><ele>335.0</ele><time>2026-04-07T15:28:40.965Z</time></trkpt><trkpt lat="43.368265" lon="11.7156133"><ele>335.4</ele><time>2026-04-07T15:28:43.966Z</time></trkpt><trkpt lat="43.3682283" lon="11.715515"><ele>335.8</ele><time>2026-04-07T15:28:45.964Z</time></trkpt><trkpt lat="43.3681817" lon="11.71541"><ele>336.20000000000005</ele><time>2026-04-07T15:28:47.963Z</time></trkpt><trkpt lat="43.368135" lon="11.715295"><ele>336.6</ele><time>2026-04-07T15:28:49.964Z</time></trkpt><trkpt lat="43.3680733" lon="11.715165"><ele>337.0</ele><time>2026-04-07T15:28:51.967Z</time></trkpt><trkpt lat="43.3680117" lon="11.7150317"><ele>335.8</ele><time>2026-04-07T15:28:53.965Z</time></trkpt><trkpt lat="43.367955" lon="11.7149017"><ele>334.6</ele><time>2026-04-07T15:28:55.965Z</time></trkpt><trkpt lat="43.3678983" lon="11.714785"><ele>333.40000000000003</ele><time>2026-04-07T15:28:57.965Z</time></trkpt><trkpt lat="43.3678417" lon="11.7146833"><ele>332.20000000000005</ele><time>2026-04-07T15:28:59.965Z</time></trkpt><trkpt lat="43.3677967" lon="11.7145933"><ele>331.0</ele><time>2026-04-07T15:29:01.964Z</time></trkpt><trkpt lat="43.3677567" lon="11.714505"><ele>331.0</ele><time>2026-04-07T15:29:03.966Z</time></trkpt><trkpt lat="43.3677167" lon="11.7144233"><ele>331.0</ele><time>2026-04-07T15:29:05.966Z</time></trkpt><trkpt lat="43.3676667" lon="11.7143167"><ele>331.0</ele><time>2026-04-07T15:29:08.966Z</time></trkpt><trkpt lat="43.3676233" lon="11.7142033"><ele>331.0</ele><time>2026-04-07T15:29:11.966Z</time></trkpt><trkpt lat="43.3675933" lon="11.714125"><ele>331.0</ele><time>2026-04-07T15:29:13.965Z</time></trkpt><trkpt lat="43.3675533" lon="11.71405"><ele>331.0</ele><time>2026-04-07T15:29:15.964Z</time></trkpt><trkpt lat="43.3675133" lon="11.7139733"><ele>332.0</ele><time>2026-04-07T15:29:17.968Z</time></trkpt><trkpt lat="43.3674733" lon="11.7138917"><ele>333.0</ele><time>2026-04-07T15:29:19.967Z</time></trkpt><trkpt lat="43.3674383" lon="11.71381"><ele>334.0</ele><time>2026-04-07T15:29:21.966Z</time></trkpt><trkpt lat="43.3674017" lon="11.71373"><ele>335.0</ele><time>2026-04-07T15:29:23.964Z</time></trkpt><trkpt lat="43.3673667" lon="11.7136533"><ele>336.0</ele><time>2026-04-07T15:29:25.966Z</time></trkpt><trkpt lat="43.367335" lon="11.7135783"><ele>337.0</ele><time>2026-04-07T15:29:27.966Z</time></trkpt><trkpt lat="43.3672867" lon="11.7134733"><ele>338.0</ele><time>2026-04-07T15:29:30.964Z</time></trkpt><trkpt lat="43.36725" lon="11.7133983"><ele>338.57142857142856</ele><time>2026-04-07T15:29:32.964Z</time></trkpt><trkpt lat="43.3672067" lon="11.713325"><ele>339.1428571428571</ele><time>2026-04-07T15:29:34.963Z</time></trkpt><trkpt lat="43.3671767" lon="11.7132483"><ele>339.71428571428567</ele><time>2026-04-07T15:29:36.968Z</time></trkpt><trkpt lat="43.3671433" lon="11.7131717"><ele>340.2857142857143</ele><time>2026-04-07T15:29:38.965Z</time></trkpt><trkpt lat="43.3671" lon="11.7130967"><ele>340.85714285714283</ele><time>2026-04-07T15:29:40.964Z</time></trkpt><trkpt lat="43.3670617" lon="11.7130267"><ele>341.4285714285714</ele><time>2026-04-07T15:29:42.965Z</time></trkpt><trkpt lat="43.367015" lon="11.7129333"><ele>342.0</ele><time>2026-04-07T15:29:45.964Z</time></trkpt><trkpt lat="43.3669983" lon="11.712835"><ele>343.0</ele><time>2026-04-07T15:29:49.964Z</time></trkpt><trkpt lat="43.3669567" lon="11.7127367"><ele>344.0</ele><time>2026-04-07T15:29:53.965Z</time></trkpt><trkpt lat="43.366905" lon="11.71264"><ele>345.0</ele><time>2026-04-07T15:29:57.964Z</time></trkpt><trkpt lat="43.3668683" lon="11.712555"><ele>346.0</ele><time>2026-04-07T15:30:00.97Z</time></trkpt><trkpt lat="43.3668317" lon="11.71245"><ele>347.0</ele><time>2026-04-07T15:30:04.965Z</time></trkpt><trkpt lat="43.3667767" lon="11.71238"><ele>348.0</ele><time>2026-04-07T15:30:08.967Z</time></trkpt><trkpt lat="43.3667333" lon="11.7122983"><ele>348.0</ele><time>2026-04-07T15:30:12.967Z</time></trkpt><trkpt lat="43.3666733" lon="11.71222"><ele>348.0</ele><time>2026-04-07T15:30:16.965Z</time></trkpt><trkpt lat="43.3666133" lon="11.71216"><ele>348.0</ele><time>2026-04-07T15:30:20.965Z</time></trkpt><trkpt lat="43.3665533" lon="11.71211"><ele>348.0</ele><time>2026-04-07T15:30:23.967Z</time></trkpt><trkpt lat="43.3664967" lon="11.7120583"><ele>348.0</ele><time>2026-04-07T15:30:25.965Z</time></trkpt><trkpt lat="43.3664233" lon="11.711995"><ele>348.0</ele><time>2026-04-07T15:30:27.965Z</time></trkpt><trkpt lat="43.366345" lon="11.7119233"><ele>347.25</ele><time>2026-04-07T15:30:29.966Z</time></trkpt><trkpt lat="43.366255" lon="11.711835"><ele>346.5</ele><time>2026-04-07T15:30:31.966Z</time></trkpt><trkpt lat="43.366155" lon="11.7117483"><ele>345.75</ele><time>2026-04-07T15:30:33.969Z</time></trkpt><trkpt lat="43.3660417" lon="11.7116567"><ele>345.0</ele><time>2026-04-07T15:30:35.968Z</time></trkpt><trkpt lat="43.36594" lon="11.7115833"><ele>345.0</ele><time>2026-04-07T15:30:37.969Z</time></trkpt><trkpt lat="43.365825" lon="11.71151"><ele>345.0</ele><time>2026-04-07T15:30:39.965Z</time></trkpt><trkpt lat="43.3657517" lon="11.7114767"><ele>345.0</ele><time>2026-04-07T15:30:40.965Z</time></trkpt><trkpt lat="43.3656883" lon="11.7114567"><ele>345.0</ele><time>2026-04-07T15:30:41.965Z</time></trkpt><trkpt lat="43.3656067" lon="11.7114083"><ele>345.0</ele><time>2026-04-07T15:30:42.966Z</time></trkpt><trkpt lat="43.365525" lon="11.7113667"><ele>345.0</ele><time>2026-04-07T15:30:43.967Z</time></trkpt><trkpt lat="43.365445" lon="11.7113233"><ele>342.8</ele><time>2026-04-07T15:30:44.969Z</time></trkpt><trkpt lat="43.36536" lon="11.7112783"><ele>340.6</ele><time>2026-04-07T15:30:45.965Z</time></trkpt><trkpt lat="43.3652767" lon="11.7112317"><ele>338.4</ele><time>2026-04-07T15:30:46.964Z</time></trkpt><trkpt lat="43.365195" lon="11.7111833"><ele>336.2</ele><time>2026-04-07T15:30:47.964Z</time></trkpt><trkpt lat="43.3651117" lon="11.7111317"><ele>334.0</ele><time>2026-04-07T15:30:48.967Z</time></trkpt><trkpt lat="43.3650233" lon="11.7110817"><ele>332.79999999999995</ele><time>2026-04-07T15:30:49.965Z</time></trkpt><trkpt lat="43.364935" lon="11.71103"><ele>331.59999999999997</ele><time>2026-04-07T15:30:50.965Z</time></trkpt><trkpt lat="43.3648483" lon="11.71098"><ele>330.4</ele><time>2026-04-07T15:30:51.966Z</time></trkpt><trkpt lat="43.3647617" lon="11.7109317"><ele>329.2</ele><time>2026-04-07T15:30:52.968Z</time></trkpt><trkpt lat="43.3646783" lon="11.7108817"><ele>328.0</ele><time>2026-04-07T15:30:53.965Z</time></trkpt><trkpt lat="43.3645933" lon="11.7108283"><ele>328.0</ele><time>2026-04-07T15:30:54.965Z</time></trkpt><trkpt lat="43.3645117" lon="11.7107783"><ele>328.0</ele><time>2026-04-07T15:30:55.967Z</time></trkpt><trkpt lat="43.3644317" lon="11.7107283"><ele>328.0</ele><time>2026-04-07T15:30:56.966Z</time></trkpt><trkpt lat="43.364355" lon="11.710685"><ele>328.0</ele><time>2026-04-07T15:30:57.965Z</time></trkpt><trkpt lat="43.364275" lon="11.7106433"><ele>328.0</ele><time>2026-04-07T15:30:58.966Z</time></trkpt><trkpt lat="43.364195" lon="11.7106017"><ele>328.0</ele><time>2026-04-07T15:30:59.964Z</time></trkpt><trkpt lat="43.36411" lon="11.710565"><ele>328.0</ele><time>2026-04-07T15:31:00.964Z</time></trkpt><trkpt lat="43.3640317" lon="11.710525"><ele>328.0</ele><time>2026-04-07T15:31:01.964Z</time></trkpt><trkpt lat="43.3639533" lon="11.710485"><ele>328.0</ele><time>2026-04-07T15:31:02.965Z</time></trkpt><trkpt lat="43.3638733" lon="11.7104467"><ele>328.0</ele><time>2026-04-07T15:31:03.966Z</time></trkpt><trkpt lat="43.363795" lon="11.7104117"><ele>328.0</ele><time>2026-04-07T15:31:04.968Z</time></trkpt><trkpt lat="43.3637167" lon="11.710375"><ele>328.0</ele><time>2026-04-07T15:31:05.97Z</time></trkpt><trkpt lat="43.3636383" lon="11.71034"><ele>327.71428571428567</ele><time>2026-04-07T15:31:06.967Z</time></trkpt><trkpt lat="43.363565" lon="11.71031"><ele>327.42857142857144</ele><time>2026-04-07T15:31:07.966Z</time></trkpt><trkpt lat="43.3634933" lon="11.71028"><ele>327.1428571428571</ele><time>2026-04-07T15:31:08.965Z</time></trkpt><trkpt lat="43.363425" lon="11.7102433"><ele>326.85714285714283</ele><time>2026-04-07T15:31:09.965Z</time></trkpt><trkpt lat="43.363355" lon="11.7102167"><ele>326.57142857142856</ele><time>2026-04-07T15:31:10.967Z</time></trkpt><trkpt lat="43.3632867" lon="11.7101933"><ele>326.2857142857143</ele><time>2026-04-07T15:31:11.965Z</time></trkpt><trkpt lat="43.36322" lon="11.7101667"><ele>326.0</ele><time>2026-04-07T15:31:12.968Z</time></trkpt><trkpt lat="43.3631533" lon="11.7101367"><ele>326.0</ele><time>2026-04-07T15:31:13.966Z</time></trkpt><trkpt lat="43.3630833" lon="11.7101083"><ele>326.0</ele><time>2026-04-07T15:31:14.966Z</time></trkpt><trkpt lat="43.36301" lon="11.71007"><ele>326.0</ele><time>2026-04-07T15:31:15.964Z</time></trkpt><trkpt lat="43.3629433" lon="11.7100283"><ele>326.0</ele><time>2026-04-07T15:31:16.963Z</time></trkpt><trkpt lat="43.36288" lon="11.7099933"><ele>326.0</ele><time>2026-04-07T15:31:17.963Z</time></trkpt><trkpt lat="43.3628167" lon="11.709955"><ele>326.0</ele><time>2026-04-07T15:31:18.965Z</time></trkpt><trkpt lat="43.3627467" lon="11.7099183"><ele>326.0</ele><time>2026-04-07T15:31:19.965Z</time></trkpt><trkpt lat="43.362675" lon="11.709875"><ele>324.6666666666667</ele><time>2026-04-07T15:31:20.966Z</time></trkpt><trkpt lat="43.3625983" lon="11.7098333"><ele>323.33333333333337</ele><time>2026-04-07T15:31:21.965Z</time></trkpt><trkpt lat="43.3625183" lon="11.7097867"><ele>322.0</ele><time>2026-04-07T15:31:22.964Z</time></trkpt><trkpt lat="43.3624417" lon="11.7097383"><ele>320.6666666666667</ele><time>2026-04-07T15:31:23.963Z</time></trkpt><trkpt lat="43.3623683" lon="11.70969"><ele>319.3333333333333</ele><time>2026-04-07T15:31:24.967Z</time></trkpt><trkpt lat="43.3622967" lon="11.7096367"><ele>318.0</ele><time>2026-04-07T15:31:25.964Z</time></trkpt><trkpt lat="43.3622267" lon="11.709575"><ele>316.3333333333333</ele><time>2026-04-07T15:31:26.968Z</time></trkpt><trkpt lat="43.362155" lon="11.7095267"><ele>314.6666666666667</ele><time>2026-04-07T15:31:27.965Z</time></trkpt><trkpt lat="43.36208" lon="11.7094833"><ele>313.0</ele><time>2026-04-07T15:31:28.964Z</time></trkpt><trkpt lat="43.3620067" lon="11.7094417"><ele>311.33333333333337</ele><time>2026-04-07T15:31:29.965Z</time></trkpt><trkpt lat="43.361935" lon="11.7094033"><ele>309.6666666666667</ele><time>2026-04-07T15:31:30.968Z</time></trkpt><trkpt lat="43.3618667" lon="11.709365"><ele>308.0</ele><time>2026-04-07T15:31:31.964Z</time></trkpt><trkpt lat="43.3618017" lon="11.709335"><ele>308.0</ele><time>2026-04-07T15:31:32.964Z</time></trkpt><trkpt lat="43.3617317" lon="11.70931"><ele>308.0</ele><time>2026-04-07T15:31:33.965Z</time></trkpt><trkpt lat="43.3616567" lon="11.7092867"><ele>308.0</ele><time>2026-04-07T15:31:34.964Z</time></trkpt><trkpt lat="43.3615833" lon="11.7092617"><ele>308.0</ele><time>2026-04-07T15:31:35.965Z</time></trkpt><trkpt lat="43.3615133" lon="11.7092317"><ele>308.0</ele><time>2026-04-07T15:31:36.967Z</time></trkpt><trkpt lat="43.3614467" lon="11.7092133"><ele>308.0</ele><time>2026-04-07T15:31:37.965Z</time></trkpt><trkpt lat="43.3613817" lon="11.7092017"><ele>308.0</ele><time>2026-04-07T15:31:38.967Z</time></trkpt><trkpt lat="43.361315" lon="11.70919"><ele>307.0</ele><time>2026-04-07T15:31:39.968Z</time></trkpt><trkpt lat="43.3612483" lon="11.7091783"><ele>306.0</ele><time>2026-04-07T15:31:40.963Z</time></trkpt><trkpt lat="43.361185" lon="11.7091633"><ele>305.0</ele><time>2026-04-07T15:31:41.965Z</time></trkpt><trkpt lat="43.3610767" lon="11.7091317"><ele>304.0</ele><time>2026-04-07T15:31:43.967Z</time></trkpt><trkpt lat="43.3609917" lon="11.7090517"><ele>303.0</ele><time>2026-04-07T15:31:45.963Z</time></trkpt><trkpt lat="43.3609583" lon="11.708925"><ele>302.0</ele><time>2026-04-07T15:31:47.964Z</time></trkpt><trkpt lat="43.3609433" lon="11.708765"><ele>302.0</ele><time>2026-04-07T15:31:49.965Z</time></trkpt><trkpt lat="43.3609417" lon="11.70867"><ele>302.0</ele><time>2026-04-07T15:31:50.964Z</time></trkpt><trkpt lat="43.36095" lon="11.708565"><ele>302.0</ele><time>2026-04-07T15:31:51.964Z</time></trkpt><trkpt lat="43.3609683" lon="11.7084633"><ele>302.0</ele><time>2026-04-07T15:31:52.964Z</time></trkpt><trkpt lat="43.3609967" lon="11.70836"><ele>302.0</ele><time>2026-04-07T15:31:53.964Z</time></trkpt><trkpt lat="43.361025" lon="11.70825"><ele>302.0</ele><time>2026-04-07T15:31:54.968Z</time></trkpt><trkpt lat="43.3610583" lon="11.7081433"><ele>300.4</ele><time>2026-04-07T15:31:55.964Z</time></trkpt><trkpt lat="43.361095" lon="11.7080467"><ele>298.79999999999995</ele><time>2026-04-07T15:31:56.968Z</time></trkpt><trkpt lat="43.3611383" lon="11.7079383"><ele>297.2</ele><time>2026-04-07T15:31:57.964Z</time></trkpt><trkpt lat="43.3611933" lon="11.7078283"><ele>295.59999999999997</ele><time>2026-04-07T15:31:58.967Z</time></trkpt><trkpt lat="43.36126" lon="11.7077217"><ele>294.0</ele><time>2026-04-07T15:31:59.963Z</time></trkpt><trkpt lat="43.3613283" lon="11.707625"><ele>292.4</ele><time>2026-04-07T15:32:00.964Z</time></trkpt><trkpt lat="43.3613833" lon="11.70751"><ele>290.79999999999995</ele><time>2026-04-07T15:32:01.967Z</time></trkpt><trkpt lat="43.3614117" lon="11.7073833"><ele>289.20000000000005</ele><time>2026-04-07T15:32:02.965Z</time></trkpt><trkpt lat="43.3614267" lon="11.7072467"><ele>287.6</ele><time>2026-04-07T15:32:03.966Z</time></trkpt><trkpt lat="43.3614383" lon="11.707115"><ele>286.0</ele><time>2026-04-07T15:32:04.964Z</time></trkpt><trkpt lat="43.3614567" lon="11.7069917"><ele>286.3333333333333</ele><time>2026-04-07T15:32:05.969Z</time></trkpt><trkpt lat="43.36148" lon="11.70688"><ele>286.66666666666663</ele><time>2026-04-07T15:32:06.967Z</time></trkpt><trkpt lat="43.3615083" lon="11.7067717"><ele>287.0</ele><time>2026-04-07T15:32:07.966Z</time></trkpt><trkpt lat="43.36154" lon="11.7066733"><ele>287.3333333333333</ele><time>2026-04-07T15:32:08.965Z</time></trkpt><trkpt lat="43.36157" lon="11.7065833"><ele>287.6666666666667</ele><time>2026-04-07T15:32:09.965Z</time></trkpt><trkpt lat="43.3615933" lon="11.7065017"><ele>288.0</ele><time>2026-04-07T15:32:10.964Z</time></trkpt><trkpt lat="43.3616283" lon="11.7063617"><ele>288.00000000000006</ele><time>2026-04-07T15:32:12.965Z</time></trkpt><trkpt lat="43.3616317" lon="11.7062567"><ele>288.0</ele><time>2026-04-07T15:32:14.966Z</time></trkpt><trkpt lat="43.361615" lon="11.7061633"><ele>288.0</ele><time>2026-04-07T15:32:17.964Z</time></trkpt><trkpt lat="43.36159" lon="11.70608"><ele>288.0</ele><time>2026-04-07T15:32:20.966Z</time></trkpt><trkpt lat="43.3615767" lon="11.7059883"><ele>288.0</ele><time>2026-04-07T15:32:24.967Z</time></trkpt><trkpt lat="43.36156" lon="11.7058833"><ele>288.00000000000006</ele><time>2026-04-07T15:32:27.965Z</time></trkpt><trkpt lat="43.3615367" lon="11.7057867"><ele>288.0</ele><time>2026-04-07T15:32:30.962Z</time></trkpt><trkpt lat="43.361485" lon="11.7057117"><ele>288.0</ele><time>2026-04-07T15:32:32.966Z</time></trkpt><trkpt lat="43.3614333" lon="11.705635"><ele>288.0</ele><time>2026-04-07T15:32:34.966Z</time></trkpt><trkpt lat="43.3613733" lon="11.7055433"><ele>288.0</ele><time>2026-04-07T15:32:36.965Z</time></trkpt><trkpt lat="43.36131" lon="11.7054383"><ele>288.0</ele><time>2026-04-07T15:32:38.966Z</time></trkpt><trkpt lat="43.3612417" lon="11.7053233"><ele>288.0</ele><time>2026-04-07T15:32:40.966Z</time></trkpt><trkpt lat="43.36117" lon="11.7051983"><ele>288.0</ele><time>2026-04-07T15:32:42.963Z</time></trkpt><trkpt lat="43.3610917" lon="11.7050783"><ele>288.0</ele><time>2026-04-07T15:32:44.964Z</time></trkpt><trkpt lat="43.3610317" lon="11.7049567"><ele>288.0</ele><time>2026-04-07T15:32:46.968Z</time></trkpt><trkpt lat="43.3609833" lon="11.7048533"><ele>288.0</ele><time>2026-04-07T15:32:48.965Z</time></trkpt><trkpt lat="43.3609367" lon="11.7047817"><ele>288.0</ele><time>2026-04-07T15:32:50.968Z</time></trkpt><trkpt lat="43.3608333" lon="11.7047417"><ele>288.0</ele><time>2026-04-07T15:32:53.964Z</time></trkpt><trkpt lat="43.360755" lon="11.70472"><ele>288.0</ele><time>2026-04-07T15:32:55.964Z</time></trkpt><trkpt lat="43.3606683" lon="11.7046867"><ele>288.0</ele><time>2026-04-07T15:32:57.966Z</time></trkpt><trkpt lat="43.3605783" lon="11.7046433"><ele>288.0</ele><time>2026-04-07T15:32:59.967Z</time></trkpt><trkpt lat="43.360515" lon="11.70463"><ele>288.0</ele><time>2026-04-07T15:33:00.969Z</time></trkpt><trkpt lat="43.3604233" lon="11.7045717"><ele>288.0</ele><time>2026-04-07T15:33:02.966Z</time></trkpt><trkpt lat="43.3603317" lon="11.7045233"><ele>287.8</ele><time>2026-04-07T15:33:04.968Z</time></trkpt><trkpt lat="43.3602417" lon="11.7044667"><ele>287.6</ele><time>2026-04-07T15:33:06.964Z</time></trkpt><trkpt lat="43.3601517" lon="11.704405"><ele>287.4</ele><time>2026-04-07T15:33:08.965Z</time></trkpt><trkpt lat="43.3600667" lon="11.7043383"><ele>287.2</ele><time>2026-04-07T15:33:10.964Z</time></trkpt><trkpt lat="43.3599833" lon="11.704265"><ele>287.0</ele><time>2026-04-07T15:33:12.965Z</time></trkpt><trkpt lat="43.3598917" lon="11.7041667"><ele>287.0</ele><time>2026-04-07T15:33:14.966Z</time></trkpt><trkpt lat="43.3598033" lon="11.7040683"><ele>287.0</ele><time>2026-04-07T15:33:16.965Z</time></trkpt><trkpt lat="43.3597067" lon="11.7039733"><ele>287.0</ele><time>2026-04-07T15:33:18.965Z</time></trkpt><trkpt lat="43.359595" lon="11.7038933"><ele>287.0</ele><time>2026-04-07T15:33:20.964Z</time></trkpt><trkpt lat="43.3594883" lon="11.70381"><ele>287.0</ele><time>2026-04-07T15:33:22.965Z</time></trkpt><trkpt lat="43.3594333" lon="11.7037517"><ele>287.0</ele><time>2026-04-07T15:33:23.964Z</time></trkpt><trkpt lat="43.3593783" lon="11.7037017"><ele>287.0</ele><time>2026-04-07T15:33:24.964Z</time></trkpt><trkpt lat="43.3592683" lon="11.7036117"><ele>287.0</ele><time>2026-04-07T15:33:26.964Z</time></trkpt><trkpt lat="43.35921" lon="11.7035583"><ele>287.0</ele><time>2026-04-07T15:33:27.967Z</time></trkpt><trkpt lat="43.35915" lon="11.7035133"><ele>287.0</ele><time>2026-04-07T15:33:28.964Z</time></trkpt><trkpt lat="43.35909" lon="11.7034667"><ele>286.0</ele><time>2026-04-07T15:33:29.966Z</time></trkpt><trkpt lat="43.3590283" lon="11.703425"><ele>285.0</ele><time>2026-04-07T15:33:30.966Z</time></trkpt><trkpt lat="43.3589667" lon="11.7033833"><ele>284.0</ele><time>2026-04-07T15:33:31.964Z</time></trkpt><trkpt lat="43.3589017" lon="11.7033433"><ele>283.0</ele><time>2026-04-07T15:33:32.964Z</time></trkpt><trkpt lat="43.35884" lon="11.703305"><ele>282.0</ele><time>2026-04-07T15:33:33.966Z</time></trkpt><trkpt lat="43.3587367" lon="11.7032317"><ele>281.0</ele><time>2026-04-07T15:33:35.969Z</time></trkpt><trkpt lat="43.3586317" lon="11.703165"><ele>281.0</ele><time>2026-04-07T15:33:37.966Z</time></trkpt><trkpt lat="43.3585183" lon="11.70312"><ele>281.0</ele><time>2026-04-07T15:33:39.969Z</time></trkpt><trkpt lat="43.3584" lon="11.7030817"><ele>281.0</ele><time>2026-04-07T15:33:41.965Z</time></trkpt><trkpt lat="43.35828" lon="11.70305"><ele>281.0</ele><time>2026-04-07T15:33:43.964Z</time></trkpt><trkpt lat="43.3581583" lon="11.7030283"><ele>281.0</ele><time>2026-04-07T15:33:45.963Z</time></trkpt><trkpt lat="43.3580417" lon="11.70303"><ele>281.0</ele><time>2026-04-07T15:33:47.966Z</time></trkpt><trkpt lat="43.3579283" lon="11.7030217"><ele>281.0</ele><time>2026-04-07T15:33:49.966Z</time></trkpt><trkpt lat="43.357825" lon="11.70303"><ele>281.0</ele><time>2026-04-07T15:33:51.967Z</time></trkpt><trkpt lat="43.3577267" lon="11.7030467"><ele>281.0</ele><time>2026-04-07T15:33:53.963Z</time></trkpt><trkpt lat="43.3576267" lon="11.7030783"><ele>280.2</ele><time>2026-04-07T15:33:55.967Z</time></trkpt><trkpt lat="43.3575267" lon="11.703125"><ele>279.40000000000003</ele><time>2026-04-07T15:33:57.964Z</time></trkpt><trkpt lat="43.3574317" lon="11.7031967"><ele>278.6</ele><time>2026-04-07T15:33:59.963Z</time></trkpt><trkpt lat="43.3573533" lon="11.7032917"><ele>277.8</ele><time>2026-04-07T15:34:01.964Z</time></trkpt><trkpt lat="43.35728" lon="11.70336"><ele>277.0</ele><time>2026-04-07T15:34:03.964Z</time></trkpt><trkpt lat="43.357215" lon="11.7033883"><ele>276.3333333333333</ele><time>2026-04-07T15:34:05.966Z</time></trkpt><trkpt lat="43.35715" lon="11.703305"><ele>275.66666666666663</ele><time>2026-04-07T15:34:08.965Z</time></trkpt><trkpt lat="43.357125" lon="11.7032183"><ele>275.0</ele><time>2026-04-07T15:34:10.969Z</time></trkpt><trkpt lat="43.3571017" lon="11.7031283"><ele>274.3333333333333</ele><time>2026-04-07T15:34:12.963Z</time></trkpt><trkpt lat="43.3570717" lon="11.7030383"><ele>273.6666666666667</ele><time>2026-04-07T15:34:14.968Z</time></trkpt><trkpt lat="43.357045" lon="11.7029417"><ele>273.0</ele><time>2026-04-07T15:34:16.967Z</time></trkpt><trkpt lat="43.3570233" lon="11.7028383"><ele>273.1666666666667</ele><time>2026-04-07T15:34:18.966Z</time></trkpt><trkpt lat="43.3570017" lon="11.7027383"><ele>273.3333333333333</ele><time>2026-04-07T15:34:20.966Z</time></trkpt><trkpt lat="43.3569683" lon="11.702635"><ele>273.5</ele><time>2026-04-07T15:34:22.968Z</time></trkpt><trkpt lat="43.3569317" lon="11.7025333"><ele>273.66666666666663</ele><time>2026-04-07T15:34:24.967Z</time></trkpt><trkpt lat="43.35689" lon="11.7024383"><ele>273.8333333333333</ele><time>2026-04-07T15:34:26.966Z</time></trkpt><trkpt lat="43.3568517" lon="11.7023517"><ele>274.0</ele><time>2026-04-07T15:34:28.967Z</time></trkpt><trkpt lat="43.3568217" lon="11.7022717"><ele>274.0</ele><time>2026-04-07T15:34:30.968Z</time></trkpt><trkpt lat="43.356795" lon="11.7021917"><ele>274.0</ele><time>2026-04-07T15:34:32.965Z</time></trkpt><trkpt lat="43.35675" lon="11.7020817"><ele>274.0</ele><time>2026-04-07T15:34:35.97Z</time></trkpt><trkpt lat="43.3567083" lon="11.7019817"><ele>274.0</ele><time>2026-04-07T15:34:38.965Z</time></trkpt><trkpt lat="43.3566717" lon="11.7018833"><ele>274.0</ele><time>2026-04-07T15:34:41.965Z</time></trkpt><trkpt lat="43.35663" lon="11.7017867"><ele>274.0</ele><time>2026-04-07T15:34:44.964Z</time></trkpt><trkpt lat="43.3565883" lon="11.701695"><ele>274.0</ele><time>2026-04-07T15:34:47.966Z</time></trkpt><trkpt lat="43.3565383" lon="11.701585"><ele>274.0</ele><time>2026-04-07T15:34:50.966Z</time></trkpt><trkpt lat="43.3564883" lon="11.7015033"><ele>274.0</ele><time>2026-04-07T15:34:52.965Z</time></trkpt><trkpt lat="43.3564417" lon="11.7014133"><ele>274.0</ele><time>2026-04-07T15:34:54.968Z</time></trkpt><trkpt lat="43.3563933" lon="11.7013233"><ele>274.0</ele><time>2026-04-07T15:34:56.966Z</time></trkpt><trkpt lat="43.3563433" lon="11.7012383"><ele>274.0</ele><time>2026-04-07T15:34:58.964Z</time></trkpt><trkpt lat="43.356295" lon="11.70116"><ele>274.0</ele><time>2026-04-07T15:35:00.967Z</time></trkpt><trkpt lat="43.3562483" lon="11.70108"><ele>274.0</ele><time>2026-04-07T15:35:02.963Z</time></trkpt><trkpt lat="43.3561983" lon="11.7010017"><ele>274.0</ele><time>2026-04-07T15:35:04.963Z</time></trkpt><trkpt lat="43.3561467" lon="11.7009217"><ele>274.0</ele><time>2026-04-07T15:35:06.963Z</time></trkpt><trkpt lat="43.3561033" lon="11.700835"><ele>274.0</ele><time>2026-04-07T15:35:08.969Z</time></trkpt><trkpt lat="43.356065" lon="11.70075"><ele>274.0</ele><time>2026-04-07T15:35:10.964Z</time></trkpt><trkpt lat="43.35602" lon="11.7006617"><ele>274.0</ele><time>2026-04-07T15:35:12.964Z</time></trkpt><trkpt lat="43.3559717" lon="11.700575"><ele>274.0</ele><time>2026-04-07T15:35:14.964Z</time></trkpt><trkpt lat="43.3559233" lon="11.70049"><ele>274.0</ele><time>2026-04-07T15:35:16.966Z</time></trkpt><trkpt lat="43.355875" lon="11.7004067"><ele>274.0</ele><time>2026-04-07T15:35:18.963Z</time></trkpt><trkpt lat="43.35583" lon="11.7003233"><ele>274.0</ele><time>2026-04-07T15:35:20.965Z</time></trkpt><trkpt lat="43.3557833" lon="11.70024"><ele>274.0</ele><time>2026-04-07T15:35:22.967Z</time></trkpt><trkpt lat="43.35574" lon="11.7001583"><ele>274.0</ele><time>2026-04-07T15:35:24.969Z</time></trkpt><trkpt lat="43.3556967" lon="11.7000767"><ele>274.0</ele><time>2026-04-07T15:35:26.966Z</time></trkpt><trkpt lat="43.3556517" lon="11.699995"><ele>274.0</ele><time>2026-04-07T15:35:28.965Z</time></trkpt><trkpt lat="43.355605" lon="11.6999117"><ele>274.0</ele><time>2026-04-07T15:35:30.965Z</time></trkpt><trkpt lat="43.355555" lon="11.6998283"><ele>274.0</ele><time>2026-04-07T15:35:32.966Z</time></trkpt><trkpt lat="43.3555067" lon="11.699745"><ele>274.0</ele><time>2026-04-07T15:35:34.963Z</time></trkpt><trkpt lat="43.35546" lon="11.6996633"><ele>274.00000000000006</ele><time>2026-04-07T15:35:36.966Z</time></trkpt><trkpt lat="43.35541" lon="11.69958"><ele>274.0</ele><time>2026-04-07T15:35:38.964Z</time></trkpt><trkpt lat="43.355365" lon="11.6994967"><ele>274.0</ele><time>2026-04-07T15:35:40.963Z</time></trkpt><trkpt lat="43.3553233" lon="11.69941"><ele>274.0</ele><time>2026-04-07T15:35:42.965Z</time></trkpt><trkpt lat="43.3552767" lon="11.6993283"><ele>274.0</ele><time>2026-04-07T15:35:44.964Z</time></trkpt><trkpt lat="43.3552317" lon="11.6992517"><ele>274.00000000000006</ele><time>2026-04-07T15:35:46.966Z</time></trkpt><trkpt lat="43.35519" lon="11.6991717"><ele>274.0</ele><time>2026-04-07T15:35:48.964Z</time></trkpt><trkpt lat="43.355145" lon="11.69909"><ele>274.16666666666663</ele><time>2026-04-07T15:35:50.964Z</time></trkpt><trkpt lat="43.35511" lon="11.6990033"><ele>274.3333333333333</ele><time>2026-04-07T15:35:52.965Z</time></trkpt><trkpt lat="43.3550683" lon="11.6989133"><ele>274.5</ele><time>2026-04-07T15:35:54.966Z</time></trkpt><trkpt lat="43.35502" lon="11.6988283"><ele>274.6666666666667</ele><time>2026-04-07T15:35:56.965Z</time></trkpt><trkpt lat="43.3549683" lon="11.6987417"><ele>274.83333333333337</ele><time>2026-04-07T15:35:58.965Z</time></trkpt><trkpt lat="43.354915" lon="11.6986683"><ele>275.0</ele><time>2026-04-07T15:36:00.97Z</time></trkpt><trkpt lat="43.3548633" lon="11.69859"><ele>275.33333333333337</ele><time>2026-04-07T15:36:02.966Z</time></trkpt><trkpt lat="43.3548217" lon="11.6985117"><ele>275.6666666666667</ele><time>2026-04-07T15:36:04.965Z</time></trkpt><trkpt lat="43.354775" lon="11.6984517"><ele>276.0</ele><time>2026-04-07T15:36:06.964Z</time></trkpt><trkpt lat="43.354695" lon="11.6984133"><ele>276.3333333333333</ele><time>2026-04-07T15:36:09.965Z</time></trkpt><trkpt lat="43.3546067" lon="11.6984133"><ele>276.66666666666663</ele><time>2026-04-07T15:36:12.967Z</time></trkpt><trkpt lat="43.3545167" lon="11.6984417"><ele>277.0</ele><time>2026-04-07T15:36:15.965Z</time></trkpt><trkpt lat="43.3544233" lon="11.6984867"><ele>277.16666666666663</ele><time>2026-04-07T15:36:18.967Z</time></trkpt><trkpt lat="43.35436" lon="11.69853"><ele>277.3333333333333</ele><time>2026-04-07T15:36:20.965Z</time></trkpt><trkpt lat="43.3543033" lon="11.698585"><ele>277.5</ele><time>2026-04-07T15:36:22.964Z</time></trkpt><trkpt lat="43.3542517" lon="11.6986517"><ele>277.6666666666667</ele><time>2026-04-07T15:36:24.968Z</time></trkpt><trkpt lat="43.3542017" lon="11.6987283"><ele>277.83333333333337</ele><time>2026-04-07T15:36:26.966Z</time></trkpt><trkpt lat="43.35416" lon="11.6988217"><ele>278.0</ele><time>2026-04-07T15:36:28.964Z</time></trkpt><trkpt lat="43.3541217" lon="11.6989267"><ele>278.0</ele><time>2026-04-07T15:36:30.966Z</time></trkpt><trkpt lat="43.3540867" lon="11.6990283"><ele>278.0</ele><time>2026-04-07T15:36:32.967Z</time></trkpt><trkpt lat="43.3540433" lon="11.6991133"><ele>278.0</ele><time>2026-04-07T15:36:34.965Z</time></trkpt><trkpt lat="43.3540067" lon="11.6991967"><ele>278.0</ele><time>2026-04-07T15:36:36.966Z</time></trkpt><trkpt lat="43.3539383" lon="11.6993233"><ele>278.0</ele><time>2026-04-07T15:36:39.964Z</time></trkpt><trkpt lat="43.3538983" lon="11.6994267"><ele>278.0</ele><time>2026-04-07T15:36:41.969Z</time></trkpt><trkpt lat="43.3538567" lon="11.6995383"><ele>278.6</ele><time>2026-04-07T15:36:43.964Z</time></trkpt><trkpt lat="43.3538167" lon="11.6996583"><ele>279.20000000000005</ele><time>2026-04-07T15:36:45.968Z</time></trkpt><trkpt lat="43.353775" lon="11.6997717"><ele>279.8</ele><time>2026-04-07T15:36:47.967Z</time></trkpt><trkpt lat="43.3537333" lon="11.6998733"><ele>280.40000000000003</ele><time>2026-04-07T15:36:49.964Z</time></trkpt><trkpt lat="43.35369" lon="11.6999833"><ele>281.0</ele><time>2026-04-07T15:36:51.965Z</time></trkpt><trkpt lat="43.3536483" lon="11.7001033"><ele>281.0</ele><time>2026-04-07T15:36:53.965Z</time></trkpt><trkpt lat="43.3536" lon="11.700215"><ele>281.0</ele><time>2026-04-07T15:36:55.968Z</time></trkpt><trkpt lat="43.353555" lon="11.7003183"><ele>281.0</ele><time>2026-04-07T15:36:57.966Z</time></trkpt><trkpt lat="43.3535133" lon="11.7004283"><ele>281.0</ele><time>2026-04-07T15:36:59.967Z</time></trkpt><trkpt lat="43.3534683" lon="11.70054"><ele>281.0</ele><time>2026-04-07T15:37:01.965Z</time></trkpt><trkpt lat="43.3534167" lon="11.7006567"><ele>280.33333333333337</ele><time>2026-04-07T15:37:03.965Z</time></trkpt><trkpt lat="43.3533667" lon="11.7007717"><ele>279.6666666666667</ele><time>2026-04-07T15:37:05.964Z</time></trkpt><trkpt lat="43.3533183" lon="11.7008833"><ele>279.0</ele><time>2026-04-07T15:37:07.965Z</time></trkpt><trkpt lat="43.353275" lon="11.7009883"><ele>278.3333333333333</ele><time>2026-04-07T15:37:09.965Z</time></trkpt><trkpt lat="43.3532333" lon="11.7010817"><ele>277.66666666666663</ele><time>2026-04-07T15:37:11.966Z</time></trkpt><trkpt lat="43.3532017" lon="11.701175"><ele>277.0</ele><time>2026-04-07T15:37:13.964Z</time></trkpt><trkpt lat="43.3531733" lon="11.7012883"><ele>276.7142857142857</ele><time>2026-04-07T15:37:15.966Z</time></trkpt><trkpt lat="43.3531317" lon="11.7013733"><ele>276.4285714285714</ele><time>2026-04-07T15:37:17.965Z</time></trkpt><trkpt lat="43.3530933" lon="11.7014583"><ele>276.1428571428571</ele><time>2026-04-07T15:37:19.967Z</time></trkpt><trkpt lat="43.35305" lon="11.7015417"><ele>275.85714285714283</ele><time>2026-04-07T15:37:21.963Z</time></trkpt><trkpt lat="43.353005" lon="11.7016167"><ele>275.57142857142856</ele><time>2026-04-07T15:37:23.967Z</time></trkpt><trkpt lat="43.3529583" lon="11.7016833"><ele>275.2857142857143</ele><time>2026-04-07T15:37:25.964Z</time></trkpt><trkpt lat="43.3529067" lon="11.7017483"><ele>275.0</ele><time>2026-04-07T15:37:27.967Z</time></trkpt><trkpt lat="43.3528517" lon="11.70182"><ele>275.6666666666667</ele><time>2026-04-07T15:37:29.966Z</time></trkpt><trkpt lat="43.3527967" lon="11.7018917"><ele>276.33333333333337</ele><time>2026-04-07T15:37:31.964Z</time></trkpt><trkpt lat="43.3527367" lon="11.70196"><ele>277.0</ele><time>2026-04-07T15:37:33.966Z</time></trkpt><trkpt lat="43.3526767" lon="11.7020283"><ele>277.6666666666667</ele><time>2026-04-07T15:37:35.965Z</time></trkpt><trkpt lat="43.3526133" lon="11.7020967"><ele>278.3333333333333</ele><time>2026-04-07T15:37:37.967Z</time></trkpt><trkpt lat="43.3525467" lon="11.702175"><ele>279.0</ele><time>2026-04-07T15:37:39.965Z</time></trkpt><trkpt lat="43.3524767" lon="11.7022583"><ele>279.0</ele><time>2026-04-07T15:37:41.968Z</time></trkpt><trkpt lat="43.3523867" lon="11.7023467"><ele>279.0</ele><time>2026-04-07T15:37:43.966Z</time></trkpt><trkpt lat="43.352305" lon="11.7024383"><ele>279.0</ele><time>2026-04-07T15:37:45.966Z</time></trkpt><trkpt lat="43.3522267" lon="11.70253"><ele>279.0</ele><time>2026-04-07T15:37:47.965Z</time></trkpt><trkpt lat="43.3521517" lon="11.7026167"><ele>279.0</ele><time>2026-04-07T15:37:49.967Z</time></trkpt><trkpt lat="43.3520833" lon="11.7027083"><ele>278.8</ele><time>2026-04-07T15:37:51.972Z</time></trkpt><trkpt lat="43.35201" lon="11.7027917"><ele>278.59999999999997</ele><time>2026-04-07T15:37:53.965Z</time></trkpt><trkpt lat="43.3519433" lon="11.702875"><ele>278.4</ele><time>2026-04-07T15:37:55.966Z</time></trkpt><trkpt lat="43.3518783" lon="11.70296"><ele>278.2</ele><time>2026-04-07T15:37:57.968Z</time></trkpt><trkpt lat="43.3518067" lon="11.7030533"><ele>278.0</ele><time>2026-04-07T15:37:59.966Z</time></trkpt><trkpt lat="43.3517517" lon="11.70317"><ele>278.0</ele><time>2026-04-07T15:38:01.967Z</time></trkpt><trkpt lat="43.3517067" lon="11.7032883"><ele>278.0</ele><time>2026-04-07T15:38:03.965Z</time></trkpt><trkpt lat="43.3516633" lon="11.703425"><ele>278.0</ele><time>2026-04-07T15:38:05.966Z</time></trkpt><trkpt lat="43.351625" lon="11.7035533"><ele>278.0</ele><time>2026-04-07T15:38:07.966Z</time></trkpt><trkpt lat="43.35159" lon="11.7036933"><ele>278.0</ele><time>2026-04-07T15:38:09.967Z</time></trkpt><trkpt lat="43.3515683" lon="11.7038417"><ele>278.0</ele><time>2026-04-07T15:38:11.964Z</time></trkpt><trkpt lat="43.35156" lon="11.7039983"><ele>278.0</ele><time>2026-04-07T15:38:13.967Z</time></trkpt><trkpt lat="43.3515433" lon="11.704165"><ele>278.0</ele><time>2026-04-07T15:38:15.969Z</time></trkpt><trkpt lat="43.3515333" lon="11.7043233"><ele>278.0</ele><time>2026-04-07T15:38:17.969Z</time></trkpt><trkpt lat="43.3515233" lon="11.70447"><ele>278.0</ele><time>2026-04-07T15:38:19.967Z</time></trkpt><trkpt lat="43.3515167" lon="11.7046083"><ele>278.0</ele><time>2026-04-07T15:38:21.966Z</time></trkpt><trkpt lat="43.35151" lon="11.70475"><ele>278.0</ele><time>2026-04-07T15:38:23.968Z</time></trkpt><trkpt lat="43.3514967" lon="11.7048833"><ele>278.0</ele><time>2026-04-07T15:38:25.963Z</time></trkpt><trkpt lat="43.35148" lon="11.705015"><ele>278.0</ele><time>2026-04-07T15:38:27.968Z</time></trkpt><trkpt lat="43.3514633" lon="11.7051467"><ele>277.8</ele><time>2026-04-07T15:38:29.964Z</time></trkpt><trkpt lat="43.35145" lon="11.7052867"><ele>277.6</ele><time>2026-04-07T15:38:31.966Z</time></trkpt><trkpt lat="43.3514417" lon="11.7054317"><ele>277.4</ele><time>2026-04-07T15:38:33.966Z</time></trkpt><trkpt lat="43.3514283" lon="11.7055733"><ele>277.2</ele><time>2026-04-07T15:38:35.964Z</time></trkpt><trkpt lat="43.3514133" lon="11.7057183"><ele>277.0</ele><time>2026-04-07T15:38:37.965Z</time></trkpt><trkpt lat="43.3514" lon="11.7058633"><ele>277.0</ele><time>2026-04-07T15:38:39.966Z</time></trkpt><trkpt lat="43.3513983" lon="11.70601"><ele>277.0</ele><time>2026-04-07T15:38:41.968Z</time></trkpt><trkpt lat="43.3513983" lon="11.70616"><ele>277.0</ele><time>2026-04-07T15:38:43.964Z</time></trkpt><trkpt lat="43.3513883" lon="11.7062967"><ele>277.0</ele><time>2026-04-07T15:38:45.967Z</time></trkpt><trkpt lat="43.35138" lon="11.706435"><ele>277.0</ele><time>2026-04-07T15:38:47.966Z</time></trkpt><trkpt lat="43.351375" lon="11.7065617"><ele>277.0</ele><time>2026-04-07T15:38:49.965Z</time></trkpt><trkpt lat="43.351375" lon="11.7066917"><ele>277.0</ele><time>2026-04-07T15:38:51.96Z</time></trkpt><trkpt lat="43.3513717" lon="11.7068183"><ele>277.0</ele><time>2026-04-07T15:38:53.964Z</time></trkpt><trkpt lat="43.3513883" lon="11.7069433"><ele>277.0</ele><time>2026-04-07T15:38:55.962Z</time></trkpt><trkpt lat="43.351405" lon="11.7070667"><ele>277.0</ele><time>2026-04-07T15:38:57.964Z</time></trkpt><trkpt lat="43.3514267" lon="11.7071983"><ele>277.0</ele><time>2026-04-07T15:38:59.964Z</time></trkpt><trkpt lat="43.3514567" lon="11.70733"><ele>277.0</ele><time>2026-04-07T15:39:01.964Z</time></trkpt><trkpt lat="43.3514883" lon="11.707455"><ele>277.0</ele><time>2026-04-07T15:39:03.967Z</time></trkpt><trkpt lat="43.35151" lon="11.7075867"><ele>277.0</ele><time>2026-04-07T15:39:05.966Z</time></trkpt><trkpt lat="43.351525" lon="11.7077233"><ele>277.0</ele><time>2026-04-07T15:39:07.964Z</time></trkpt><trkpt lat="43.3515383" lon="11.70787"><ele>276.6</ele><time>2026-04-07T15:39:09.97Z</time></trkpt><trkpt lat="43.3515617" lon="11.708015"><ele>276.2</ele><time>2026-04-07T15:39:11.964Z</time></trkpt><trkpt lat="43.3515617" lon="11.70818"><ele>275.8</ele><time>2026-04-07T15:39:13.971Z</time></trkpt><trkpt lat="43.35156" lon="11.70835"><ele>275.4</ele><time>2026-04-07T15:39:15.965Z</time></trkpt><trkpt lat="43.3515517" lon="11.7084583"><ele>275.0</ele><time>2026-04-07T15:39:16.968Z</time></trkpt><trkpt lat="43.35155" lon="11.7085533"><ele>274.7142857142857</ele><time>2026-04-07T15:39:17.97Z</time></trkpt><trkpt lat="43.3515483" lon="11.7086533"><ele>274.42857142857144</ele><time>2026-04-07T15:39:18.964Z</time></trkpt><trkpt lat="43.351545" lon="11.7087533"><ele>274.1428571428571</ele><time>2026-04-07T15:39:19.966Z</time></trkpt><trkpt lat="43.35154" lon="11.7088517"><ele>273.8571428571429</ele><time>2026-04-07T15:39:20.965Z</time></trkpt><trkpt lat="43.3515333" lon="11.7089533"><ele>273.57142857142856</ele><time>2026-04-07T15:39:21.964Z</time></trkpt><trkpt lat="43.3515233" lon="11.7090567"><ele>273.2857142857143</ele><time>2026-04-07T15:39:22.965Z</time></trkpt><trkpt lat="43.3515167" lon="11.709165"><ele>273.0</ele><time>2026-04-07T15:39:23.964Z</time></trkpt><trkpt lat="43.35151" lon="11.7092717"><ele>273.0</ele><time>2026-04-07T15:39:24.965Z</time></trkpt><trkpt lat="43.3515033" lon="11.7093783"><ele>273.0</ele><time>2026-04-07T15:39:25.968Z</time></trkpt><trkpt lat="43.3514983" lon="11.709485"><ele>273.0</ele><time>2026-04-07T15:39:26.968Z</time></trkpt><trkpt lat="43.3514933" lon="11.7095883"><ele>273.0</ele><time>2026-04-07T15:39:27.965Z</time></trkpt><trkpt lat="43.3514917" lon="11.7096933"><ele>273.0</ele><time>2026-04-07T15:39:28.965Z</time></trkpt><trkpt lat="43.35149" lon="11.709795"><ele>273.0</ele><time>2026-04-07T15:39:29.968Z</time></trkpt><trkpt lat="43.3514867" lon="11.709895"><ele>273.0</ele><time>2026-04-07T15:39:30.967Z</time></trkpt><trkpt lat="43.3514833" lon="11.7099967"><ele>273.0</ele><time>2026-04-07T15:39:31.968Z</time></trkpt><trkpt lat="43.3514783" lon="11.7100933"><ele>273.0</ele><time>2026-04-07T15:39:32.967Z</time></trkpt><trkpt lat="43.3514733" lon="11.71019"><ele>273.0</ele><time>2026-04-07T15:39:33.966Z</time></trkpt><trkpt lat="43.35147" lon="11.710285"><ele>273.0</ele><time>2026-04-07T15:39:34.965Z</time></trkpt><trkpt lat="43.351465" lon="11.7103817"><ele>273.0</ele><time>2026-04-07T15:39:35.966Z</time></trkpt><trkpt lat="43.35146" lon="11.710475"><ele>273.0</ele><time>2026-04-07T15:39:36.967Z</time></trkpt><trkpt lat="43.3514567" lon="11.71057"><ele>272.7142857142857</ele><time>2026-04-07T15:39:37.967Z</time></trkpt><trkpt lat="43.3514517" lon="11.710665"><ele>272.42857142857144</ele><time>2026-04-07T15:39:38.964Z</time></trkpt><trkpt lat="43.35145" lon="11.71076"><ele>272.1428571428571</ele><time>2026-04-07T15:39:39.966Z</time></trkpt><trkpt lat="43.351445" lon="11.7108533"><ele>271.8571428571429</ele><time>2026-04-07T15:39:40.965Z</time></trkpt><trkpt lat="43.3514433" lon="11.7109467"><ele>271.57142857142856</ele><time>2026-04-07T15:39:41.967Z</time></trkpt><trkpt lat="43.3514417" lon="11.7110433"><ele>271.2857142857143</ele><time>2026-04-07T15:39:42.964Z</time></trkpt><trkpt lat="43.3514417" lon="11.7111383"><ele>271.0</ele><time>2026-04-07T15:39:43.967Z</time></trkpt><trkpt lat="43.3514433" lon="11.7112333"><ele>270.8</ele><time>2026-04-07T15:39:44.968Z</time></trkpt><trkpt lat="43.351445" lon="11.711325"><ele>270.6</ele><time>2026-04-07T15:39:45.965Z</time></trkpt><trkpt lat="43.351445" lon="11.7114833"><ele>270.4</ele><time>2026-04-07T15:39:47.964Z</time></trkpt><trkpt lat="43.3514067" lon="11.7116017"><ele>270.2</ele><time>2026-04-07T15:39:49.965Z</time></trkpt><trkpt lat="43.351315" lon="11.7116167"><ele>270.0</ele><time>2026-04-07T15:39:51.964Z</time></trkpt><trkpt lat="43.3512067" lon="11.711605"><ele>270.4</ele><time>2026-04-07T15:39:53.966Z</time></trkpt><trkpt lat="43.351105" lon="11.7116067"><ele>270.8</ele><time>2026-04-07T15:39:55.965Z</time></trkpt><trkpt lat="43.351005" lon="11.711605"><ele>271.2</ele><time>2026-04-07T15:39:57.968Z</time></trkpt><trkpt lat="43.3509117" lon="11.7116067"><ele>271.6</ele><time>2026-04-07T15:39:59.966Z</time></trkpt><trkpt lat="43.35082" lon="11.7116083"><ele>272.0</ele><time>2026-04-07T15:40:01.97Z</time></trkpt><trkpt lat="43.35073" lon="11.7116083"><ele>272.0</ele><time>2026-04-07T15:40:03.968Z</time></trkpt><trkpt lat="43.3506433" lon="11.7116067"><ele>272.0</ele><time>2026-04-07T15:40:05.965Z</time></trkpt><trkpt lat="43.3505667" lon="11.7116083"><ele>272.0</ele><time>2026-04-07T15:40:07.964Z</time></trkpt><trkpt lat="43.3505" lon="11.7116067"><ele>272.0</ele><time>2026-04-07T15:40:09.966Z</time></trkpt><trkpt lat="43.35041" lon="11.7115967"><ele>272.0</ele><time>2026-04-07T15:40:12.962Z</time></trkpt><trkpt lat="43.3503267" lon="11.7115933"><ele>272.0</ele><time>2026-04-07T15:40:15.966Z</time></trkpt><trkpt lat="43.3502483" lon="11.7115917"><ele>272.57142857142856</ele><time>2026-04-07T15:40:18.964Z</time></trkpt><trkpt lat="43.350175" lon="11.7115883"><ele>273.1428571428571</ele><time>2026-04-07T15:40:21.965Z</time></trkpt><trkpt lat="43.3501" lon="11.7115883"><ele>273.7142857142857</ele><time>2026-04-07T15:40:24.967Z</time></trkpt><trkpt lat="43.3500217" lon="11.7115917"><ele>274.2857142857143</ele><time>2026-04-07T15:40:27.964Z</time></trkpt><trkpt lat="43.349945" lon="11.7115783"><ele>274.8571428571429</ele><time>2026-04-07T15:40:30.965Z</time></trkpt><trkpt lat="43.3498817" lon="11.7115783"><ele>275.42857142857144</ele><time>2026-04-07T15:40:33.965Z</time></trkpt><trkpt lat="43.349815" lon="11.71158"><ele>276.0</ele><time>2026-04-07T15:40:36.965Z</time></trkpt><trkpt lat="43.3497433" lon="11.7115733"><ele>277.1666666666667</ele><time>2026-04-07T15:40:40.967Z</time></trkpt><trkpt lat="43.3496683" lon="11.71157"><ele>278.3333333333333</ele><time>2026-04-07T15:40:45.967Z</time></trkpt><trkpt lat="43.349605" lon="11.7115433"><ele>279.5</ele><time>2026-04-07T15:40:50.968Z</time></trkpt><trkpt lat="43.3495433" lon="11.7114967"><ele>280.66666666666663</ele><time>2026-04-07T15:40:54.965Z</time></trkpt><trkpt lat="43.3494517" lon="11.7114817"><ele>281.8333333333333</ele><time>2026-04-07T15:40:58.968Z</time></trkpt><trkpt lat="43.3493733" lon="11.7115317"><ele>283.0</ele><time>2026-04-07T15:41:02.967Z</time></trkpt><trkpt lat="43.3493067" lon="11.7115133"><ele>283.0</ele><time>2026-04-07T15:41:05.966Z</time></trkpt><trkpt lat="43.3492317" lon="11.7114833"><ele>283.0</ele><time>2026-04-07T15:41:09.964Z</time></trkpt><trkpt lat="43.3491683" lon="11.7114717"><ele>283.0</ele><time>2026-04-07T15:41:12.965Z</time></trkpt><trkpt lat="43.34909" lon="11.7114467"><ele>283.0</ele><time>2026-04-07T15:41:15.965Z</time></trkpt><trkpt lat="43.3490017" lon="11.7114483"><ele>283.0</ele><time>2026-04-07T15:41:18.964Z</time></trkpt><trkpt lat="43.34894" lon="11.7114683"><ele>283.0</ele><time>2026-04-07T15:41:20.966Z</time></trkpt><trkpt lat="43.3488667" lon="11.7115133"><ele>284.3333333333333</ele><time>2026-04-07T15:41:23.967Z</time></trkpt><trkpt lat="43.348795" lon="11.711565"><ele>285.66666666666663</ele><time>2026-04-07T15:41:26.967Z</time></trkpt><trkpt lat="43.3487217" lon="11.7116133"><ele>287.0</ele><time>2026-04-07T15:41:29.964Z</time></trkpt><trkpt lat="43.3486567" lon="11.7116717"><ele>288.3333333333333</ele><time>2026-04-07T15:41:32.966Z</time></trkpt><trkpt lat="43.3485983" lon="11.711735"><ele>289.6666666666667</ele><time>2026-04-07T15:41:35.966Z</time></trkpt><trkpt lat="43.34854" lon="11.7117967"><ele>291.0</ele><time>2026-04-07T15:41:38.966Z</time></trkpt><trkpt lat="43.3484817" lon="11.7118433"><ele>289.42857142857144</ele><time>2026-04-07T15:41:41.966Z</time></trkpt><trkpt lat="43.34842" lon="11.7119083"><ele>287.85714285714283</ele><time>2026-04-07T15:41:45.965Z</time></trkpt><trkpt lat="43.3483567" lon="11.7119417"><ele>286.2857142857143</ele><time>2026-04-07T15:41:48.968Z</time></trkpt><trkpt lat="43.3482883" lon="11.7119717"><ele>284.7142857142857</ele><time>2026-04-07T15:41:51.965Z</time></trkpt><trkpt lat="43.3482117" lon="11.7119983"><ele>283.1428571428571</ele><time>2026-04-07T15:41:55.965Z</time></trkpt><trkpt lat="43.348145" lon="11.7120067"><ele>281.57142857142856</ele><time>2026-04-07T15:41:58.967Z</time></trkpt><trkpt lat="43.3480683" lon="11.71201"><ele>280.0</ele><time>2026-04-07T15:42:02.966Z</time></trkpt><trkpt lat="43.3479933" lon="11.71198"><ele>280.0</ele><time>2026-04-07T15:42:06.965Z</time></trkpt><trkpt lat="43.34792" lon="11.711935"><ele>280.0</ele><time>2026-04-07T15:42:10.966Z</time></trkpt><trkpt lat="43.3478583" lon="11.7119067"><ele>280.0</ele><time>2026-04-07T15:42:13.967Z</time></trkpt><trkpt lat="43.3477867" lon="11.71186"><ele>280.0</ele><time>2026-04-07T15:42:17.965Z</time></trkpt><trkpt lat="43.3477083" lon="11.7118133"><ele>280.0</ele><time>2026-04-07T15:42:21.967Z</time></trkpt><trkpt lat="43.3476467" lon="11.7117717"><ele>280.0</ele><time>2026-04-07T15:42:24.965Z</time></trkpt><trkpt lat="43.3475783" lon="11.7117167"><ele>280.5</ele><time>2026-04-07T15:42:27.965Z</time></trkpt><trkpt lat="43.3475067" lon="11.7116533"><ele>281.0</ele><time>2026-04-07T15:42:30.97Z</time></trkpt><trkpt lat="43.34743" lon="11.7115767"><ele>281.5</ele><time>2026-04-07T15:42:33.969Z</time></trkpt><trkpt lat="43.3473767" lon="11.711515"><ele>282.0</ele><time>2026-04-07T15:42:35.968Z</time></trkpt><trkpt lat="43.347315" lon="11.711445"><ele>282.5</ele><time>2026-04-07T15:42:37.967Z</time></trkpt><trkpt lat="43.3472483" lon="11.711375"><ele>283.0</ele><time>2026-04-07T15:42:39.965Z</time></trkpt><trkpt lat="43.3471767" lon="11.7113"><ele>283.0</ele><time>2026-04-07T15:42:41.969Z</time></trkpt><trkpt lat="43.3470933" lon="11.71123"><ele>283.0</ele><time>2026-04-07T15:42:43.967Z</time></trkpt><trkpt lat="43.3469967" lon="11.7111617"><ele>283.0</ele><time>2026-04-07T15:42:45.967Z</time></trkpt><trkpt lat="43.3468883" lon="11.7110933"><ele>283.0</ele><time>2026-04-07T15:42:47.965Z</time></trkpt><trkpt lat="43.3467667" lon="11.7110367"><ele>282.66666666666663</ele><time>2026-04-07T15:42:49.97Z</time></trkpt><trkpt lat="43.34669" lon="11.7110183"><ele>282.3333333333333</ele><time>2026-04-07T15:42:50.965Z</time></trkpt><trkpt lat="43.3466117" lon="11.711"><ele>282.0</ele><time>2026-04-07T15:42:51.963Z</time></trkpt><trkpt lat="43.3465317" lon="11.71097"><ele>281.6666666666667</ele><time>2026-04-07T15:42:52.965Z</time></trkpt><trkpt lat="43.3464583" lon="11.71095"><ele>281.33333333333337</ele><time>2026-04-07T15:42:53.964Z</time></trkpt><trkpt lat="43.34638" lon="11.7109267"><ele>281.0</ele><time>2026-04-07T15:42:54.968Z</time></trkpt><trkpt lat="43.3463" lon="11.7109033"><ele>281.0</ele><time>2026-04-07T15:42:55.964Z</time></trkpt><trkpt lat="43.3462217" lon="11.71088"><ele>281.0</ele><time>2026-04-07T15:42:56.964Z</time></trkpt><trkpt lat="43.3461417" lon="11.71085"><ele>281.0</ele><time>2026-04-07T15:42:57.964Z</time></trkpt><trkpt lat="43.3460683" lon="11.7108233"><ele>281.0</ele><time>2026-04-07T15:42:58.965Z</time></trkpt><trkpt lat="43.3459967" lon="11.710795"><ele>281.0</ele><time>2026-04-07T15:42:59.965Z</time></trkpt><trkpt lat="43.3459233" lon="11.7107683"><ele>281.0</ele><time>2026-04-07T15:43:00.966Z</time></trkpt><trkpt lat="43.34585" lon="11.7107433"><ele>281.0</ele><time>2026-04-07T15:43:01.964Z</time></trkpt><trkpt lat="43.3457767" lon="11.7107183"><ele>281.0</ele><time>2026-04-07T15:43:02.968Z</time></trkpt><trkpt lat="43.345705" lon="11.7106917"><ele>281.0</ele><time>2026-04-07T15:43:03.964Z</time></trkpt><trkpt lat="43.3456333" lon="11.7106633"><ele>281.0</ele><time>2026-04-07T15:43:04.967Z</time></trkpt><trkpt lat="43.3455633" lon="11.71063"><ele>281.0</ele><time>2026-04-07T15:43:05.966Z</time></trkpt><trkpt lat="43.34549" lon="11.7105917"><ele>281.0</ele><time>2026-04-07T15:43:06.965Z</time></trkpt><trkpt lat="43.34542" lon="11.71055"><ele>280.5714285714286</ele><time>2026-04-07T15:43:07.965Z</time></trkpt><trkpt lat="43.3453533" lon="11.7105033"><ele>280.14285714285717</ele><time>2026-04-07T15:43:08.965Z</time></trkpt><trkpt lat="43.3452917" lon="11.7104533"><ele>279.7142857142857</ele><time>2026-04-07T15:43:09.965Z</time></trkpt><trkpt lat="43.3452317" lon="11.710395"><ele>279.28571428571433</ele><time>2026-04-07T15:43:10.967Z</time></trkpt><trkpt lat="43.3451733" lon="11.7103367"><ele>278.8571428571429</ele><time>2026-04-07T15:43:11.966Z</time></trkpt><trkpt lat="43.3451183" lon="11.7102783"><ele>278.42857142857144</ele><time>2026-04-07T15:43:12.967Z</time></trkpt><trkpt lat="43.3450667" lon="11.7102183"><ele>278.0</ele><time>2026-04-07T15:43:13.969Z</time></trkpt><trkpt lat="43.3449867" lon="11.7100983"><ele>277.5</ele><time>2026-04-07T15:43:15.964Z</time></trkpt><trkpt lat="43.3449" lon="11.70998"><ele>277.0</ele><time>2026-04-07T15:43:17.966Z</time></trkpt><trkpt lat="43.3448067" lon="11.709875"><ele>276.5</ele><time>2026-04-07T15:43:19.965Z</time></trkpt><trkpt lat="43.3447067" lon="11.70978"><ele>276.0</ele><time>2026-04-07T15:43:21.965Z</time></trkpt><trkpt lat="43.3445983" lon="11.7097333"><ele>276.0</ele><time>2026-04-07T15:43:23.968Z</time></trkpt><trkpt lat="43.344535" lon="11.7097217"><ele>276.0</ele><time>2026-04-07T15:43:24.966Z</time></trkpt><trkpt lat="43.34441" lon="11.7097033"><ele>276.0</ele><time>2026-04-07T15:43:26.968Z</time></trkpt><trkpt lat="43.3443467" lon="11.7096917"><ele>276.0</ele><time>2026-04-07T15:43:27.967Z</time></trkpt><trkpt lat="43.3442817" lon="11.7096833"><ele>276.0</ele><time>2026-04-07T15:43:28.966Z</time></trkpt><trkpt lat="43.3441617" lon="11.7096633"><ele>276.0</ele><time>2026-04-07T15:43:30.975Z</time></trkpt><trkpt lat="43.34405" lon="11.70964"><ele>276.0</ele><time>2026-04-07T15:43:32.967Z</time></trkpt><trkpt lat="43.3439367" lon="11.70962"><ele>276.0</ele><time>2026-04-07T15:43:34.964Z</time></trkpt><trkpt lat="43.3438317" lon="11.7095967"><ele>276.0</ele><time>2026-04-07T15:43:36.965Z</time></trkpt><trkpt lat="43.3437283" lon="11.709575"><ele>276.0</ele><time>2026-04-07T15:43:38.967Z</time></trkpt><trkpt lat="43.34363" lon="11.7095533"><ele>276.0</ele><time>2026-04-07T15:43:40.964Z</time></trkpt><trkpt lat="43.343535" lon="11.7095367"><ele>275.8333333333333</ele><time>2026-04-07T15:43:42.965Z</time></trkpt><trkpt lat="43.3434583" lon="11.7095217"><ele>275.6666666666667</ele><time>2026-04-07T15:43:44.967Z</time></trkpt><trkpt lat="43.343385" lon="11.709505"><ele>275.5</ele><time>2026-04-07T15:43:46.965Z</time></trkpt><trkpt lat="43.343295" lon="11.709495"><ele>275.33333333333337</ele><time>2026-04-07T15:43:49.966Z</time></trkpt><trkpt lat="43.34321" lon="11.7094783"><ele>275.1666666666667</ele><time>2026-04-07T15:43:52.966Z</time></trkpt><trkpt lat="43.3431267" lon="11.7094567"><ele>275.0</ele><time>2026-04-07T15:43:55.966Z</time></trkpt><trkpt lat="43.3430517" lon="11.70945"><ele>275.33333333333337</ele><time>2026-04-07T15:43:58.965Z</time></trkpt><trkpt lat="43.3429667" lon="11.7094367"><ele>275.6666666666667</ele><time>2026-04-07T15:44:01.965Z</time></trkpt><trkpt lat="43.3429033" lon="11.7094383"><ele>276.0</ele><time>2026-04-07T15:44:03.962Z</time></trkpt><trkpt lat="43.3428317" lon="11.7094517"><ele>276.3333333333333</ele><time>2026-04-07T15:44:06.965Z</time></trkpt><trkpt lat="43.342745" lon="11.7094583"><ele>276.66666666666663</ele><time>2026-04-07T15:44:30.968Z</time></trkpt><trkpt lat="43.3426667" lon="11.709475"><ele>277.0</ele><time>2026-04-07T15:44:34.967Z</time></trkpt><trkpt lat="43.3426267" lon="11.709545"><ele>277.0</ele><time>2026-04-07T15:44:37.966Z</time></trkpt><trkpt lat="43.3425917" lon="11.7096483"><ele>277.0</ele><time>2026-04-07T15:44:40.965Z</time></trkpt><trkpt lat="43.3425667" lon="11.7097283"><ele>277.0</ele><time>2026-04-07T15:44:42.968Z</time></trkpt><trkpt lat="43.3425417" lon="11.7098117"><ele>277.0</ele><time>2026-04-07T15:44:44.968Z</time></trkpt><trkpt lat="43.3425167" lon="11.709895"><ele>277.0</ele><time>2026-04-07T15:44:46.968Z</time></trkpt><trkpt lat="43.34249" lon="11.7099783"><ele>277.0</ele><time>2026-04-07T15:44:48.965Z</time></trkpt><trkpt lat="43.3424617" lon="11.71007"><ele>277.0</ele><time>2026-04-07T15:44:50.971Z</time></trkpt><trkpt lat="43.342435" lon="11.710165"><ele>277.1428571428571</ele><time>2026-04-07T15:44:52.968Z</time></trkpt><trkpt lat="43.34241" lon="11.7102583"><ele>277.2857142857143</ele><time>2026-04-07T15:44:54.967Z</time></trkpt><trkpt lat="43.34238" lon="11.7103483"><ele>277.42857142857144</ele><time>2026-04-07T15:44:56.968Z</time></trkpt><trkpt lat="43.3423567" lon="11.7104433"><ele>277.57142857142856</ele><time>2026-04-07T15:44:58.966Z</time></trkpt><trkpt lat="43.3423283" lon="11.7105267"><ele>277.7142857142857</ele><time>2026-04-07T15:45:00.967Z</time></trkpt><trkpt lat="43.342295" lon="11.7106067"><ele>277.85714285714283</ele><time>2026-04-07T15:45:02.966Z</time></trkpt><trkpt lat="43.3422533" lon="11.7107167"><ele>278.0</ele><time>2026-04-07T15:45:05.969Z</time></trkpt><trkpt lat="43.3422217" lon="11.7107983"><ele>278.5</ele><time>2026-04-07T15:45:07.969Z</time></trkpt><trkpt lat="43.3421933" lon="11.7108783"><ele>279.0</ele><time>2026-04-07T15:45:09.967Z</time></trkpt><trkpt lat="43.3421683" lon="11.7109583"><ele>279.5</ele><time>2026-04-07T15:45:11.968Z</time></trkpt><trkpt lat="43.34213" lon="11.7110733"><ele>280.0</ele><time>2026-04-07T15:45:14.969Z</time></trkpt><trkpt lat="43.3421" lon="11.71115"><ele>280.5</ele><time>2026-04-07T15:45:16.966Z</time></trkpt><trkpt lat="43.342055" lon="11.7112567"><ele>281.0</ele><time>2026-04-07T15:45:19.964Z</time></trkpt><trkpt lat="43.3420133" lon="11.71136"><ele>281.5</ele><time>2026-04-07T15:45:22.964Z</time></trkpt><trkpt lat="43.3419733" lon="11.71146"><ele>282.0</ele><time>2026-04-07T15:45:25.967Z</time></trkpt><trkpt lat="43.3419317" lon="11.7115617"><ele>282.5</ele><time>2026-04-07T15:45:28.964Z</time></trkpt><trkpt lat="43.3419033" lon="11.7116617"><ele>283.0</ele><time>2026-04-07T15:45:31.97Z</time></trkpt><trkpt lat="43.3418633" lon="11.7117467"><ele>283.5</ele><time>2026-04-07T15:45:34.965Z</time></trkpt><trkpt lat="43.3418183" lon="11.7118233"><ele>284.0</ele><time>2026-04-07T15:45:37.965Z</time></trkpt><trkpt lat="43.3417717" lon="11.7118967"><ele>284.2857142857143</ele><time>2026-04-07T15:45:40.965Z</time></trkpt><trkpt lat="43.3417167" lon="11.7119517"><ele>284.57142857142856</ele><time>2026-04-07T15:45:43.965Z</time></trkpt><trkpt lat="43.3416633" lon="11.71201"><ele>284.85714285714283</ele><time>2026-04-07T15:45:46.966Z</time></trkpt><trkpt lat="43.3416133" lon="11.7120633"><ele>285.1428571428571</ele><time>2026-04-07T15:45:49.966Z</time></trkpt><trkpt lat="43.3415367" lon="11.7120967"><ele>285.42857142857144</ele><time>2026-04-07T15:45:53.969Z</time></trkpt><trkpt lat="43.3414583" lon="11.7121167"><ele>285.71428571428567</ele><time>2026-04-07T15:45:57.967Z</time></trkpt><trkpt lat="43.34138" lon="11.7120867"><ele>286.0</ele><time>2026-04-07T15:46:00.966Z</time></trkpt><trkpt lat="43.3412883" lon="11.712075"><ele>286.71428571428567</ele><time>2026-04-07T15:46:03.966Z</time></trkpt><trkpt lat="43.3412117" lon="11.712065"><ele>287.42857142857144</ele><time>2026-04-07T15:46:06.973Z</time></trkpt><trkpt lat="43.3411467" lon="11.7120533"><ele>288.1428571428571</ele><time>2026-04-07T15:46:09.966Z</time></trkpt><trkpt lat="43.3410783" lon="11.7120467"><ele>288.85714285714283</ele><time>2026-04-07T15:46:12.968Z</time></trkpt><trkpt lat="43.3409933" lon="11.712035"><ele>289.57142857142856</ele><time>2026-04-07T15:46:15.969Z</time></trkpt><trkpt lat="43.3409083" lon="11.7120133"><ele>290.2857142857143</ele><time>2026-04-07T15:46:18.966Z</time></trkpt><trkpt lat="43.340845" lon="11.711995"><ele>291.0</ele><time>2026-04-07T15:46:21.97Z</time></trkpt><trkpt lat="43.3407783" lon="11.711985"><ele>291.0</ele><time>2026-04-07T15:46:24.966Z</time></trkpt><trkpt lat="43.3407067" lon="11.711995"><ele>291.0</ele><time>2026-04-07T15:46:27.968Z</time></trkpt><trkpt lat="43.3406383" lon="11.7120083"><ele>291.0</ele><time>2026-04-07T15:46:30.968Z</time></trkpt><trkpt lat="43.3405717" lon="11.7120133"><ele>291.0</ele><time>2026-04-07T15:46:33.966Z</time></trkpt><trkpt lat="43.3405083" lon="11.7120167"><ele>291.0</ele><time>2026-04-07T15:46:36.976Z</time></trkpt><trkpt lat="43.3404383" lon="11.7120283"><ele>291.0</ele><time>2026-04-07T15:46:39.969Z</time></trkpt><trkpt lat="43.3403717" lon="11.71202"><ele>291.0</ele><time>2026-04-07T15:46:42.97Z</time></trkpt><trkpt lat="43.3402967" lon="11.7120117"><ele>291.42857142857144</ele><time>2026-04-07T15:46:46.966Z</time></trkpt><trkpt lat="43.3402233" lon="11.7120267"><ele>291.85714285714283</ele><time>2026-04-07T15:46:49.969Z</time></trkpt><trkpt lat="43.3401567" lon="11.7120517"><ele>292.2857142857143</ele><time>2026-04-07T15:46:52.964Z</time></trkpt><trkpt lat="43.3400733" lon="11.7120917"><ele>292.7142857142857</ele><time>2026-04-07T15:46:55.967Z</time></trkpt><trkpt lat="43.3400133" lon="11.7121183"><ele>293.1428571428571</ele><time>2026-04-07T15:46:57.964Z</time></trkpt><trkpt lat="43.3399483" lon="11.7121317"><ele>293.57142857142856</ele><time>2026-04-07T15:46:59.965Z</time></trkpt><trkpt lat="43.339875" lon="11.7121483"><ele>294.0</ele><time>2026-04-07T15:47:01.968Z</time></trkpt><trkpt lat="43.3397983" lon="11.712155"><ele>294.0</ele><time>2026-04-07T15:47:03.965Z</time></trkpt><trkpt lat="43.3397267" lon="11.712155"><ele>294.0</ele><time>2026-04-07T15:47:05.965Z</time></trkpt><trkpt lat="43.3396283" lon="11.7121433"><ele>294.0</ele><time>2026-04-07T15:47:08.968Z</time></trkpt><trkpt lat="43.3395633" lon="11.7121333"><ele>294.0</ele><time>2026-04-07T15:47:10.968Z</time></trkpt><trkpt lat="43.3394733" lon="11.71211"><ele>294.0</ele><time>2026-04-07T15:47:13.963Z</time></trkpt><trkpt lat="43.3394033" lon="11.712075"><ele>294.0</ele><time>2026-04-07T15:47:16.964Z</time></trkpt><trkpt lat="43.3393283" lon="11.7120483"><ele>294.0</ele><time>2026-04-07T15:47:19.966Z</time></trkpt><trkpt lat="43.3392533" lon="11.7120167"><ele>294.0</ele><time>2026-04-07T15:47:23.963Z</time></trkpt><trkpt lat="43.3391883" lon="11.7119817"><ele>294.0</ele><time>2026-04-07T15:47:27.965Z</time></trkpt><trkpt lat="43.3391267" lon="11.7119433"><ele>294.0</ele><time>2026-04-07T15:47:30.966Z</time></trkpt><trkpt lat="43.3390467" lon="11.71191"><ele>294.0</ele><time>2026-04-07T15:47:33.964Z</time></trkpt><trkpt lat="43.3389733" lon="11.7118833"><ele>294.0</ele><time>2026-04-07T15:47:36.964Z</time></trkpt><trkpt lat="43.338905" lon="11.7118633"><ele>294.0</ele><time>2026-04-07T15:47:39.965Z</time></trkpt><trkpt lat="43.338825" lon="11.71186"><ele>294.57142857142856</ele><time>2026-04-07T15:47:42.966Z</time></trkpt><trkpt lat="43.3387533" lon="11.71183"><ele>295.1428571428571</ele><time>2026-04-07T15:47:45.964Z</time></trkpt><trkpt lat="43.3386683" lon="11.7118333"><ele>295.7142857142857</ele><time>2026-04-07T15:47:48.964Z</time></trkpt><trkpt lat="43.33859" lon="11.7118533"><ele>296.2857142857143</ele><time>2026-04-07T15:47:51.965Z</time></trkpt><trkpt lat="43.3385183" lon="11.71188"><ele>296.85714285714283</ele><time>2026-04-07T15:47:54.966Z</time></trkpt><trkpt lat="43.3384567" lon="11.7119133"><ele>297.42857142857144</ele><time>2026-04-07T15:47:57.964Z</time></trkpt><trkpt lat="43.338395" lon="11.7119517"><ele>298.0</ele><time>2026-04-07T15:48:00.964Z</time></trkpt><trkpt lat="43.3383283" lon="11.71197"><ele>298.3333333333333</ele><time>2026-04-07T15:48:03.964Z</time></trkpt><trkpt lat="43.3382467" lon="11.7119817"><ele>298.66666666666663</ele><time>2026-04-07T15:48:07.965Z</time></trkpt><trkpt lat="43.3381733" lon="11.711995"><ele>299.0</ele><time>2026-04-07T15:48:12.966Z</time></trkpt><trkpt lat="43.338105" lon="11.7120083"><ele>299.3333333333333</ele><time>2026-04-07T15:48:15.969Z</time></trkpt><trkpt lat="43.33803" lon="11.7120233"><ele>299.6666666666667</ele><time>2026-04-07T15:48:18.968Z</time></trkpt><trkpt lat="43.3379583" lon="11.71204"><ele>300.0</ele><time>2026-04-07T15:48:21.967Z</time></trkpt><trkpt lat="43.3378817" lon="11.7120583"><ele>300.3333333333333</ele><time>2026-04-07T15:48:24.97Z</time></trkpt><trkpt lat="43.3377983" lon="11.712085"><ele>300.6666666666667</ele><time>2026-04-07T15:48:27.966Z</time></trkpt><trkpt lat="43.3377317" lon="11.7121033"><ele>301.0</ele><time>2026-04-07T15:48:29.965Z</time></trkpt><trkpt lat="43.3376433" lon="11.712125"><ele>301.33333333333337</ele><time>2026-04-07T15:48:32.965Z</time></trkpt><trkpt lat="43.337555" lon="11.71215"><ele>301.6666666666667</ele><time>2026-04-07T15:48:35.964Z</time></trkpt><trkpt lat="43.33749" lon="11.7121733"><ele>302.0</ele><time>2026-04-07T15:48:37.968Z</time></trkpt><trkpt lat="43.3374183" lon="11.7121983"><ele>302.0</ele><time>2026-04-07T15:48:39.964Z</time></trkpt><trkpt lat="43.3373517" lon="11.7122233"><ele>302.0</ele><time>2026-04-07T15:48:41.966Z</time></trkpt><trkpt lat="43.3372667" lon="11.7122533"><ele>302.0</ele><time>2026-04-07T15:48:44.964Z</time></trkpt><trkpt lat="43.337205" lon="11.7122783"><ele>302.0</ele><time>2026-04-07T15:48:47.966Z</time></trkpt><trkpt lat="43.3371267" lon="11.7122983"><ele>302.0</ele><time>2026-04-07T15:48:50.969Z</time></trkpt><trkpt lat="43.337055" lon="11.7123267"><ele>302.0</ele><time>2026-04-07T15:48:52.963Z</time></trkpt><trkpt lat="43.33698" lon="11.7123583"><ele>302.6666666666667</ele><time>2026-04-07T15:48:54.968Z</time></trkpt><trkpt lat="43.3369083" lon="11.7123983"><ele>303.33333333333337</ele><time>2026-04-07T15:48:56.965Z</time></trkpt><trkpt lat="43.3368483" lon="11.7124317"><ele>304.0</ele><time>2026-04-07T15:48:58.963Z</time></trkpt><trkpt lat="43.33677" lon="11.7124733"><ele>304.6666666666667</ele><time>2026-04-07T15:49:01.967Z</time></trkpt><trkpt lat="43.336695" lon="11.7125167"><ele>305.3333333333333</ele><time>2026-04-07T15:49:04.965Z</time></trkpt><trkpt lat="43.3366133" lon="11.7125683"><ele>306.0</ele><time>2026-04-07T15:49:07.965Z</time></trkpt><trkpt lat="43.3365367" lon="11.7126117"><ele>306.0</ele><time>2026-04-07T15:49:10.965Z</time></trkpt><trkpt lat="43.3364533" lon="11.71265"><ele>306.0</ele><time>2026-04-07T15:49:13.967Z</time></trkpt><trkpt lat="43.3363933" lon="11.7126817"><ele>306.0</ele><time>2026-04-07T15:49:15.967Z</time></trkpt><trkpt lat="43.3363233" lon="11.7127267"><ele>306.0</ele><time>2026-04-07T15:49:18.966Z</time></trkpt><trkpt lat="43.33626" lon="11.7127533"><ele>306.0</ele><time>2026-04-07T15:49:21.971Z</time></trkpt><trkpt lat="43.3361817" lon="11.71279"><ele>306.0</ele><time>2026-04-07T15:49:24.966Z</time></trkpt><trkpt lat="43.3361033" lon="11.71283"><ele>306.85714285714283</ele><time>2026-04-07T15:49:27.965Z</time></trkpt><trkpt lat="43.3360317" lon="11.712875"><ele>307.7142857142857</ele><time>2026-04-07T15:49:30.966Z</time></trkpt><trkpt lat="43.3359617" lon="11.7129183"><ele>308.57142857142856</ele><time>2026-04-07T15:49:33.964Z</time></trkpt><trkpt lat="43.3359" lon="11.71295"><ele>309.42857142857144</ele><time>2026-04-07T15:49:36.968Z</time></trkpt><trkpt lat="43.3358317" lon="11.71298"><ele>310.2857142857143</ele><time>2026-04-07T15:49:39.967Z</time></trkpt><trkpt lat="43.3357583" lon="11.713025"><ele>311.14285714285717</ele><time>2026-04-07T15:49:43.964Z</time></trkpt><trkpt lat="43.3357017" lon="11.7130683"><ele>312.0</ele><time>2026-04-07T15:49:46.965Z</time></trkpt><trkpt lat="43.3356333" lon="11.7131117"><ele>312.0</ele><time>2026-04-07T15:49:49.967Z</time></trkpt><trkpt lat="43.33556" lon="11.7131367"><ele>312.0</ele><time>2026-04-07T15:49:53.966Z</time></trkpt><trkpt lat="43.3354867" lon="11.713165"><ele>312.0</ele><time>2026-04-07T15:49:57.968Z</time></trkpt><trkpt lat="43.33542" lon="11.713195"><ele>312.0</ele><time>2026-04-07T15:50:00.97Z</time></trkpt><trkpt lat="43.3353533" lon="11.7132433"><ele>312.0</ele><time>2026-04-07T15:50:03.969Z</time></trkpt><trkpt lat="43.3352833" lon="11.7132933"><ele>312.0</ele><time>2026-04-07T15:50:06.968Z</time></trkpt><trkpt lat="43.33521" lon="11.7133483"><ele>313.1666666666667</ele><time>2026-04-07T15:50:09.965Z</time></trkpt><trkpt lat="43.3351383" lon="11.713395"><ele>314.3333333333333</ele><time>2026-04-07T15:50:12.97Z</time></trkpt><trkpt lat="43.3350667" lon="11.7134317"><ele>315.5</ele><time>2026-04-07T15:50:15.965Z</time></trkpt><trkpt lat="43.334995" lon="11.713465"><ele>316.66666666666663</ele><time>2026-04-07T15:50:18.964Z</time></trkpt><trkpt lat="43.3349217" lon="11.713495"><ele>317.8333333333333</ele><time>2026-04-07T15:50:21.966Z</time></trkpt><trkpt lat="43.3348367" lon="11.71353"><ele>319.0</ele><time>2026-04-07T15:50:24.965Z</time></trkpt><trkpt lat="43.3347483" lon="11.713575"><ele>317.8333333333333</ele><time>2026-04-07T15:50:27.971Z</time></trkpt><trkpt lat="43.334675" lon="11.713605"><ele>316.66666666666663</ele><time>2026-04-07T15:50:29.966Z</time></trkpt><trkpt lat="43.3345867" lon="11.71364"><ele>315.5</ele><time>2026-04-07T15:50:31.968Z</time></trkpt><trkpt lat="43.3344733" lon="11.7136717"><ele>314.3333333333333</ele><time>2026-04-07T15:50:33.967Z</time></trkpt><trkpt lat="43.33441" lon="11.7136933"><ele>313.1666666666667</ele><time>2026-04-07T15:50:34.968Z</time></trkpt><trkpt lat="43.3343417" lon="11.7137133"><ele>312.0</ele><time>2026-04-07T15:50:35.966Z</time></trkpt><trkpt lat="43.334275" lon="11.7137317"><ele>312.0</ele><time>2026-04-07T15:50:36.966Z</time></trkpt><trkpt lat="43.3342017" lon="11.713755"><ele>312.0</ele><time>2026-04-07T15:50:37.964Z</time></trkpt><trkpt lat="43.3341283" lon="11.71378"><ele>312.0</ele><time>2026-04-07T15:50:38.964Z</time></trkpt><trkpt lat="43.3340517" lon="11.7138033"><ele>312.0</ele><time>2026-04-07T15:50:39.965Z</time></trkpt><trkpt lat="43.3339767" lon="11.7138317"><ele>312.0</ele><time>2026-04-07T15:50:40.965Z</time></trkpt><trkpt lat="43.3338983" lon="11.713865"><ele>312.0</ele><time>2026-04-07T15:50:41.965Z</time></trkpt><trkpt lat="43.3338183" lon="11.7139033"><ele>312.6666666666667</ele><time>2026-04-07T15:50:42.973Z</time></trkpt><trkpt lat="43.33374" lon="11.7139467"><ele>313.3333333333333</ele><time>2026-04-07T15:50:43.968Z</time></trkpt><trkpt lat="43.333665" lon="11.7140017"><ele>314.0</ele><time>2026-04-07T15:50:44.968Z</time></trkpt><trkpt lat="43.3335983" lon="11.7140667"><ele>314.66666666666663</ele><time>2026-04-07T15:50:45.965Z</time></trkpt><trkpt lat="43.3335367" lon="11.7141317"><ele>315.3333333333333</ele><time>2026-04-07T15:50:46.97Z</time></trkpt><trkpt lat="43.33348" lon="11.7141883"><ele>316.0</ele><time>2026-04-07T15:50:47.968Z</time></trkpt><trkpt lat="43.333435" lon="11.714255"><ele>316.0</ele><time>2026-04-07T15:50:48.967Z</time></trkpt><trkpt lat="43.333395" lon="11.7143233"><ele>316.0</ele><time>2026-04-07T15:50:49.965Z</time></trkpt><trkpt lat="43.33333" lon="11.7144367"><ele>316.0</ele><time>2026-04-07T15:50:51.97Z</time></trkpt><trkpt lat="43.3332783" lon="11.71452"><ele>316.0</ele><time>2026-04-07T15:50:53.967Z</time></trkpt><trkpt lat="43.3332183" lon="11.7146067"><ele>316.0</ele><time>2026-04-07T15:50:56.971Z</time></trkpt><trkpt lat="43.3331683" lon="11.7146667"><ele>316.0</ele><time>2026-04-07T15:50:59.968Z</time></trkpt><trkpt lat="43.3331183" lon="11.71475"><ele>316.0</ele><time>2026-04-07T15:51:02.964Z</time></trkpt><trkpt lat="43.333075" lon="11.7148367"><ele>316.0</ele><time>2026-04-07T15:51:05.966Z</time></trkpt><trkpt lat="43.3330317" lon="11.7149333"><ele>316.0</ele><time>2026-04-07T15:51:08.968Z</time></trkpt><trkpt lat="43.3329883" lon="11.715015"><ele>316.0</ele><time>2026-04-07T15:51:11.967Z</time></trkpt><trkpt lat="43.3329483" lon="11.715105"><ele>316.0</ele><time>2026-04-07T15:51:14.964Z</time></trkpt><trkpt lat="43.3329133" lon="11.7151917"><ele>316.0</ele><time>2026-04-07T15:51:17.966Z</time></trkpt><trkpt lat="43.3328867" lon="11.715295"><ele>317.3333333333333</ele><time>2026-04-07T15:51:20.968Z</time></trkpt><trkpt lat="43.332855" lon="11.7153917"><ele>318.66666666666663</ele><time>2026-04-07T15:51:23.964Z</time></trkpt><trkpt lat="43.3328317" lon="11.7154883"><ele>320.0</ele><time>2026-04-07T15:51:26.969Z</time></trkpt><trkpt lat="43.3328017" lon="11.71559"><ele>321.3333333333333</ele><time>2026-04-07T15:51:30.967Z</time></trkpt><trkpt lat="43.3327717" lon="11.7156833"><ele>322.6666666666667</ele><time>2026-04-07T15:51:34.964Z</time></trkpt><trkpt lat="43.3327483" lon="11.7157783"><ele>324.0</ele><time>2026-04-07T15:51:38.965Z</time></trkpt><trkpt lat="43.33271" lon="11.715875"><ele>324.0</ele><time>2026-04-07T15:51:42.966Z</time></trkpt><trkpt lat="43.3326783" lon="11.7159783"><ele>324.0</ele><time>2026-04-07T15:51:46.965Z</time></trkpt><trkpt lat="43.332655" lon="11.7160717"><ele>324.0</ele><time>2026-04-07T15:51:50.964Z</time></trkpt><trkpt lat="43.3326233" lon="11.71615"><ele>324.0</ele><time>2026-04-07T15:51:53.964Z</time></trkpt><trkpt lat="43.332595" lon="11.7162533"><ele>324.0</ele><time>2026-04-07T15:51:57.967Z</time></trkpt><trkpt lat="43.332575" lon="11.7163417"><ele>324.0</ele><time>2026-04-07T15:52:00.965Z</time></trkpt><trkpt lat="43.33256" lon="11.71644"><ele>324.0</ele><time>2026-04-07T15:52:03.966Z</time></trkpt><trkpt lat="43.3325417" lon="11.71653"><ele>324.8571428571429</ele><time>2026-04-07T15:52:07.964Z</time></trkpt><trkpt lat="43.33252" lon="11.7166117"><ele>325.7142857142857</ele><time>2026-04-07T15:52:10.963Z</time></trkpt><trkpt lat="43.3324967" lon="11.716695"><ele>326.57142857142856</ele><time>2026-04-07T15:52:13.965Z</time></trkpt><trkpt lat="43.33248" lon="11.7167917"><ele>327.42857142857144</ele><time>2026-04-07T15:52:17.966Z</time></trkpt><trkpt lat="43.3324567" lon="11.7168933"><ele>328.2857142857143</ele><time>2026-04-07T15:52:21.967Z</time></trkpt><trkpt lat="43.33244" lon="11.717"><ele>329.14285714285717</ele><time>2026-04-07T15:52:25.967Z</time></trkpt><trkpt lat="43.33242" lon="11.7170883"><ele>330.0</ele><time>2026-04-07T15:52:29.965Z</time></trkpt><trkpt lat="43.332395" lon="11.7171783"><ele>331.0</ele><time>2026-04-07T15:52:33.968Z</time></trkpt><trkpt lat="43.3323767" lon="11.717285"><ele>332.0</ele><time>2026-04-07T15:52:37.97Z</time></trkpt><trkpt lat="43.3323883" lon="11.7173783"><ele>333.0</ele><time>2026-04-07T15:52:41.965Z</time></trkpt><trkpt lat="43.3323817" lon="11.7174917"><ele>334.0</ele><time>2026-04-07T15:52:45.964Z</time></trkpt><trkpt lat="43.33237" lon="11.7175917"><ele>335.0</ele><time>2026-04-07T15:52:49.968Z</time></trkpt><trkpt lat="43.3323633" lon="11.7177067"><ele>336.0</ele><time>2026-04-07T15:52:53.967Z</time></trkpt><trkpt lat="43.3323483" lon="11.7178017"><ele>336.5</ele><time>2026-04-07T15:52:56.971Z</time></trkpt><trkpt lat="43.332325" lon="11.71789"><ele>337.0</ele><time>2026-04-07T15:53:00.967Z</time></trkpt><trkpt lat="43.3323117" lon="11.7179833"><ele>337.5</ele><time>2026-04-07T15:53:04.969Z</time></trkpt><trkpt lat="43.332275" lon="11.7180933"><ele>338.0</ele><time>2026-04-07T15:53:09.967Z</time></trkpt><trkpt lat="43.33227" lon="11.7182033"><ele>338.5</ele><time>2026-04-07T15:53:12.966Z</time></trkpt><trkpt lat="43.332295" lon="11.7183083"><ele>339.0</ele><time>2026-04-07T15:53:15.967Z</time></trkpt><trkpt lat="43.3323367" lon="11.7183833"><ele>339.0</ele><time>2026-04-07T15:53:17.966Z</time></trkpt><trkpt lat="43.332375" lon="11.7184733"><ele>339.0</ele><time>2026-04-07T15:53:19.965Z</time></trkpt><trkpt lat="43.3324283" lon="11.7185717"><ele>339.0</ele><time>2026-04-07T15:53:21.966Z</time></trkpt><trkpt lat="43.3324533" lon="11.7186533"><ele>339.0</ele><time>2026-04-07T15:53:22.967Z</time></trkpt><trkpt lat="43.3324867" lon="11.7187267"><ele>339.0</ele><time>2026-04-07T15:53:23.966Z</time></trkpt><trkpt lat="43.3325383" lon="11.71886"><ele>339.0</ele><time>2026-04-07T15:53:25.964Z</time></trkpt><trkpt lat="43.3325833" lon="11.7189967"><ele>338.1666666666667</ele><time>2026-04-07T15:53:27.968Z</time></trkpt><trkpt lat="43.332615" lon="11.7191333"><ele>337.3333333333333</ele><time>2026-04-07T15:53:29.976Z</time></trkpt><trkpt lat="43.33264" lon="11.7192833"><ele>336.5</ele><time>2026-04-07T15:53:31.968Z</time></trkpt><trkpt lat="43.332655" lon="11.71937"><ele>335.66666666666663</ele><time>2026-04-07T15:53:32.964Z</time></trkpt><trkpt lat="43.3326783" lon="11.71946"><ele>334.8333333333333</ele><time>2026-04-07T15:53:33.968Z</time></trkpt><trkpt lat="43.332685" lon="11.7195467"><ele>334.0</ele><time>2026-04-07T15:53:34.965Z</time></trkpt><trkpt lat="43.3326933" lon="11.7196367"><ele>333.42857142857144</ele><time>2026-04-07T15:53:35.97Z</time></trkpt><trkpt lat="43.3327033" lon="11.7197267"><ele>332.8571428571429</ele><time>2026-04-07T15:53:36.967Z</time></trkpt><trkpt lat="43.332705" lon="11.7198167"><ele>332.28571428571433</ele><time>2026-04-07T15:53:37.965Z</time></trkpt><trkpt lat="43.3327083" lon="11.71991"><ele>331.7142857142857</ele><time>2026-04-07T15:53:38.966Z</time></trkpt><trkpt lat="43.33271" lon="11.7200083"><ele>331.14285714285717</ele><time>2026-04-07T15:53:39.965Z</time></trkpt><trkpt lat="43.3327083" lon="11.72011"><ele>330.5714285714286</ele><time>2026-04-07T15:53:40.968Z</time></trkpt><trkpt lat="43.3327067" lon="11.7202133"><ele>330.0</ele><time>2026-04-07T15:53:41.964Z</time></trkpt><trkpt lat="43.3327083" lon="11.7203133"><ele>329.1666666666667</ele><time>2026-04-07T15:53:42.97Z</time></trkpt><trkpt lat="43.33271" lon="11.7204167"><ele>328.3333333333333</ele><time>2026-04-07T15:53:43.965Z</time></trkpt><trkpt lat="43.3327133" lon="11.72052"><ele>327.5</ele><time>2026-04-07T15:53:44.966Z</time></trkpt><trkpt lat="43.3327133" lon="11.7206267"><ele>326.66666666666663</ele><time>2026-04-07T15:53:45.966Z</time></trkpt><trkpt lat="43.332715" lon="11.7207367"><ele>325.8333333333333</ele><time>2026-04-07T15:53:46.967Z</time></trkpt><trkpt lat="43.3327183" lon="11.72085"><ele>325.0</ele><time>2026-04-07T15:53:47.969Z</time></trkpt><trkpt lat="43.3327217" lon="11.7209667"><ele>324.0</ele><time>2026-04-07T15:53:48.968Z</time></trkpt><trkpt lat="43.3327217" lon="11.7210867"><ele>323.0</ele><time>2026-04-07T15:53:49.967Z</time></trkpt><trkpt lat="43.3327217" lon="11.721215"><ele>322.0</ele><time>2026-04-07T15:53:50.965Z</time></trkpt><trkpt lat="43.332715" lon="11.7214683"><ele>321.0</ele><time>2026-04-07T15:53:52.968Z</time></trkpt><trkpt lat="43.3327017" lon="11.72159"><ele>321.0</ele><time>2026-04-07T15:53:53.967Z</time></trkpt><trkpt lat="43.332685" lon="11.7217083"><ele>321.0</ele><time>2026-04-07T15:53:54.969Z</time></trkpt><trkpt lat="43.3326617" lon="11.721825"><ele>321.0</ele><time>2026-04-07T15:53:55.967Z</time></trkpt><trkpt lat="43.3326333" lon="11.72194"><ele>321.0</ele><time>2026-04-07T15:53:56.966Z</time></trkpt><trkpt lat="43.3325983" lon="11.7220417"><ele>321.0</ele><time>2026-04-07T15:53:57.968Z</time></trkpt><trkpt lat="43.332555" lon="11.722135"><ele>321.0</ele><time>2026-04-07T15:53:58.966Z</time></trkpt><trkpt lat="43.3325117" lon="11.7222283"><ele>321.0</ele><time>2026-04-07T15:53:59.966Z</time></trkpt><trkpt lat="43.3324683" lon="11.7223167"><ele>321.0</ele><time>2026-04-07T15:54:00.974Z</time></trkpt><trkpt lat="43.3324283" lon="11.7223967"><ele>321.0</ele><time>2026-04-07T15:54:01.967Z</time></trkpt><trkpt lat="43.3323617" lon="11.7225333"><ele>321.0</ele><time>2026-04-07T15:54:03.97Z</time></trkpt><trkpt lat="43.3323067" lon="11.7226417"><ele>321.0</ele><time>2026-04-07T15:54:05.968Z</time></trkpt><trkpt lat="43.3322683" lon="11.7227217"><ele>321.0</ele><time>2026-04-07T15:54:07.968Z</time></trkpt><trkpt lat="43.3322233" lon="11.7228167"><ele>321.3333333333333</ele><time>2026-04-07T15:54:10.964Z</time></trkpt><trkpt lat="43.3321683" lon="11.7229017"><ele>321.6666666666667</ele><time>2026-04-07T15:54:13.966Z</time></trkpt><trkpt lat="43.3321033" lon="11.7229833"><ele>322.0</ele><time>2026-04-07T15:54:16.967Z</time></trkpt><trkpt lat="43.3320567" lon="11.7230433"><ele>322.33333333333337</ele><time>2026-04-07T15:54:18.968Z</time></trkpt><trkpt lat="43.3320033" lon="11.723105"><ele>322.6666666666667</ele><time>2026-04-07T15:54:20.967Z</time></trkpt><trkpt lat="43.3319517" lon="11.7231767"><ele>323.0</ele><time>2026-04-07T15:54:22.97Z</time></trkpt><trkpt lat="43.3318983" lon="11.7232467"><ele>323.0</ele><time>2026-04-07T15:54:24.966Z</time></trkpt><trkpt lat="43.3318467" lon="11.7233033"><ele>323.0</ele><time>2026-04-07T15:54:26.966Z</time></trkpt><trkpt lat="43.3317783" lon="11.7233833"><ele>323.0</ele><time>2026-04-07T15:54:29.965Z</time></trkpt><trkpt lat="43.33171" lon="11.723425"><ele>323.0</ele><time>2026-04-07T15:54:32.969Z</time></trkpt><trkpt lat="43.331645" lon="11.7234483"><ele>323.0</ele><time>2026-04-07T15:54:34.965Z</time></trkpt><trkpt lat="43.3315583" lon="11.7234817"><ele>323.0</ele><time>2026-04-07T15:54:36.965Z</time></trkpt><trkpt lat="43.331455" lon="11.7235233"><ele>322.5</ele><time>2026-04-07T15:54:38.964Z</time></trkpt><trkpt lat="43.3313383" lon="11.7235633"><ele>322.0</ele><time>2026-04-07T15:54:40.967Z</time></trkpt><trkpt lat="43.3312733" lon="11.7235883"><ele>321.5</ele><time>2026-04-07T15:54:41.966Z</time></trkpt><trkpt lat="43.331205" lon="11.723615"><ele>321.0</ele><time>2026-04-07T15:54:42.966Z</time></trkpt><trkpt lat="43.3311367" lon="11.723645"><ele>320.5</ele><time>2026-04-07T15:54:43.965Z</time></trkpt><trkpt lat="43.3310667" lon="11.72367"><ele>320.0</ele><time>2026-04-07T15:54:44.966Z</time></trkpt><trkpt lat="43.3309933" lon="11.7237033"><ele>320.0</ele><time>2026-04-07T15:54:45.969Z</time></trkpt><trkpt lat="43.3309233" lon="11.7237483"><ele>320.0</ele><time>2026-04-07T15:54:46.965Z</time></trkpt><trkpt lat="43.3308583" lon="11.7238167"><ele>320.0</ele><time>2026-04-07T15:54:47.966Z</time></trkpt><trkpt lat="43.330805" lon="11.7239017"><ele>320.0</ele><time>2026-04-07T15:54:48.969Z</time></trkpt><trkpt lat="43.33076" lon="11.723995"><ele>320.0</ele><time>2026-04-07T15:54:49.967Z</time></trkpt><trkpt lat="43.33071" lon="11.7240883"><ele>320.0</ele><time>2026-04-07T15:54:50.966Z</time></trkpt><trkpt lat="43.3306583" lon="11.72418"><ele>320.0</ele><time>2026-04-07T15:54:51.969Z</time></trkpt><trkpt lat="43.3306067" lon="11.7242717"><ele>320.0</ele><time>2026-04-07T15:54:52.968Z</time></trkpt><trkpt lat="43.3305533" lon="11.7243667"><ele>320.0</ele><time>2026-04-07T15:54:53.968Z</time></trkpt><trkpt lat="43.3304983" lon="11.7244667"><ele>320.0</ele><time>2026-04-07T15:54:54.967Z</time></trkpt><trkpt lat="43.330445" lon="11.724565"><ele>320.0</ele><time>2026-04-07T15:54:55.964Z</time></trkpt><trkpt lat="43.3303917" lon="11.7246617"><ele>320.0</ele><time>2026-04-07T15:54:56.967Z</time></trkpt><trkpt lat="43.3303383" lon="11.7247633"><ele>319.8</ele><time>2026-04-07T15:54:57.967Z</time></trkpt><trkpt lat="43.3302867" lon="11.7248667"><ele>319.6</ele><time>2026-04-07T15:54:58.966Z</time></trkpt><trkpt lat="43.330235" lon="11.7249683"><ele>319.4</ele><time>2026-04-07T15:54:59.964Z</time></trkpt><trkpt lat="43.3301817" lon="11.725075"><ele>319.2</ele><time>2026-04-07T15:55:00.968Z</time></trkpt><trkpt lat="43.33013" lon="11.72518"><ele>319.0</ele><time>2026-04-07T15:55:01.967Z</time></trkpt><trkpt lat="43.33008" lon="11.725285"><ele>319.0</ele><time>2026-04-07T15:55:02.971Z</time></trkpt><trkpt lat="43.33003" lon="11.7253917"><ele>319.0</ele><time>2026-04-07T15:55:03.967Z</time></trkpt><trkpt lat="43.3299783" lon="11.7255033"><ele>319.0</ele><time>2026-04-07T15:55:04.963Z</time></trkpt><trkpt lat="43.3299267" lon="11.7256133"><ele>319.0</ele><time>2026-04-07T15:55:05.966Z</time></trkpt><trkpt lat="43.3298733" lon="11.7257217"><ele>319.0</ele><time>2026-04-07T15:55:06.966Z</time></trkpt><trkpt lat="43.3298233" lon="11.7258267"><ele>319.0</ele><time>2026-04-07T15:55:07.964Z</time></trkpt><trkpt lat="43.3297767" lon="11.7259333"><ele>319.0</ele><time>2026-04-07T15:55:08.964Z</time></trkpt><trkpt lat="43.32973" lon="11.726035"><ele>319.0</ele><time>2026-04-07T15:55:09.965Z</time></trkpt><trkpt lat="43.329685" lon="11.72614"><ele>319.0</ele><time>2026-04-07T15:55:10.967Z</time></trkpt><trkpt lat="43.3296417" lon="11.72625"><ele>319.0</ele><time>2026-04-07T15:55:11.963Z</time></trkpt><trkpt lat="43.3296" lon="11.7263633"><ele>316.4</ele><time>2026-04-07T15:55:12.965Z</time></trkpt><trkpt lat="43.329565" lon="11.72648"><ele>313.79999999999995</ele><time>2026-04-07T15:55:13.963Z</time></trkpt><trkpt lat="43.3295333" lon="11.7266017"><ele>311.20000000000005</ele><time>2026-04-07T15:55:14.965Z</time></trkpt><trkpt lat="43.3295017" lon="11.7267267"><ele>308.6</ele><time>2026-04-07T15:55:15.964Z</time></trkpt><trkpt lat="43.3294733" lon="11.726855"><ele>306.0</ele><time>2026-04-07T15:55:16.963Z</time></trkpt><trkpt lat="43.3294483" lon="11.7269833"><ele>306.0</ele><time>2026-04-07T15:55:17.967Z</time></trkpt><trkpt lat="43.3294267" lon="11.72712"><ele>306.0</ele><time>2026-04-07T15:55:18.967Z</time></trkpt><trkpt lat="43.3294083" lon="11.7272483"><ele>306.0</ele><time>2026-04-07T15:55:19.965Z</time></trkpt><trkpt lat="43.329395" lon="11.72737"><ele>306.0</ele><time>2026-04-07T15:55:20.968Z</time></trkpt><trkpt lat="43.32939" lon="11.7274767"><ele>306.0</ele><time>2026-04-07T15:55:21.965Z</time></trkpt><trkpt lat="43.3293967" lon="11.7275667"><ele>306.0</ele><time>2026-04-07T15:55:22.964Z</time></trkpt><trkpt lat="43.3294367" lon="11.72771"><ele>305.5</ele><time>2026-04-07T15:55:24.965Z</time></trkpt><trkpt lat="43.329515" lon="11.72781"><ele>305.0</ele><time>2026-04-07T15:55:26.968Z</time></trkpt><trkpt lat="43.3296133" lon="11.727895"><ele>304.5</ele><time>2026-04-07T15:55:28.965Z</time></trkpt><trkpt lat="43.3297117" lon="11.7279583"><ele>304.0</ele><time>2026-04-07T15:55:30.966Z</time></trkpt><trkpt lat="43.3298217" lon="11.7280267"><ele>304.0</ele><time>2026-04-07T15:55:32.967Z</time></trkpt><trkpt lat="43.3299367" lon="11.7280883"><ele>304.0</ele><time>2026-04-07T15:55:34.968Z</time></trkpt><trkpt lat="43.33" lon="11.7281183"><ele>304.0</ele><time>2026-04-07T15:55:35.964Z</time></trkpt><trkpt lat="43.330065" lon="11.7281483"><ele>304.0</ele><time>2026-04-07T15:55:36.965Z</time></trkpt><trkpt lat="43.3301333" lon="11.7281783"><ele>304.0</ele><time>2026-04-07T15:55:37.964Z</time></trkpt><trkpt lat="43.3302067" lon="11.7282067"><ele>304.0</ele><time>2026-04-07T15:55:38.973Z</time></trkpt><trkpt lat="43.3302817" lon="11.728235"><ele>304.0</ele><time>2026-04-07T15:55:39.964Z</time></trkpt><trkpt lat="43.3303533" lon="11.7282633"><ele>304.0</ele><time>2026-04-07T15:55:40.966Z</time></trkpt><trkpt lat="43.3304283" lon="11.728295"><ele>304.0</ele><time>2026-04-07T15:55:41.964Z</time></trkpt><trkpt lat="43.330505" lon="11.728325"><ele>304.0</ele><time>2026-04-07T15:55:42.964Z</time></trkpt><trkpt lat="43.3305833" lon="11.7283517"><ele>304.0</ele><time>2026-04-07T15:55:43.966Z</time></trkpt><trkpt lat="43.330665" lon="11.7283733"><ele>304.0</ele><time>2026-04-07T15:55:44.966Z</time></trkpt><trkpt lat="43.33075" lon="11.728385"><ele>303.59999999999997</ele><time>2026-04-07T15:55:45.962Z</time></trkpt><trkpt lat="43.3308283" lon="11.7283883"><ele>303.2</ele><time>2026-04-07T15:55:46.967Z</time></trkpt><trkpt lat="43.3308933" lon="11.7283833"><ele>302.79999999999995</ele><time>2026-04-07T15:55:47.966Z</time></trkpt><trkpt lat="43.3310183" lon="11.7283667"><ele>302.4</ele><time>2026-04-07T15:55:49.966Z</time></trkpt><trkpt lat="43.331085" lon="11.72835"><ele>302.0</ele><time>2026-04-07T15:55:50.965Z</time></trkpt><trkpt lat="43.3312083" lon="11.7283167"><ele>302.00000000000006</ele><time>2026-04-07T15:55:52.964Z</time></trkpt><trkpt lat="43.33127" lon="11.7282883"><ele>302.0</ele><time>2026-04-07T15:55:53.965Z</time></trkpt><trkpt lat="43.33133" lon="11.7282517"><ele>302.0</ele><time>2026-04-07T15:55:54.965Z</time></trkpt><trkpt lat="43.3313933" lon="11.7282083"><ele>302.0</ele><time>2026-04-07T15:55:55.963Z</time></trkpt><trkpt lat="43.33146" lon="11.7281567"><ele>302.0</ele><time>2026-04-07T15:55:56.967Z</time></trkpt><trkpt lat="43.331525" lon="11.7281083"><ele>302.00000000000006</ele><time>2026-04-07T15:55:57.966Z</time></trkpt><trkpt lat="43.3315833" lon="11.728055"><ele>302.0</ele><time>2026-04-07T15:55:58.966Z</time></trkpt><trkpt lat="43.33164" lon="11.7279983"><ele>302.1666666666667</ele><time>2026-04-07T15:55:59.964Z</time></trkpt><trkpt lat="43.3316933" lon="11.7279417"><ele>302.33333333333337</ele><time>2026-04-07T15:56:00.968Z</time></trkpt><trkpt lat="43.3317683" lon="11.7278367"><ele>302.5</ele><time>2026-04-07T15:56:02.965Z</time></trkpt><trkpt lat="43.33181" lon="11.7277433"><ele>302.6666666666667</ele><time>2026-04-07T15:56:04.969Z</time></trkpt><trkpt lat="43.3318767" lon="11.7277117"><ele>302.8333333333333</ele><time>2026-04-07T15:56:07.964Z</time></trkpt><trkpt lat="43.33189" lon="11.7278467"><ele>303.0</ele><time>2026-04-07T15:56:10.964Z</time></trkpt><trkpt lat="43.3318383" lon="11.7279983"><ele>300.2</ele><time>2026-04-07T15:56:12.968Z</time></trkpt><trkpt lat="43.33178" lon="11.7281383"><ele>297.4</ele><time>2026-04-07T15:56:14.965Z</time></trkpt><trkpt lat="43.3317167" lon="11.7282683"><ele>294.59999999999997</ele><time>2026-04-07T15:56:16.966Z</time></trkpt><trkpt lat="43.331645" lon="11.7284017"><ele>291.8</ele><time>2026-04-07T15:56:18.964Z</time></trkpt><trkpt lat="43.331605" lon="11.72847"><ele>289.0</ele><time>2026-04-07T15:56:19.964Z</time></trkpt><trkpt lat="43.3315617" lon="11.7285417"><ele>289.14285714285717</ele><time>2026-04-07T15:56:20.971Z</time></trkpt><trkpt lat="43.3315167" lon="11.7286183"><ele>289.2857142857143</ele><time>2026-04-07T15:56:21.969Z</time></trkpt><trkpt lat="43.3314717" lon="11.7286967"><ele>289.42857142857144</ele><time>2026-04-07T15:56:22.967Z</time></trkpt><trkpt lat="43.33143" lon="11.7287817"><ele>289.57142857142856</ele><time>2026-04-07T15:56:23.967Z</time></trkpt><trkpt lat="43.33139" lon="11.7288717"><ele>289.7142857142857</ele><time>2026-04-07T15:56:24.964Z</time></trkpt><trkpt lat="43.33135" lon="11.7289617"><ele>289.8571428571429</ele><time>2026-04-07T15:56:25.969Z</time></trkpt><trkpt lat="43.3313083" lon="11.72905"><ele>290.0</ele><time>2026-04-07T15:56:26.967Z</time></trkpt><trkpt lat="43.3312683" lon="11.729135"><ele>290.0</ele><time>2026-04-07T15:56:27.964Z</time></trkpt><trkpt lat="43.3312283" lon="11.729215"><ele>290.0</ele><time>2026-04-07T15:56:28.963Z</time></trkpt><trkpt lat="43.33119" lon="11.729295"><ele>290.0</ele><time>2026-04-07T15:56:29.968Z</time></trkpt><trkpt lat="43.33115" lon="11.729375"><ele>290.0</ele><time>2026-04-07T15:56:30.967Z</time></trkpt><trkpt lat="43.3311083" lon="11.7294533"><ele>290.0</ele><time>2026-04-07T15:56:31.966Z</time></trkpt><trkpt lat="43.3310617" lon="11.7295267"><ele>290.0</ele><time>2026-04-07T15:56:32.965Z</time></trkpt><trkpt lat="43.331005" lon="11.7295917"><ele>290.0</ele><time>2026-04-07T15:56:33.968Z</time></trkpt><trkpt lat="43.3309383" lon="11.729645"><ele>288.5</ele><time>2026-04-07T15:56:34.967Z</time></trkpt><trkpt lat="43.330865" lon="11.7296783"><ele>287.0</ele><time>2026-04-07T15:56:35.967Z</time></trkpt><trkpt lat="43.3307883" lon="11.7297033"><ele>285.5</ele><time>2026-04-07T15:56:36.97Z</time></trkpt><trkpt lat="43.3307117" lon="11.7297267"><ele>284.0</ele><time>2026-04-07T15:56:37.97Z</time></trkpt><trkpt lat="43.3306333" lon="11.72974"><ele>282.5</ele><time>2026-04-07T15:56:38.971Z</time></trkpt><trkpt lat="43.3305533" lon="11.7297533"><ele>281.0</ele><time>2026-04-07T15:56:39.964Z</time></trkpt><trkpt lat="43.3304733" lon="11.7297717"><ele>281.0</ele><time>2026-04-07T15:56:40.964Z</time></trkpt><trkpt lat="43.33039" lon="11.7298017"><ele>281.0</ele><time>2026-04-07T15:56:41.965Z</time></trkpt><trkpt lat="43.330315" lon="11.72985"><ele>281.0</ele><time>2026-04-07T15:56:42.969Z</time></trkpt><trkpt lat="43.33024" lon="11.7299117"><ele>281.0</ele><time>2026-04-07T15:56:43.968Z</time></trkpt><trkpt lat="43.3301717" lon="11.7299817"><ele>281.0</ele><time>2026-04-07T15:56:44.966Z</time></trkpt><trkpt lat="43.3301083" lon="11.73007"><ele>281.0</ele><time>2026-04-07T15:56:45.967Z</time></trkpt><trkpt lat="43.3300533" lon="11.730165"><ele>280.0</ele><time>2026-04-07T15:56:46.967Z</time></trkpt><trkpt lat="43.3300083" lon="11.7302667"><ele>279.0</ele><time>2026-04-07T15:56:47.969Z</time></trkpt><trkpt lat="43.3299717" lon="11.7303717"><ele>278.0</ele><time>2026-04-07T15:56:48.968Z</time></trkpt><trkpt lat="43.32994" lon="11.7304783"><ele>277.0</ele><time>2026-04-07T15:56:49.968Z</time></trkpt><trkpt lat="43.3299083" lon="11.7305883"><ele>276.0</ele><time>2026-04-07T15:56:50.968Z</time></trkpt><trkpt lat="43.329885" lon="11.7306867"><ele>275.0</ele><time>2026-04-07T15:56:51.964Z</time></trkpt><trkpt lat="43.32986" lon="11.7307767"><ele>275.0</ele><time>2026-04-07T15:56:52.969Z</time></trkpt><trkpt lat="43.3298367" lon="11.7308583"><ele>275.0</ele><time>2026-04-07T15:56:53.967Z</time></trkpt><trkpt lat="43.3297917" lon="11.7310117"><ele>275.0</ele><time>2026-04-07T15:56:55.971Z</time></trkpt><trkpt lat="43.3297617" lon="11.7311533"><ele>275.0</ele><time>2026-04-07T15:56:57.966Z</time></trkpt><trkpt lat="43.32978" lon="11.73129"><ele>275.0</ele><time>2026-04-07T15:56:59.966Z</time></trkpt><trkpt lat="43.3298567" lon="11.7313367"><ele>273.25</ele><time>2026-04-07T15:57:01.968Z</time></trkpt><trkpt lat="43.329955" lon="11.731305"><ele>271.5</ele><time>2026-04-07T15:57:03.967Z</time></trkpt><trkpt lat="43.3301183" lon="11.7312317"><ele>269.75</ele><time>2026-04-07T15:57:06.967Z</time></trkpt><trkpt lat="43.330235" lon="11.7311833"><ele>268.0</ele><time>2026-04-07T15:57:08.97Z</time></trkpt><trkpt lat="43.3303533" lon="11.7311517"><ele>268.0</ele><time>2026-04-07T15:57:10.964Z</time></trkpt><trkpt lat="43.3304717" lon="11.73113"><ele>268.0</ele><time>2026-04-07T15:57:12.966Z</time></trkpt><trkpt lat="43.3305817" lon="11.731135"><ele>268.0</ele><time>2026-04-07T15:57:14.966Z</time></trkpt><trkpt lat="43.330685" lon="11.7312"><ele>268.0</ele><time>2026-04-07T15:57:16.97Z</time></trkpt><trkpt lat="43.33076" lon="11.7313117"><ele>268.0</ele><time>2026-04-07T15:57:18.968Z</time></trkpt><trkpt lat="43.3307467" lon="11.73144"><ele>268.0</ele><time>2026-04-07T15:57:20.972Z</time></trkpt><trkpt lat="43.3306917" lon="11.7315333"><ele>268.0</ele><time>2026-04-07T15:57:22.965Z</time></trkpt><trkpt lat="43.3306217" lon="11.7316067"><ele>268.0</ele><time>2026-04-07T15:57:24.966Z</time></trkpt><trkpt lat="43.3305483" lon="11.7316883"><ele>268.0</ele><time>2026-04-07T15:57:26.968Z</time></trkpt><trkpt lat="43.3304767" lon="11.73178"><ele>268.0</ele><time>2026-04-07T15:57:28.967Z</time></trkpt><trkpt lat="43.330415" lon="11.73188"><ele>268.0</ele><time>2026-04-07T15:57:30.969Z</time></trkpt><trkpt lat="43.330355" lon="11.7319683"><ele>268.0</ele><time>2026-04-07T15:57:32.972Z</time></trkpt><trkpt lat="43.3303" lon="11.73206"><ele>268.0</ele><time>2026-04-07T15:57:34.966Z</time></trkpt><trkpt lat="43.3302517" lon="11.7321667"><ele>268.0</ele><time>2026-04-07T15:57:36.967Z</time></trkpt><trkpt lat="43.33021" lon="11.7322817"><ele>267.8</ele><time>2026-04-07T15:57:38.967Z</time></trkpt><trkpt lat="43.3301783" lon="11.73241"><ele>267.6</ele><time>2026-04-07T15:57:40.965Z</time></trkpt><trkpt lat="43.3301467" lon="11.7325417"><ele>267.4</ele><time>2026-04-07T15:57:42.966Z</time></trkpt><trkpt lat="43.33012" lon="11.732665"><ele>267.2</ele><time>2026-04-07T15:57:44.968Z</time></trkpt><trkpt lat="43.3301017" lon="11.7327883"><ele>267.0</ele><time>2026-04-07T15:57:46.968Z</time></trkpt><trkpt lat="43.33009" lon="11.7329067"><ele>266.5</ele><time>2026-04-07T15:57:48.969Z</time></trkpt><trkpt lat="43.3300867" lon="11.7330283"><ele>266.0</ele><time>2026-04-07T15:57:50.971Z</time></trkpt><trkpt lat="43.3300833" lon="11.7331417"><ele>265.5</ele><time>2026-04-07T15:57:52.967Z</time></trkpt><trkpt lat="43.3300783" lon="11.7332667"><ele>265.0</ele><time>2026-04-07T15:57:54.97Z</time></trkpt><trkpt lat="43.330075" lon="11.7333917"><ele>264.5</ele><time>2026-04-07T15:57:56.965Z</time></trkpt><trkpt lat="43.3300667" lon="11.7335217"><ele>264.0</ele><time>2026-04-07T15:57:58.968Z</time></trkpt><trkpt lat="43.3300517" lon="11.7336633"><ele>264.0</ele><time>2026-04-07T15:58:00.964Z</time></trkpt><trkpt lat="43.3300133" lon="11.7337983"><ele>264.0</ele><time>2026-04-07T15:58:02.966Z</time></trkpt><trkpt lat="43.3299667" lon="11.73394"><ele>264.0</ele><time>2026-04-07T15:58:04.968Z</time></trkpt><trkpt lat="43.329905" lon="11.7340733"><ele>264.0</ele><time>2026-04-07T15:58:06.967Z</time></trkpt><trkpt lat="43.3298233" lon="11.7341967"><ele>264.0</ele><time>2026-04-07T15:58:08.969Z</time></trkpt><trkpt lat="43.3297333" lon="11.73432"><ele>264.0</ele><time>2026-04-07T15:58:10.968Z</time></trkpt><trkpt lat="43.329685" lon="11.7343833"><ele>264.0</ele><time>2026-04-07T15:58:11.967Z</time></trkpt><trkpt lat="43.329635" lon="11.7344417"><ele>264.0</ele><time>2026-04-07T15:58:12.966Z</time></trkpt><trkpt lat="43.3295817" lon="11.7345017"><ele>264.0</ele><time>2026-04-07T15:58:13.97Z</time></trkpt><trkpt lat="43.3295283" lon="11.7345633"><ele>264.0</ele><time>2026-04-07T15:58:14.965Z</time></trkpt><trkpt lat="43.3294733" lon="11.73463"><ele>263.6666666666667</ele><time>2026-04-07T15:58:15.968Z</time></trkpt><trkpt lat="43.3294117" lon="11.7346933"><ele>263.3333333333333</ele><time>2026-04-07T15:58:16.97Z</time></trkpt><trkpt lat="43.3293517" lon="11.7347567"><ele>263.0</ele><time>2026-04-07T15:58:17.965Z</time></trkpt><trkpt lat="43.32929" lon="11.7348217"><ele>262.66666666666663</ele><time>2026-04-07T15:58:18.97Z</time></trkpt><trkpt lat="43.3292283" lon="11.7348833"><ele>262.3333333333333</ele><time>2026-04-07T15:58:19.969Z</time></trkpt><trkpt lat="43.329165" lon="11.734945"><ele>262.0</ele><time>2026-04-07T15:58:20.972Z</time></trkpt><trkpt lat="43.329105" lon="11.7350117"><ele>262.0</ele><time>2026-04-07T15:58:21.968Z</time></trkpt><trkpt lat="43.3290433" lon="11.73508"><ele>262.0</ele><time>2026-04-07T15:58:22.967Z</time></trkpt><trkpt lat="43.3289833" lon="11.7351517"><ele>262.0</ele><time>2026-04-07T15:58:23.967Z</time></trkpt><trkpt lat="43.32892" lon="11.7352267"><ele>262.0</ele><time>2026-04-07T15:58:24.968Z</time></trkpt><trkpt lat="43.3288633" lon="11.7353133"><ele>262.0</ele><time>2026-04-07T15:58:25.969Z</time></trkpt><trkpt lat="43.32881" lon="11.7353967"><ele>262.0</ele><time>2026-04-07T15:58:26.966Z</time></trkpt><trkpt lat="43.32876" lon="11.7354867"><ele>262.16666666666663</ele><time>2026-04-07T15:58:27.965Z</time></trkpt><trkpt lat="43.3287133" lon="11.7355833"><ele>262.3333333333333</ele><time>2026-04-07T15:58:28.968Z</time></trkpt><trkpt lat="43.3286683" lon="11.735685"><ele>262.5</ele><time>2026-04-07T15:58:29.968Z</time></trkpt><trkpt lat="43.3286233" lon="11.7357867"><ele>262.6666666666667</ele><time>2026-04-07T15:58:30.965Z</time></trkpt><trkpt lat="43.32858" lon="11.7358883"><ele>262.83333333333337</ele><time>2026-04-07T15:58:31.966Z</time></trkpt><trkpt lat="43.3285367" lon="11.7359917"><ele>263.0</ele><time>2026-04-07T15:58:32.965Z</time></trkpt><trkpt lat="43.328495" lon="11.7360917"><ele>263.33333333333337</ele><time>2026-04-07T15:58:33.967Z</time></trkpt><trkpt lat="43.328455" lon="11.7361933"><ele>263.6666666666667</ele><time>2026-04-07T15:58:34.965Z</time></trkpt><trkpt lat="43.3284167" lon="11.736295"><ele>264.0</ele><time>2026-04-07T15:58:35.969Z</time></trkpt><trkpt lat="43.3283783" lon="11.7363983"><ele>264.3333333333333</ele><time>2026-04-07T15:58:36.965Z</time></trkpt><trkpt lat="43.3283383" lon="11.7364983"><ele>264.66666666666663</ele><time>2026-04-07T15:58:37.965Z</time></trkpt><trkpt lat="43.3283" lon="11.7366"><ele>265.0</ele><time>2026-04-07T15:58:38.969Z</time></trkpt><trkpt lat="43.3282583" lon="11.7367017"><ele>265.0</ele><time>2026-04-07T15:58:39.966Z</time></trkpt><trkpt lat="43.3282183" lon="11.7368"><ele>265.0</ele><time>2026-04-07T15:58:40.966Z</time></trkpt><trkpt lat="43.3281767" lon="11.7368967"><ele>265.0</ele><time>2026-04-07T15:58:41.965Z</time></trkpt><trkpt lat="43.328135" lon="11.7369867"><ele>265.0</ele><time>2026-04-07T15:58:42.972Z</time></trkpt><trkpt lat="43.3280917" lon="11.73708"><ele>265.0</ele><time>2026-04-07T15:58:43.967Z</time></trkpt><trkpt lat="43.32805" lon="11.7371767"><ele>265.0</ele><time>2026-04-07T15:58:44.965Z</time></trkpt><trkpt lat="43.3280083" lon="11.7372783"><ele>264.8333333333333</ele><time>2026-04-07T15:58:45.967Z</time></trkpt><trkpt lat="43.3279683" lon="11.737385"><ele>264.66666666666663</ele><time>2026-04-07T15:58:46.972Z</time></trkpt><trkpt lat="43.32793" lon="11.73749"><ele>264.5</ele><time>2026-04-07T15:58:47.965Z</time></trkpt><trkpt lat="43.3278917" lon="11.7375967"><ele>264.3333333333333</ele><time>2026-04-07T15:58:48.967Z</time></trkpt><trkpt lat="43.327855" lon="11.7377017"><ele>264.1666666666667</ele><time>2026-04-07T15:58:49.965Z</time></trkpt><trkpt lat="43.3278217" lon="11.7378033"><ele>264.0</ele><time>2026-04-07T15:58:50.965Z</time></trkpt><trkpt lat="43.3277883" lon="11.7379033"><ele>263.8333333333333</ele><time>2026-04-07T15:58:51.969Z</time></trkpt><trkpt lat="43.3277583" lon="11.73801"><ele>263.6666666666667</ele><time>2026-04-07T15:58:52.965Z</time></trkpt><trkpt lat="43.3277317" lon="11.7381167"><ele>263.5</ele><time>2026-04-07T15:58:53.965Z</time></trkpt><trkpt lat="43.327705" lon="11.7382283"><ele>263.33333333333337</ele><time>2026-04-07T15:58:54.968Z</time></trkpt><trkpt lat="43.3276783" lon="11.73834"><ele>263.1666666666667</ele><time>2026-04-07T15:58:55.973Z</time></trkpt><trkpt lat="43.32765" lon="11.7384433"><ele>263.0</ele><time>2026-04-07T15:58:56.969Z</time></trkpt><trkpt lat="43.3276217" lon="11.73855"><ele>263.0</ele><time>2026-04-07T15:58:57.964Z</time></trkpt><trkpt lat="43.3275933" lon="11.73866"><ele>263.0</ele><time>2026-04-07T15:58:58.966Z</time></trkpt><trkpt lat="43.327565" lon="11.7387483"><ele>263.0</ele><time>2026-04-07T15:58:59.965Z</time></trkpt><trkpt lat="43.3275383" lon="11.7388483"><ele>263.0</ele><time>2026-04-07T15:59:00.968Z</time></trkpt><trkpt lat="43.3275117" lon="11.7389517"><ele>263.0</ele><time>2026-04-07T15:59:01.968Z</time></trkpt><trkpt lat="43.32749" lon="11.7390583"><ele>263.0</ele><time>2026-04-07T15:59:02.967Z</time></trkpt><trkpt lat="43.3274683" lon="11.739165"><ele>263.0</ele><time>2026-04-07T15:59:03.969Z</time></trkpt><trkpt lat="43.3274517" lon="11.7392683"><ele>263.0</ele><time>2026-04-07T15:59:04.965Z</time></trkpt><trkpt lat="43.3274433" lon="11.7393717"><ele>263.0</ele><time>2026-04-07T15:59:05.968Z</time></trkpt><trkpt lat="43.3274383" lon="11.739475"><ele>263.0</ele><time>2026-04-07T15:59:06.965Z</time></trkpt><trkpt lat="43.3274383" lon="11.7395767"><ele>263.0</ele><time>2026-04-07T15:59:07.965Z</time></trkpt><trkpt lat="43.327445" lon="11.7396717"><ele>263.0</ele><time>2026-04-07T15:59:08.97Z</time></trkpt><trkpt lat="43.3274467" lon="11.7397617"><ele>263.0</ele><time>2026-04-07T15:59:09.966Z</time></trkpt><trkpt lat="43.3273883" lon="11.73988"><ele>263.0</ele><time>2026-04-07T15:59:11.969Z</time></trkpt><trkpt lat="43.3273317" lon="11.7399183"><ele>263.0</ele><time>2026-04-07T15:59:12.964Z</time></trkpt><trkpt lat="43.32727" lon="11.739955"><ele>263.0</ele><time>2026-04-07T15:59:13.968Z</time></trkpt><trkpt lat="43.3272083" lon="11.739995"><ele>263.0</ele><time>2026-04-07T15:59:14.97Z</time></trkpt><trkpt lat="43.3271467" lon="11.7400417"><ele>263.0</ele><time>2026-04-07T15:59:15.97Z</time></trkpt><trkpt lat="43.3270833" lon="11.7400783"><ele>263.0</ele><time>2026-04-07T15:59:16.966Z</time></trkpt><trkpt lat="43.32702" lon="11.74012"><ele>263.0</ele><time>2026-04-07T15:59:17.966Z</time></trkpt><trkpt lat="43.3269583" lon="11.74016"><ele>263.0</ele><time>2026-04-07T15:59:18.968Z</time></trkpt><trkpt lat="43.3268983" lon="11.7402033"><ele>263.0</ele><time>2026-04-07T15:59:19.965Z</time></trkpt><trkpt lat="43.3268383" lon="11.7402467"><ele>263.0</ele><time>2026-04-07T15:59:20.966Z</time></trkpt><trkpt lat="43.3267783" lon="11.7402933"><ele>263.0</ele><time>2026-04-07T15:59:21.966Z</time></trkpt><trkpt lat="43.32672" lon="11.7403383"><ele>263.0</ele><time>2026-04-07T15:59:22.966Z</time></trkpt><trkpt lat="43.32666" lon="11.7403817"><ele>263.0</ele><time>2026-04-07T15:59:23.968Z</time></trkpt><trkpt lat="43.3266" lon="11.7404217"><ele>263.0</ele><time>2026-04-07T15:59:24.967Z</time></trkpt><trkpt lat="43.3265383" lon="11.7404667"><ele>263.0</ele><time>2026-04-07T15:59:25.967Z</time></trkpt><trkpt lat="43.3264783" lon="11.7405083"><ele>263.0</ele><time>2026-04-07T15:59:26.968Z</time></trkpt><trkpt lat="43.32642" lon="11.74055"><ele>263.0</ele><time>2026-04-07T15:59:27.968Z</time></trkpt><trkpt lat="43.3263583" lon="11.7405933"><ele>263.0</ele><time>2026-04-07T15:59:28.965Z</time></trkpt><trkpt lat="43.3262983" lon="11.7406317"><ele>263.0</ele><time>2026-04-07T15:59:29.965Z</time></trkpt><trkpt lat="43.32624" lon="11.74067"><ele>263.0</ele><time>2026-04-07T15:59:30.966Z</time></trkpt><trkpt lat="43.32618" lon="11.74071"><ele>263.0</ele><time>2026-04-07T15:59:31.968Z</time></trkpt><trkpt lat="43.326065" lon="11.740785"><ele>262.6666666666667</ele><time>2026-04-07T15:59:33.968Z</time></trkpt><trkpt lat="43.3260067" lon="11.740825"><ele>262.33333333333337</ele><time>2026-04-07T15:59:34.972Z</time></trkpt><trkpt lat="43.3259467" lon="11.7408583"><ele>262.0</ele><time>2026-04-07T15:59:35.965Z</time></trkpt><trkpt lat="43.3258883" lon="11.7408967"><ele>261.6666666666667</ele><time>2026-04-07T15:59:36.971Z</time></trkpt><trkpt lat="43.3257783" lon="11.740975"><ele>261.3333333333333</ele><time>2026-04-07T15:59:38.962Z</time></trkpt><trkpt lat="43.3256783" lon="11.7410633"><ele>261.0</ele><time>2026-04-07T15:59:40.963Z</time></trkpt><trkpt lat="43.32557" lon="11.7411367"><ele>261.0</ele><time>2026-04-07T15:59:42.966Z</time></trkpt><trkpt lat="43.325465" lon="11.7412117"><ele>261.0</ele><time>2026-04-07T15:59:44.969Z</time></trkpt><trkpt lat="43.32536" lon="11.741285"><ele>261.0</ele><time>2026-04-07T15:59:46.969Z</time></trkpt><trkpt lat="43.3252533" lon="11.7413633"><ele>261.0</ele><time>2026-04-07T15:59:48.97Z</time></trkpt><trkpt lat="43.3251417" lon="11.7414317"><ele>261.0</ele><time>2026-04-07T15:59:50.966Z</time></trkpt><trkpt lat="43.3250333" lon="11.7415083"><ele>261.0</ele><time>2026-04-07T15:59:52.972Z</time></trkpt><trkpt lat="43.3249767" lon="11.7415467"><ele>261.0</ele><time>2026-04-07T15:59:53.966Z</time></trkpt><trkpt lat="43.3248683" lon="11.7416217"><ele>261.0</ele><time>2026-04-07T15:59:55.965Z</time></trkpt><trkpt lat="43.3248117" lon="11.74166"><ele>261.0</ele><time>2026-04-07T15:59:56.969Z</time></trkpt><trkpt lat="43.3247017" lon="11.7417433"><ele>260.8333333333333</ele><time>2026-04-07T15:59:58.965Z</time></trkpt><trkpt lat="43.32459" lon="11.7418217"><ele>260.6666666666667</ele><time>2026-04-07T16:00:00.964Z</time></trkpt><trkpt lat="43.3244783" lon="11.7419067"><ele>260.5</ele><time>2026-04-07T16:00:02.969Z</time></trkpt><trkpt lat="43.3244217" lon="11.7419483"><ele>260.33333333333337</ele><time>2026-04-07T16:00:03.966Z</time></trkpt><trkpt lat="43.3243633" lon="11.7419917"><ele>260.1666666666667</ele><time>2026-04-07T16:00:04.966Z</time></trkpt><trkpt lat="43.3243067" lon="11.7420367"><ele>260.0</ele><time>2026-04-07T16:00:05.969Z</time></trkpt><trkpt lat="43.3242483" lon="11.7420833"><ele>260.0</ele><time>2026-04-07T16:00:06.968Z</time></trkpt><trkpt lat="43.3241917" lon="11.74213"><ele>260.0</ele><time>2026-04-07T16:00:07.968Z</time></trkpt><trkpt lat="43.324085" lon="11.7422167"><ele>260.0</ele><time>2026-04-07T16:00:09.971Z</time></trkpt><trkpt lat="43.3239767" lon="11.742305"><ele>260.0</ele><time>2026-04-07T16:00:11.966Z</time></trkpt><trkpt lat="43.3239217" lon="11.7423483"><ele>260.0</ele><time>2026-04-07T16:00:12.963Z</time></trkpt><trkpt lat="43.323865" lon="11.74239"><ele>260.0</ele><time>2026-04-07T16:00:13.964Z</time></trkpt><trkpt lat="43.32381" lon="11.742435"><ele>260.0</ele><time>2026-04-07T16:00:14.969Z</time></trkpt><trkpt lat="43.323755" lon="11.7424817"><ele>260.0</ele><time>2026-04-07T16:00:15.967Z</time></trkpt><trkpt lat="43.3236483" lon="11.7425683"><ele>260.0</ele><time>2026-04-07T16:00:17.966Z</time></trkpt><trkpt lat="43.3235467" lon="11.7426567"><ele>260.0</ele><time>2026-04-07T16:00:19.966Z</time></trkpt><trkpt lat="43.3234367" lon="11.7427467"><ele>260.0</ele><time>2026-04-07T16:00:21.967Z</time></trkpt><trkpt lat="43.3233817" lon="11.742795"><ele>260.0</ele><time>2026-04-07T16:00:22.967Z</time></trkpt><trkpt lat="43.3233233" lon="11.7428433"><ele>260.0</ele><time>2026-04-07T16:00:23.968Z</time></trkpt><trkpt lat="43.323265" lon="11.7428917"><ele>260.0</ele><time>2026-04-07T16:00:24.966Z</time></trkpt><trkpt lat="43.3232067" lon="11.74294"><ele>260.0</ele><time>2026-04-07T16:00:25.967Z</time></trkpt><trkpt lat="43.3231517" lon="11.7429867"><ele>260.0</ele><time>2026-04-07T16:00:26.966Z</time></trkpt><trkpt lat="43.3230967" lon="11.74303"><ele>260.0</ele><time>2026-04-07T16:00:27.967Z</time></trkpt><trkpt lat="43.32299" lon="11.74311"><ele>260.0</ele><time>2026-04-07T16:00:29.966Z</time></trkpt><trkpt lat="43.32289" lon="11.7431917"><ele>260.0</ele><time>2026-04-07T16:00:31.966Z</time></trkpt><trkpt lat="43.3227867" lon="11.7432667"><ele>260.0</ele><time>2026-04-07T16:00:33.965Z</time></trkpt><trkpt lat="43.3226833" lon="11.7433383"><ele>260.0</ele><time>2026-04-07T16:00:35.969Z</time></trkpt><trkpt lat="43.32258" lon="11.743405"><ele>260.0</ele><time>2026-04-07T16:00:37.968Z</time></trkpt><trkpt lat="43.3224733" lon="11.74347"><ele>260.0</ele><time>2026-04-07T16:00:39.966Z</time></trkpt><trkpt lat="43.3223667" lon="11.7435383"><ele>260.0</ele><time>2026-04-07T16:00:41.963Z</time></trkpt><trkpt lat="43.3222633" lon="11.743605"><ele>260.0</ele><time>2026-04-07T16:00:43.968Z</time></trkpt><trkpt lat="43.3221583" lon="11.7436683"><ele>260.5</ele><time>2026-04-07T16:00:45.97Z</time></trkpt><trkpt lat="43.3220533" lon="11.7437417"><ele>261.0</ele><time>2026-04-07T16:00:47.966Z</time></trkpt><trkpt lat="43.321945" lon="11.7438083"><ele>261.5</ele><time>2026-04-07T16:00:49.968Z</time></trkpt><trkpt lat="43.32183" lon="11.7438783"><ele>262.0</ele><time>2026-04-07T16:00:51.967Z</time></trkpt><trkpt lat="43.321715" lon="11.7439383"><ele>262.0</ele><time>2026-04-07T16:00:53.97Z</time></trkpt><trkpt lat="43.3216033" lon="11.7440017"><ele>262.0</ele><time>2026-04-07T16:00:55.966Z</time></trkpt><trkpt lat="43.3214917" lon="11.7440683"><ele>262.0</ele><time>2026-04-07T16:00:57.967Z</time></trkpt><trkpt lat="43.32138" lon="11.74414"><ele>262.0</ele><time>2026-04-07T16:00:59.967Z</time></trkpt><trkpt lat="43.3213217" lon="11.7441733"><ele>262.0</ele><time>2026-04-07T16:01:00.966Z</time></trkpt><trkpt lat="43.321265" lon="11.7442117"><ele>262.0</ele><time>2026-04-07T16:01:01.965Z</time></trkpt><trkpt lat="43.321155" lon="11.74429"><ele>262.0</ele><time>2026-04-07T16:01:03.967Z</time></trkpt><trkpt lat="43.3210517" lon="11.7443633"><ele>262.0</ele><time>2026-04-07T16:01:05.966Z</time></trkpt><trkpt lat="43.32095" lon="11.7444383"><ele>262.0</ele><time>2026-04-07T16:01:07.967Z</time></trkpt><trkpt lat="43.320845" lon="11.744515"><ele>262.0</ele><time>2026-04-07T16:01:09.965Z</time></trkpt><trkpt lat="43.3207433" lon="11.7445917"><ele>262.0</ele><time>2026-04-07T16:01:11.969Z</time></trkpt><trkpt lat="43.3206383" lon="11.7446733"><ele>262.0</ele><time>2026-04-07T16:01:13.965Z</time></trkpt><trkpt lat="43.3205333" lon="11.7447567"><ele>262.0</ele><time>2026-04-07T16:01:15.97Z</time></trkpt><trkpt lat="43.3204283" lon="11.744855"><ele>261.6</ele><time>2026-04-07T16:01:17.966Z</time></trkpt><trkpt lat="43.3203217" lon="11.7449517"><ele>261.2</ele><time>2026-04-07T16:01:19.973Z</time></trkpt><trkpt lat="43.320265" lon="11.7449917"><ele>260.8</ele><time>2026-04-07T16:01:20.97Z</time></trkpt><trkpt lat="43.32016" lon="11.7450717"><ele>260.4</ele><time>2026-04-07T16:01:22.966Z</time></trkpt><trkpt lat="43.3201033" lon="11.7451167"><ele>260.0</ele><time>2026-04-07T16:01:23.966Z</time></trkpt><trkpt lat="43.31999" lon="11.74519"><ele>260.0</ele><time>2026-04-07T16:01:25.968Z</time></trkpt><trkpt lat="43.3199333" lon="11.7452283"><ele>260.0</ele><time>2026-04-07T16:01:26.964Z</time></trkpt><trkpt lat="43.31982" lon="11.7453067"><ele>260.0</ele><time>2026-04-07T16:01:28.964Z</time></trkpt><trkpt lat="43.3197633" lon="11.745345"><ele>260.0</ele><time>2026-04-07T16:01:29.966Z</time></trkpt><trkpt lat="43.319655" lon="11.7454167"><ele>260.0</ele><time>2026-04-07T16:01:31.971Z</time></trkpt><trkpt lat="43.3195433" lon="11.745475"><ele>260.0</ele><time>2026-04-07T16:01:33.967Z</time></trkpt><trkpt lat="43.3194317" lon="11.7455383"><ele>260.0</ele><time>2026-04-07T16:01:35.969Z</time></trkpt><trkpt lat="43.3193217" lon="11.7456117"><ele>260.0</ele><time>2026-04-07T16:01:37.965Z</time></trkpt><trkpt lat="43.3192083" lon="11.7456883"><ele>260.0</ele><time>2026-04-07T16:01:39.968Z</time></trkpt><trkpt lat="43.3191" lon="11.7457633"><ele>260.0</ele><time>2026-04-07T16:01:41.966Z</time></trkpt><trkpt lat="43.3189933" lon="11.74583"><ele>260.0</ele><time>2026-04-07T16:01:43.965Z</time></trkpt><trkpt lat="43.31889" lon="11.7459017"><ele>260.0</ele><time>2026-04-07T16:01:45.968Z</time></trkpt><trkpt lat="43.31879" lon="11.7459717"><ele>260.0</ele><time>2026-04-07T16:01:47.967Z</time></trkpt><trkpt lat="43.3186917" lon="11.74604"><ele>259.75</ele><time>2026-04-07T16:01:49.971Z</time></trkpt><trkpt lat="43.3185883" lon="11.74611"><ele>259.5</ele><time>2026-04-07T16:01:51.968Z</time></trkpt><trkpt lat="43.3184817" lon="11.746185"><ele>259.25</ele><time>2026-04-07T16:01:53.967Z</time></trkpt><trkpt lat="43.3183767" lon="11.7462533"><ele>259.0</ele><time>2026-04-07T16:01:55.967Z</time></trkpt><trkpt lat="43.3182717" lon="11.7463333"><ele>259.0</ele><time>2026-04-07T16:01:57.964Z</time></trkpt><trkpt lat="43.3181633" lon="11.7464"><ele>259.0</ele><time>2026-04-07T16:01:59.964Z</time></trkpt><trkpt lat="43.318055" lon="11.7464733"><ele>259.0</ele><time>2026-04-07T16:02:01.964Z</time></trkpt><trkpt lat="43.3179483" lon="11.7465467"><ele>259.0</ele><time>2026-04-07T16:02:03.968Z</time></trkpt><trkpt lat="43.3178417" lon="11.7466233"><ele>259.0</ele><time>2026-04-07T16:02:05.967Z</time></trkpt><trkpt lat="43.3177367" lon="11.74669"><ele>259.0</ele><time>2026-04-07T16:02:07.968Z</time></trkpt><trkpt lat="43.3176317" lon="11.7467533"><ele>259.0</ele><time>2026-04-07T16:02:09.968Z</time></trkpt><trkpt lat="43.3175217" lon="11.7468233"><ele>259.0</ele><time>2026-04-07T16:02:11.97Z</time></trkpt><trkpt lat="43.31741" lon="11.746895"><ele>259.0</ele><time>2026-04-07T16:02:13.966Z</time></trkpt><trkpt lat="43.3173017" lon="11.7469733"><ele>259.0</ele><time>2026-04-07T16:02:15.968Z</time></trkpt><trkpt lat="43.3171967" lon="11.7470433"><ele>259.0</ele><time>2026-04-07T16:02:17.964Z</time></trkpt><trkpt lat="43.31709" lon="11.7471133"><ele>259.0</ele><time>2026-04-07T16:02:19.967Z</time></trkpt><trkpt lat="43.3169833" lon="11.7471883"><ele>259.25</ele><time>2026-04-07T16:02:21.966Z</time></trkpt><trkpt lat="43.3168783" lon="11.7472583"><ele>259.5</ele><time>2026-04-07T16:02:23.969Z</time></trkpt><trkpt lat="43.3167733" lon="11.747345"><ele>259.75</ele><time>2026-04-07T16:02:25.969Z</time></trkpt><trkpt lat="43.3166683" lon="11.74743"><ele>260.0</ele><time>2026-04-07T16:02:27.97Z</time></trkpt><trkpt lat="43.3165667" lon="11.7475083"><ele>260.0</ele><time>2026-04-07T16:02:29.968Z</time></trkpt><trkpt lat="43.3164633" lon="11.7475917"><ele>260.0</ele><time>2026-04-07T16:02:31.966Z</time></trkpt><trkpt lat="43.3163617" lon="11.7476833"><ele>260.0</ele><time>2026-04-07T16:02:33.965Z</time></trkpt><trkpt lat="43.3162583" lon="11.7477717"><ele>260.0</ele><time>2026-04-07T16:02:35.965Z</time></trkpt><trkpt lat="43.3161533" lon="11.7478567"><ele>259.75</ele><time>2026-04-07T16:02:37.968Z</time></trkpt><trkpt lat="43.3160517" lon="11.74794"><ele>259.5</ele><time>2026-04-07T16:02:39.965Z</time></trkpt><trkpt lat="43.31595" lon="11.74803"><ele>259.25</ele><time>2026-04-07T16:02:41.967Z</time></trkpt><trkpt lat="43.31585" lon="11.7481183"><ele>259.0</ele><time>2026-04-07T16:02:43.963Z</time></trkpt><trkpt lat="43.31575" lon="11.7481917"><ele>259.0</ele><time>2026-04-07T16:02:45.967Z</time></trkpt><trkpt lat="43.3156467" lon="11.74827"><ele>259.0</ele><time>2026-04-07T16:02:47.965Z</time></trkpt><trkpt lat="43.31554" lon="11.7483567"><ele>259.0</ele><time>2026-04-07T16:02:49.966Z</time></trkpt><trkpt lat="43.315485" lon="11.7484017"><ele>259.0</ele><time>2026-04-07T16:02:50.969Z</time></trkpt><trkpt lat="43.3154317" lon="11.7484483"><ele>259.0</ele><time>2026-04-07T16:02:51.966Z</time></trkpt><trkpt lat="43.3153783" lon="11.7484967"><ele>259.0</ele><time>2026-04-07T16:02:52.964Z</time></trkpt><trkpt lat="43.315325" lon="11.7485433"><ele>259.0</ele><time>2026-04-07T16:02:53.968Z</time></trkpt><trkpt lat="43.3152717" lon="11.74859"><ele>259.0</ele><time>2026-04-07T16:02:54.965Z</time></trkpt><trkpt lat="43.3152183" lon="11.7486383"><ele>259.0</ele><time>2026-04-07T16:02:55.967Z</time></trkpt><trkpt lat="43.315165" lon="11.7486867"><ele>259.0</ele><time>2026-04-07T16:02:56.966Z</time></trkpt><trkpt lat="43.3151117" lon="11.7487333"><ele>259.0</ele><time>2026-04-07T16:02:57.967Z</time></trkpt><trkpt lat="43.3150583" lon="11.7487833"><ele>259.0</ele><time>2026-04-07T16:02:58.966Z</time></trkpt><trkpt lat="43.3150067" lon="11.7488367"><ele>259.0</ele><time>2026-04-07T16:02:59.967Z</time></trkpt><trkpt lat="43.3148967" lon="11.748925"><ele>259.0</ele><time>2026-04-07T16:03:01.966Z</time></trkpt><trkpt lat="43.3148433" lon="11.7489717"><ele>259.0</ele><time>2026-04-07T16:03:02.969Z</time></trkpt><trkpt lat="43.31479" lon="11.7490217"><ele>259.0</ele><time>2026-04-07T16:03:03.967Z</time></trkpt><trkpt lat="43.3146867" lon="11.7491167"><ele>259.0</ele><time>2026-04-07T16:03:05.966Z</time></trkpt><trkpt lat="43.3145883" lon="11.749205"><ele>259.0</ele><time>2026-04-07T16:03:07.968Z</time></trkpt><trkpt lat="43.3144883" lon="11.7492967"><ele>259.25</ele><time>2026-04-07T16:03:09.965Z</time></trkpt><trkpt lat="43.3143867" lon="11.7493783"><ele>259.5</ele><time>2026-04-07T16:03:11.966Z</time></trkpt><trkpt lat="43.3142883" lon="11.749465"><ele>259.75</ele><time>2026-04-07T16:03:13.964Z</time></trkpt><trkpt lat="43.3141917" lon="11.7495483"><ele>260.0</ele><time>2026-04-07T16:03:15.969Z</time></trkpt><trkpt lat="43.3140933" lon="11.7496267"><ele>260.0</ele><time>2026-04-07T16:03:17.969Z</time></trkpt><trkpt lat="43.31399" lon="11.7497183"><ele>260.0</ele><time>2026-04-07T16:03:19.967Z</time></trkpt><trkpt lat="43.3139367" lon="11.749765"><ele>260.0</ele><time>2026-04-07T16:03:20.97Z</time></trkpt><trkpt lat="43.3138317" lon="11.74985"><ele>260.0</ele><time>2026-04-07T16:03:22.966Z</time></trkpt><trkpt lat="43.3137283" lon="11.749935"><ele>260.0</ele><time>2026-04-07T16:03:24.969Z</time></trkpt><trkpt lat="43.3136217" lon="11.7500167"><ele>259.75</ele><time>2026-04-07T16:03:26.964Z</time></trkpt><trkpt lat="43.3135167" lon="11.750105"><ele>259.5</ele><time>2026-04-07T16:03:28.969Z</time></trkpt><trkpt lat="43.3134133" lon="11.750185"><ele>259.25</ele><time>2026-04-07T16:03:30.964Z</time></trkpt><trkpt lat="43.31331" lon="11.7502633"><ele>259.0</ele><time>2026-04-07T16:03:32.967Z</time></trkpt><trkpt lat="43.313205" lon="11.7503567"><ele>259.5</ele><time>2026-04-07T16:03:34.964Z</time></trkpt><trkpt lat="43.3131033" lon="11.7504433"><ele>260.0</ele><time>2026-04-07T16:03:36.97Z</time></trkpt><trkpt lat="43.313" lon="11.7505283"><ele>260.5</ele><time>2026-04-07T16:03:38.967Z</time></trkpt><trkpt lat="43.3129" lon="11.75061"><ele>261.0</ele><time>2026-04-07T16:03:40.964Z</time></trkpt><trkpt lat="43.3128017" lon="11.7506917"><ele>261.0</ele><time>2026-04-07T16:03:42.965Z</time></trkpt><trkpt lat="43.3127067" lon="11.75077"><ele>261.0</ele><time>2026-04-07T16:03:44.968Z</time></trkpt><trkpt lat="43.3126067" lon="11.750855"><ele>261.0</ele><time>2026-04-07T16:03:46.969Z</time></trkpt><trkpt lat="43.3125133" lon="11.7509433"><ele>261.0</ele><time>2026-04-07T16:03:48.965Z</time></trkpt><trkpt lat="43.3124217" lon="11.7510317"><ele>260.8</ele><time>2026-04-07T16:03:50.965Z</time></trkpt><trkpt lat="43.312335" lon="11.751125"><ele>260.6</ele><time>2026-04-07T16:03:52.965Z</time></trkpt><trkpt lat="43.3122783" lon="11.751235"><ele>260.4</ele><time>2026-04-07T16:03:54.966Z</time></trkpt><trkpt lat="43.3122767" lon="11.7513217"><ele>260.2</ele><time>2026-04-07T16:03:55.967Z</time></trkpt><trkpt lat="43.3123067" lon="11.75147"><ele>260.0</ele><time>2026-04-07T16:03:57.965Z</time></trkpt><trkpt lat="43.31235" lon="11.75161"><ele>260.0</ele><time>2026-04-07T16:03:59.968Z</time></trkpt><trkpt lat="43.3124" lon="11.751745"><ele>260.0</ele><time>2026-04-07T16:04:01.967Z</time></trkpt><trkpt lat="43.3124467" lon="11.751865"><ele>260.0</ele><time>2026-04-07T16:04:03.97Z</time></trkpt><trkpt lat="43.3124933" lon="11.7519933"><ele>260.0</ele><time>2026-04-07T16:04:05.967Z</time></trkpt><trkpt lat="43.3125417" lon="11.752125"><ele>260.0</ele><time>2026-04-07T16:04:07.966Z</time></trkpt><trkpt lat="43.3125933" lon="11.75226"><ele>259.8</ele><time>2026-04-07T16:04:09.967Z</time></trkpt><trkpt lat="43.3126483" lon="11.7523967"><ele>259.6</ele><time>2026-04-07T16:04:11.969Z</time></trkpt><trkpt lat="43.3126983" lon="11.752525"><ele>259.4</ele><time>2026-04-07T16:04:13.969Z</time></trkpt><trkpt lat="43.3127433" lon="11.7526533"><ele>259.2</ele><time>2026-04-07T16:04:15.966Z</time></trkpt><trkpt lat="43.312785" lon="11.752785"><ele>259.0</ele><time>2026-04-07T16:04:17.965Z</time></trkpt><trkpt lat="43.3128283" lon="11.7529167"><ele>259.0</ele><time>2026-04-07T16:04:19.966Z</time></trkpt><trkpt lat="43.3128717" lon="11.7530483"><ele>259.0</ele><time>2026-04-07T16:04:21.968Z</time></trkpt><trkpt lat="43.3129167" lon="11.7531917"><ele>259.0</ele><time>2026-04-07T16:04:23.968Z</time></trkpt><trkpt lat="43.3129617" lon="11.75333"><ele>259.0</ele><time>2026-04-07T16:04:25.968Z</time></trkpt><trkpt lat="43.3130083" lon="11.75347"><ele>259.0</ele><time>2026-04-07T16:04:27.964Z</time></trkpt><trkpt lat="43.313055" lon="11.7536"><ele>258.8</ele><time>2026-04-07T16:04:29.97Z</time></trkpt><trkpt lat="43.3130983" lon="11.75372"><ele>258.59999999999997</ele><time>2026-04-07T16:04:31.966Z</time></trkpt><trkpt lat="43.3131367" lon="11.753845"><ele>258.4</ele><time>2026-04-07T16:04:33.965Z</time></trkpt><trkpt lat="43.3131683" lon="11.75396"><ele>258.2</ele><time>2026-04-07T16:04:35.968Z</time></trkpt><trkpt lat="43.3131967" lon="11.7540733"><ele>258.0</ele><time>2026-04-07T16:04:37.97Z</time></trkpt><trkpt lat="43.313225" lon="11.75419"><ele>258.0</ele><time>2026-04-07T16:04:39.966Z</time></trkpt><trkpt lat="43.313265" lon="11.75431"><ele>258.0</ele><time>2026-04-07T16:04:41.966Z</time></trkpt><trkpt lat="43.3133133" lon="11.7544233"><ele>258.0</ele><time>2026-04-07T16:04:43.968Z</time></trkpt><trkpt lat="43.3133733" lon="11.7545283"><ele>258.0</ele><time>2026-04-07T16:04:45.965Z</time></trkpt><trkpt lat="43.3134383" lon="11.7546217"><ele>258.0</ele><time>2026-04-07T16:04:47.97Z</time></trkpt><trkpt lat="43.3135017" lon="11.754715"><ele>258.3333333333333</ele><time>2026-04-07T16:04:49.966Z</time></trkpt><trkpt lat="43.3135617" lon="11.754805"><ele>258.6666666666667</ele><time>2026-04-07T16:04:51.968Z</time></trkpt><trkpt lat="43.3136133" lon="11.7548883"><ele>259.0</ele><time>2026-04-07T16:04:53.963Z</time></trkpt><trkpt lat="43.31367" lon="11.7549717"><ele>259.33333333333337</ele><time>2026-04-07T16:04:55.968Z</time></trkpt><trkpt lat="43.3137283" lon="11.7550583"><ele>259.6666666666667</ele><time>2026-04-07T16:04:57.967Z</time></trkpt><trkpt lat="43.3137767" lon="11.7551433"><ele>260.0</ele><time>2026-04-07T16:04:59.968Z</time></trkpt><trkpt lat="43.31382" lon="11.75523"><ele>260.14285714285717</ele><time>2026-04-07T16:05:01.968Z</time></trkpt><trkpt lat="43.3138633" lon="11.7553117"><ele>260.2857142857143</ele><time>2026-04-07T16:05:03.968Z</time></trkpt><trkpt lat="43.3139017" lon="11.7553933"><ele>260.42857142857144</ele><time>2026-04-07T16:05:05.966Z</time></trkpt><trkpt lat="43.3139317" lon="11.7554717"><ele>260.57142857142856</ele><time>2026-04-07T16:05:07.97Z</time></trkpt><trkpt lat="43.3139767" lon="11.7555683"><ele>260.7142857142857</ele><time>2026-04-07T16:05:10.968Z</time></trkpt><trkpt lat="43.314015" lon="11.755655"><ele>260.8571428571429</ele><time>2026-04-07T16:05:13.966Z</time></trkpt><trkpt lat="43.31405" lon="11.7557433"><ele>261.0</ele><time>2026-04-07T16:05:16.965Z</time></trkpt><trkpt lat="43.314085" lon="11.7558267"><ele>261.42857142857144</ele><time>2026-04-07T16:05:19.968Z</time></trkpt><trkpt lat="43.314125" lon="11.755905"><ele>261.85714285714283</ele><time>2026-04-07T16:05:22.965Z</time></trkpt><trkpt lat="43.31416" lon="11.7559783"><ele>262.2857142857143</ele><time>2026-04-07T16:05:25.967Z</time></trkpt><trkpt lat="43.3141917" lon="11.7560533"><ele>262.7142857142857</ele><time>2026-04-07T16:05:28.967Z</time></trkpt><trkpt lat="43.3142267" lon="11.7561283"><ele>263.14285714285717</ele><time>2026-04-07T16:05:31.969Z</time></trkpt><trkpt lat="43.3142633" lon="11.7562033"><ele>263.57142857142856</ele><time>2026-04-07T16:05:34.966Z</time></trkpt><trkpt lat="43.31429" lon="11.7562817"><ele>264.0</ele><time>2026-04-07T16:05:37.968Z</time></trkpt><trkpt lat="43.3143267" lon="11.7563883"><ele>264.57142857142856</ele><time>2026-04-07T16:05:41.966Z</time></trkpt><trkpt lat="43.31436" lon="11.7564683"><ele>265.14285714285717</ele><time>2026-04-07T16:05:44.966Z</time></trkpt><trkpt lat="43.31439" lon="11.7565467"><ele>265.7142857142857</ele><time>2026-04-07T16:05:47.969Z</time></trkpt><trkpt lat="43.314415" lon="11.7566267"><ele>266.2857142857143</ele><time>2026-04-07T16:05:50.97Z</time></trkpt><trkpt lat="43.31445" lon="11.75673"><ele>266.85714285714283</ele><time>2026-04-07T16:05:54.966Z</time></trkpt><trkpt lat="43.3144883" lon="11.756825"><ele>267.42857142857144</ele><time>2026-04-07T16:05:58.966Z</time></trkpt><trkpt lat="43.314525" lon="11.7569233"><ele>268.0</ele><time>2026-04-07T16:06:02.966Z</time></trkpt><trkpt lat="43.314555" lon="11.7570083"><ele>268.7142857142857</ele><time>2026-04-07T16:06:05.969Z</time></trkpt><trkpt lat="43.314575" lon="11.7570933"><ele>269.42857142857144</ele><time>2026-04-07T16:06:08.969Z</time></trkpt><trkpt lat="43.3146167" lon="11.7571933"><ele>270.1428571428571</ele><time>2026-04-07T16:06:12.967Z</time></trkpt><trkpt lat="43.3146567" lon="11.757265"><ele>270.8571428571429</ele><time>2026-04-07T16:06:15.967Z</time></trkpt><trkpt lat="43.3147117" lon="11.7573417"><ele>271.57142857142856</ele><time>2026-04-07T16:06:19.965Z</time></trkpt><trkpt lat="43.3147717" lon="11.75742"><ele>272.2857142857143</ele><time>2026-04-07T16:06:23.968Z</time></trkpt><trkpt lat="43.31483" lon="11.7574733"><ele>273.0</ele><time>2026-04-07T16:06:26.967Z</time></trkpt><trkpt lat="43.31489" lon="11.7575083"><ele>273.42857142857144</ele><time>2026-04-07T16:06:29.965Z</time></trkpt><trkpt lat="43.314965" lon="11.7575533"><ele>273.8571428571429</ele><time>2026-04-07T16:06:33.966Z</time></trkpt><trkpt lat="43.3150317" lon="11.7575917"><ele>274.2857142857143</ele><time>2026-04-07T16:06:36.966Z</time></trkpt><trkpt lat="43.3151" lon="11.7576117"><ele>274.7142857142857</ele><time>2026-04-07T16:06:39.968Z</time></trkpt><trkpt lat="43.3151667" lon="11.7576083"><ele>275.14285714285717</ele><time>2026-04-07T16:06:42.965Z</time></trkpt><trkpt lat="43.3152333" lon="11.757605"><ele>275.57142857142856</ele><time>2026-04-07T16:06:45.964Z</time></trkpt><trkpt lat="43.3153017" lon="11.7575967"><ele>276.0</ele><time>2026-04-07T16:06:48.972Z</time></trkpt><trkpt lat="43.3153717" lon="11.7575767"><ele>276.0</ele><time>2026-04-07T16:06:51.968Z</time></trkpt><trkpt lat="43.3154383" lon="11.7575667"><ele>276.0</ele><time>2026-04-07T16:06:54.967Z</time></trkpt><trkpt lat="43.315505" lon="11.7575517"><ele>276.0</ele><time>2026-04-07T16:06:57.966Z</time></trkpt><trkpt lat="43.3155817" lon="11.7575283"><ele>276.0</ele><time>2026-04-07T16:07:00.964Z</time></trkpt><trkpt lat="43.3156567" lon="11.757505"><ele>276.0</ele><time>2026-04-07T16:07:03.964Z</time></trkpt><trkpt lat="43.315735" lon="11.7574783"><ele>276.0</ele><time>2026-04-07T16:07:06.968Z</time></trkpt><trkpt lat="43.3158067" lon="11.7574633"><ele>276.0</ele><time>2026-04-07T16:07:09.969Z</time></trkpt><trkpt lat="43.3158917" lon="11.7574383"><ele>276.42857142857144</ele><time>2026-04-07T16:07:12.967Z</time></trkpt><trkpt lat="43.3159567" lon="11.75742"><ele>276.8571428571429</ele><time>2026-04-07T16:07:14.965Z</time></trkpt><trkpt lat="43.3160233" lon="11.7574"><ele>277.2857142857143</ele><time>2026-04-07T16:07:16.965Z</time></trkpt><trkpt lat="43.31611" lon="11.75738"><ele>277.7142857142857</ele><time>2026-04-07T16:07:19.966Z</time></trkpt><trkpt lat="43.3161767" lon="11.7573517"><ele>278.1428571428571</ele><time>2026-04-07T16:07:21.967Z</time></trkpt><trkpt lat="43.3162417" lon="11.7573317"><ele>278.57142857142856</ele><time>2026-04-07T16:07:23.965Z</time></trkpt><trkpt lat="43.3163167" lon="11.7573083"><ele>279.0</ele><time>2026-04-07T16:07:25.967Z</time></trkpt><trkpt lat="43.3163933" lon="11.7572883"><ele>278.8333333333333</ele><time>2026-04-07T16:07:27.964Z</time></trkpt><trkpt lat="43.3164717" lon="11.7572533"><ele>278.6666666666667</ele><time>2026-04-07T16:07:29.966Z</time></trkpt><trkpt lat="43.316545" lon="11.7572283"><ele>278.5</ele><time>2026-04-07T16:07:31.965Z</time></trkpt><trkpt lat="43.3166183" lon="11.7571983"><ele>278.33333333333337</ele><time>2026-04-07T16:07:33.968Z</time></trkpt><trkpt lat="43.3166867" lon="11.7571817"><ele>278.1666666666667</ele><time>2026-04-07T16:07:35.965Z</time></trkpt><trkpt lat="43.3167617" lon="11.75715"><ele>278.0</ele><time>2026-04-07T16:07:37.968Z</time></trkpt><trkpt lat="43.3168433" lon="11.7571117"><ele>278.0</ele><time>2026-04-07T16:07:39.967Z</time></trkpt><trkpt lat="43.3169233" lon="11.757055"><ele>278.0</ele><time>2026-04-07T16:07:41.965Z</time></trkpt><trkpt lat="43.3170083" lon="11.7569817"><ele>278.0</ele><time>2026-04-07T16:07:43.964Z</time></trkpt><trkpt lat="43.3170917" lon="11.756905"><ele>278.0</ele><time>2026-04-07T16:07:45.967Z</time></trkpt><trkpt lat="43.317175" lon="11.7568183"><ele>278.0</ele><time>2026-04-07T16:07:47.967Z</time></trkpt><trkpt lat="43.3172617" lon="11.7567533"><ele>277.8</ele><time>2026-04-07T16:07:49.966Z</time></trkpt><trkpt lat="43.3173583" lon="11.7567017"><ele>277.6</ele><time>2026-04-07T16:07:51.969Z</time></trkpt><trkpt lat="43.31745" lon="11.7566867"><ele>277.4</ele><time>2026-04-07T16:07:53.964Z</time></trkpt><trkpt lat="43.31755" lon="11.7566717"><ele>277.2</ele><time>2026-04-07T16:07:55.97Z</time></trkpt><trkpt lat="43.3176267" lon="11.75669"><ele>277.0</ele><time>2026-04-07T16:07:57.967Z</time></trkpt><trkpt lat="43.3177117" lon="11.7567483"><ele>277.0</ele><time>2026-04-07T16:08:00.97Z</time></trkpt><trkpt lat="43.3177717" lon="11.7567833"><ele>277.0</ele><time>2026-04-07T16:08:02.967Z</time></trkpt><trkpt lat="43.31785" lon="11.75683"><ele>277.0</ele><time>2026-04-07T16:08:05.965Z</time></trkpt><trkpt lat="43.3179317" lon="11.7568517"><ele>277.0</ele><time>2026-04-07T16:08:08.971Z</time></trkpt><trkpt lat="43.3180117" lon="11.7569"><ele>277.0</ele><time>2026-04-07T16:08:11.965Z</time></trkpt><trkpt lat="43.3180983" lon="11.7569383"><ele>277.0</ele><time>2026-04-07T16:08:14.968Z</time></trkpt><trkpt lat="43.3181917" lon="11.756965"><ele>277.8333333333333</ele><time>2026-04-07T16:08:17.969Z</time></trkpt><trkpt lat="43.3182633" lon="11.75697"><ele>278.66666666666663</ele><time>2026-04-07T16:08:19.968Z</time></trkpt><trkpt lat="43.318345" lon="11.757"><ele>279.5</ele><time>2026-04-07T16:08:22.967Z</time></trkpt><trkpt lat="43.31841" lon="11.7570217"><ele>280.3333333333333</ele><time>2026-04-07T16:08:24.968Z</time></trkpt><trkpt lat="43.3184983" lon="11.7570567"><ele>281.1666666666667</ele><time>2026-04-07T16:08:27.965Z</time></trkpt><trkpt lat="43.31856" lon="11.757075"><ele>282.0</ele><time>2026-04-07T16:08:29.971Z</time></trkpt><trkpt lat="43.31863" lon="11.7571033"><ele>282.0</ele><time>2026-04-07T16:08:31.968Z</time></trkpt><trkpt lat="43.3187" lon="11.7571367"><ele>282.0</ele><time>2026-04-07T16:08:33.966Z</time></trkpt><trkpt lat="43.318775" lon="11.7571767"><ele>282.0</ele><time>2026-04-07T16:08:35.968Z</time></trkpt><trkpt lat="43.318865" lon="11.757215"><ele>282.0</ele><time>2026-04-07T16:08:37.966Z</time></trkpt><trkpt lat="43.318955" lon="11.7572483"><ele>282.0</ele><time>2026-04-07T16:08:39.965Z</time></trkpt><trkpt lat="43.31905" lon="11.7572833"><ele>282.0</ele><time>2026-04-07T16:08:41.966Z</time></trkpt><trkpt lat="43.3191583" lon="11.757335"><ele>281.6</ele><time>2026-04-07T16:08:43.967Z</time></trkpt><trkpt lat="43.31927" lon="11.7574"><ele>281.2</ele><time>2026-04-07T16:08:45.965Z</time></trkpt><trkpt lat="43.3193383" lon="11.7574167"><ele>280.8</ele><time>2026-04-07T16:08:46.966Z</time></trkpt><trkpt lat="43.3194517" lon="11.7574683"><ele>280.4</ele><time>2026-04-07T16:08:48.965Z</time></trkpt><trkpt lat="43.3195733" lon="11.7575133"><ele>280.0</ele><time>2026-04-07T16:08:50.965Z</time></trkpt><trkpt lat="43.3196917" lon="11.7575417"><ele>279.25</ele><time>2026-04-07T16:08:52.965Z</time></trkpt><trkpt lat="43.3198117" lon="11.757555"><ele>278.5</ele><time>2026-04-07T16:08:54.965Z</time></trkpt><trkpt lat="43.3199283" lon="11.75755"><ele>277.75</ele><time>2026-04-07T16:08:56.967Z</time></trkpt><trkpt lat="43.3200533" lon="11.757535"><ele>277.0</ele><time>2026-04-07T16:08:58.966Z</time></trkpt><trkpt lat="43.320175" lon="11.75752"><ele>277.0</ele><time>2026-04-07T16:09:00.969Z</time></trkpt><trkpt lat="43.3203017" lon="11.7575133"><ele>277.0</ele><time>2026-04-07T16:09:02.969Z</time></trkpt><trkpt lat="43.3204117" lon="11.7575033"><ele>277.0</ele><time>2026-04-07T16:09:04.965Z</time></trkpt><trkpt lat="43.3205183" lon="11.7574933"><ele>277.0</ele><time>2026-04-07T16:09:06.964Z</time></trkpt><trkpt lat="43.32063" lon="11.7574867"><ele>277.0</ele><time>2026-04-07T16:09:08.964Z</time></trkpt><trkpt lat="43.3207333" lon="11.7574817"><ele>277.0</ele><time>2026-04-07T16:09:10.963Z</time></trkpt><trkpt lat="43.3208317" lon="11.75748"><ele>277.0</ele><time>2026-04-07T16:09:12.965Z</time></trkpt><trkpt lat="43.320935" lon="11.7574867"><ele>277.0</ele><time>2026-04-07T16:09:14.967Z</time></trkpt><trkpt lat="43.32103" lon="11.7574967"><ele>277.0</ele><time>2026-04-07T16:09:16.967Z</time></trkpt><trkpt lat="43.321125" lon="11.75751"><ele>277.0</ele><time>2026-04-07T16:09:18.965Z</time></trkpt><trkpt lat="43.321215" lon="11.7575283"><ele>277.0</ele><time>2026-04-07T16:09:20.966Z</time></trkpt><trkpt lat="43.321305" lon="11.75754"><ele>277.0</ele><time>2026-04-07T16:09:22.964Z</time></trkpt><trkpt lat="43.321395" lon="11.757545"><ele>277.0</ele><time>2026-04-07T16:09:24.964Z</time></trkpt><trkpt lat="43.3214917" lon="11.75756"><ele>277.0</ele><time>2026-04-07T16:09:26.968Z</time></trkpt><trkpt lat="43.32159" lon="11.75756"><ele>277.5</ele><time>2026-04-07T16:09:28.964Z</time></trkpt><trkpt lat="43.32168" lon="11.7575517"><ele>278.0</ele><time>2026-04-07T16:09:30.966Z</time></trkpt><trkpt lat="43.32177" lon="11.7575383"><ele>278.5</ele><time>2026-04-07T16:09:32.963Z</time></trkpt><trkpt lat="43.321855" lon="11.7575367"><ele>279.0</ele><time>2026-04-07T16:09:34.966Z</time></trkpt><trkpt lat="43.3219333" lon="11.7575267"><ele>279.5</ele><time>2026-04-07T16:09:36.967Z</time></trkpt><trkpt lat="43.3220117" lon="11.757505"><ele>280.0</ele><time>2026-04-07T16:09:38.967Z</time></trkpt><trkpt lat="43.3220883" lon="11.757495"><ele>280.0</ele><time>2026-04-07T16:09:40.968Z</time></trkpt><trkpt lat="43.3221617" lon="11.757475"><ele>280.0</ele><time>2026-04-07T16:09:42.964Z</time></trkpt><trkpt lat="43.32225" lon="11.7574317"><ele>280.0</ele><time>2026-04-07T16:09:44.968Z</time></trkpt><trkpt lat="43.322335" lon="11.7573967"><ele>280.0</ele><time>2026-04-07T16:09:46.965Z</time></trkpt><trkpt lat="43.322415" lon="11.7573633"><ele>280.0</ele><time>2026-04-07T16:09:48.971Z</time></trkpt><trkpt lat="43.3224817" lon="11.7573333"><ele>280.0</ele><time>2026-04-07T16:09:50.966Z</time></trkpt><trkpt lat="43.3225483" lon="11.7573"><ele>279.8</ele><time>2026-04-07T16:09:52.967Z</time></trkpt><trkpt lat="43.3226317" lon="11.75726"><ele>279.6</ele><time>2026-04-07T16:09:54.967Z</time></trkpt><trkpt lat="43.3227167" lon="11.757225"><ele>279.4</ele><time>2026-04-07T16:09:56.967Z</time></trkpt><trkpt lat="43.3228" lon="11.7571867"><ele>279.2</ele><time>2026-04-07T16:09:58.967Z</time></trkpt><trkpt lat="43.32289" lon="11.7571467"><ele>279.0</ele><time>2026-04-07T16:10:00.968Z</time></trkpt><trkpt lat="43.3229817" lon="11.7571033"><ele>278.8</ele><time>2026-04-07T16:10:02.966Z</time></trkpt><trkpt lat="43.323075" lon="11.7570583"><ele>278.59999999999997</ele><time>2026-04-07T16:10:04.965Z</time></trkpt><trkpt lat="43.3231633" lon="11.75701"><ele>278.4</ele><time>2026-04-07T16:10:06.968Z</time></trkpt><trkpt lat="43.3232517" lon="11.7569517"><ele>278.2</ele><time>2026-04-07T16:10:08.969Z</time></trkpt><trkpt lat="43.3233383" lon="11.7568933"><ele>278.0</ele><time>2026-04-07T16:10:10.966Z</time></trkpt><trkpt lat="43.323425" lon="11.7568183"><ele>278.0</ele><time>2026-04-07T16:10:12.966Z</time></trkpt><trkpt lat="43.3235067" lon="11.7567767"><ele>278.0</ele><time>2026-04-07T16:10:14.966Z</time></trkpt><trkpt lat="43.323575" lon="11.7567317"><ele>278.0</ele><time>2026-04-07T16:10:16.964Z</time></trkpt><trkpt lat="43.3236467" lon="11.7566917"><ele>278.0</ele><time>2026-04-07T16:10:18.968Z</time></trkpt><trkpt lat="43.323715" lon="11.75666"><ele>278.0</ele><time>2026-04-07T16:10:20.966Z</time></trkpt><trkpt lat="43.3237917" lon="11.75661"><ele>278.0</ele><time>2026-04-07T16:10:22.967Z</time></trkpt><trkpt lat="43.3238633" lon="11.7565717"><ele>278.33333333333337</ele><time>2026-04-07T16:10:24.971Z</time></trkpt><trkpt lat="43.3239367" lon="11.7565333"><ele>278.6666666666667</ele><time>2026-04-07T16:10:26.97Z</time></trkpt><trkpt lat="43.3240067" lon="11.7564783"><ele>279.0</ele><time>2026-04-07T16:10:28.966Z</time></trkpt><trkpt lat="43.3240767" lon="11.7564233"><ele>279.3333333333333</ele><time>2026-04-07T16:10:30.965Z</time></trkpt><trkpt lat="43.3241483" lon="11.7563683"><ele>279.66666666666663</ele><time>2026-04-07T16:10:32.966Z</time></trkpt><trkpt lat="43.3242167" lon="11.7563067"><ele>280.0</ele><time>2026-04-07T16:10:34.965Z</time></trkpt><trkpt lat="43.3242917" lon="11.7562283"><ele>280.0</ele><time>2026-04-07T16:10:36.964Z</time></trkpt><trkpt lat="43.3243633" lon="11.7561717"><ele>280.0</ele><time>2026-04-07T16:10:38.967Z</time></trkpt><trkpt lat="43.3244267" lon="11.75613"><ele>280.0</ele><time>2026-04-07T16:10:40.965Z</time></trkpt><trkpt lat="43.3244883" lon="11.7560983"><ele>280.0</ele><time>2026-04-07T16:10:42.967Z</time></trkpt><trkpt lat="43.3245533" lon="11.75607"><ele>280.0</ele><time>2026-04-07T16:10:44.967Z</time></trkpt><trkpt lat="43.3246117" lon="11.7560283"><ele>280.0</ele><time>2026-04-07T16:10:46.967Z</time></trkpt><trkpt lat="43.3246717" lon="11.755985"><ele>280.0</ele><time>2026-04-07T16:10:48.966Z</time></trkpt><trkpt lat="43.3247567" lon="11.7559483"><ele>280.8333333333333</ele><time>2026-04-07T16:10:51.968Z</time></trkpt><trkpt lat="43.3248433" lon="11.7558817"><ele>281.66666666666663</ele><time>2026-04-07T16:10:54.966Z</time></trkpt><trkpt lat="43.32491" lon="11.75584"><ele>282.5</ele><time>2026-04-07T16:10:56.969Z</time></trkpt><trkpt lat="43.324975" lon="11.75578"><ele>283.3333333333333</ele><time>2026-04-07T16:10:58.969Z</time></trkpt><trkpt lat="43.325035" lon="11.7557467"><ele>284.1666666666667</ele><time>2026-04-07T16:11:00.967Z</time></trkpt><trkpt lat="43.325125" lon="11.755745"><ele>285.0</ele><time>2026-04-07T16:11:03.969Z</time></trkpt><trkpt lat="43.3251883" lon="11.7557283"><ele>285.0</ele><time>2026-04-07T16:11:05.965Z</time></trkpt><trkpt lat="43.3252517" lon="11.75571"><ele>285.0</ele><time>2026-04-07T16:11:07.966Z</time></trkpt><trkpt lat="43.3253467" lon="11.755685"><ele>285.0</ele><time>2026-04-07T16:11:10.968Z</time></trkpt><trkpt lat="43.3254167" lon="11.7556767"><ele>285.0</ele><time>2026-04-07T16:11:12.965Z</time></trkpt><trkpt lat="43.3254833" lon="11.7556717"><ele>285.0</ele><time>2026-04-07T16:11:14.965Z</time></trkpt><trkpt lat="43.325555" lon="11.75566"><ele>285.0</ele><time>2026-04-07T16:11:16.965Z</time></trkpt><trkpt lat="43.3256267" lon="11.7556433"><ele>285.0</ele><time>2026-04-07T16:11:18.965Z</time></trkpt><trkpt lat="43.3256917" lon="11.755635"><ele>285.1666666666667</ele><time>2026-04-07T16:11:20.967Z</time></trkpt><trkpt lat="43.3257617" lon="11.7556133"><ele>285.3333333333333</ele><time>2026-04-07T16:11:22.967Z</time></trkpt><trkpt lat="43.325835" lon="11.7555867"><ele>285.5</ele><time>2026-04-07T16:11:24.967Z</time></trkpt><trkpt lat="43.3259133" lon="11.7555433"><ele>285.66666666666663</ele><time>2026-04-07T16:11:26.968Z</time></trkpt><trkpt lat="43.3259883" lon="11.7555267"><ele>285.8333333333333</ele><time>2026-04-07T16:11:28.968Z</time></trkpt><trkpt lat="43.3260683" lon="11.7555117"><ele>286.0</ele><time>2026-04-07T16:11:30.968Z</time></trkpt><trkpt lat="43.32615" lon="11.7554883"><ele>286.0</ele><time>2026-04-07T16:11:32.966Z</time></trkpt><trkpt lat="43.3262333" lon="11.755455"><ele>286.0</ele><time>2026-04-07T16:11:34.967Z</time></trkpt><trkpt lat="43.32631" lon="11.7554383"><ele>286.0</ele><time>2026-04-07T16:11:36.965Z</time></trkpt><trkpt lat="43.3263783" lon="11.7554267"><ele>286.0</ele><time>2026-04-07T16:11:38.971Z</time></trkpt><trkpt lat="43.32645" lon="11.75541"><ele>286.0</ele><time>2026-04-07T16:11:40.965Z</time></trkpt><trkpt lat="43.3265317" lon="11.7553833"><ele>286.0</ele><time>2026-04-07T16:11:42.967Z</time></trkpt><trkpt lat="43.326625" lon="11.7553483"><ele>285.8333333333333</ele><time>2026-04-07T16:11:44.967Z</time></trkpt><trkpt lat="43.3267117" lon="11.7553283"><ele>285.66666666666663</ele><time>2026-04-07T16:11:46.964Z</time></trkpt><trkpt lat="43.3267917" lon="11.7553033"><ele>285.5</ele><time>2026-04-07T16:11:48.97Z</time></trkpt><trkpt lat="43.32687" lon="11.7552833"><ele>285.3333333333333</ele><time>2026-04-07T16:11:50.969Z</time></trkpt><trkpt lat="43.3269417" lon="11.7552717"><ele>285.1666666666667</ele><time>2026-04-07T16:11:52.965Z</time></trkpt><trkpt lat="43.3270083" lon="11.755275"><ele>285.0</ele><time>2026-04-07T16:11:54.967Z</time></trkpt><trkpt lat="43.32708" lon="11.75528"><ele>285.0</ele><time>2026-04-07T16:11:56.966Z</time></trkpt><trkpt lat="43.32716" lon="11.7552817"><ele>285.0</ele><time>2026-04-07T16:11:58.964Z</time></trkpt><trkpt lat="43.3272483" lon="11.7553"><ele>285.0</ele><time>2026-04-07T16:12:00.969Z</time></trkpt><trkpt lat="43.3273467" lon="11.7553083"><ele>285.0</ele><time>2026-04-07T16:12:02.967Z</time></trkpt><trkpt lat="43.327455" lon="11.7553183"><ele>285.0</ele><time>2026-04-07T16:12:04.965Z</time></trkpt><trkpt lat="43.3275733" lon="11.7553283"><ele>284.5</ele><time>2026-04-07T16:12:06.967Z</time></trkpt><trkpt lat="43.3276983" lon="11.7553383"><ele>284.0</ele><time>2026-04-07T16:12:08.972Z</time></trkpt><trkpt lat="43.327765" lon="11.7553417"><ele>283.5</ele><time>2026-04-07T16:12:09.968Z</time></trkpt><trkpt lat="43.3278317" lon="11.7553433"><ele>283.0</ele><time>2026-04-07T16:12:10.967Z</time></trkpt><trkpt lat="43.327895" lon="11.7553467"><ele>282.5</ele><time>2026-04-07T16:12:11.968Z</time></trkpt><trkpt lat="43.3279617" lon="11.7553483"><ele>282.0</ele><time>2026-04-07T16:12:12.971Z</time></trkpt><trkpt lat="43.3280283" lon="11.75536"><ele>281.1666666666667</ele><time>2026-04-07T16:12:13.968Z</time></trkpt><trkpt lat="43.3280933" lon="11.755365"><ele>280.3333333333333</ele><time>2026-04-07T16:12:14.966Z</time></trkpt><trkpt lat="43.3282167" lon="11.7553767"><ele>279.5</ele><time>2026-04-07T16:12:16.967Z</time></trkpt><trkpt lat="43.32828" lon="11.755385"><ele>278.66666666666663</ele><time>2026-04-07T16:12:17.97Z</time></trkpt><trkpt lat="43.3283483" lon="11.7553933"><ele>277.8333333333333</ele><time>2026-04-07T16:12:18.966Z</time></trkpt><trkpt lat="43.328415" lon="11.7553967"><ele>277.0</ele><time>2026-04-07T16:12:19.969Z</time></trkpt><trkpt lat="43.32848" lon="11.7554033"><ele>277.0</ele><time>2026-04-07T16:12:20.966Z</time></trkpt><trkpt lat="43.3285433" lon="11.7554133"><ele>277.0</ele><time>2026-04-07T16:12:21.97Z</time></trkpt><trkpt lat="43.3286567" lon="11.755435"><ele>277.0</ele><time>2026-04-07T16:12:23.968Z</time></trkpt><trkpt lat="43.32875" lon="11.7554833"><ele>277.0</ele><time>2026-04-07T16:12:25.969Z</time></trkpt><trkpt lat="43.3288183" lon="11.7555767"><ele>277.0</ele><time>2026-04-07T16:12:27.966Z</time></trkpt><trkpt lat="43.32882" lon="11.7557117"><ele>277.0</ele><time>2026-04-07T16:12:29.975Z</time></trkpt><trkpt lat="43.328775" lon="11.7558583"><ele>277.0</ele><time>2026-04-07T16:12:31.969Z</time></trkpt><trkpt lat="43.3287517" lon="11.75594"><ele>277.0</ele><time>2026-04-07T16:12:32.968Z</time></trkpt><trkpt lat="43.3287233" lon="11.7560233"><ele>277.0</ele><time>2026-04-07T16:12:33.969Z</time></trkpt><trkpt lat="43.3286983" lon="11.756115"><ele>277.0</ele><time>2026-04-07T16:12:34.965Z</time></trkpt><trkpt lat="43.3286733" lon="11.75621"><ele>277.0</ele><time>2026-04-07T16:12:35.966Z</time></trkpt><trkpt lat="43.3286467" lon="11.75631"><ele>276.5</ele><time>2026-04-07T16:12:36.968Z</time></trkpt><trkpt lat="43.3286217" lon="11.7564133"><ele>276.0</ele><time>2026-04-07T16:12:37.966Z</time></trkpt><trkpt lat="43.3285933" lon="11.7565183"><ele>275.5</ele><time>2026-04-07T16:12:38.969Z</time></trkpt><trkpt lat="43.3285667" lon="11.756625"><ele>275.0</ele><time>2026-04-07T16:12:39.968Z</time></trkpt><trkpt lat="43.3285383" lon="11.75673"><ele>274.5</ele><time>2026-04-07T16:12:40.966Z</time></trkpt><trkpt lat="43.3285133" lon="11.75684"><ele>274.0</ele><time>2026-04-07T16:12:41.966Z</time></trkpt><trkpt lat="43.3284883" lon="11.7569467"><ele>273.66666666666663</ele><time>2026-04-07T16:12:42.967Z</time></trkpt><trkpt lat="43.3284633" lon="11.7570517"><ele>273.3333333333333</ele><time>2026-04-07T16:12:43.97Z</time></trkpt><trkpt lat="43.3284383" lon="11.7571583"><ele>273.0</ele><time>2026-04-07T16:12:44.967Z</time></trkpt><trkpt lat="43.3284133" lon="11.75727"><ele>272.6666666666667</ele><time>2026-04-07T16:12:45.965Z</time></trkpt><trkpt lat="43.32839" lon="11.75738"><ele>272.33333333333337</ele><time>2026-04-07T16:12:46.964Z</time></trkpt><trkpt lat="43.3283667" lon="11.7574883"><ele>272.0</ele><time>2026-04-07T16:12:47.967Z</time></trkpt><trkpt lat="43.3283433" lon="11.757595"><ele>272.0</ele><time>2026-04-07T16:12:48.968Z</time></trkpt><trkpt lat="43.3283167" lon="11.7576967"><ele>272.0</ele><time>2026-04-07T16:12:49.968Z</time></trkpt><trkpt lat="43.32829" lon="11.7578017"><ele>272.0</ele><time>2026-04-07T16:12:50.972Z</time></trkpt><trkpt lat="43.3282633" lon="11.7579083"><ele>272.0</ele><time>2026-04-07T16:12:51.97Z</time></trkpt><trkpt lat="43.32824" lon="11.7580117"><ele>272.0</ele><time>2026-04-07T16:12:52.969Z</time></trkpt><trkpt lat="43.3282183" lon="11.758115"><ele>272.0</ele><time>2026-04-07T16:12:53.968Z</time></trkpt><trkpt lat="43.3281967" lon="11.75822"><ele>271.99999999999994</ele><time>2026-04-07T16:12:54.97Z</time></trkpt><trkpt lat="43.328175" lon="11.7583217"><ele>272.0</ele><time>2026-04-07T16:12:55.972Z</time></trkpt><trkpt lat="43.3281533" lon="11.7584217"><ele>272.0</ele><time>2026-04-07T16:12:56.97Z</time></trkpt><trkpt lat="43.3281333" lon="11.75852"><ele>272.0</ele><time>2026-04-07T16:12:57.967Z</time></trkpt><trkpt lat="43.3281133" lon="11.758615"><ele>272.0</ele><time>2026-04-07T16:12:58.966Z</time></trkpt><trkpt lat="43.328095" lon="11.7587067"><ele>271.99999999999994</ele><time>2026-04-07T16:12:59.968Z</time></trkpt><trkpt lat="43.3280767" lon="11.7587917"><ele>272.0</ele><time>2026-04-07T16:13:00.967Z</time></trkpt><trkpt lat="43.328055" lon="11.758875"><ele>271.6666666666667</ele><time>2026-04-07T16:13:01.969Z</time></trkpt><trkpt lat="43.3280317" lon="11.7589567"><ele>271.33333333333337</ele><time>2026-04-07T16:13:02.973Z</time></trkpt><trkpt lat="43.3279917" lon="11.759115"><ele>271.0</ele><time>2026-04-07T16:13:04.968Z</time></trkpt><trkpt lat="43.3279733" lon="11.7591983"><ele>270.6666666666667</ele><time>2026-04-07T16:13:05.971Z</time></trkpt><trkpt lat="43.3279567" lon="11.7592833"><ele>270.3333333333333</ele><time>2026-04-07T16:13:06.969Z</time></trkpt><trkpt lat="43.3279383" lon="11.7593733"><ele>270.0</ele><time>2026-04-07T16:13:07.97Z</time></trkpt><trkpt lat="43.3279233" lon="11.7594667"><ele>269.8333333333333</ele><time>2026-04-07T16:13:08.965Z</time></trkpt><trkpt lat="43.3279067" lon="11.7595583"><ele>269.6666666666667</ele><time>2026-04-07T16:13:09.965Z</time></trkpt><trkpt lat="43.32789" lon="11.75965"><ele>269.5</ele><time>2026-04-07T16:13:10.965Z</time></trkpt><trkpt lat="43.3278733" lon="11.7597417"><ele>269.33333333333337</ele><time>2026-04-07T16:13:11.967Z</time></trkpt><trkpt lat="43.3278583" lon="11.75983"><ele>269.1666666666667</ele><time>2026-04-07T16:13:12.968Z</time></trkpt><trkpt lat="43.3278333" lon="11.7599967"><ele>269.0</ele><time>2026-04-07T16:13:14.968Z</time></trkpt><trkpt lat="43.327825" lon="11.7601267"><ele>268.7142857142857</ele><time>2026-04-07T16:13:16.971Z</time></trkpt><trkpt lat="43.327865" lon="11.7602067"><ele>268.42857142857144</ele><time>2026-04-07T16:13:18.969Z</time></trkpt><trkpt lat="43.3279267" lon="11.7602267"><ele>268.14285714285717</ele><time>2026-04-07T16:13:20.968Z</time></trkpt><trkpt lat="43.3280067" lon="11.76024"><ele>267.8571428571429</ele><time>2026-04-07T16:13:23.969Z</time></trkpt><trkpt lat="43.3280967" lon="11.7602583"><ele>267.57142857142856</ele><time>2026-04-07T16:13:26.966Z</time></trkpt><trkpt lat="43.328165" lon="11.760265"><ele>267.28571428571433</ele><time>2026-04-07T16:13:28.966Z</time></trkpt><trkpt lat="43.328235" lon="11.7602717"><ele>267.0</ele><time>2026-04-07T16:13:30.967Z</time></trkpt><trkpt lat="43.328315" lon="11.76028"><ele>267.0</ele><time>2026-04-07T16:13:32.969Z</time></trkpt><trkpt lat="43.328395" lon="11.7602967"><ele>267.0</ele><time>2026-04-07T16:13:34.966Z</time></trkpt><trkpt lat="43.3284783" lon="11.7603183"><ele>267.0</ele><time>2026-04-07T16:13:36.97Z</time></trkpt><trkpt lat="43.3285683" lon="11.7603483"><ele>267.0</ele><time>2026-04-07T16:13:38.968Z</time></trkpt><trkpt lat="43.328655" lon="11.7604033"><ele>267.0</ele><time>2026-04-07T16:13:40.965Z</time></trkpt><trkpt lat="43.3287333" lon="11.7605067"><ele>267.0</ele><time>2026-04-07T16:13:42.969Z</time></trkpt><trkpt lat="43.3288117" lon="11.76065"><ele>267.0</ele><time>2026-04-07T16:13:44.968Z</time></trkpt><trkpt lat="43.3288517" lon="11.7607283"><ele>267.0</ele><time>2026-04-07T16:13:45.969Z</time></trkpt><trkpt lat="43.3288933" lon="11.7608133"><ele>267.0</ele><time>2026-04-07T16:13:46.966Z</time></trkpt><trkpt lat="43.3289367" lon="11.7609017"><ele>267.0</ele><time>2026-04-07T16:13:47.969Z</time></trkpt><trkpt lat="43.3289767" lon="11.7609867"><ele>267.0</ele><time>2026-04-07T16:13:48.967Z</time></trkpt><trkpt lat="43.3290183" lon="11.76107"><ele>266.14285714285717</ele><time>2026-04-07T16:13:49.971Z</time></trkpt><trkpt lat="43.3290617" lon="11.7611583"><ele>265.2857142857143</ele><time>2026-04-07T16:13:50.967Z</time></trkpt><trkpt lat="43.329105" lon="11.7612483"><ele>264.42857142857144</ele><time>2026-04-07T16:13:51.968Z</time></trkpt><trkpt lat="43.3291483" lon="11.761335"><ele>263.57142857142856</ele><time>2026-04-07T16:13:52.969Z</time></trkpt><trkpt lat="43.32919" lon="11.7614183"><ele>262.7142857142857</ele><time>2026-04-07T16:13:53.964Z</time></trkpt><trkpt lat="43.32923" lon="11.7615"><ele>261.8571428571429</ele><time>2026-04-07T16:13:54.971Z</time></trkpt><trkpt lat="43.3292683" lon="11.7615817"><ele>261.0</ele><time>2026-04-07T16:13:55.967Z</time></trkpt><trkpt lat="43.329305" lon="11.7616583"><ele>261.0</ele><time>2026-04-07T16:13:56.973Z</time></trkpt><trkpt lat="43.3293483" lon="11.761725"><ele>261.0</ele><time>2026-04-07T16:13:57.969Z</time></trkpt><trkpt lat="43.32945" lon="11.7618217"><ele>261.0</ele><time>2026-04-07T16:13:59.964Z</time></trkpt><trkpt lat="43.3295583" lon="11.7618617"><ele>261.0</ele><time>2026-04-07T16:14:01.968Z</time></trkpt><trkpt lat="43.3296667" lon="11.7618833"><ele>261.0</ele><time>2026-04-07T16:14:03.969Z</time></trkpt><trkpt lat="43.329765" lon="11.7619"><ele>261.6666666666667</ele><time>2026-04-07T16:14:05.967Z</time></trkpt><trkpt lat="43.3298567" lon="11.7619233"><ele>262.3333333333333</ele><time>2026-04-07T16:14:07.968Z</time></trkpt><trkpt lat="43.329935" lon="11.761945"><ele>263.0</ele><time>2026-04-07T16:14:09.966Z</time></trkpt><trkpt lat="43.3300167" lon="11.7619633"><ele>263.66666666666663</ele><time>2026-04-07T16:14:11.964Z</time></trkpt><trkpt lat="43.3301033" lon="11.76198"><ele>264.3333333333333</ele><time>2026-04-07T16:14:13.965Z</time></trkpt><trkpt lat="43.33018" lon="11.7620217"><ele>265.0</ele><time>2026-04-07T16:14:15.97Z</time></trkpt><trkpt lat="43.3302433" lon="11.76207"><ele>265.0</ele><time>2026-04-07T16:14:17.969Z</time></trkpt><trkpt lat="43.3302533" lon="11.7621733"><ele>265.0</ele><time>2026-04-07T16:14:19.972Z</time></trkpt><trkpt lat="43.3302467" lon="11.7622783"><ele>265.0</ele><time>2026-04-07T16:14:21.967Z</time></trkpt><trkpt lat="43.330235" lon="11.7623783"><ele>265.0</ele><time>2026-04-07T16:14:23.966Z</time></trkpt><trkpt lat="43.330225" lon="11.7624667"><ele>265.0</ele><time>2026-04-07T16:14:25.969Z</time></trkpt><trkpt lat="43.3301883" lon="11.7626067"><ele>265.0</ele><time>2026-04-07T16:14:28.968Z</time></trkpt><trkpt lat="43.3302017" lon="11.7627867"><ele>265.71428571428567</ele><time>2026-04-07T16:14:31.968Z</time></trkpt><trkpt lat="43.3302133" lon="11.7628867"><ele>266.42857142857144</ele><time>2026-04-07T16:14:34.965Z</time></trkpt><trkpt lat="43.3302183" lon="11.7629767"><ele>267.1428571428571</ele><time>2026-04-07T16:14:37.963Z</time></trkpt><trkpt lat="43.33023" lon="11.7630633"><ele>267.85714285714283</ele><time>2026-04-07T16:14:41.968Z</time></trkpt><trkpt lat="43.3302617" lon="11.7631583"><ele>268.57142857142856</ele><time>2026-04-07T16:14:45.967Z</time></trkpt><trkpt lat="43.33029" lon="11.7632467"><ele>269.2857142857143</ele><time>2026-04-07T16:14:48.968Z</time></trkpt><trkpt lat="43.330315" lon="11.763335"><ele>270.0</ele><time>2026-04-07T16:14:51.966Z</time></trkpt><trkpt lat="43.330335" lon="11.7634267"><ele>270.0</ele><time>2026-04-07T16:14:55.968Z</time></trkpt><trkpt lat="43.3303667" lon="11.76351"><ele>270.0</ele><time>2026-04-07T16:14:58.963Z</time></trkpt><trkpt lat="43.3303917" lon="11.7635933"><ele>270.0</ele><time>2026-04-07T16:15:01.965Z</time></trkpt><trkpt lat="43.33043" lon="11.76369"><ele>270.0</ele><time>2026-04-07T16:15:05.966Z</time></trkpt><trkpt lat="43.3304533" lon="11.7637733"><ele>270.0</ele><time>2026-04-07T16:15:09.969Z</time></trkpt><trkpt lat="43.3304933" lon="11.7638733"><ele>270.0</ele><time>2026-04-07T16:15:13.966Z</time></trkpt><trkpt lat="43.3305117" lon="11.76396"><ele>270.0</ele><time>2026-04-07T16:15:16.967Z</time></trkpt><trkpt lat="43.3305267" lon="11.7640633"><ele>270.2857142857143</ele><time>2026-04-07T16:15:20.968Z</time></trkpt><trkpt lat="43.33056" lon="11.7641533"><ele>270.57142857142856</ele><time>2026-04-07T16:15:24.965Z</time></trkpt><trkpt lat="43.3306" lon="11.764225"><ele>270.85714285714283</ele><time>2026-04-07T16:15:27.963Z</time></trkpt><trkpt lat="43.330635" lon="11.7643033"><ele>271.1428571428571</ele><time>2026-04-07T16:15:31.964Z</time></trkpt><trkpt lat="43.3306783" lon="11.7643733"><ele>271.42857142857144</ele><time>2026-04-07T16:15:34.969Z</time></trkpt><trkpt lat="43.330725" lon="11.76444"><ele>271.71428571428567</ele><time>2026-04-07T16:15:37.965Z</time></trkpt><trkpt lat="43.33079" lon="11.764465"><ele>272.0</ele><time>2026-04-07T16:15:55.964Z</time></trkpt><trkpt lat="43.3308517" lon="11.7644433"><ele>271.99999999999994</ele><time>2026-04-07T16:15:58.964Z</time></trkpt><trkpt lat="43.330915" lon="11.7643983"><ele>272.0</ele><time>2026-04-07T16:16:01.964Z</time></trkpt><trkpt lat="43.3309783" lon="11.76436"><ele>272.0</ele><time>2026-04-07T16:16:04.965Z</time></trkpt><trkpt lat="43.33104" lon="11.7643317"><ele>272.0</ele><time>2026-04-07T16:16:07.967Z</time></trkpt><trkpt lat="43.3311017" lon="11.7643017"><ele>272.0</ele><time>2026-04-07T16:16:10.965Z</time></trkpt><trkpt lat="43.3311633" lon="11.7642433"><ele>271.99999999999994</ele><time>2026-04-07T16:16:13.965Z</time></trkpt><trkpt lat="43.331215" lon="11.7641783"><ele>272.0</ele><time>2026-04-07T16:16:16.965Z</time></trkpt><trkpt lat="43.3312767" lon="11.7641317"><ele>272.6666666666667</ele><time>2026-04-07T16:16:19.964Z</time></trkpt><trkpt lat="43.3313383" lon="11.7640733"><ele>273.33333333333337</ele><time>2026-04-07T16:16:22.966Z</time></trkpt><trkpt lat="43.331405" lon="11.764015"><ele>274.0</ele><time>2026-04-07T16:16:25.966Z</time></trkpt><trkpt lat="43.3314767" lon="11.76395"><ele>274.6666666666667</ele><time>2026-04-07T16:16:28.964Z</time></trkpt><trkpt lat="43.3315417" lon="11.7638983"><ele>275.3333333333333</ele><time>2026-04-07T16:16:31.966Z</time></trkpt><trkpt lat="43.3316167" lon="11.763825"><ele>276.0</ele><time>2026-04-07T16:16:34.965Z</time></trkpt><trkpt lat="43.33169" lon="11.7637483"><ele>276.0</ele><time>2026-04-07T16:16:37.964Z</time></trkpt><trkpt lat="43.3317417" lon="11.7636933"><ele>276.0</ele><time>2026-04-07T16:16:39.965Z</time></trkpt><trkpt lat="43.3318017" lon="11.7636333"><ele>276.0</ele><time>2026-04-07T16:16:41.964Z</time></trkpt><trkpt lat="43.331855" lon="11.7635733"><ele>276.0</ele><time>2026-04-07T16:16:43.966Z</time></trkpt><trkpt lat="43.331905" lon="11.76352"><ele>276.0</ele><time>2026-04-07T16:16:45.966Z</time></trkpt><trkpt lat="43.3319517" lon="11.76346"><ele>276.0</ele><time>2026-04-07T16:16:47.967Z</time></trkpt><trkpt lat="43.3320267" lon="11.7633917"><ele>276.0</ele><time>2026-04-07T16:16:50.966Z</time></trkpt><trkpt lat="43.3321067" lon="11.7633333"><ele>276.0</ele><time>2026-04-07T16:16:53.966Z</time></trkpt><trkpt lat="43.33219" lon="11.7632933"><ele>276.0</ele><time>2026-04-07T16:16:56.964Z</time></trkpt><trkpt lat="43.332265" lon="11.7632383"><ele>276.0</ele><time>2026-04-07T16:16:59.966Z</time></trkpt><trkpt lat="43.33233" lon="11.76318"><ele>276.0</ele><time>2026-04-07T16:17:02.965Z</time></trkpt><trkpt lat="43.3323933" lon="11.7631183"><ele>276.0</ele><time>2026-04-07T16:17:05.967Z</time></trkpt><trkpt lat="43.3324333" lon="11.763035"><ele>276.0</ele><time>2026-04-07T16:17:08.967Z</time></trkpt><trkpt lat="43.3324483" lon="11.7629483"><ele>276.42857142857144</ele><time>2026-04-07T16:17:10.963Z</time></trkpt><trkpt lat="43.3324533" lon="11.7628567"><ele>276.8571428571429</ele><time>2026-04-07T16:17:12.965Z</time></trkpt><trkpt lat="43.332465" lon="11.7627583"><ele>277.2857142857143</ele><time>2026-04-07T16:17:15.969Z</time></trkpt><trkpt lat="43.3324767" lon="11.76266"><ele>277.7142857142857</ele><time>2026-04-07T16:17:18.966Z</time></trkpt><trkpt lat="43.332485" lon="11.7625717"><ele>278.1428571428571</ele><time>2026-04-07T16:17:22.965Z</time></trkpt><trkpt lat="43.33249" lon="11.7624833"><ele>278.57142857142856</ele><time>2026-04-07T16:17:25.965Z</time></trkpt><trkpt lat="43.3325017" lon="11.76239"><ele>279.0</ele><time>2026-04-07T16:17:28.966Z</time></trkpt><trkpt lat="43.33253" lon="11.7623083"><ele>279.0</ele><time>2026-04-07T16:17:31.971Z</time></trkpt><trkpt lat="43.3326067" lon="11.7622533"><ele>279.0</ele><time>2026-04-07T16:17:35.964Z</time></trkpt><trkpt lat="43.3326883" lon="11.7622283"><ele>279.0</ele><time>2026-04-07T16:17:38.964Z</time></trkpt><trkpt lat="43.33277" lon="11.762225"><ele>279.0</ele><time>2026-04-07T16:17:41.967Z</time></trkpt><trkpt lat="43.332855" lon="11.7622183"><ele>279.0</ele><time>2026-04-07T16:17:44.964Z</time></trkpt><trkpt lat="43.332945" lon="11.7622133"><ele>279.0</ele><time>2026-04-07T16:17:47.965Z</time></trkpt><trkpt lat="43.3330217" lon="11.7621983"><ele>279.2857142857143</ele><time>2026-04-07T16:17:50.969Z</time></trkpt><trkpt lat="43.3331" lon="11.7621883"><ele>279.57142857142856</ele><time>2026-04-07T16:17:53.968Z</time></trkpt><trkpt lat="43.333175" lon="11.7621667"><ele>279.8571428571429</ele><time>2026-04-07T16:17:56.969Z</time></trkpt><trkpt lat="43.333245" lon="11.7621567"><ele>280.1428571428571</ele><time>2026-04-07T16:17:59.965Z</time></trkpt><trkpt lat="43.3333183" lon="11.762145"><ele>280.42857142857144</ele><time>2026-04-07T16:18:02.971Z</time></trkpt><trkpt lat="43.333395" lon="11.76214"><ele>280.7142857142857</ele><time>2026-04-07T16:18:05.964Z</time></trkpt><trkpt lat="43.333465" lon="11.7621333"><ele>281.0</ele><time>2026-04-07T16:18:08.967Z</time></trkpt><trkpt lat="43.33353" lon="11.7621283"><ele>281.0</ele><time>2026-04-07T16:18:11.965Z</time></trkpt><trkpt lat="43.3336067" lon="11.762135"><ele>281.0</ele><time>2026-04-07T16:18:14.966Z</time></trkpt><trkpt lat="43.33369" lon="11.7621483"><ele>281.0</ele><time>2026-04-07T16:18:17.965Z</time></trkpt><trkpt lat="43.3337733" lon="11.76216"><ele>281.0</ele><time>2026-04-07T16:18:20.967Z</time></trkpt><trkpt lat="43.3338367" lon="11.7621567"><ele>281.0</ele><time>2026-04-07T16:18:22.965Z</time></trkpt><trkpt lat="43.333905" lon="11.7621617"><ele>281.0</ele><time>2026-04-07T16:18:25.967Z</time></trkpt><trkpt lat="43.3339883" lon="11.7621783"><ele>281.00000000000006</ele><time>2026-04-07T16:18:28.964Z</time></trkpt><trkpt lat="43.3340533" lon="11.7621883"><ele>281.0</ele><time>2026-04-07T16:18:30.965Z</time></trkpt><trkpt lat="43.3341167" lon="11.7622067"><ele>281.0</ele><time>2026-04-07T16:18:32.967Z</time></trkpt><trkpt lat="43.3341833" lon="11.7622383"><ele>281.0</ele><time>2026-04-07T16:18:34.965Z</time></trkpt><trkpt lat="43.33425" lon="11.76227"><ele>281.0</ele><time>2026-04-07T16:18:36.97Z</time></trkpt><trkpt lat="43.3343217" lon="11.7623067"><ele>281.00000000000006</ele><time>2026-04-07T16:18:38.968Z</time></trkpt><trkpt lat="43.334405" lon="11.7623467"><ele>281.0</ele><time>2026-04-07T16:18:40.969Z</time></trkpt><trkpt lat="43.334535" lon="11.7624033"><ele>281.0</ele><time>2026-04-07T16:18:42.973Z</time></trkpt><trkpt lat="43.3346017" lon="11.7624233"><ele>281.0</ele><time>2026-04-07T16:18:43.975Z</time></trkpt><trkpt lat="43.3346967" lon="11.7624567"><ele>281.0</ele><time>2026-04-07T16:18:44.967Z</time></trkpt><trkpt lat="43.3347867" lon="11.7624883"><ele>281.0</ele><time>2026-04-07T16:18:45.967Z</time></trkpt><trkpt lat="43.3348833" lon="11.7625167"><ele>281.0</ele><time>2026-04-07T16:18:46.965Z</time></trkpt><trkpt lat="43.3349767" lon="11.7625383"><ele>280.40000000000003</ele><time>2026-04-07T16:18:47.968Z</time></trkpt><trkpt lat="43.3350833" lon="11.7625567"><ele>279.8</ele><time>2026-04-07T16:18:48.969Z</time></trkpt><trkpt lat="43.3351917" lon="11.7625783"><ele>279.20000000000005</ele><time>2026-04-07T16:18:49.969Z</time></trkpt><trkpt lat="43.3353067" lon="11.7625983"><ele>278.6</ele><time>2026-04-07T16:18:50.968Z</time></trkpt><trkpt lat="43.3354217" lon="11.7626133"><ele>278.0</ele><time>2026-04-07T16:18:51.965Z</time></trkpt><trkpt lat="43.3355417" lon="11.762625"><ele>277.4</ele><time>2026-04-07T16:18:52.966Z</time></trkpt><trkpt lat="43.3356567" lon="11.7626367"><ele>276.8</ele><time>2026-04-07T16:18:53.964Z</time></trkpt><trkpt lat="43.33577" lon="11.7626433"><ele>276.2</ele><time>2026-04-07T16:18:54.97Z</time></trkpt><trkpt lat="43.33588" lon="11.7626483"><ele>275.6</ele><time>2026-04-07T16:18:55.969Z</time></trkpt><trkpt lat="43.3359883" lon="11.762655"><ele>275.0</ele><time>2026-04-07T16:18:56.968Z</time></trkpt><trkpt lat="43.3360933" lon="11.7626633"><ele>275.0</ele><time>2026-04-07T16:18:57.965Z</time></trkpt><trkpt lat="43.3361917" lon="11.7626717"><ele>275.0</ele><time>2026-04-07T16:18:58.965Z</time></trkpt><trkpt lat="43.3362867" lon="11.7626733"><ele>275.0</ele><time>2026-04-07T16:18:59.964Z</time></trkpt><trkpt lat="43.3363717" lon="11.7626817"><ele>275.0</ele><time>2026-04-07T16:19:00.967Z</time></trkpt><trkpt lat="43.3364567" lon="11.7626917"><ele>275.0</ele><time>2026-04-07T16:19:01.966Z</time></trkpt><trkpt lat="43.3365317" lon="11.762695"><ele>275.0</ele><time>2026-04-07T16:19:02.966Z</time></trkpt><trkpt lat="43.3366" lon="11.7627033"><ele>273.8</ele><time>2026-04-07T16:19:03.967Z</time></trkpt><trkpt lat="43.336665" lon="11.7627117"><ele>272.6</ele><time>2026-04-07T16:19:04.965Z</time></trkpt><trkpt lat="43.336785" lon="11.7627267"><ele>271.4</ele><time>2026-04-07T16:19:06.965Z</time></trkpt><trkpt lat="43.336895" lon="11.76274"><ele>270.2</ele><time>2026-04-07T16:19:08.969Z</time></trkpt><trkpt lat="43.3370017" lon="11.7627533"><ele>269.0</ele><time>2026-04-07T16:19:10.965Z</time></trkpt><trkpt lat="43.3371217" lon="11.7627683"><ele>269.0</ele><time>2026-04-07T16:19:12.966Z</time></trkpt><trkpt lat="43.3371867" lon="11.7627717"><ele>269.0</ele><time>2026-04-07T16:19:13.968Z</time></trkpt><trkpt lat="43.33731" lon="11.7627883"><ele>269.0</ele><time>2026-04-07T16:19:15.965Z</time></trkpt><trkpt lat="43.337435" lon="11.7628033"><ele>269.0</ele><time>2026-04-07T16:19:17.967Z</time></trkpt><trkpt lat="43.3375633" lon="11.7628167"><ele>269.0</ele><time>2026-04-07T16:19:19.964Z</time></trkpt><trkpt lat="43.3376333" lon="11.762825"><ele>268.8571428571429</ele><time>2026-04-07T16:19:20.964Z</time></trkpt><trkpt lat="43.3377" lon="11.7628367"><ele>268.7142857142857</ele><time>2026-04-07T16:19:21.971Z</time></trkpt><trkpt lat="43.33777" lon="11.7628433"><ele>268.57142857142856</ele><time>2026-04-07T16:19:22.966Z</time></trkpt><trkpt lat="43.3378433" lon="11.762855"><ele>268.42857142857144</ele><time>2026-04-07T16:19:23.97Z</time></trkpt><trkpt lat="43.3379217" lon="11.7628683"><ele>268.2857142857143</ele><time>2026-04-07T16:19:24.969Z</time></trkpt><trkpt lat="43.3379967" lon="11.76288"><ele>268.14285714285717</ele><time>2026-04-07T16:19:25.965Z</time></trkpt><trkpt lat="43.3380783" lon="11.7628883"><ele>268.0</ele><time>2026-04-07T16:19:26.967Z</time></trkpt><trkpt lat="43.3381633" lon="11.76289"><ele>267.5</ele><time>2026-04-07T16:19:27.967Z</time></trkpt><trkpt lat="43.33825" lon="11.7628933"><ele>267.0</ele><time>2026-04-07T16:19:28.969Z</time></trkpt><trkpt lat="43.33834" lon="11.7629017"><ele>266.5</ele><time>2026-04-07T16:19:29.965Z</time></trkpt><trkpt lat="43.338425" lon="11.76291"><ele>266.0</ele><time>2026-04-07T16:19:30.973Z</time></trkpt><trkpt lat="43.3385167" lon="11.7629167"><ele>265.5</ele><time>2026-04-07T16:19:31.969Z</time></trkpt><trkpt lat="43.3386067" lon="11.7629267"><ele>265.0</ele><time>2026-04-07T16:19:32.967Z</time></trkpt><trkpt lat="43.3387" lon="11.7629383"><ele>265.0</ele><time>2026-04-07T16:19:33.967Z</time></trkpt><trkpt lat="43.33879" lon="11.762945"><ele>265.0</ele><time>2026-04-07T16:19:34.964Z</time></trkpt><trkpt lat="43.3388817" lon="11.7629467"><ele>265.0</ele><time>2026-04-07T16:19:35.969Z</time></trkpt><trkpt lat="43.338975" lon="11.7629467"><ele>265.0</ele><time>2026-04-07T16:19:36.971Z</time></trkpt><trkpt lat="43.3390733" lon="11.7629483"><ele>265.0</ele><time>2026-04-07T16:19:37.968Z</time></trkpt><trkpt lat="43.339175" lon="11.762945"><ele>264.75</ele><time>2026-04-07T16:19:38.965Z</time></trkpt><trkpt lat="43.3392817" lon="11.7629433"><ele>264.5</ele><time>2026-04-07T16:19:39.965Z</time></trkpt><trkpt lat="43.3394917" lon="11.7629367"><ele>264.25</ele><time>2026-04-07T16:19:41.968Z</time></trkpt><trkpt lat="43.3395967" lon="11.7629333"><ele>264.0</ele><time>2026-04-07T16:19:42.966Z</time></trkpt><trkpt lat="43.3397033" lon="11.7629333"><ele>263.59999999999997</ele><time>2026-04-07T16:19:43.967Z</time></trkpt><trkpt lat="43.3398067" lon="11.7629367"><ele>263.2</ele><time>2026-04-07T16:19:44.969Z</time></trkpt><trkpt lat="43.33991" lon="11.7629417"><ele>262.79999999999995</ele><time>2026-04-07T16:19:45.968Z</time></trkpt><trkpt lat="43.3400133" lon="11.762945"><ele>262.4</ele><time>2026-04-07T16:19:46.967Z</time></trkpt><trkpt lat="43.3401117" lon="11.7629517"><ele>262.0</ele><time>2026-04-07T16:19:47.968Z</time></trkpt><trkpt lat="43.3402067" lon="11.7629583"><ele>262.0</ele><time>2026-04-07T16:19:48.968Z</time></trkpt><trkpt lat="43.3402983" lon="11.7629667"><ele>262.0</ele><time>2026-04-07T16:19:49.968Z</time></trkpt><trkpt lat="43.3403867" lon="11.7629767"><ele>262.0</ele><time>2026-04-07T16:19:50.968Z</time></trkpt><trkpt lat="43.34047" lon="11.7629817"><ele>262.0</ele><time>2026-04-07T16:19:51.966Z</time></trkpt><trkpt lat="43.3405533" lon="11.7629717"><ele>262.0</ele><time>2026-04-07T16:19:52.967Z</time></trkpt><trkpt lat="43.34063" lon="11.76295"><ele>262.0</ele><time>2026-04-07T16:19:53.968Z</time></trkpt><trkpt lat="43.3406983" lon="11.7629133"><ele>261.8333333333333</ele><time>2026-04-07T16:19:54.967Z</time></trkpt><trkpt lat="43.340755" lon="11.7628567"><ele>261.66666666666663</ele><time>2026-04-07T16:19:55.967Z</time></trkpt><trkpt lat="43.3408017" lon="11.76279"><ele>261.5</ele><time>2026-04-07T16:19:56.969Z</time></trkpt><trkpt lat="43.34084" lon="11.76272"><ele>261.3333333333333</ele><time>2026-04-07T16:19:57.968Z</time></trkpt><trkpt lat="43.3409133" lon="11.76259"><ele>261.1666666666667</ele><time>2026-04-07T16:19:59.963Z</time></trkpt><trkpt lat="43.3409767" lon="11.7624833"><ele>261.0</ele><time>2026-04-07T16:20:01.962Z</time></trkpt><trkpt lat="43.3410267" lon="11.7624033"><ele>261.3333333333333</ele><time>2026-04-07T16:20:03.967Z</time></trkpt><trkpt lat="43.3410817" lon="11.7623167"><ele>261.6666666666667</ele><time>2026-04-07T16:20:06.969Z</time></trkpt><trkpt lat="43.3411383" lon="11.762225"><ele>262.0</ele><time>2026-04-07T16:20:09.966Z</time></trkpt><trkpt lat="43.3411833" lon="11.7621617"><ele>262.33333333333337</ele><time>2026-04-07T16:20:11.966Z</time></trkpt><trkpt lat="43.3412283" lon="11.7620583"><ele>262.6666666666667</ele><time>2026-04-07T16:20:14.967Z</time></trkpt><trkpt lat="43.3412633" lon="11.7619567"><ele>263.0</ele><time>2026-04-07T16:20:17.966Z</time></trkpt><trkpt lat="43.3412983" lon="11.7618733"><ele>263.42857142857144</ele><time>2026-04-07T16:20:20.964Z</time></trkpt><trkpt lat="43.3413383" lon="11.7617833"><ele>263.85714285714283</ele><time>2026-04-07T16:20:23.967Z</time></trkpt><trkpt lat="43.3413617" lon="11.761685"><ele>264.2857142857143</ele><time>2026-04-07T16:20:26.968Z</time></trkpt><trkpt lat="43.3413717" lon="11.761585"><ele>264.7142857142857</ele><time>2026-04-07T16:20:29.964Z</time></trkpt><trkpt lat="43.3413867" lon="11.7615"><ele>265.1428571428571</ele><time>2026-04-07T16:20:32.968Z</time></trkpt><trkpt lat="43.3413967" lon="11.761405"><ele>265.57142857142856</ele><time>2026-04-07T16:20:35.968Z</time></trkpt><trkpt lat="43.3414033" lon="11.7613183"><ele>266.0</ele><time>2026-04-07T16:20:38.97Z</time></trkpt><trkpt lat="43.341425" lon="11.7612083"><ele>267.0</ele><time>2026-04-07T16:20:42.968Z</time></trkpt><trkpt lat="43.341445" lon="11.7611117"><ele>268.0</ele><time>2026-04-07T16:20:46.968Z</time></trkpt><trkpt lat="43.34146" lon="11.7610217"><ele>269.0</ele><time>2026-04-07T16:20:49.965Z</time></trkpt><trkpt lat="43.3414783" lon="11.7608983"><ele>270.0</ele><time>2026-04-07T16:20:53.965Z</time></trkpt><trkpt lat="43.3414967" lon="11.7607783"><ele>271.0</ele><time>2026-04-07T16:20:56.963Z</time></trkpt><trkpt lat="43.34151" lon="11.76066"><ele>272.0</ele><time>2026-04-07T16:20:59.968Z</time></trkpt><trkpt lat="43.3415267" lon="11.7605417"><ele>272.33333333333337</ele><time>2026-04-07T16:21:02.969Z</time></trkpt><trkpt lat="43.34154" lon="11.76043"><ele>272.6666666666667</ele><time>2026-04-07T16:21:05.968Z</time></trkpt><trkpt lat="43.3415483" lon="11.7603317"><ele>273.0</ele><time>2026-04-07T16:21:08.967Z</time></trkpt><trkpt lat="43.34156" lon="11.7602333"><ele>273.3333333333333</ele><time>2026-04-07T16:21:11.967Z</time></trkpt><trkpt lat="43.341575" lon="11.7601167"><ele>273.66666666666663</ele><time>2026-04-07T16:21:14.967Z</time></trkpt><trkpt lat="43.3415933" lon="11.7600033"><ele>274.0</ele><time>2026-04-07T16:21:17.965Z</time></trkpt><trkpt lat="43.3416117" lon="11.75991"><ele>274.0</ele><time>2026-04-07T16:21:20.967Z</time></trkpt><trkpt lat="43.34163" lon="11.7597983"><ele>274.0</ele><time>2026-04-07T16:21:23.965Z</time></trkpt><trkpt lat="43.34165" lon="11.75971"><ele>274.0</ele><time>2026-04-07T16:21:26.968Z</time></trkpt><trkpt lat="43.3416633" lon="11.7596167"><ele>274.0</ele><time>2026-04-07T16:21:29.968Z</time></trkpt><trkpt lat="43.3416783" lon="11.75952"><ele>274.0</ele><time>2026-04-07T16:21:32.966Z</time></trkpt><trkpt lat="43.3416933" lon="11.7594083"><ele>274.0</ele><time>2026-04-07T16:21:35.965Z</time></trkpt><trkpt lat="43.341705" lon="11.7592933"><ele>274.0</ele><time>2026-04-07T16:21:38.97Z</time></trkpt><trkpt lat="43.3417083" lon="11.7591767"><ele>274.0</ele><time>2026-04-07T16:21:41.967Z</time></trkpt><trkpt lat="43.3417067" lon="11.75906"><ele>274.0</ele><time>2026-04-07T16:21:44.965Z</time></trkpt><trkpt lat="43.3417017" lon="11.758935"><ele>274.0</ele><time>2026-04-07T16:21:47.969Z</time></trkpt><trkpt lat="43.341685" lon="11.7588117"><ele>274.0</ele><time>2026-04-07T16:21:50.968Z</time></trkpt><trkpt lat="43.3416717" lon="11.7586917"><ele>274.0</ele><time>2026-04-07T16:21:53.966Z</time></trkpt><trkpt lat="43.3416567" lon="11.7585683"><ele>274.14285714285717</ele><time>2026-04-07T16:21:56.97Z</time></trkpt><trkpt lat="43.34165" lon="11.75845"><ele>274.2857142857143</ele><time>2026-04-07T16:21:59.971Z</time></trkpt><trkpt lat="43.341645" lon="11.758325"><ele>274.42857142857144</ele><time>2026-04-07T16:22:02.966Z</time></trkpt><trkpt lat="43.341645" lon="11.758235"><ele>274.57142857142856</ele><time>2026-04-07T16:22:04.968Z</time></trkpt><trkpt lat="43.3416517" lon="11.758145"><ele>274.7142857142857</ele><time>2026-04-07T16:22:06.968Z</time></trkpt><trkpt lat="43.341675" lon="11.7580583"><ele>274.8571428571429</ele><time>2026-04-07T16:22:08.969Z</time></trkpt><trkpt lat="43.34171" lon="11.7579767"><ele>275.0</ele><time>2026-04-07T16:22:10.966Z</time></trkpt><trkpt lat="43.34175" lon="11.7579017"><ele>275.0</ele><time>2026-04-07T16:22:12.966Z</time></trkpt><trkpt lat="43.341795" lon="11.7578367"><ele>275.0</ele><time>2026-04-07T16:22:14.963Z</time></trkpt><trkpt lat="43.3418633" lon="11.7577883"><ele>275.0</ele><time>2026-04-07T16:22:17.969Z</time></trkpt><trkpt lat="43.341955" lon="11.7577733"><ele>275.0</ele><time>2026-04-07T16:22:20.967Z</time></trkpt><trkpt lat="43.3420533" lon="11.7577967"><ele>275.0</ele><time>2026-04-07T16:22:22.968Z</time></trkpt><trkpt lat="43.3421667" lon="11.7578233"><ele>275.0</ele><time>2026-04-07T16:22:24.968Z</time></trkpt><trkpt lat="43.3422867" lon="11.7578367"><ele>274.42857142857144</ele><time>2026-04-07T16:22:26.969Z</time></trkpt><trkpt lat="43.3423517" lon="11.7578467"><ele>273.85714285714283</ele><time>2026-04-07T16:22:27.969Z</time></trkpt><trkpt lat="43.34242" lon="11.7578517"><ele>273.2857142857143</ele><time>2026-04-07T16:22:28.966Z</time></trkpt><trkpt lat="43.342485" lon="11.75786"><ele>272.7142857142857</ele><time>2026-04-07T16:22:29.966Z</time></trkpt><trkpt lat="43.342555" lon="11.7578617"><ele>272.14285714285717</ele><time>2026-04-07T16:22:30.965Z</time></trkpt><trkpt lat="43.3426217" lon="11.7578617"><ele>271.57142857142856</ele><time>2026-04-07T16:22:31.968Z</time></trkpt><trkpt lat="43.342685" lon="11.75786"><ele>271.0</ele><time>2026-04-07T16:22:32.968Z</time></trkpt><trkpt lat="43.3427917" lon="11.7578567"><ele>271.0</ele><time>2026-04-07T16:22:34.963Z</time></trkpt><trkpt lat="43.3428733" lon="11.757855"><ele>271.0</ele><time>2026-04-07T16:22:36.966Z</time></trkpt><trkpt lat="43.3429367" lon="11.7578567"><ele>271.0</ele><time>2026-04-07T16:22:38.964Z</time></trkpt><trkpt lat="43.34301" lon="11.7578567"><ele>271.0</ele><time>2026-04-07T16:22:40.967Z</time></trkpt><trkpt lat="43.3430883" lon="11.7578617"><ele>271.0</ele><time>2026-04-07T16:22:42.965Z</time></trkpt><trkpt lat="43.343175" lon="11.7578633"><ele>271.0</ele><time>2026-04-07T16:22:44.969Z</time></trkpt><trkpt lat="43.343265" lon="11.7578533"><ele>270.3333333333333</ele><time>2026-04-07T16:22:46.965Z</time></trkpt><trkpt lat="43.3433683" lon="11.757845"><ele>269.66666666666663</ele><time>2026-04-07T16:22:48.971Z</time></trkpt><trkpt lat="43.34347" lon="11.757835"><ele>269.0</ele><time>2026-04-07T16:22:50.967Z</time></trkpt><trkpt lat="43.343555" lon="11.7578467"><ele>268.3333333333333</ele><time>2026-04-07T16:22:52.966Z</time></trkpt><trkpt lat="43.34363" lon="11.7578617"><ele>267.6666666666667</ele><time>2026-04-07T16:22:54.969Z</time></trkpt><trkpt lat="43.343695" lon="11.7578717"><ele>267.0</ele><time>2026-04-07T16:22:56.968Z</time></trkpt><trkpt lat="43.343765" lon="11.75787"><ele>267.0</ele><time>2026-04-07T16:22:59.967Z</time></trkpt><trkpt lat="43.3438417" lon="11.7578683"><ele>267.0</ele><time>2026-04-07T16:23:04.966Z</time></trkpt><trkpt lat="43.3439017" lon="11.757905"><ele>267.0</ele><time>2026-04-07T16:23:09.966Z</time></trkpt><trkpt lat="43.3438983" lon="11.7579983"><ele>267.0</ele><time>2026-04-07T16:23:13.969Z</time></trkpt><trkpt lat="43.3439183" lon="11.7580983"><ele>267.0</ele><time>2026-04-07T16:23:16.965Z</time></trkpt><trkpt lat="43.3439483" lon="11.75824"><ele>267.0</ele><time>2026-04-07T16:23:19.967Z</time></trkpt><trkpt lat="43.34397" lon="11.758335"><ele>267.42857142857144</ele><time>2026-04-07T16:23:21.965Z</time></trkpt><trkpt lat="43.34399" lon="11.7584283"><ele>267.8571428571429</ele><time>2026-04-07T16:23:23.965Z</time></trkpt><trkpt lat="43.3440083" lon="11.75852"><ele>268.2857142857143</ele><time>2026-04-07T16:23:25.966Z</time></trkpt><trkpt lat="43.3440383" lon="11.75861"><ele>268.7142857142857</ele><time>2026-04-07T16:23:27.963Z</time></trkpt><trkpt lat="43.344065" lon="11.7586983"><ele>269.1428571428571</ele><time>2026-04-07T16:23:29.964Z</time></trkpt><trkpt lat="43.3440933" lon="11.75879"><ele>269.57142857142856</ele><time>2026-04-07T16:23:31.968Z</time></trkpt><trkpt lat="43.3441233" lon="11.7588867"><ele>270.0</ele><time>2026-04-07T16:23:33.968Z</time></trkpt><trkpt lat="43.3441517" lon="11.758985"><ele>270.0</ele><time>2026-04-07T16:23:35.966Z</time></trkpt><trkpt lat="43.3441783" lon="11.7590767"><ele>270.0</ele><time>2026-04-07T16:23:37.969Z</time></trkpt><trkpt lat="43.3442067" lon="11.7591733"><ele>270.0</ele><time>2026-04-07T16:23:39.966Z</time></trkpt><trkpt lat="43.3442333" lon="11.7592683"><ele>270.0</ele><time>2026-04-07T16:23:41.971Z</time></trkpt><trkpt lat="43.3442617" lon="11.75936"><ele>270.0</ele><time>2026-04-07T16:23:43.968Z</time></trkpt><trkpt lat="43.3442933" lon="11.75945"><ele>270.0</ele><time>2026-04-07T16:23:45.966Z</time></trkpt><trkpt lat="43.3443233" lon="11.7595417"><ele>270.0</ele><time>2026-04-07T16:23:47.967Z</time></trkpt><trkpt lat="43.3443617" lon="11.7596267"><ele>269.7142857142857</ele><time>2026-04-07T16:23:49.968Z</time></trkpt><trkpt lat="43.3444033" lon="11.759715"><ele>269.4285714285714</ele><time>2026-04-07T16:23:51.969Z</time></trkpt><trkpt lat="43.34445" lon="11.7598"><ele>269.1428571428571</ele><time>2026-04-07T16:23:53.965Z</time></trkpt><trkpt lat="43.34449" lon="11.7598767"><ele>268.85714285714283</ele><time>2026-04-07T16:23:55.968Z</time></trkpt><trkpt lat="43.34453" lon="11.7599583"><ele>268.57142857142856</ele><time>2026-04-07T16:23:57.966Z</time></trkpt><trkpt lat="43.344575" lon="11.760035"><ele>268.2857142857143</ele><time>2026-04-07T16:23:59.963Z</time></trkpt><trkpt lat="43.3446083" lon="11.76011"><ele>268.0</ele><time>2026-04-07T16:24:01.967Z</time></trkpt><trkpt lat="43.344645" lon="11.7601883"><ele>268.5</ele><time>2026-04-07T16:24:03.969Z</time></trkpt><trkpt lat="43.34468" lon="11.7602733"><ele>269.0</ele><time>2026-04-07T16:24:05.967Z</time></trkpt><trkpt lat="43.344705" lon="11.7603633"><ele>269.5</ele><time>2026-04-07T16:24:07.968Z</time></trkpt><trkpt lat="43.3447433" lon="11.760455"><ele>270.0</ele><time>2026-04-07T16:24:09.965Z</time></trkpt><trkpt lat="43.3447867" lon="11.7605533"><ele>270.5</ele><time>2026-04-07T16:24:11.967Z</time></trkpt><trkpt lat="43.344825" lon="11.7606533"><ele>271.0</ele><time>2026-04-07T16:24:13.966Z</time></trkpt><trkpt lat="43.344865" lon="11.7607617"><ele>271.0</ele><time>2026-04-07T16:24:15.968Z</time></trkpt><trkpt lat="43.34491" lon="11.7608617"><ele>271.0</ele><time>2026-04-07T16:24:17.968Z</time></trkpt><trkpt lat="43.3449533" lon="11.7609667"><ele>271.0</ele><time>2026-04-07T16:24:19.97Z</time></trkpt><trkpt lat="43.3449983" lon="11.7610767"><ele>271.0</ele><time>2026-04-07T16:24:21.967Z</time></trkpt><trkpt lat="43.345045" lon="11.7611933"><ele>271.0</ele><time>2026-04-07T16:24:23.971Z</time></trkpt><trkpt lat="43.3451017" lon="11.761305"><ele>270.3333333333333</ele><time>2026-04-07T16:24:25.966Z</time></trkpt><trkpt lat="43.345155" lon="11.7614317"><ele>269.66666666666663</ele><time>2026-04-07T16:24:27.967Z</time></trkpt><trkpt lat="43.345215" lon="11.761575"><ele>269.0</ele><time>2026-04-07T16:24:29.966Z</time></trkpt><trkpt lat="43.3452467" lon="11.7616567"><ele>268.3333333333333</ele><time>2026-04-07T16:24:30.967Z</time></trkpt><trkpt lat="43.3452767" lon="11.7617433"><ele>267.6666666666667</ele><time>2026-04-07T16:24:31.968Z</time></trkpt><trkpt lat="43.3453067" lon="11.7618367"><ele>267.0</ele><time>2026-04-07T16:24:32.969Z</time></trkpt><trkpt lat="43.3453417" lon="11.76194"><ele>266.5</ele><time>2026-04-07T16:24:33.965Z</time></trkpt><trkpt lat="43.34538" lon="11.7620483"><ele>266.0</ele><time>2026-04-07T16:24:34.963Z</time></trkpt><trkpt lat="43.3454183" lon="11.762155"><ele>265.5</ele><time>2026-04-07T16:24:35.967Z</time></trkpt><trkpt lat="43.3454583" lon="11.7622617"><ele>265.0</ele><time>2026-04-07T16:24:36.967Z</time></trkpt><trkpt lat="43.3455" lon="11.76237"><ele>264.5</ele><time>2026-04-07T16:24:37.968Z</time></trkpt><trkpt lat="43.3455467" lon="11.7624767"><ele>264.0</ele><time>2026-04-07T16:24:38.97Z</time></trkpt><trkpt lat="43.3455933" lon="11.7625783"><ele>264.0</ele><time>2026-04-07T16:24:39.97Z</time></trkpt><trkpt lat="43.34564" lon="11.7626733"><ele>264.0</ele><time>2026-04-07T16:24:40.97Z</time></trkpt><trkpt lat="43.345685" lon="11.7627617"><ele>264.0</ele><time>2026-04-07T16:24:41.966Z</time></trkpt><trkpt lat="43.3457217" lon="11.7628433"><ele>264.0</ele><time>2026-04-07T16:24:42.974Z</time></trkpt><trkpt lat="43.3457583" lon="11.7629233"><ele>264.0</ele><time>2026-04-07T16:24:43.968Z</time></trkpt><trkpt lat="43.3458117" lon="11.7630667"><ele>264.0</ele><time>2026-04-07T16:24:45.967Z</time></trkpt><trkpt lat="43.3458417" lon="11.7632"><ele>263.8333333333333</ele><time>2026-04-07T16:24:47.968Z</time></trkpt><trkpt lat="43.3458533" lon="11.7633217"><ele>263.6666666666667</ele><time>2026-04-07T16:24:49.97Z</time></trkpt><trkpt lat="43.34585" lon="11.7634433"><ele>263.5</ele><time>2026-04-07T16:24:51.963Z</time></trkpt><trkpt lat="43.345845" lon="11.76356"><ele>263.33333333333337</ele><time>2026-04-07T16:24:53.965Z</time></trkpt><trkpt lat="43.3458433" lon="11.7636817"><ele>263.1666666666667</ele><time>2026-04-07T16:24:55.967Z</time></trkpt><trkpt lat="43.3458417" lon="11.7638133"><ele>263.0</ele><time>2026-04-07T16:24:57.965Z</time></trkpt><trkpt lat="43.34584" lon="11.7639467"><ele>262.6</ele><time>2026-04-07T16:24:59.964Z</time></trkpt><trkpt lat="43.3458417" lon="11.7640883"><ele>262.20000000000005</ele><time>2026-04-07T16:25:01.967Z</time></trkpt><trkpt lat="43.345845" lon="11.764225"><ele>261.8</ele><time>2026-04-07T16:25:03.965Z</time></trkpt><trkpt lat="43.3458483" lon="11.7643733"><ele>261.40000000000003</ele><time>2026-04-07T16:25:05.967Z</time></trkpt><trkpt lat="43.34585" lon="11.764535"><ele>261.0</ele><time>2026-04-07T16:25:07.967Z</time></trkpt><trkpt lat="43.3458483" lon="11.7647"><ele>260.8571428571429</ele><time>2026-04-07T16:25:09.969Z</time></trkpt><trkpt lat="43.3458467" lon="11.76479"><ele>260.7142857142857</ele><time>2026-04-07T16:25:10.969Z</time></trkpt><trkpt lat="43.3458483" lon="11.76488"><ele>260.57142857142856</ele><time>2026-04-07T16:25:11.971Z</time></trkpt><trkpt lat="43.34585" lon="11.7649783"><ele>260.42857142857144</ele><time>2026-04-07T16:25:12.966Z</time></trkpt><trkpt lat="43.34585" lon="11.7650733"><ele>260.2857142857143</ele><time>2026-04-07T16:25:13.969Z</time></trkpt><trkpt lat="43.3458533" lon="11.7651767"><ele>260.14285714285717</ele><time>2026-04-07T16:25:14.971Z</time></trkpt><trkpt lat="43.3458583" lon="11.76528"><ele>260.0</ele><time>2026-04-07T16:25:15.966Z</time></trkpt><trkpt lat="43.3458667" lon="11.7653833"><ele>260.0</ele><time>2026-04-07T16:25:16.966Z</time></trkpt><trkpt lat="43.34586" lon="11.76547"><ele>260.0</ele><time>2026-04-07T16:25:17.967Z</time></trkpt><trkpt lat="43.3458567" lon="11.7655617"><ele>260.0</ele><time>2026-04-07T16:25:18.968Z</time></trkpt><trkpt lat="43.3458467" lon="11.765735"><ele>260.0</ele><time>2026-04-07T16:25:20.967Z</time></trkpt><trkpt lat="43.3458283" lon="11.7659017"><ele>260.0</ele><time>2026-04-07T16:25:22.967Z</time></trkpt><trkpt lat="43.3458267" lon="11.7659983"><ele>260.0</ele><time>2026-04-07T16:25:23.965Z</time></trkpt><trkpt lat="43.345825" lon="11.7660967"><ele>260.00000000000006</ele><time>2026-04-07T16:25:24.969Z</time></trkpt><trkpt lat="43.345825" lon="11.7661967"><ele>260.0</ele><time>2026-04-07T16:25:25.967Z</time></trkpt><trkpt lat="43.3458267" lon="11.7662967"><ele>260.0</ele><time>2026-04-07T16:25:26.968Z</time></trkpt><trkpt lat="43.3458283" lon="11.7663983"><ele>260.0</ele><time>2026-04-07T16:25:27.968Z</time></trkpt><trkpt lat="43.3458283" lon="11.7664983"><ele>260.0</ele><time>2026-04-07T16:25:28.968Z</time></trkpt><trkpt lat="43.34583" lon="11.7666017"><ele>260.00000000000006</ele><time>2026-04-07T16:25:29.966Z</time></trkpt><trkpt lat="43.3458333" lon="11.7667033"><ele>260.0</ele><time>2026-04-07T16:25:30.968Z</time></trkpt><trkpt lat="43.3458383" lon="11.7668033"><ele>260.0</ele><time>2026-04-07T16:25:31.969Z</time></trkpt><trkpt lat="43.3458433" lon="11.7669083"><ele>260.0</ele><time>2026-04-07T16:25:32.969Z</time></trkpt><trkpt lat="43.3458483" lon="11.767015"><ele>260.0</ele><time>2026-04-07T16:25:33.968Z</time></trkpt><trkpt lat="43.3458583" lon="11.7671267"><ele>260.0</ele><time>2026-04-07T16:25:34.964Z</time></trkpt><trkpt lat="43.3458667" lon="11.7672333"><ele>260.0</ele><time>2026-04-07T16:25:35.967Z</time></trkpt><trkpt lat="43.3458733" lon="11.7673433"><ele>260.0</ele><time>2026-04-07T16:25:36.97Z</time></trkpt><trkpt lat="43.34588" lon="11.7674483"><ele>260.00000000000006</ele><time>2026-04-07T16:25:37.969Z</time></trkpt><trkpt lat="43.3458867" lon="11.7675517"><ele>260.0</ele><time>2026-04-07T16:25:38.967Z</time></trkpt><trkpt lat="43.3458883" lon="11.7676467"><ele>260.0</ele><time>2026-04-07T16:25:39.964Z</time></trkpt><trkpt lat="43.3458967" lon="11.7677433"><ele>260.0</ele><time>2026-04-07T16:25:40.964Z</time></trkpt><trkpt lat="43.345905" lon="11.7678417"><ele>260.0</ele><time>2026-04-07T16:25:41.966Z</time></trkpt><trkpt lat="43.34591" lon="11.7679333"><ele>260.00000000000006</ele><time>2026-04-07T16:25:42.965Z</time></trkpt><trkpt lat="43.3459167" lon="11.768025"><ele>260.0</ele><time>2026-04-07T16:25:43.966Z</time></trkpt><trkpt lat="43.34592" lon="11.7681117"><ele>260.0</ele><time>2026-04-07T16:25:44.967Z</time></trkpt><trkpt lat="43.345925" lon="11.7681983"><ele>260.0</ele><time>2026-04-07T16:25:45.967Z</time></trkpt><trkpt lat="43.3459333" lon="11.7683617"><ele>260.0</ele><time>2026-04-07T16:25:47.963Z</time></trkpt><trkpt lat="43.3459517" lon="11.7685267"><ele>260.0</ele><time>2026-04-07T16:25:49.967Z</time></trkpt><trkpt lat="43.34596" lon="11.7686883"><ele>260.0</ele><time>2026-04-07T16:25:51.964Z</time></trkpt><trkpt lat="43.3459683" lon="11.7688433"><ele>259.8</ele><time>2026-04-07T16:25:53.964Z</time></trkpt><trkpt lat="43.3459817" lon="11.7689933"><ele>259.6</ele><time>2026-04-07T16:25:55.965Z</time></trkpt><trkpt lat="43.3459833" lon="11.76913"><ele>259.4</ele><time>2026-04-07T16:25:57.965Z</time></trkpt><trkpt lat="43.3459683" lon="11.769255"><ele>259.2</ele><time>2026-04-07T16:25:59.965Z</time></trkpt><trkpt lat="43.3460033" lon="11.76937"><ele>259.0</ele><time>2026-04-07T16:26:01.969Z</time></trkpt><trkpt lat="43.34609" lon="11.769435"><ele>259.3333333333333</ele><time>2026-04-07T16:26:03.968Z</time></trkpt><trkpt lat="43.3461867" lon="11.7694883"><ele>259.66666666666663</ele><time>2026-04-07T16:26:05.967Z</time></trkpt><trkpt lat="43.3462383" lon="11.7695533"><ele>260.0</ele><time>2026-04-07T16:26:07.965Z</time></trkpt><trkpt lat="43.3462917" lon="11.7696533"><ele>260.3333333333333</ele><time>2026-04-07T16:26:10.971Z</time></trkpt><trkpt lat="43.3463367" lon="11.769725"><ele>260.6666666666667</ele><time>2026-04-07T16:26:12.966Z</time></trkpt><trkpt lat="43.346385" lon="11.769795"><ele>261.0</ele><time>2026-04-07T16:26:14.968Z</time></trkpt><trkpt lat="43.3464367" lon="11.76987"><ele>261.0</ele><time>2026-04-07T16:26:16.967Z</time></trkpt><trkpt lat="43.3465133" lon="11.7699583"><ele>261.0</ele><time>2026-04-07T16:26:19.968Z</time></trkpt><trkpt lat="43.3465667" lon="11.7700083"><ele>261.0</ele><time>2026-04-07T16:26:21.967Z</time></trkpt><trkpt lat="43.3466433" lon="11.7700917"><ele>261.0</ele><time>2026-04-07T16:26:24.966Z</time></trkpt><trkpt lat="43.3466933" lon="11.770155"><ele>261.0</ele><time>2026-04-07T16:26:26.967Z</time></trkpt><trkpt lat="43.3467483" lon="11.7702167"><ele>261.0</ele><time>2026-04-07T16:26:28.966Z</time></trkpt><trkpt lat="43.346805" lon="11.770275"><ele>261.8333333333333</ele><time>2026-04-07T16:26:30.97Z</time></trkpt><trkpt lat="43.3468683" lon="11.7703317"><ele>262.6666666666667</ele><time>2026-04-07T16:26:32.968Z</time></trkpt><trkpt lat="43.34694" lon="11.7703983"><ele>263.5</ele><time>2026-04-07T16:26:35.97Z</time></trkpt><trkpt lat="43.347015" lon="11.7704717"><ele>264.33333333333337</ele><time>2026-04-07T16:26:38.97Z</time></trkpt><trkpt lat="43.3470883" lon="11.7705383"><ele>265.1666666666667</ele><time>2026-04-07T16:26:41.967Z</time></trkpt><trkpt lat="43.3471583" lon="11.7706017"><ele>266.0</ele><time>2026-04-07T16:26:44.973Z</time></trkpt><trkpt lat="43.3472233" lon="11.77065"><ele>266.14285714285717</ele><time>2026-04-07T16:26:47.966Z</time></trkpt><trkpt lat="43.3472833" lon="11.77071"><ele>266.2857142857143</ele><time>2026-04-07T16:26:50.967Z</time></trkpt><trkpt lat="43.347345" lon="11.7707633"><ele>266.42857142857144</ele><time>2026-04-07T16:26:53.964Z</time></trkpt><trkpt lat="43.3474017" lon="11.7708117"><ele>266.57142857142856</ele><time>2026-04-07T16:26:56.968Z</time></trkpt><trkpt lat="43.347455" lon="11.770865"><ele>266.7142857142857</ele><time>2026-04-07T16:26:59.966Z</time></trkpt><trkpt lat="43.3475067" lon="11.7709167"><ele>266.8571428571429</ele><time>2026-04-07T16:27:02.967Z</time></trkpt><trkpt lat="43.3475617" lon="11.7709617"><ele>267.0</ele><time>2026-04-07T16:27:05.968Z</time></trkpt><trkpt lat="43.347615" lon="11.7710117"><ele>267.8571428571429</ele><time>2026-04-07T16:27:08.967Z</time></trkpt><trkpt lat="43.34767" lon="11.7710617"><ele>268.7142857142857</ele><time>2026-04-07T16:27:11.966Z</time></trkpt><trkpt lat="43.3477267" lon="11.7711017"><ele>269.57142857142856</ele><time>2026-04-07T16:27:14.97Z</time></trkpt><trkpt lat="43.3477817" lon="11.7711583"><ele>270.42857142857144</ele><time>2026-04-07T16:27:17.967Z</time></trkpt><trkpt lat="43.347845" lon="11.771215"><ele>271.2857142857143</ele><time>2026-04-07T16:27:21.967Z</time></trkpt><trkpt lat="43.3479167" lon="11.77127"><ele>272.14285714285717</ele><time>2026-04-07T16:27:25.967Z</time></trkpt><trkpt lat="43.347985" lon="11.7713183"><ele>273.0</ele><time>2026-04-07T16:27:28.966Z</time></trkpt><trkpt lat="43.3480383" lon="11.771365"><ele>273.0</ele><time>2026-04-07T16:27:31.967Z</time></trkpt><trkpt lat="43.3481" lon="11.7714183"><ele>273.0</ele><time>2026-04-07T16:27:35.968Z</time></trkpt><trkpt lat="43.3481633" lon="11.7714833"><ele>273.0</ele><time>2026-04-07T16:27:39.966Z</time></trkpt><trkpt lat="43.3482167" lon="11.7715383"><ele>273.0</ele><time>2026-04-07T16:27:44.968Z</time></trkpt><trkpt lat="43.3482683" lon="11.7715983"><ele>273.0</ele><time>2026-04-07T16:27:48.969Z</time></trkpt><trkpt lat="43.348325" lon="11.7716583"><ele>273.0</ele><time>2026-04-07T16:27:52.966Z</time></trkpt><trkpt lat="43.3483783" lon="11.771705"><ele>273.0</ele><time>2026-04-07T16:27:55.966Z</time></trkpt><trkpt lat="43.34843" lon="11.771755"><ele>273.0</ele><time>2026-04-07T16:27:58.966Z</time></trkpt><trkpt lat="43.348495" lon="11.7718067"><ele>273.0</ele><time>2026-04-07T16:28:01.967Z</time></trkpt><trkpt lat="43.3485567" lon="11.7718467"><ele>273.0</ele><time>2026-04-07T16:28:04.966Z</time></trkpt><trkpt lat="43.3486167" lon="11.77189"><ele>273.0</ele><time>2026-04-07T16:28:07.966Z</time></trkpt><trkpt lat="43.348675" lon="11.7719383"><ele>273.0</ele><time>2026-04-07T16:28:10.965Z</time></trkpt><trkpt lat="43.34875" lon="11.771995"><ele>273.0</ele><time>2026-04-07T16:28:14.964Z</time></trkpt><trkpt lat="43.3488117" lon="11.7720567"><ele>273.0</ele><time>2026-04-07T16:28:18.967Z</time></trkpt><trkpt lat="43.34887" lon="11.77211"><ele>274.0</ele><time>2026-04-07T16:28:22.966Z</time></trkpt><trkpt lat="43.3489267" lon="11.77216"><ele>275.0</ele><time>2026-04-07T16:28:25.969Z</time></trkpt><trkpt lat="43.348985" lon="11.7722183"><ele>276.0</ele><time>2026-04-07T16:28:29.967Z</time></trkpt><trkpt lat="43.3490467" lon="11.77228"><ele>277.0</ele><time>2026-04-07T16:28:33.968Z</time></trkpt><trkpt lat="43.3491017" lon="11.7723433"><ele>278.0</ele><time>2026-04-07T16:28:37.967Z</time></trkpt><trkpt lat="43.3491533" lon="11.7724"><ele>279.0</ele><time>2026-04-07T16:28:40.965Z</time></trkpt><trkpt lat="43.3492083" lon="11.772465"><ele>280.0</ele><time>2026-04-07T16:28:43.965Z</time></trkpt><trkpt lat="43.3492583" lon="11.7725217"><ele>280.0</ele><time>2026-04-07T16:28:46.967Z</time></trkpt><trkpt lat="43.3493133" lon="11.7725883"><ele>280.0</ele><time>2026-04-07T16:28:50.97Z</time></trkpt><trkpt lat="43.3493683" lon="11.7726517"><ele>280.0</ele><time>2026-04-07T16:28:54.968Z</time></trkpt><trkpt lat="43.3494217" lon="11.7727083"><ele>280.0</ele><time>2026-04-07T16:28:58.966Z</time></trkpt><trkpt lat="43.3494833" lon="11.7727817"><ele>280.0</ele><time>2026-04-07T16:29:02.969Z</time></trkpt><trkpt lat="43.3495367" lon="11.7728333"><ele>280.0</ele><time>2026-04-07T16:29:05.968Z</time></trkpt><trkpt lat="43.3495883" lon="11.7728933"><ele>280.0</ele><time>2026-04-07T16:29:08.971Z</time></trkpt><trkpt lat="43.34964" lon="11.7729667"><ele>280.7142857142857</ele><time>2026-04-07T16:29:12.967Z</time></trkpt><trkpt lat="43.3496917" lon="11.7730333"><ele>281.42857142857144</ele><time>2026-04-07T16:29:16.969Z</time></trkpt><trkpt lat="43.3497383" lon="11.7730933"><ele>282.1428571428571</ele><time>2026-04-07T16:29:19.968Z</time></trkpt><trkpt lat="43.34979" lon="11.7731517"><ele>282.8571428571429</ele><time>2026-04-07T16:29:22.969Z</time></trkpt><trkpt lat="43.349835" lon="11.7732133"><ele>283.57142857142856</ele><time>2026-04-07T16:29:25.968Z</time></trkpt><trkpt lat="43.349895" lon="11.77329"><ele>284.2857142857143</ele><time>2026-04-07T16:29:29.966Z</time></trkpt><trkpt lat="43.34994" lon="11.7733517"><ele>285.0</ele><time>2026-04-07T16:29:32.969Z</time></trkpt><trkpt lat="43.349985" lon="11.7734233"><ele>285.0</ele><time>2026-04-07T16:29:36.968Z</time></trkpt><trkpt lat="43.3500283" lon="11.7735083"><ele>285.0</ele><time>2026-04-07T16:29:41.965Z</time></trkpt><trkpt lat="43.350065" lon="11.7735883"><ele>285.0</ele><time>2026-04-07T16:29:45.971Z</time></trkpt><trkpt lat="43.350095" lon="11.773675"><ele>285.0</ele><time>2026-04-07T16:29:49.968Z</time></trkpt><trkpt lat="43.3501317" lon="11.77376"><ele>285.0</ele><time>2026-04-07T16:29:54.971Z</time></trkpt><trkpt lat="43.3501667" lon="11.7738383"><ele>285.0</ele><time>2026-04-07T16:29:58.969Z</time></trkpt><trkpt lat="43.3502033" lon="11.7739233"><ele>285.0</ele><time>2026-04-07T16:30:01.967Z</time></trkpt><trkpt lat="43.3502483" lon="11.774005"><ele>285.6666666666667</ele><time>2026-04-07T16:30:04.967Z</time></trkpt><trkpt lat="43.3503017" lon="11.77408"><ele>286.3333333333333</ele><time>2026-04-07T16:30:07.967Z</time></trkpt><trkpt lat="43.3503517" lon="11.774175"><ele>287.0</ele><time>2026-04-07T16:30:11.97Z</time></trkpt><trkpt lat="43.3503883" lon="11.77426"><ele>287.66666666666663</ele><time>2026-04-07T16:30:14.967Z</time></trkpt><trkpt lat="43.3504317" lon="11.7743467"><ele>288.3333333333333</ele><time>2026-04-07T16:30:17.97Z</time></trkpt><trkpt lat="43.3504833" lon="11.7744267"><ele>289.0</ele><time>2026-04-07T16:30:20.966Z</time></trkpt><trkpt lat="43.3505233" lon="11.7744983"><ele>288.8333333333333</ele><time>2026-04-07T16:30:23.966Z</time></trkpt><trkpt lat="43.3505567" lon="11.77458"><ele>288.66666666666663</ele><time>2026-04-07T16:30:26.965Z</time></trkpt><trkpt lat="43.350585" lon="11.7746817"><ele>288.5</ele><time>2026-04-07T16:30:29.966Z</time></trkpt><trkpt lat="43.3506167" lon="11.77479"><ele>288.3333333333333</ele><time>2026-04-07T16:30:32.966Z</time></trkpt><trkpt lat="43.3506383" lon="11.7749033"><ele>288.1666666666667</ele><time>2026-04-07T16:30:35.968Z</time></trkpt><trkpt lat="43.3506583" lon="11.7750317"><ele>288.0</ele><time>2026-04-07T16:30:38.966Z</time></trkpt><trkpt lat="43.3506767" lon="11.7751217"><ele>288.5714285714286</ele><time>2026-04-07T16:30:40.968Z</time></trkpt><trkpt lat="43.3506983" lon="11.7752083"><ele>289.14285714285717</ele><time>2026-04-07T16:30:42.966Z</time></trkpt><trkpt lat="43.3507183" lon="11.7752933"><ele>289.7142857142857</ele><time>2026-04-07T16:30:44.968Z</time></trkpt><trkpt lat="43.3507517" lon="11.77539"><ele>290.28571428571433</ele><time>2026-04-07T16:30:46.967Z</time></trkpt><trkpt lat="43.3507783" lon="11.7754867"><ele>290.8571428571429</ele><time>2026-04-07T16:30:48.967Z</time></trkpt><trkpt lat="43.3508" lon="11.7755767"><ele>291.42857142857144</ele><time>2026-04-07T16:30:50.97Z</time></trkpt><trkpt lat="43.350825" lon="11.7756667"><ele>292.0</ele><time>2026-04-07T16:30:52.967Z</time></trkpt><trkpt lat="43.3508617" lon="11.7757733"><ele>292.0</ele><time>2026-04-07T16:30:54.973Z</time></trkpt><trkpt lat="43.35091" lon="11.7758867"><ele>292.0</ele><time>2026-04-07T16:30:56.967Z</time></trkpt><trkpt lat="43.350955" lon="11.7759933"><ele>292.0</ele><time>2026-04-07T16:30:58.969Z</time></trkpt><trkpt lat="43.351005" lon="11.7761033"><ele>292.0</ele><time>2026-04-07T16:31:00.967Z</time></trkpt><trkpt lat="43.3510467" lon="11.7761967"><ele>292.0</ele><time>2026-04-07T16:31:02.97Z</time></trkpt><trkpt lat="43.3510933" lon="11.7762967"><ele>292.0</ele><time>2026-04-07T16:31:04.968Z</time></trkpt><trkpt lat="43.351125" lon="11.7763817"><ele>291.6</ele><time>2026-04-07T16:31:05.967Z</time></trkpt><trkpt lat="43.35119" lon="11.7765033"><ele>291.2</ele><time>2026-04-07T16:31:07.966Z</time></trkpt><trkpt lat="43.3512667" lon="11.776615"><ele>290.8</ele><time>2026-04-07T16:31:09.967Z</time></trkpt><trkpt lat="43.351345" lon="11.77672"><ele>290.4</ele><time>2026-04-07T16:31:11.967Z</time></trkpt><trkpt lat="43.3514117" lon="11.7768117"><ele>290.0</ele><time>2026-04-07T16:31:13.966Z</time></trkpt><trkpt lat="43.3514867" lon="11.7768917"><ele>289.8</ele><time>2026-04-07T16:31:15.971Z</time></trkpt><trkpt lat="43.3515633" lon="11.7769683"><ele>289.6</ele><time>2026-04-07T16:31:17.969Z</time></trkpt><trkpt lat="43.3516433" lon="11.7770367"><ele>289.4</ele><time>2026-04-07T16:31:19.964Z</time></trkpt><trkpt lat="43.3517267" lon="11.777105"><ele>289.2</ele><time>2026-04-07T16:31:21.966Z</time></trkpt><trkpt lat="43.3518017" lon="11.7771633"><ele>289.0</ele><time>2026-04-07T16:31:23.965Z</time></trkpt><trkpt lat="43.3518733" lon="11.7772183"><ele>289.0</ele><time>2026-04-07T16:31:25.965Z</time></trkpt><trkpt lat="43.3519417" lon="11.7772733"><ele>289.0</ele><time>2026-04-07T16:31:27.965Z</time></trkpt><trkpt lat="43.3520117" lon="11.7773317"><ele>289.0</ele><time>2026-04-07T16:31:29.966Z</time></trkpt><trkpt lat="43.352085" lon="11.77738"><ele>289.0</ele><time>2026-04-07T16:31:31.966Z</time></trkpt><trkpt lat="43.3521583" lon="11.77743"><ele>289.0</ele><time>2026-04-07T16:31:33.972Z</time></trkpt><trkpt lat="43.352235" lon="11.7774817"><ele>289.0</ele><time>2026-04-07T16:31:35.965Z</time></trkpt><trkpt lat="43.3523017" lon="11.777535"><ele>289.0</ele><time>2026-04-07T16:31:37.966Z</time></trkpt><trkpt lat="43.3523667" lon="11.7775883"><ele>289.0</ele><time>2026-04-07T16:31:39.968Z</time></trkpt><trkpt lat="43.352435" lon="11.7776367"><ele>289.0</ele><time>2026-04-07T16:31:41.968Z</time></trkpt><trkpt lat="43.3525033" lon="11.7776833"><ele>289.0</ele><time>2026-04-07T16:31:43.966Z</time></trkpt><trkpt lat="43.35257" lon="11.7777333"><ele>289.0</ele><time>2026-04-07T16:31:45.967Z</time></trkpt><trkpt lat="43.352635" lon="11.777775"><ele>289.0</ele><time>2026-04-07T16:31:47.967Z</time></trkpt><trkpt lat="43.352705" lon="11.7778233"><ele>289.0</ele><time>2026-04-07T16:31:49.966Z</time></trkpt><trkpt lat="43.3527733" lon="11.7778767"><ele>289.0</ele><time>2026-04-07T16:31:51.966Z</time></trkpt><trkpt lat="43.3528433" lon="11.7779283"><ele>289.0</ele><time>2026-04-07T16:31:53.965Z</time></trkpt><trkpt lat="43.3529167" lon="11.7779817"><ele>289.0</ele><time>2026-04-07T16:31:55.965Z</time></trkpt><trkpt lat="43.3529867" lon="11.7780317"><ele>289.0</ele><time>2026-04-07T16:31:57.968Z</time></trkpt><trkpt lat="43.3530533" lon="11.7780883"><ele>289.0</ele><time>2026-04-07T16:31:59.968Z</time></trkpt><trkpt lat="43.353115" lon="11.7781317"><ele>289.0</ele><time>2026-04-07T16:32:01.969Z</time></trkpt><trkpt lat="43.3531783" lon="11.77818"><ele>289.0</ele><time>2026-04-07T16:32:03.966Z</time></trkpt><trkpt lat="43.35324" lon="11.7782267"><ele>289.0</ele><time>2026-04-07T16:32:05.968Z</time></trkpt><trkpt lat="43.353305" lon="11.77827"><ele>289.0</ele><time>2026-04-07T16:32:07.967Z</time></trkpt><trkpt lat="43.3533683" lon="11.7783183"><ele>289.0</ele><time>2026-04-07T16:32:09.966Z</time></trkpt><trkpt lat="43.3534367" lon="11.778365"><ele>289.0</ele><time>2026-04-07T16:32:11.967Z</time></trkpt><trkpt lat="43.3534983" lon="11.77841"><ele>289.0</ele><time>2026-04-07T16:32:13.967Z</time></trkpt><trkpt lat="43.3535633" lon="11.7784733"><ele>289.0</ele><time>2026-04-07T16:32:15.968Z</time></trkpt><trkpt lat="43.35362" lon="11.778545"><ele>289.0</ele><time>2026-04-07T16:32:17.969Z</time></trkpt><trkpt lat="43.353675" lon="11.7786183"><ele>289.0</ele><time>2026-04-07T16:32:19.967Z</time></trkpt><trkpt lat="43.3537383" lon="11.7786933"><ele>289.0</ele><time>2026-04-07T16:32:21.968Z</time></trkpt><trkpt lat="43.353795" lon="11.778765"><ele>289.0</ele><time>2026-04-07T16:32:23.967Z</time></trkpt><trkpt lat="43.3538633" lon="11.7788433"><ele>289.0</ele><time>2026-04-07T16:32:25.964Z</time></trkpt><trkpt lat="43.3539267" lon="11.77893"><ele>289.0</ele><time>2026-04-07T16:32:27.968Z</time></trkpt><trkpt lat="43.35399" lon="11.7790083"><ele>289.0</ele><time>2026-04-07T16:32:29.964Z</time></trkpt><trkpt lat="43.3540583" lon="11.7790883"><ele>289.0</ele><time>2026-04-07T16:32:31.969Z</time></trkpt><trkpt lat="43.3541283" lon="11.7791717"><ele>289.0</ele><time>2026-04-07T16:32:33.967Z</time></trkpt><trkpt lat="43.3541917" lon="11.7792517"><ele>289.0</ele><time>2026-04-07T16:32:35.968Z</time></trkpt><trkpt lat="43.3542583" lon="11.7793333"><ele>289.0</ele><time>2026-04-07T16:32:37.966Z</time></trkpt><trkpt lat="43.35433" lon="11.7794133"><ele>289.2</ele><time>2026-04-07T16:32:39.964Z</time></trkpt><trkpt lat="43.3543967" lon="11.7795"><ele>289.4</ele><time>2026-04-07T16:32:41.966Z</time></trkpt><trkpt lat="43.3544617" lon="11.7795883"><ele>289.6</ele><time>2026-04-07T16:32:43.964Z</time></trkpt><trkpt lat="43.3545333" lon="11.77967"><ele>289.8</ele><time>2026-04-07T16:32:45.965Z</time></trkpt><trkpt lat="43.3546017" lon="11.7797533"><ele>290.0</ele><time>2026-04-07T16:32:47.967Z</time></trkpt><trkpt lat="43.354675" lon="11.77984"><ele>290.0</ele><time>2026-04-07T16:32:49.964Z</time></trkpt><trkpt lat="43.3547483" lon="11.7799267"><ele>290.0</ele><time>2026-04-07T16:32:51.966Z</time></trkpt><trkpt lat="43.35482" lon="11.7800267"><ele>290.0</ele><time>2026-04-07T16:32:53.966Z</time></trkpt><trkpt lat="43.3548967" lon="11.7801217"><ele>290.0</ele><time>2026-04-07T16:32:55.962Z</time></trkpt><trkpt lat="43.35497" lon="11.7802067"><ele>290.0</ele><time>2026-04-07T16:32:57.969Z</time></trkpt><trkpt lat="43.355035" lon="11.7802883"><ele>289.8</ele><time>2026-04-07T16:32:59.964Z</time></trkpt><trkpt lat="43.3551067" lon="11.7803733"><ele>289.6</ele><time>2026-04-07T16:33:01.969Z</time></trkpt><trkpt lat="43.3551767" lon="11.7804567"><ele>289.4</ele><time>2026-04-07T16:33:03.963Z</time></trkpt><trkpt lat="43.3552467" lon="11.7805383"><ele>289.2</ele><time>2026-04-07T16:33:05.966Z</time></trkpt><trkpt lat="43.3553167" lon="11.7806233"><ele>289.0</ele><time>2026-04-07T16:33:07.967Z</time></trkpt><trkpt lat="43.3553833" lon="11.7807117"><ele>289.0</ele><time>2026-04-07T16:33:09.968Z</time></trkpt><trkpt lat="43.3554633" lon="11.780795"><ele>289.0</ele><time>2026-04-07T16:33:11.965Z</time></trkpt><trkpt lat="43.3555367" lon="11.780865"><ele>289.0</ele><time>2026-04-07T16:33:13.968Z</time></trkpt><trkpt lat="43.3556133" lon="11.7809283"><ele>289.0</ele><time>2026-04-07T16:33:15.964Z</time></trkpt><trkpt lat="43.3556917" lon="11.7809817"><ele>289.0</ele><time>2026-04-07T16:33:17.969Z</time></trkpt><trkpt lat="43.35577" lon="11.7810317"><ele>288.66666666666663</ele><time>2026-04-07T16:33:19.967Z</time></trkpt><trkpt lat="43.355845" lon="11.7810683"><ele>288.3333333333333</ele><time>2026-04-07T16:33:21.966Z</time></trkpt><trkpt lat="43.35593" lon="11.7811017"><ele>288.0</ele><time>2026-04-07T16:33:23.97Z</time></trkpt><trkpt lat="43.356015" lon="11.7811267"><ele>287.6666666666667</ele><time>2026-04-07T16:33:25.967Z</time></trkpt><trkpt lat="43.3561033" lon="11.7811533"><ele>287.33333333333337</ele><time>2026-04-07T16:33:27.967Z</time></trkpt><trkpt lat="43.356195" lon="11.7811733"><ele>287.0</ele><time>2026-04-07T16:33:29.965Z</time></trkpt><trkpt lat="43.3562867" lon="11.7811917"><ele>287.2</ele><time>2026-04-07T16:33:31.965Z</time></trkpt><trkpt lat="43.35638" lon="11.7812117"><ele>287.4</ele><time>2026-04-07T16:33:33.969Z</time></trkpt><trkpt lat="43.35647" lon="11.7812217"><ele>287.6</ele><time>2026-04-07T16:33:35.968Z</time></trkpt><trkpt lat="43.35656" lon="11.78124"><ele>287.8</ele><time>2026-04-07T16:33:37.968Z</time></trkpt><trkpt lat="43.3566483" lon="11.781265"><ele>288.0</ele><time>2026-04-07T16:33:39.966Z</time></trkpt><trkpt lat="43.356745" lon="11.7812867"><ele>288.0</ele><time>2026-04-07T16:33:41.966Z</time></trkpt><trkpt lat="43.3568417" lon="11.78131"><ele>288.0</ele><time>2026-04-07T16:33:43.965Z</time></trkpt><trkpt lat="43.3569383" lon="11.7813367"><ele>288.0</ele><time>2026-04-07T16:33:45.968Z</time></trkpt><trkpt lat="43.357035" lon="11.7813617"><ele>288.0</ele><time>2026-04-07T16:33:47.963Z</time></trkpt><trkpt lat="43.3571317" lon="11.7813933"><ele>288.0</ele><time>2026-04-07T16:33:49.965Z</time></trkpt><trkpt lat="43.357225" lon="11.7814233"><ele>288.0</ele><time>2026-04-07T16:33:51.966Z</time></trkpt><trkpt lat="43.3573217" lon="11.78146"><ele>288.0</ele><time>2026-04-07T16:33:53.969Z</time></trkpt><trkpt lat="43.35742" lon="11.7814967"><ele>288.0</ele><time>2026-04-07T16:33:55.968Z</time></trkpt><trkpt lat="43.3575183" lon="11.7815333"><ele>288.0</ele><time>2026-04-07T16:33:57.966Z</time></trkpt><trkpt lat="43.3576167" lon="11.78158"><ele>288.0</ele><time>2026-04-07T16:33:59.965Z</time></trkpt><trkpt lat="43.3577117" lon="11.7816217"><ele>288.0</ele><time>2026-04-07T16:34:01.966Z</time></trkpt><trkpt lat="43.357805" lon="11.7816583"><ele>288.0</ele><time>2026-04-07T16:34:03.969Z</time></trkpt><trkpt lat="43.35789" lon="11.781695"><ele>288.0</ele><time>2026-04-07T16:34:05.965Z</time></trkpt><trkpt lat="43.3579567" lon="11.7817333"><ele>288.0</ele><time>2026-04-07T16:34:07.969Z</time></trkpt><trkpt lat="43.3580183" lon="11.7817767"><ele>288.0</ele><time>2026-04-07T16:34:09.965Z</time></trkpt><trkpt lat="43.35809" lon="11.7818267"><ele>288.0</ele><time>2026-04-07T16:34:11.964Z</time></trkpt><trkpt lat="43.3581483" lon="11.7818733"><ele>288.2</ele><time>2026-04-07T16:34:13.965Z</time></trkpt><trkpt lat="43.3582167" lon="11.78191"><ele>288.4</ele><time>2026-04-07T16:34:15.965Z</time></trkpt><trkpt lat="43.358305" lon="11.78195"><ele>288.59999999999997</ele><time>2026-04-07T16:34:17.97Z</time></trkpt><trkpt lat="43.3584017" lon="11.782005"><ele>288.8</ele><time>2026-04-07T16:34:19.967Z</time></trkpt><trkpt lat="43.3585033" lon="11.7820533"><ele>289.0</ele><time>2026-04-07T16:34:21.967Z</time></trkpt><trkpt lat="43.3586083" lon="11.782095"><ele>289.0</ele><time>2026-04-07T16:34:23.967Z</time></trkpt><trkpt lat="43.3587133" lon="11.7821483"><ele>289.0</ele><time>2026-04-07T16:34:25.962Z</time></trkpt><trkpt lat="43.3588167" lon="11.7822033"><ele>289.0</ele><time>2026-04-07T16:34:27.965Z</time></trkpt><trkpt lat="43.3589167" lon="11.78225"><ele>289.0</ele><time>2026-04-07T16:34:29.97Z</time></trkpt><trkpt lat="43.3590183" lon="11.7822933"><ele>289.0</ele><time>2026-04-07T16:34:31.97Z</time></trkpt><trkpt lat="43.359115" lon="11.7823383"><ele>288.2</ele><time>2026-04-07T16:34:33.968Z</time></trkpt><trkpt lat="43.3592167" lon="11.782395"><ele>287.4</ele><time>2026-04-07T16:34:35.97Z</time></trkpt><trkpt lat="43.3593167" lon="11.78246"><ele>286.6</ele><time>2026-04-07T16:34:37.968Z</time></trkpt><trkpt lat="43.3594067" lon="11.7824983"><ele>285.8</ele><time>2026-04-07T16:34:39.966Z</time></trkpt><trkpt lat="43.3594933" lon="11.7825417"><ele>285.0</ele><time>2026-04-07T16:34:41.969Z</time></trkpt><trkpt lat="43.359585" lon="11.7825833"><ele>285.0</ele><time>2026-04-07T16:34:43.967Z</time></trkpt><trkpt lat="43.3596683" lon="11.7826233"><ele>285.0</ele><time>2026-04-07T16:34:45.967Z</time></trkpt><trkpt lat="43.3597533" lon="11.78267"><ele>285.0</ele><time>2026-04-07T16:34:47.967Z</time></trkpt><trkpt lat="43.35983" lon="11.78272"><ele>285.0</ele><time>2026-04-07T16:34:49.97Z</time></trkpt><trkpt lat="43.3599067" lon="11.7827733"><ele>285.0</ele><time>2026-04-07T16:34:51.964Z</time></trkpt><trkpt lat="43.3599833" lon="11.7828317"><ele>285.0</ele><time>2026-04-07T16:34:53.965Z</time></trkpt><trkpt lat="43.3600583" lon="11.782895"><ele>285.0</ele><time>2026-04-07T16:34:55.967Z</time></trkpt><trkpt lat="43.3601267" lon="11.7829667"><ele>285.0</ele><time>2026-04-07T16:34:57.97Z</time></trkpt><trkpt lat="43.36019" lon="11.783045"><ele>285.0</ele><time>2026-04-07T16:34:59.968Z</time></trkpt><trkpt lat="43.3602483" lon="11.783125"><ele>285.0</ele><time>2026-04-07T16:35:01.964Z</time></trkpt><trkpt lat="43.360305" lon="11.7832083"><ele>285.0</ele><time>2026-04-07T16:35:03.967Z</time></trkpt><trkpt lat="43.3603633" lon="11.7832933"><ele>285.0</ele><time>2026-04-07T16:35:05.964Z</time></trkpt><trkpt lat="43.36042" lon="11.78338"><ele>285.0</ele><time>2026-04-07T16:35:07.967Z</time></trkpt><trkpt lat="43.360475" lon="11.7834683"><ele>285.0</ele><time>2026-04-07T16:35:09.966Z</time></trkpt><trkpt lat="43.36053" lon="11.78356"><ele>285.0</ele><time>2026-04-07T16:35:11.967Z</time></trkpt><trkpt lat="43.3605867" lon="11.7836533"><ele>285.0</ele><time>2026-04-07T16:35:13.965Z</time></trkpt><trkpt lat="43.3606417" lon="11.7837417"><ele>285.0</ele><time>2026-04-07T16:35:15.968Z</time></trkpt><trkpt lat="43.3607083" lon="11.78383"><ele>285.0</ele><time>2026-04-07T16:35:17.965Z</time></trkpt><trkpt lat="43.3607683" lon="11.78393"><ele>285.0</ele><time>2026-04-07T16:35:19.968Z</time></trkpt><trkpt lat="43.3608217" lon="11.7840333"><ele>285.0</ele><time>2026-04-07T16:35:21.964Z</time></trkpt><trkpt lat="43.3608767" lon="11.78412"><ele>285.0</ele><time>2026-04-07T16:35:23.966Z</time></trkpt><trkpt lat="43.3609367" lon="11.7842067"><ele>285.0</ele><time>2026-04-07T16:35:25.969Z</time></trkpt><trkpt lat="43.3610067" lon="11.78428"><ele>285.0</ele><time>2026-04-07T16:35:27.966Z</time></trkpt><trkpt lat="43.3610767" lon="11.7843267"><ele>285.0</ele><time>2026-04-07T16:35:29.968Z</time></trkpt><trkpt lat="43.36116" lon="11.7843217"><ele>285.0</ele><time>2026-04-07T16:35:31.964Z</time></trkpt><trkpt lat="43.3612467" lon="11.7842917"><ele>285.0</ele><time>2026-04-07T16:35:33.967Z</time></trkpt><trkpt lat="43.3613333" lon="11.7842683"><ele>285.0</ele><time>2026-04-07T16:35:35.968Z</time></trkpt><trkpt lat="43.3614217" lon="11.7842467"><ele>285.0</ele><time>2026-04-07T16:35:37.964Z</time></trkpt><trkpt lat="43.36152" lon="11.78422"><ele>285.0</ele><time>2026-04-07T16:35:39.965Z</time></trkpt><trkpt lat="43.3616167" lon="11.7842033"><ele>284.6</ele><time>2026-04-07T16:35:41.963Z</time></trkpt><trkpt lat="43.3617133" lon="11.7841767"><ele>284.2</ele><time>2026-04-07T16:35:43.97Z</time></trkpt><trkpt lat="43.3618083" lon="11.7841683"><ele>283.8</ele><time>2026-04-07T16:35:45.967Z</time></trkpt><trkpt lat="43.3619033" lon="11.7841783"><ele>283.4</ele><time>2026-04-07T16:35:47.971Z</time></trkpt><trkpt lat="43.36199" lon="11.784215"><ele>283.0</ele><time>2026-04-07T16:35:49.966Z</time></trkpt><trkpt lat="43.3620817" lon="11.7842467"><ele>283.0</ele><time>2026-04-07T16:35:51.968Z</time></trkpt><trkpt lat="43.36217" lon="11.7842817"><ele>283.0</ele><time>2026-04-07T16:35:53.968Z</time></trkpt><trkpt lat="43.3622517" lon="11.7843133"><ele>283.0</ele><time>2026-04-07T16:35:55.967Z</time></trkpt><trkpt lat="43.3623483" lon="11.784345"><ele>283.0</ele><time>2026-04-07T16:35:57.968Z</time></trkpt><trkpt lat="43.3624317" lon="11.7843767"><ele>283.0</ele><time>2026-04-07T16:35:59.966Z</time></trkpt><trkpt lat="43.3625217" lon="11.7844133"><ele>283.0</ele><time>2026-04-07T16:36:01.964Z</time></trkpt><trkpt lat="43.3626117" lon="11.7844483"><ele>283.0</ele><time>2026-04-07T16:36:03.966Z</time></trkpt><trkpt lat="43.3627017" lon="11.78449"><ele>283.0</ele><time>2026-04-07T16:36:05.966Z</time></trkpt><trkpt lat="43.36279" lon="11.7845333"><ele>283.0</ele><time>2026-04-07T16:36:07.965Z</time></trkpt><trkpt lat="43.3628783" lon="11.78457"><ele>283.0</ele><time>2026-04-07T16:36:09.964Z</time></trkpt><trkpt lat="43.3629667" lon="11.78461"><ele>282.6</ele><time>2026-04-07T16:36:11.966Z</time></trkpt><trkpt lat="43.3630583" lon="11.784655"><ele>282.20000000000005</ele><time>2026-04-07T16:36:13.967Z</time></trkpt><trkpt lat="43.3631517" lon="11.7847033"><ele>281.8</ele><time>2026-04-07T16:36:15.97Z</time></trkpt><trkpt lat="43.3632467" lon="11.7847433"><ele>281.40000000000003</ele><time>2026-04-07T16:36:17.968Z</time></trkpt><trkpt lat="43.36334" lon="11.7847867"><ele>281.0</ele><time>2026-04-07T16:36:19.967Z</time></trkpt><trkpt lat="43.3634367" lon="11.78483"><ele>281.0</ele><time>2026-04-07T16:36:21.965Z</time></trkpt><trkpt lat="43.3635333" lon="11.7848667"><ele>281.0</ele><time>2026-04-07T16:36:23.965Z</time></trkpt><trkpt lat="43.3636333" lon="11.7848967"><ele>281.0</ele><time>2026-04-07T16:36:25.964Z</time></trkpt><trkpt lat="43.3637333" lon="11.7849267"><ele>281.0</ele><time>2026-04-07T16:36:27.964Z</time></trkpt><trkpt lat="43.3638383" lon="11.784965"><ele>281.0</ele><time>2026-04-07T16:36:29.965Z</time></trkpt><trkpt lat="43.3639417" lon="11.7850183"><ele>280.83333333333337</ele><time>2026-04-07T16:36:31.965Z</time></trkpt><trkpt lat="43.3640583" lon="11.78507"><ele>280.6666666666667</ele><time>2026-04-07T16:36:33.964Z</time></trkpt><trkpt lat="43.3641767" lon="11.7851333"><ele>280.5</ele><time>2026-04-07T16:36:35.965Z</time></trkpt><trkpt lat="43.364235" lon="11.7851683"><ele>280.3333333333333</ele><time>2026-04-07T16:36:36.966Z</time></trkpt><trkpt lat="43.3642967" lon="11.7852167"><ele>280.16666666666663</ele><time>2026-04-07T16:36:37.963Z</time></trkpt><trkpt lat="43.364355" lon="11.7852567"><ele>280.0</ele><time>2026-04-07T16:36:38.966Z</time></trkpt><trkpt lat="43.3644167" lon="11.7852917"><ele>279.8333333333333</ele><time>2026-04-07T16:36:39.972Z</time></trkpt><trkpt lat="43.36448" lon="11.7853283"><ele>279.66666666666663</ele><time>2026-04-07T16:36:40.965Z</time></trkpt><trkpt lat="43.364545" lon="11.78536"><ele>279.5</ele><time>2026-04-07T16:36:41.967Z</time></trkpt><trkpt lat="43.36461" lon="11.78539"><ele>279.3333333333333</ele><time>2026-04-07T16:36:42.965Z</time></trkpt><trkpt lat="43.3646767" lon="11.78541"><ele>279.1666666666667</ele><time>2026-04-07T16:36:43.965Z</time></trkpt><trkpt lat="43.3648017" lon="11.785425"><ele>279.0</ele><time>2026-04-07T16:36:45.967Z</time></trkpt><trkpt lat="43.364865" lon="11.78543"><ele>278.59999999999997</ele><time>2026-04-07T16:36:46.966Z</time></trkpt><trkpt lat="43.3649833" lon="11.7854417"><ele>278.2</ele><time>2026-04-07T16:36:48.965Z</time></trkpt><trkpt lat="43.3650983" lon="11.78544"><ele>277.79999999999995</ele><time>2026-04-07T16:36:50.967Z</time></trkpt><trkpt lat="43.3651983" lon="11.7854333"><ele>277.4</ele><time>2026-04-07T16:36:52.968Z</time></trkpt><trkpt lat="43.3652967" lon="11.7854267"><ele>277.0</ele><time>2026-04-07T16:36:54.967Z</time></trkpt><trkpt lat="43.3653917" lon="11.78541"><ele>277.0</ele><time>2026-04-07T16:36:56.967Z</time></trkpt><trkpt lat="43.3654817" lon="11.7854"><ele>277.0</ele><time>2026-04-07T16:36:58.966Z</time></trkpt><trkpt lat="43.3655667" lon="11.7853933"><ele>277.0</ele><time>2026-04-07T16:37:00.97Z</time></trkpt><trkpt lat="43.3656533" lon="11.78538"><ele>277.0</ele><time>2026-04-07T16:37:02.969Z</time></trkpt><trkpt lat="43.3657433" lon="11.7853717"><ele>277.0</ele><time>2026-04-07T16:37:04.966Z</time></trkpt><trkpt lat="43.3658267" lon="11.78537"><ele>277.0</ele><time>2026-04-07T16:37:06.971Z</time></trkpt><trkpt lat="43.3659083" lon="11.7853733"><ele>277.3333333333333</ele><time>2026-04-07T16:37:08.966Z</time></trkpt><trkpt lat="43.3659917" lon="11.7853817"><ele>277.66666666666663</ele><time>2026-04-07T16:37:10.967Z</time></trkpt><trkpt lat="43.366075" lon="11.7853883"><ele>278.0</ele><time>2026-04-07T16:37:12.969Z</time></trkpt><trkpt lat="43.366165" lon="11.785395"><ele>278.3333333333333</ele><time>2026-04-07T16:37:14.971Z</time></trkpt><trkpt lat="43.3662583" lon="11.7854017"><ele>278.6666666666667</ele><time>2026-04-07T16:37:16.969Z</time></trkpt><trkpt lat="43.36635" lon="11.78541"><ele>279.0</ele><time>2026-04-07T16:37:18.968Z</time></trkpt><trkpt lat="43.3664383" lon="11.78543"><ele>279.1666666666667</ele><time>2026-04-07T16:37:20.968Z</time></trkpt><trkpt lat="43.3665267" lon="11.78545"><ele>279.3333333333333</ele><time>2026-04-07T16:37:22.964Z</time></trkpt><trkpt lat="43.366615" lon="11.7854817"><ele>279.5</ele><time>2026-04-07T16:37:24.965Z</time></trkpt><trkpt lat="43.3667" lon="11.7855167"><ele>279.66666666666663</ele><time>2026-04-07T16:37:26.965Z</time></trkpt><trkpt lat="43.366785" lon="11.7855533"><ele>279.8333333333333</ele><time>2026-04-07T16:37:28.966Z</time></trkpt><trkpt lat="43.36687" lon="11.7855967"><ele>280.0</ele><time>2026-04-07T16:37:30.965Z</time></trkpt><trkpt lat="43.3669533" lon="11.7856417"><ele>280.0</ele><time>2026-04-07T16:37:32.968Z</time></trkpt><trkpt lat="43.3670367" lon="11.78568"><ele>280.0</ele><time>2026-04-07T16:37:34.965Z</time></trkpt><trkpt lat="43.36712" lon="11.78572"><ele>280.0</ele><time>2026-04-07T16:37:36.966Z</time></trkpt><trkpt lat="43.367195" lon="11.785755"><ele>280.0</ele><time>2026-04-07T16:37:38.968Z</time></trkpt><trkpt lat="43.36727" lon="11.785785"><ele>280.0</ele><time>2026-04-07T16:37:40.968Z</time></trkpt><trkpt lat="43.3673533" lon="11.78582"><ele>280.0</ele><time>2026-04-07T16:37:42.967Z</time></trkpt><trkpt lat="43.3674333" lon="11.7858633"><ele>279.66666666666663</ele><time>2026-04-07T16:37:44.966Z</time></trkpt><trkpt lat="43.367515" lon="11.785905"><ele>279.3333333333333</ele><time>2026-04-07T16:37:46.964Z</time></trkpt><trkpt lat="43.3675917" lon="11.785945"><ele>279.0</ele><time>2026-04-07T16:37:48.965Z</time></trkpt><trkpt lat="43.3676667" lon="11.7859783"><ele>278.6666666666667</ele><time>2026-04-07T16:37:50.97Z</time></trkpt><trkpt lat="43.3677467" lon="11.7859967"><ele>278.33333333333337</ele><time>2026-04-07T16:37:52.963Z</time></trkpt><trkpt lat="43.3678283" lon="11.7860133"><ele>278.0</ele><time>2026-04-07T16:37:54.969Z</time></trkpt><trkpt lat="43.367915" lon="11.786035"><ele>278.0</ele><time>2026-04-07T16:37:56.968Z</time></trkpt><trkpt lat="43.3680083" lon="11.7860517"><ele>278.0</ele><time>2026-04-07T16:37:58.968Z</time></trkpt><trkpt lat="43.3681" lon="11.7860617"><ele>278.0</ele><time>2026-04-07T16:38:00.967Z</time></trkpt><trkpt lat="43.368185" lon="11.7860733"><ele>278.0</ele><time>2026-04-07T16:38:02.969Z</time></trkpt><trkpt lat="43.3682683" lon="11.786085"><ele>278.0</ele><time>2026-04-07T16:38:04.968Z</time></trkpt><trkpt lat="43.3683533" lon="11.7861017"><ele>278.0</ele><time>2026-04-07T16:38:06.969Z</time></trkpt><trkpt lat="43.3684383" lon="11.7861183"><ele>278.0</ele><time>2026-04-07T16:38:08.964Z</time></trkpt><trkpt lat="43.3685383" lon="11.7861283"><ele>278.0</ele><time>2026-04-07T16:38:10.969Z</time></trkpt><trkpt lat="43.3686333" lon="11.7861383"><ele>278.0</ele><time>2026-04-07T16:38:12.967Z</time></trkpt><trkpt lat="43.368715" lon="11.7861683"><ele>278.0</ele><time>2026-04-07T16:38:14.964Z</time></trkpt><trkpt lat="43.3687917" lon="11.786195"><ele>278.0</ele><time>2026-04-07T16:38:16.965Z</time></trkpt><trkpt lat="43.3688733" lon="11.7862167"><ele>278.0</ele><time>2026-04-07T16:38:18.966Z</time></trkpt><trkpt lat="43.368955" lon="11.7862317"><ele>277.83333333333337</ele><time>2026-04-07T16:38:20.967Z</time></trkpt><trkpt lat="43.36904" lon="11.7862467"><ele>277.6666666666667</ele><time>2026-04-07T16:38:22.966Z</time></trkpt><trkpt lat="43.3691317" lon="11.786255"><ele>277.5</ele><time>2026-04-07T16:38:24.966Z</time></trkpt><trkpt lat="43.369225" lon="11.7862617"><ele>277.3333333333333</ele><time>2026-04-07T16:38:26.965Z</time></trkpt><trkpt lat="43.36931" lon="11.78629"><ele>277.16666666666663</ele><time>2026-04-07T16:38:28.968Z</time></trkpt><trkpt lat="43.36939" lon="11.7863133"><ele>277.0</ele><time>2026-04-07T16:38:30.965Z</time></trkpt><trkpt lat="43.3694717" lon="11.7863317"><ele>277.0</ele><time>2026-04-07T16:38:32.964Z</time></trkpt><trkpt lat="43.36955" lon="11.78635"><ele>277.0</ele><time>2026-04-07T16:38:34.963Z</time></trkpt><trkpt lat="43.3696317" lon="11.78637"><ele>277.0</ele><time>2026-04-07T16:38:36.969Z</time></trkpt><trkpt lat="43.3697117" lon="11.7863883"><ele>277.0</ele><time>2026-04-07T16:38:38.966Z</time></trkpt><trkpt lat="43.3697883" lon="11.7864117"><ele>277.0</ele><time>2026-04-07T16:38:40.964Z</time></trkpt><trkpt lat="43.3698633" lon="11.7864317"><ele>277.0</ele><time>2026-04-07T16:38:42.968Z</time></trkpt><trkpt lat="43.3699367" lon="11.7864533"><ele>277.1428571428571</ele><time>2026-04-07T16:38:44.964Z</time></trkpt><trkpt lat="43.3700117" lon="11.7864833"><ele>277.2857142857143</ele><time>2026-04-07T16:38:46.967Z</time></trkpt><trkpt lat="43.3700817" lon="11.7865133"><ele>277.42857142857144</ele><time>2026-04-07T16:38:48.964Z</time></trkpt><trkpt lat="43.3701467" lon="11.7865533"><ele>277.57142857142856</ele><time>2026-04-07T16:38:50.963Z</time></trkpt><trkpt lat="43.3702133" lon="11.7865883"><ele>277.7142857142857</ele><time>2026-04-07T16:38:52.968Z</time></trkpt><trkpt lat="43.3702817" lon="11.7866217"><ele>277.85714285714283</ele><time>2026-04-07T16:38:54.966Z</time></trkpt><trkpt lat="43.3703533" lon="11.7866583"><ele>278.0</ele><time>2026-04-07T16:38:56.966Z</time></trkpt><trkpt lat="43.3704217" lon="11.7866933"><ele>278.0</ele><time>2026-04-07T16:38:58.963Z</time></trkpt><trkpt lat="43.37049" lon="11.786725"><ele>278.0</ele><time>2026-04-07T16:39:00.967Z</time></trkpt><trkpt lat="43.3705567" lon="11.7867567"><ele>278.0</ele><time>2026-04-07T16:39:02.967Z</time></trkpt><trkpt lat="43.3706233" lon="11.7867933"><ele>278.0</ele><time>2026-04-07T16:39:04.966Z</time></trkpt><trkpt lat="43.3706933" lon="11.7868517"><ele>278.0</ele><time>2026-04-07T16:39:07.965Z</time></trkpt><trkpt lat="43.370775" lon="11.7868783"><ele>278.0</ele><time>2026-04-07T16:39:10.968Z</time></trkpt><trkpt lat="43.3708583" lon="11.7869133"><ele>277.6666666666667</ele><time>2026-04-07T16:39:13.967Z</time></trkpt><trkpt lat="43.37093" lon="11.7869217"><ele>277.33333333333337</ele><time>2026-04-07T16:39:15.966Z</time></trkpt><trkpt lat="43.3710017" lon="11.78694"><ele>277.0</ele><time>2026-04-07T16:39:17.965Z</time></trkpt><trkpt lat="43.3710817" lon="11.7869533"><ele>276.6666666666667</ele><time>2026-04-07T16:39:19.966Z</time></trkpt><trkpt lat="43.37116" lon="11.7869733"><ele>276.3333333333333</ele><time>2026-04-07T16:39:21.967Z</time></trkpt><trkpt lat="43.3712383" lon="11.78699"><ele>276.0</ele><time>2026-04-07T16:39:23.964Z</time></trkpt><trkpt lat="43.3713183" lon="11.7870033"><ele>276.3333333333333</ele><time>2026-04-07T16:39:25.966Z</time></trkpt><trkpt lat="43.3714117" lon="11.7870117"><ele>276.6666666666667</ele><time>2026-04-07T16:39:27.966Z</time></trkpt><trkpt lat="43.3714967" lon="11.78702"><ele>277.0</ele><time>2026-04-07T16:39:29.964Z</time></trkpt><trkpt lat="43.3715783" lon="11.7870317"><ele>277.33333333333337</ele><time>2026-04-07T16:39:31.964Z</time></trkpt><trkpt lat="43.3716733" lon="11.7870383"><ele>277.6666666666667</ele><time>2026-04-07T16:39:33.967Z</time></trkpt><trkpt lat="43.37176" lon="11.7870417"><ele>278.0</ele><time>2026-04-07T16:39:35.967Z</time></trkpt><trkpt lat="43.371845" lon="11.7870483"><ele>278.0</ele><time>2026-04-07T16:39:37.966Z</time></trkpt><trkpt lat="43.3719333" lon="11.787065"><ele>278.0</ele><time>2026-04-07T16:39:39.964Z</time></trkpt><trkpt lat="43.3720267" lon="11.7870767"><ele>278.0</ele><time>2026-04-07T16:39:41.965Z</time></trkpt><trkpt lat="43.37212" lon="11.7870833"><ele>278.0</ele><time>2026-04-07T16:39:43.967Z</time></trkpt><trkpt lat="43.3722083" lon="11.7870917"><ele>278.0</ele><time>2026-04-07T16:39:45.964Z</time></trkpt><trkpt lat="43.3723017" lon="11.7870967"><ele>277.6666666666667</ele><time>2026-04-07T16:39:47.966Z</time></trkpt><trkpt lat="43.3724" lon="11.78709"><ele>277.33333333333337</ele><time>2026-04-07T16:39:49.964Z</time></trkpt><trkpt lat="43.3724933" lon="11.7870967"><ele>277.0</ele><time>2026-04-07T16:39:51.964Z</time></trkpt><trkpt lat="43.3725783" lon="11.7871017"><ele>276.6666666666667</ele><time>2026-04-07T16:39:53.969Z</time></trkpt><trkpt lat="43.3726617" lon="11.7871083"><ele>276.3333333333333</ele><time>2026-04-07T16:39:55.967Z</time></trkpt><trkpt lat="43.3727467" lon="11.7871133"><ele>276.0</ele><time>2026-04-07T16:39:57.966Z</time></trkpt><trkpt lat="43.3728333" lon="11.7871383"><ele>276.0</ele><time>2026-04-07T16:39:59.967Z</time></trkpt><trkpt lat="43.3729183" lon="11.7871617"><ele>276.0</ele><time>2026-04-07T16:40:01.972Z</time></trkpt><trkpt lat="43.3730033" lon="11.78718"><ele>276.0</ele><time>2026-04-07T16:40:03.965Z</time></trkpt><trkpt lat="43.37309" lon="11.7871967"><ele>276.0</ele><time>2026-04-07T16:40:05.964Z</time></trkpt><trkpt lat="43.3731817" lon="11.78721"><ele>276.0</ele><time>2026-04-07T16:40:07.966Z</time></trkpt><trkpt lat="43.373275" lon="11.7872183"><ele>276.0</ele><time>2026-04-07T16:40:09.967Z</time></trkpt><trkpt lat="43.3733733" lon="11.7872283"><ele>275.8</ele><time>2026-04-07T16:40:11.966Z</time></trkpt><trkpt lat="43.37347" lon="11.7872367"><ele>275.6</ele><time>2026-04-07T16:40:13.963Z</time></trkpt><trkpt lat="43.3735633" lon="11.7872533"><ele>275.4</ele><time>2026-04-07T16:40:15.965Z</time></trkpt><trkpt lat="43.37366" lon="11.7872567"><ele>275.2</ele><time>2026-04-07T16:40:17.967Z</time></trkpt><trkpt lat="43.373755" lon="11.787265"><ele>275.0</ele><time>2026-04-07T16:40:19.967Z</time></trkpt><trkpt lat="43.3738517" lon="11.78727"><ele>275.2</ele><time>2026-04-07T16:40:21.964Z</time></trkpt><trkpt lat="43.373945" lon="11.7872783"><ele>275.4</ele><time>2026-04-07T16:40:23.967Z</time></trkpt><trkpt lat="43.3740333" lon="11.787295"><ele>275.6</ele><time>2026-04-07T16:40:25.963Z</time></trkpt><trkpt lat="43.3741283" lon="11.78729"><ele>275.8</ele><time>2026-04-07T16:40:27.964Z</time></trkpt><trkpt lat="43.374225" lon="11.7872833"><ele>276.0</ele><time>2026-04-07T16:40:29.965Z</time></trkpt><trkpt lat="43.374305" lon="11.7872933"><ele>276.0</ele><time>2026-04-07T16:40:31.967Z</time></trkpt><trkpt lat="43.374375" lon="11.7873033"><ele>276.0</ele><time>2026-04-07T16:40:33.965Z</time></trkpt><trkpt lat="43.374455" lon="11.7873083"><ele>276.0</ele><time>2026-04-07T16:40:35.966Z</time></trkpt><trkpt lat="43.3745317" lon="11.7873133"><ele>276.0</ele><time>2026-04-07T16:40:37.967Z</time></trkpt><trkpt lat="43.3746083" lon="11.7873217"><ele>276.0</ele><time>2026-04-07T16:40:39.966Z</time></trkpt><trkpt lat="43.3746833" lon="11.7873167"><ele>276.0</ele><time>2026-04-07T16:40:41.966Z</time></trkpt><trkpt lat="43.3747583" lon="11.7872983"><ele>275.8333333333333</ele><time>2026-04-07T16:40:43.967Z</time></trkpt><trkpt lat="43.3748267" lon="11.7872717"><ele>275.6666666666667</ele><time>2026-04-07T16:40:45.965Z</time></trkpt><trkpt lat="43.374895" lon="11.7872283"><ele>275.5</ele><time>2026-04-07T16:40:47.967Z</time></trkpt><trkpt lat="43.37496" lon="11.7871867"><ele>275.33333333333337</ele><time>2026-04-07T16:40:49.966Z</time></trkpt><trkpt lat="43.3750283" lon="11.7871233"><ele>275.1666666666667</ele><time>2026-04-07T16:40:51.965Z</time></trkpt><trkpt lat="43.3750883" lon="11.7870533"><ele>275.0</ele><time>2026-04-07T16:40:53.967Z</time></trkpt><trkpt lat="43.3751517" lon="11.786985"><ele>275.0</ele><time>2026-04-07T16:40:55.967Z</time></trkpt><trkpt lat="43.3752133" lon="11.7869083"><ele>275.0</ele><time>2026-04-07T16:40:57.968Z</time></trkpt><trkpt lat="43.3752717" lon="11.7868367"><ele>275.0</ele><time>2026-04-07T16:40:59.967Z</time></trkpt><trkpt lat="43.3753283" lon="11.78677"><ele>275.0</ele><time>2026-04-07T16:41:01.971Z</time></trkpt><trkpt lat="43.3754033" lon="11.78674"><ele>275.0</ele><time>2026-04-07T16:41:04.967Z</time></trkpt><trkpt lat="43.3754267" lon="11.7868317"><ele>275.0</ele><time>2026-04-07T16:41:09.966Z</time></trkpt><trkpt lat="43.3754133" lon="11.7869533"><ele>275.0</ele><time>2026-04-07T16:41:12.968Z</time></trkpt><trkpt lat="43.3754117" lon="11.787045"><ele>275.0</ele><time>2026-04-07T16:41:14.973Z</time></trkpt><trkpt lat="43.3754067" lon="11.7871333"><ele>275.0</ele><time>2026-04-07T16:41:16.966Z</time></trkpt><trkpt lat="43.3754117" lon="11.7872617"><ele>275.0</ele><time>2026-04-07T16:41:19.969Z</time></trkpt><trkpt lat="43.3754083" lon="11.7873683"><ele>275.0</ele><time>2026-04-07T16:41:22.967Z</time></trkpt><trkpt lat="43.375415" lon="11.7874617"><ele>275.0</ele><time>2026-04-07T16:41:25.966Z</time></trkpt><trkpt lat="43.3754367" lon="11.7875467"><ele>275.0</ele><time>2026-04-07T16:41:30.967Z</time></trkpt><trkpt lat="43.3755117" lon="11.7875617"><ele>274.6666666666667</ele><time>2026-04-07T16:46:38.97Z</time></trkpt><trkpt lat="43.37558" lon="11.787645"><ele>274.33333333333337</ele><time>2026-04-07T16:46:57.967Z</time></trkpt><trkpt lat="43.3756283" lon="11.7877017"><ele>274.0</ele><time>2026-04-07T16:47:02.968Z</time></trkpt><trkpt lat="43.3756967" lon="11.787725"><ele>273.6666666666667</ele><time>2026-04-07T16:47:06.967Z</time></trkpt><trkpt lat="43.375775" lon="11.787745"><ele>273.3333333333333</ele><time>2026-04-07T16:47:11.965Z</time></trkpt><trkpt lat="43.375855" lon="11.7877483"><ele>273.0</ele><time>2026-04-07T16:47:16.967Z</time></trkpt><trkpt lat="43.3759417" lon="11.7877767"><ele>272.0</ele><time>2026-04-07T16:47:19.97Z</time></trkpt><trkpt lat="43.376005" lon="11.787805"><ele>272.0</ele><time>2026-04-07T16:47:21.967Z</time></trkpt><trkpt lat="43.3760633" lon="11.7878467"><ele>272.0</ele><time>2026-04-07T16:47:23.966Z</time></trkpt><trkpt lat="43.3761133" lon="11.7879083"><ele>272.0</ele><time>2026-04-07T16:47:26.966Z</time></trkpt></trkseg></trk></gpx>